<?xml version="1.0" encoding="UTF-8" standalone="no" ?>
<gpx xmlns="http://www.topografix.com/GPX/1/1" xmlns:xsi="http://www.w3.org/2001/XMLSchema-instance" xsi:schemaLocation="http://www.topografix.com/GPX/1/1 http://www.topografix.com/GPX/1/1/gpx.xsd" version="1.1" creator="VisuGPX - https://www.visugpx.com">
  <metadata>
    <name>Cyclisme sur route</name>
    <desc><![CDATA[Une superbe boucle de deux jours à travers les paysages sauvages du Mézenc et de la Haute-Ardèche, réalisée en famille ! Une belle aventure sportive représentant 131 km au total et plus de 2 250 m de dénivelé positif.

Jour 1 : Du plateau des Sucs au lac d\'Issarlès
Saint-Agrève
Départ de Saint-Agrève en direction de Fay-sur-Lignon et Chaudeyrolles avant de grimper vers Les Estables au pied du Mont Mézenc. La route bifurque ensuite par Le Béage avant de replonger vers Le Lac-d\'Issarlès pour une pause baignade bien méritée. Soirée et nuitée chaleureuse à l\'Auberge des Voyageurs d’Issarles.
]]></desc>
  </metadata>
  <trk>
    <name><![CDATA[Cyclisme sur route]]></name>
    <trkseg>
      <trkpt lat="45.01612" lon="4.38833">
        <ele>1087.003597</ele>
        <time>2026-08-23T09:14:04.977Z</time>
      </trkpt>
      <trkpt lat="45.0162" lon="4.38838">
        <ele>1087.003597</ele>
        <time>2026-08-23T09:14:12.171Z</time>
      </trkpt>
      <trkpt lat="45.01625" lon="4.38817">
        <ele>1087.003597</ele>
        <time>2026-08-23T09:16:01.223Z</time>
      </trkpt>
      <trkpt lat="45.01634" lon="4.38809">
        <ele>1087.003597</ele>
        <time>2026-08-23T09:16:05.168Z</time>
      </trkpt>
      <trkpt lat="45.01642" lon="4.38801">
        <ele>1087.003597</ele>
        <time>2026-08-23T09:16:08.172Z</time>
      </trkpt>
      <trkpt lat="45.01651" lon="4.38791">
        <ele>1087.003597</ele>
        <time>2026-08-23T09:16:11.182Z</time>
      </trkpt>
      <trkpt lat="45.01661" lon="4.3878">
        <ele>1087.003597</ele>
        <time>2026-08-23T09:16:14.170Z</time>
      </trkpt>
      <trkpt lat="45.01669" lon="4.38771">
        <ele>1087.003597</ele>
        <time>2026-08-23T09:16:17.179Z</time>
      </trkpt>
      <trkpt lat="45.01679" lon="4.38762">
        <ele>1086.980816</ele>
        <time>2026-08-23T09:16:21.175Z</time>
      </trkpt>
      <trkpt lat="45.01687" lon="4.38755">
        <ele>1086.750797</ele>
        <time>2026-08-23T09:16:25.182Z</time>
      </trkpt>
      <trkpt lat="45.01695" lon="4.38745">
        <ele>1086.512923</ele>
        <time>2026-08-23T09:16:38.171Z</time>
      </trkpt>
      <trkpt lat="45.01706" lon="4.38747">
        <ele>1086.242514</ele>
        <time>2026-08-23T09:16:42.175Z</time>
      </trkpt>
      <trkpt lat="45.01719" lon="4.38747">
        <ele>1085.948198</ele>
        <time>2026-08-23T09:16:45.183Z</time>
      </trkpt>
      <trkpt lat="45.01729" lon="4.38749">
        <ele>1085.719713</ele>
        <time>2026-08-23T09:16:47.183Z</time>
      </trkpt>
      <trkpt lat="45.01738" lon="4.38752">
        <ele>1085.488825</ele>
        <time>2026-08-23T09:16:49.173Z</time>
      </trkpt>
      <trkpt lat="45.01748" lon="4.38756">
        <ele>1085.243869</ele>
        <time>2026-08-23T09:16:51.148Z</time>
      </trkpt>
      <trkpt lat="45.01759" lon="4.38762">
        <ele>1084.976188</ele>
        <time>2026-08-23T09:16:53.171Z</time>
      </trkpt>
      <trkpt lat="45.01769" lon="4.38771">
        <ele>1084.689715</ele>
        <time>2026-08-23T09:16:55.169Z</time>
      </trkpt>
      <trkpt lat="45.0178" lon="4.3878">
        <ele>1084.40635</ele>
        <time>2026-08-23T09:16:57.173Z</time>
      </trkpt>
      <trkpt lat="45.01791" lon="4.38789">
        <ele>1084.110394</ele>
        <time>2026-08-23T09:16:59.173Z</time>
      </trkpt>
      <trkpt lat="45.01801" lon="4.38797">
        <ele>1083.829021</ele>
        <time>2026-08-23T09:17:01.184Z</time>
      </trkpt>
      <trkpt lat="45.01812" lon="4.38806">
        <ele>1083.545144</ele>
        <time>2026-08-23T09:17:03.181Z</time>
      </trkpt>
      <trkpt lat="45.01822" lon="4.38816">
        <ele>1083.250553</ele>
        <time>2026-08-23T09:17:05.171Z</time>
      </trkpt>
      <trkpt lat="45.01833" lon="4.38826">
        <ele>1082.945174</ele>
        <time>2026-08-23T09:17:07.182Z</time>
      </trkpt>
      <trkpt lat="45.01845" lon="4.38835">
        <ele>1082.4307</ele>
        <time>2026-08-23T09:17:09.183Z</time>
      </trkpt>
      <trkpt lat="45.01858" lon="4.38848">
        <ele>1081.671045</ele>
        <time>2026-08-23T09:17:11.178Z</time>
      </trkpt>
      <trkpt lat="45.01869" lon="4.38862">
        <ele>1080.94885</ele>
        <time>2026-08-23T09:17:13.172Z</time>
      </trkpt>
      <trkpt lat="45.01879" lon="4.3888">
        <ele>1080.167935</ele>
        <time>2026-08-23T09:17:15.180Z</time>
      </trkpt>
      <trkpt lat="45.01887" lon="4.38897">
        <ele>1079.435456</ele>
        <time>2026-08-23T09:17:17.182Z</time>
      </trkpt>
      <trkpt lat="45.01894" lon="4.38915">
        <ele>1078.718219</ele>
        <time>2026-08-23T09:17:19.179Z</time>
      </trkpt>
      <trkpt lat="45.01902" lon="4.38932">
        <ele>1078.027858</ele>
        <time>2026-08-23T09:17:21.186Z</time>
      </trkpt>
      <trkpt lat="45.01909" lon="4.3895">
        <ele>1077.322175</ele>
        <time>2026-08-23T09:17:23.170Z</time>
      </trkpt>
      <trkpt lat="45.01914" lon="4.38968">
        <ele>1076.636837</ele>
        <time>2026-08-23T09:17:25.171Z</time>
      </trkpt>
      <trkpt lat="45.01915" lon="4.3899">
        <ele>1075.89382</ele>
        <time>2026-08-23T09:17:27.153Z</time>
      </trkpt>
      <trkpt lat="45.01913" lon="4.39013">
        <ele>1075.069912</ele>
        <time>2026-08-23T09:17:29.177Z</time>
      </trkpt>
      <trkpt lat="45.01908" lon="4.39035">
        <ele>1074.279882</ele>
        <time>2026-08-23T09:17:31.177Z</time>
      </trkpt>
      <trkpt lat="45.01902" lon="4.39057">
        <ele>1073.586744</ele>
        <time>2026-08-23T09:17:33.180Z</time>
      </trkpt>
      <trkpt lat="45.01896" lon="4.39078">
        <ele>1072.962776</ele>
        <time>2026-08-23T09:17:35.175Z</time>
      </trkpt>
      <trkpt lat="45.01889" lon="4.39099">
        <ele>1072.312147</ele>
        <time>2026-08-23T09:17:37.180Z</time>
      </trkpt>
      <trkpt lat="45.01882" lon="4.39121">
        <ele>1071.659866</ele>
        <time>2026-08-23T09:17:39.190Z</time>
      </trkpt>
      <trkpt lat="45.01876" lon="4.39141">
        <ele>1071.051534</ele>
        <time>2026-08-23T09:17:41.182Z</time>
      </trkpt>
      <trkpt lat="45.01872" lon="4.39161">
        <ele>1070.493781</ele>
        <time>2026-08-23T09:17:43.184Z</time>
      </trkpt>
      <trkpt lat="45.01874" lon="4.39182">
        <ele>1069.918245</ele>
        <time>2026-08-23T09:17:45.188Z</time>
      </trkpt>
      <trkpt lat="45.01883" lon="4.392">
        <ele>1069.324738</ele>
        <time>2026-08-23T09:17:47.172Z</time>
      </trkpt>
      <trkpt lat="45.01891" lon="4.39215">
        <ele>1068.796245</ele>
        <time>2026-08-23T09:17:49.171Z</time>
      </trkpt>
      <trkpt lat="45.01899" lon="4.39222">
        <ele>1068.445614</ele>
        <time>2026-08-23T09:17:50.178Z</time>
      </trkpt>
      <trkpt lat="45.01912" lon="4.39231">
        <ele>1067.863152</ele>
        <time>2026-08-23T09:17:52.182Z</time>
      </trkpt>
      <trkpt lat="45.01927" lon="4.39231">
        <ele>1067.308492</ele>
        <time>2026-08-23T09:17:54.169Z</time>
      </trkpt>
      <trkpt lat="45.01938" lon="4.3922">
        <ele>1067.162436</ele>
        <time>2026-08-23T09:17:56.173Z</time>
      </trkpt>
      <trkpt lat="45.01944" lon="4.39204">
        <ele>1067.453723</ele>
        <time>2026-08-23T09:17:58.176Z</time>
      </trkpt>
      <trkpt lat="45.01949" lon="4.3919">
        <ele>1067.722088</ele>
        <time>2026-08-23T09:18:00.171Z</time>
      </trkpt>
      <trkpt lat="45.01954" lon="4.39173">
        <ele>1068.011963</ele>
        <time>2026-08-23T09:18:03.190Z</time>
      </trkpt>
      <trkpt lat="45.01959" lon="4.39159">
        <ele>1068.271058</ele>
        <time>2026-08-23T09:18:06.178Z</time>
      </trkpt>
      <trkpt lat="45.01964" lon="4.39146">
        <ele>1068.523054</ele>
        <time>2026-08-23T09:18:09.182Z</time>
      </trkpt>
      <trkpt lat="45.01971" lon="4.39134">
        <ele>1068.776852</ele>
        <time>2026-08-23T09:18:12.180Z</time>
      </trkpt>
      <trkpt lat="45.0198" lon="4.39123">
        <ele>1069.051718</ele>
        <time>2026-08-23T09:18:15.182Z</time>
      </trkpt>
      <trkpt lat="45.0199" lon="4.39111">
        <ele>1069.353358</ele>
        <time>2026-08-23T09:18:18.176Z</time>
      </trkpt>
      <trkpt lat="45.02" lon="4.39099">
        <ele>1069.661749</ele>
        <time>2026-08-23T09:18:21.188Z</time>
      </trkpt>
      <trkpt lat="45.02007" lon="4.3909">
        <ele>1069.894961</ele>
        <time>2026-08-23T09:18:23.174Z</time>
      </trkpt>
      <trkpt lat="45.02016" lon="4.39083">
        <ele>1070.134384</ele>
        <time>2026-08-23T09:18:25.173Z</time>
      </trkpt>
      <trkpt lat="45.02025" lon="4.39075">
        <ele>1070.379162</ele>
        <time>2026-08-23T09:18:27.184Z</time>
      </trkpt>
      <trkpt lat="45.02034" lon="4.39068">
        <ele>1070.622622</ele>
        <time>2026-08-23T09:18:29.176Z</time>
      </trkpt>
      <trkpt lat="45.02044" lon="4.3906">
        <ele>1070.877428</ele>
        <time>2026-08-23T09:18:31.176Z</time>
      </trkpt>
      <trkpt lat="45.02053" lon="4.39053">
        <ele>1071.123133</ele>
        <time>2026-08-23T09:18:33.182Z</time>
      </trkpt>
      <trkpt lat="45.02063" lon="4.39047">
        <ele>1071.088074</ele>
        <time>2026-08-23T09:18:35.184Z</time>
      </trkpt>
      <trkpt lat="45.02075" lon="4.39043">
        <ele>1070.888542</ele>
        <time>2026-08-23T09:18:37.182Z</time>
      </trkpt>
      <trkpt lat="45.02087" lon="4.39037">
        <ele>1070.689993</ele>
        <time>2026-08-23T09:18:39.182Z</time>
      </trkpt>
      <trkpt lat="45.02099" lon="4.39031">
        <ele>1070.491663</ele>
        <time>2026-08-23T09:18:41.176Z</time>
      </trkpt>
      <trkpt lat="45.02108" lon="4.39023">
        <ele>1070.317432</ele>
        <time>2026-08-23T09:18:43.173Z</time>
      </trkpt>
      <trkpt lat="45.02116" lon="4.39012">
        <ele>1070.134891</ele>
        <time>2026-08-23T09:18:45.193Z</time>
      </trkpt>
      <trkpt lat="45.02124" lon="4.39">
        <ele>1069.955665</ele>
        <time>2026-08-23T09:18:47.177Z</time>
      </trkpt>
      <trkpt lat="45.02131" lon="4.38988">
        <ele>1069.783005</ele>
        <time>2026-08-23T09:18:49.172Z</time>
      </trkpt>
      <trkpt lat="45.02137" lon="4.38971">
        <ele>1069.56444</ele>
        <time>2026-08-23T09:18:52.172Z</time>
      </trkpt>
      <trkpt lat="45.02141" lon="4.38951">
        <ele>1069.325626</ele>
        <time>2026-08-23T09:18:55.182Z</time>
      </trkpt>
      <trkpt lat="45.02144" lon="4.38937">
        <ele>1069.166803</ele>
        <time>2026-08-23T09:18:57.178Z</time>
      </trkpt>
      <trkpt lat="45.02147" lon="4.38923">
        <ele>1068.996644</ele>
        <time>2026-08-23T09:18:59.183Z</time>
      </trkpt>
      <trkpt lat="45.02149" lon="4.3891">
        <ele>1068.848681</ele>
        <time>2026-08-23T09:19:01.177Z</time>
      </trkpt>
      <trkpt lat="45.02153" lon="4.38893">
        <ele>1068.644977</ele>
        <time>2026-08-23T09:19:04.178Z</time>
      </trkpt>
      <trkpt lat="45.02157" lon="4.38876">
        <ele>1068.442713</ele>
        <time>2026-08-23T09:19:07.172Z</time>
      </trkpt>
      <trkpt lat="45.02161" lon="4.38859">
        <ele>1068.402745</ele>
        <time>2026-08-23T09:19:10.171Z</time>
      </trkpt>
      <trkpt lat="45.02163" lon="4.38845">
        <ele>1068.537279</ele>
        <time>2026-08-23T09:19:12.179Z</time>
      </trkpt>
      <trkpt lat="45.02163" lon="4.38825">
        <ele>1068.732322</ele>
        <time>2026-08-23T09:19:15.175Z</time>
      </trkpt>
      <trkpt lat="45.02163" lon="4.3881">
        <ele>1068.877244</ele>
        <time>2026-08-23T09:19:17.184Z</time>
      </trkpt>
      <trkpt lat="45.02162" lon="4.38797">
        <ele>1069.006376</ele>
        <time>2026-08-23T09:19:19.173Z</time>
      </trkpt>
      <trkpt lat="45.02161" lon="4.38783">
        <ele>1069.134284</ele>
        <time>2026-08-23T09:19:21.183Z</time>
      </trkpt>
      <trkpt lat="45.02161" lon="4.3877">
        <ele>1069.260827</ele>
        <time>2026-08-23T09:19:23.183Z</time>
      </trkpt>
      <trkpt lat="45.0216" lon="4.38756">
        <ele>1069.39668</ele>
        <time>2026-08-23T09:19:25.179Z</time>
      </trkpt>
      <trkpt lat="45.02159" lon="4.38743">
        <ele>1069.527596</ele>
        <time>2026-08-23T09:19:27.180Z</time>
      </trkpt>
      <trkpt lat="45.02159" lon="4.38727">
        <ele>1069.6773</ele>
        <time>2026-08-23T09:19:29.180Z</time>
      </trkpt>
      <trkpt lat="45.02158" lon="4.38713">
        <ele>1069.816655</ele>
        <time>2026-08-23T09:19:31.173Z</time>
      </trkpt>
      <trkpt lat="45.02157" lon="4.38694">
        <ele>1069.998491</ele>
        <time>2026-08-23T09:19:34.180Z</time>
      </trkpt>
      <trkpt lat="45.02157" lon="4.38681">
        <ele>1070.128893</ele>
        <time>2026-08-23T09:19:36.178Z</time>
      </trkpt>
      <trkpt lat="45.02157" lon="4.38666">
        <ele>1070.267016</ele>
        <time>2026-08-23T09:19:38.177Z</time>
      </trkpt>
      <trkpt lat="45.02156" lon="4.38651">
        <ele>1070.411187</ele>
        <time>2026-08-23T09:19:40.172Z</time>
      </trkpt>
      <trkpt lat="45.02154" lon="4.38638">
        <ele>1070.540875</ele>
        <time>2026-08-23T09:19:42.175Z</time>
      </trkpt>
      <trkpt lat="45.02153" lon="4.38622">
        <ele>1070.695745</ele>
        <time>2026-08-23T09:19:44.176Z</time>
      </trkpt>
      <trkpt lat="45.02152" lon="4.38608">
        <ele>1070.854061</ele>
        <time>2026-08-23T09:19:46.175Z</time>
      </trkpt>
      <trkpt lat="45.02151" lon="4.38593">
        <ele>1071.059678</ele>
        <time>2026-08-23T09:19:48.183Z</time>
      </trkpt>
      <trkpt lat="45.02149" lon="4.38579">
        <ele>1071.25238</ele>
        <time>2026-08-23T09:19:50.179Z</time>
      </trkpt>
      <trkpt lat="45.02148" lon="4.3856">
        <ele>1071.51271</ele>
        <time>2026-08-23T09:19:53.187Z</time>
      </trkpt>
      <trkpt lat="45.02148" lon="4.38546">
        <ele>1071.702445</ele>
        <time>2026-08-23T09:19:55.172Z</time>
      </trkpt>
      <trkpt lat="45.02148" lon="4.3853">
        <ele>1071.921218</ele>
        <time>2026-08-23T09:19:58.181Z</time>
      </trkpt>
      <trkpt lat="45.02145" lon="4.38516">
        <ele>1072.119263</ele>
        <time>2026-08-23T09:20:02.177Z</time>
      </trkpt>
      <trkpt lat="45.0214" lon="4.38504">
        <ele>1072.312903</ele>
        <time>2026-08-23T09:20:06.181Z</time>
      </trkpt>
      <trkpt lat="45.02136" lon="4.38491">
        <ele>1072.514982</ele>
        <time>2026-08-23T09:20:10.176Z</time>
      </trkpt>
      <trkpt lat="45.02134" lon="4.38477">
        <ele>1072.699434</ele>
        <time>2026-08-23T09:20:13.177Z</time>
      </trkpt>
      <trkpt lat="45.02129" lon="4.38464">
        <ele>1072.900215</ele>
        <time>2026-08-23T09:20:17.150Z</time>
      </trkpt>
      <trkpt lat="45.02126" lon="4.38452">
        <ele>1073.081969</ele>
        <time>2026-08-23T09:20:20.183Z</time>
      </trkpt>
      <trkpt lat="45.02122" lon="4.38437">
        <ele>1073.291147</ele>
        <time>2026-08-23T09:20:25.180Z</time>
      </trkpt>
      <trkpt lat="45.02118" lon="4.38422">
        <ele>1073.514583</ele>
        <time>2026-08-23T09:20:29.179Z</time>
      </trkpt>
      <trkpt lat="45.02112" lon="4.38411">
        <ele>1073.706266</ele>
        <time>2026-08-23T09:20:33.178Z</time>
      </trkpt>
      <trkpt lat="45.02107" lon="4.38398">
        <ele>1073.904896</ele>
        <time>2026-08-23T09:20:37.177Z</time>
      </trkpt>
      <trkpt lat="45.02104" lon="4.38384">
        <ele>1074.103812</ele>
        <time>2026-08-23T09:20:41.177Z</time>
      </trkpt>
      <trkpt lat="45.02102" lon="4.38371">
        <ele>1074.302933</ele>
        <time>2026-08-23T09:20:45.181Z</time>
      </trkpt>
      <trkpt lat="45.02103" lon="4.38358">
        <ele>1074.507579</ele>
        <time>2026-08-23T09:20:48.169Z</time>
      </trkpt>
      <trkpt lat="45.02103" lon="4.38343">
        <ele>1074.736811</ele>
        <time>2026-08-23T09:20:52.173Z</time>
      </trkpt>
      <trkpt lat="45.02105" lon="4.38328">
        <ele>1074.989857</ele>
        <time>2026-08-23T09:20:56.180Z</time>
      </trkpt>
      <trkpt lat="45.02104" lon="4.38311">
        <ele>1075.255708</ele>
        <time>2026-08-23T09:21:00.161Z</time>
      </trkpt>
      <trkpt lat="45.02105" lon="4.38297">
        <ele>1075.472121</ele>
        <time>2026-08-23T09:21:04.171Z</time>
      </trkpt>
      <trkpt lat="45.02106" lon="4.38282">
        <ele>1075.719158</ele>
        <time>2026-08-23T09:21:08.174Z</time>
      </trkpt>
      <trkpt lat="45.02108" lon="4.38269">
        <ele>1075.933185</ele>
        <time>2026-08-23T09:21:12.174Z</time>
      </trkpt>
      <trkpt lat="45.0211" lon="4.38254">
        <ele>1076.176631</ele>
        <time>2026-08-23T09:21:16.183Z</time>
      </trkpt>
      <trkpt lat="45.0211" lon="4.38238">
        <ele>1076.422986</ele>
        <time>2026-08-23T09:21:21.176Z</time>
      </trkpt>
      <trkpt lat="45.02111" lon="4.38222">
        <ele>1076.67892</ele>
        <time>2026-08-23T09:21:25.142Z</time>
      </trkpt>
      <trkpt lat="45.02112" lon="4.38207">
        <ele>1076.917808</ele>
        <time>2026-08-23T09:21:29.138Z</time>
      </trkpt>
      <trkpt lat="45.02114" lon="4.38193">
        <ele>1077.144783</ele>
        <time>2026-08-23T09:21:32.177Z</time>
      </trkpt>
      <trkpt lat="45.02116" lon="4.38178">
        <ele>1077.398466</ele>
        <time>2026-08-23T09:21:36.176Z</time>
      </trkpt>
      <trkpt lat="45.02119" lon="4.38161">
        <ele>1077.669736</ele>
        <time>2026-08-23T09:21:40.171Z</time>
      </trkpt>
      <trkpt lat="45.02118" lon="4.38146">
        <ele>1077.908274</ele>
        <time>2026-08-23T09:21:44.180Z</time>
      </trkpt>
      <trkpt lat="45.0212" lon="4.38133">
        <ele>1078.119162</ele>
        <time>2026-08-23T09:21:47.176Z</time>
      </trkpt>
      <trkpt lat="45.02122" lon="4.38118">
        <ele>1078.30471</ele>
        <time>2026-08-23T09:21:50.177Z</time>
      </trkpt>
      <trkpt lat="45.02124" lon="4.38102">
        <ele>1078.333635</ele>
        <time>2026-08-23T09:21:54.175Z</time>
      </trkpt>
      <trkpt lat="45.02126" lon="4.38089">
        <ele>1078.356847</ele>
        <time>2026-08-23T09:21:57.184Z</time>
      </trkpt>
      <trkpt lat="45.02127" lon="4.38074">
        <ele>1078.383904</ele>
        <time>2026-08-23T09:22:00.185Z</time>
      </trkpt>
      <trkpt lat="45.0213" lon="4.38057">
        <ele>1078.413564</ele>
        <time>2026-08-23T09:22:03.177Z</time>
      </trkpt>
      <trkpt lat="45.0213" lon="4.38042">
        <ele>1078.440512</ele>
        <time>2026-08-23T09:22:06.180Z</time>
      </trkpt>
      <trkpt lat="45.02131" lon="4.38026">
        <ele>1078.468178</ele>
        <time>2026-08-23T09:22:09.181Z</time>
      </trkpt>
      <trkpt lat="45.02133" lon="4.3801">
        <ele>1078.496095</ele>
        <time>2026-08-23T09:22:12.177Z</time>
      </trkpt>
      <trkpt lat="45.02137" lon="4.37993">
        <ele>1078.528582</ele>
        <time>2026-08-23T09:22:15.181Z</time>
      </trkpt>
      <trkpt lat="45.02137" lon="4.37976">
        <ele>1078.558471</ele>
        <time>2026-08-23T09:22:18.179Z</time>
      </trkpt>
      <trkpt lat="45.02137" lon="4.37962">
        <ele>1078.582732</ele>
        <time>2026-08-23T09:22:20.177Z</time>
      </trkpt>
      <trkpt lat="45.02138" lon="4.37947">
        <ele>1078.609522</ele>
        <time>2026-08-23T09:22:22.168Z</time>
      </trkpt>
      <trkpt lat="45.02139" lon="4.37932">
        <ele>1078.636928</ele>
        <time>2026-08-23T09:22:24.185Z</time>
      </trkpt>
      <trkpt lat="45.0214" lon="4.37915">
        <ele>1078.666582</ele>
        <time>2026-08-23T09:22:26.179Z</time>
      </trkpt>
      <trkpt lat="45.02142" lon="4.37898">
        <ele>1078.695736</ele>
        <time>2026-08-23T09:22:28.179Z</time>
      </trkpt>
      <trkpt lat="45.02143" lon="4.3788">
        <ele>1078.727471</ele>
        <time>2026-08-23T09:22:30.179Z</time>
      </trkpt>
      <trkpt lat="45.02145" lon="4.37861">
        <ele>1078.681958</ele>
        <time>2026-08-23T09:22:32.178Z</time>
      </trkpt>
      <trkpt lat="45.02146" lon="4.37839">
        <ele>1078.538375</ele>
        <time>2026-08-23T09:22:34.180Z</time>
      </trkpt>
      <trkpt lat="45.02147" lon="4.37818">
        <ele>1078.40036</ele>
        <time>2026-08-23T09:22:36.176Z</time>
      </trkpt>
      <trkpt lat="45.02148" lon="4.37795">
        <ele>1078.250872</ele>
        <time>2026-08-23T09:22:38.175Z</time>
      </trkpt>
      <trkpt lat="45.02148" lon="4.37772">
        <ele>1078.104163</ele>
        <time>2026-08-23T09:22:40.175Z</time>
      </trkpt>
      <trkpt lat="45.02148" lon="4.37751">
        <ele>1077.965277</ele>
        <time>2026-08-23T09:22:42.187Z</time>
      </trkpt>
      <trkpt lat="45.02148" lon="4.3773">
        <ele>1077.830236</ele>
        <time>2026-08-23T09:22:44.175Z</time>
      </trkpt>
      <trkpt lat="45.02148" lon="4.37709">
        <ele>1077.689379</ele>
        <time>2026-08-23T09:22:46.173Z</time>
      </trkpt>
      <trkpt lat="45.02147" lon="4.3769">
        <ele>1077.565932</ele>
        <time>2026-08-23T09:22:48.180Z</time>
      </trkpt>
      <trkpt lat="45.02146" lon="4.37672">
        <ele>1077.447963</ele>
        <time>2026-08-23T09:22:50.175Z</time>
      </trkpt>
      <trkpt lat="45.02144" lon="4.37656">
        <ele>1077.342026</ele>
        <time>2026-08-23T09:22:52.179Z</time>
      </trkpt>
      <trkpt lat="45.02142" lon="4.37638">
        <ele>1077.222284</ele>
        <time>2026-08-23T09:22:54.171Z</time>
      </trkpt>
      <trkpt lat="45.02141" lon="4.3762">
        <ele>1077.105344</ele>
        <time>2026-08-23T09:22:56.181Z</time>
      </trkpt>
      <trkpt lat="45.02138" lon="4.37603">
        <ele>1077.205558</ele>
        <time>2026-08-23T09:22:58.175Z</time>
      </trkpt>
      <trkpt lat="45.02136" lon="4.37587">
        <ele>1077.337451</ele>
        <time>2026-08-23T09:23:00.171Z</time>
      </trkpt>
      <trkpt lat="45.02134" lon="4.37572">
        <ele>1077.460463</ele>
        <time>2026-08-23T09:23:02.178Z</time>
      </trkpt>
      <trkpt lat="45.02132" lon="4.37556">
        <ele>1077.590374</ele>
        <time>2026-08-23T09:23:04.176Z</time>
      </trkpt>
      <trkpt lat="45.02132" lon="4.37541">
        <ele>1077.712349</ele>
        <time>2026-08-23T09:23:06.175Z</time>
      </trkpt>
      <trkpt lat="45.02132" lon="4.37524">
        <ele>1077.848144</ele>
        <time>2026-08-23T09:23:08.186Z</time>
      </trkpt>
      <trkpt lat="45.02132" lon="4.37507">
        <ele>1077.987215</ele>
        <time>2026-08-23T09:23:10.167Z</time>
      </trkpt>
      <trkpt lat="45.02132" lon="4.37489">
        <ele>1078.139268</ele>
        <time>2026-08-23T09:23:12.174Z</time>
      </trkpt>
      <trkpt lat="45.02131" lon="4.37472">
        <ele>1078.277559</ele>
        <time>2026-08-23T09:23:14.176Z</time>
      </trkpt>
      <trkpt lat="45.02131" lon="4.37453">
        <ele>1078.42557</ele>
        <time>2026-08-23T09:23:16.173Z</time>
      </trkpt>
      <trkpt lat="45.0213" lon="4.37436">
        <ele>1078.570513</ele>
        <time>2026-08-23T09:23:18.171Z</time>
      </trkpt>
      <trkpt lat="45.0213" lon="4.37417">
        <ele>1078.721204</ele>
        <time>2026-08-23T09:23:20.173Z</time>
      </trkpt>
      <trkpt lat="45.02129" lon="4.37399">
        <ele>1078.867662</ele>
        <time>2026-08-23T09:23:22.177Z</time>
      </trkpt>
      <trkpt lat="45.02128" lon="4.37382">
        <ele>1079.008546</ele>
        <time>2026-08-23T09:23:24.175Z</time>
      </trkpt>
      <trkpt lat="45.02129" lon="4.37364">
        <ele>1079.152525</ele>
        <time>2026-08-23T09:23:26.179Z</time>
      </trkpt>
      <trkpt lat="45.0213" lon="4.37348">
        <ele>1079.497739</ele>
        <time>2026-08-23T09:23:28.175Z</time>
      </trkpt>
      <trkpt lat="45.0213" lon="4.37335">
        <ele>1079.788062</ele>
        <time>2026-08-23T09:23:30.176Z</time>
      </trkpt>
      <trkpt lat="45.02129" lon="4.37322">
        <ele>1080.0749</ele>
        <time>2026-08-23T09:23:32.176Z</time>
      </trkpt>
      <trkpt lat="45.02129" lon="4.37309">
        <ele>1080.376553</ele>
        <time>2026-08-23T09:23:34.172Z</time>
      </trkpt>
      <trkpt lat="45.02129" lon="4.37291">
        <ele>1080.77526</ele>
        <time>2026-08-23T09:23:37.174Z</time>
      </trkpt>
      <trkpt lat="45.02131" lon="4.37273">
        <ele>1081.166122</ele>
        <time>2026-08-23T09:23:40.189Z</time>
      </trkpt>
      <trkpt lat="45.02131" lon="4.37256">
        <ele>1081.554071</ele>
        <time>2026-08-23T09:23:43.183Z</time>
      </trkpt>
      <trkpt lat="45.0213" lon="4.37239">
        <ele>1081.921174</ele>
        <time>2026-08-23T09:23:46.172Z</time>
      </trkpt>
      <trkpt lat="45.0213" lon="4.37222">
        <ele>1082.29837</ele>
        <time>2026-08-23T09:23:49.173Z</time>
      </trkpt>
      <trkpt lat="45.02129" lon="4.37205">
        <ele>1082.67355</ele>
        <time>2026-08-23T09:23:52.173Z</time>
      </trkpt>
      <trkpt lat="45.02127" lon="4.37189">
        <ele>1083.050918</ele>
        <time>2026-08-23T09:23:55.173Z</time>
      </trkpt>
      <trkpt lat="45.02126" lon="4.37173">
        <ele>1083.390991</ele>
        <time>2026-08-23T09:23:58.177Z</time>
      </trkpt>
      <trkpt lat="45.02125" lon="4.37159">
        <ele>1083.708154</ele>
        <time>2026-08-23T09:24:01.179Z</time>
      </trkpt>
      <trkpt lat="45.02123" lon="4.37143">
        <ele>1084.058294</ele>
        <time>2026-08-23T09:24:04.180Z</time>
      </trkpt>
      <trkpt lat="45.02122" lon="4.37129">
        <ele>1084.378069</ele>
        <time>2026-08-23T09:24:07.173Z</time>
      </trkpt>
      <trkpt lat="45.02121" lon="4.37115">
        <ele>1084.684147</ele>
        <time>2026-08-23T09:24:10.177Z</time>
      </trkpt>
      <trkpt lat="45.02121" lon="4.37102">
        <ele>1084.974241</ele>
        <time>2026-08-23T09:24:13.177Z</time>
      </trkpt>
      <trkpt lat="45.02121" lon="4.37087">
        <ele>1085.289769</ele>
        <time>2026-08-23T09:24:16.172Z</time>
      </trkpt>
      <trkpt lat="45.02121" lon="4.37071">
        <ele>1085.637312</ele>
        <time>2026-08-23T09:24:19.180Z</time>
      </trkpt>
      <trkpt lat="45.02121" lon="4.37057">
        <ele>1085.940034</ele>
        <time>2026-08-23T09:24:22.176Z</time>
      </trkpt>
      <trkpt lat="45.02122" lon="4.37042">
        <ele>1086.25062</ele>
        <time>2026-08-23T09:24:25.175Z</time>
      </trkpt>
      <trkpt lat="45.02122" lon="4.37025">
        <ele>1086.617409</ele>
        <time>2026-08-23T09:24:28.185Z</time>
      </trkpt>
      <trkpt lat="45.02123" lon="4.37008">
        <ele>1086.971689</ele>
        <time>2026-08-23T09:24:31.174Z</time>
      </trkpt>
      <trkpt lat="45.02123" lon="4.36992">
        <ele>1087.323456</ele>
        <time>2026-08-23T09:24:34.184Z</time>
      </trkpt>
      <trkpt lat="45.02125" lon="4.36976">
        <ele>1087.663312</ele>
        <time>2026-08-23T09:24:37.136Z</time>
      </trkpt>
      <trkpt lat="45.02128" lon="4.3696">
        <ele>1088.019488</ele>
        <time>2026-08-23T09:24:40.169Z</time>
      </trkpt>
      <trkpt lat="45.02132" lon="4.36946">
        <ele>1088.351312</ele>
        <time>2026-08-23T09:24:43.177Z</time>
      </trkpt>
      <trkpt lat="45.02136" lon="4.3693">
        <ele>1088.70709</ele>
        <time>2026-08-23T09:24:46.173Z</time>
      </trkpt>
      <trkpt lat="45.02142" lon="4.36917">
        <ele>1089.019666</ele>
        <time>2026-08-23T09:24:49.176Z</time>
      </trkpt>
      <trkpt lat="45.02146" lon="4.36903">
        <ele>1089.35292</ele>
        <time>2026-08-23T09:24:52.173Z</time>
      </trkpt>
      <trkpt lat="45.02151" lon="4.36888">
        <ele>1089.706469</ele>
        <time>2026-08-23T09:24:55.178Z</time>
      </trkpt>
      <trkpt lat="45.02155" lon="4.36875">
        <ele>1090.011233</ele>
        <time>2026-08-23T09:24:58.172Z</time>
      </trkpt>
      <trkpt lat="45.02161" lon="4.36859">
        <ele>1089.993616</ele>
        <time>2026-08-23T09:25:01.185Z</time>
      </trkpt>
      <trkpt lat="45.02167" lon="4.36846">
        <ele>1089.63553</ele>
        <time>2026-08-23T09:25:03.177Z</time>
      </trkpt>
      <trkpt lat="45.02171" lon="4.36834">
        <ele>1089.306152</ele>
        <time>2026-08-23T09:25:05.179Z</time>
      </trkpt>
      <trkpt lat="45.02174" lon="4.36821">
        <ele>1088.96371</ele>
        <time>2026-08-23T09:25:07.169Z</time>
      </trkpt>
      <trkpt lat="45.02178" lon="4.36808">
        <ele>1088.590894</ele>
        <time>2026-08-23T09:25:09.187Z</time>
      </trkpt>
      <trkpt lat="45.02182" lon="4.36794">
        <ele>1088.21192</ele>
        <time>2026-08-23T09:25:11.177Z</time>
      </trkpt>
      <trkpt lat="45.02186" lon="4.36778">
        <ele>1087.806054</ele>
        <time>2026-08-23T09:25:13.176Z</time>
      </trkpt>
      <trkpt lat="45.0219" lon="4.36762">
        <ele>1087.385031</ele>
        <time>2026-08-23T09:25:15.139Z</time>
      </trkpt>
      <trkpt lat="45.02192" lon="4.36743">
        <ele>1086.910929</ele>
        <time>2026-08-23T09:25:17.178Z</time>
      </trkpt>
      <trkpt lat="45.02194" lon="4.36726">
        <ele>1086.4827</ele>
        <time>2026-08-23T09:25:19.177Z</time>
      </trkpt>
      <trkpt lat="45.02196" lon="4.36709">
        <ele>1086.042779</ele>
        <time>2026-08-23T09:25:21.176Z</time>
      </trkpt>
      <trkpt lat="45.02197" lon="4.36691">
        <ele>1085.605046</ele>
        <time>2026-08-23T09:25:23.174Z</time>
      </trkpt>
      <trkpt lat="45.02197" lon="4.36676">
        <ele>1085.221546</ele>
        <time>2026-08-23T09:25:25.170Z</time>
      </trkpt>
      <trkpt lat="45.02197" lon="4.36659">
        <ele>1084.798517</ele>
        <time>2026-08-23T09:25:27.173Z</time>
      </trkpt>
      <trkpt lat="45.02195" lon="4.36642">
        <ele>1084.364018</ele>
        <time>2026-08-23T09:25:29.176Z</time>
      </trkpt>
      <trkpt lat="45.02192" lon="4.36625">
        <ele>1083.944112</ele>
        <time>2026-08-23T09:25:31.173Z</time>
      </trkpt>
      <trkpt lat="45.0219" lon="4.36608">
        <ele>1083.763222</ele>
        <time>2026-08-23T09:25:33.170Z</time>
      </trkpt>
      <trkpt lat="45.02186" lon="4.36589">
        <ele>1083.614746</ele>
        <time>2026-08-23T09:25:35.184Z</time>
      </trkpt>
      <trkpt lat="45.02182" lon="4.36573">
        <ele>1083.479311</ele>
        <time>2026-08-23T09:25:37.180Z</time>
      </trkpt>
      <trkpt lat="45.02179" lon="4.36556">
        <ele>1083.341913</ele>
        <time>2026-08-23T09:25:39.174Z</time>
      </trkpt>
      <trkpt lat="45.02176" lon="4.36537">
        <ele>1083.196387</ele>
        <time>2026-08-23T09:25:41.179Z</time>
      </trkpt>
      <trkpt lat="45.02173" lon="4.3652">
        <ele>1083.05481</ele>
        <time>2026-08-23T09:25:43.178Z</time>
      </trkpt>
      <trkpt lat="45.02169" lon="4.36505">
        <ele>1082.930366</ele>
        <time>2026-08-23T09:25:45.177Z</time>
      </trkpt>
      <trkpt lat="45.02167" lon="4.3649">
        <ele>1082.810396</ele>
        <time>2026-08-23T09:25:47.175Z</time>
      </trkpt>
      <trkpt lat="45.02164" lon="4.36474">
        <ele>1082.681537</ele>
        <time>2026-08-23T09:25:49.173Z</time>
      </trkpt>
      <trkpt lat="45.0216" lon="4.36458">
        <ele>1082.551157</ele>
        <time>2026-08-23T09:25:51.186Z</time>
      </trkpt>
      <trkpt lat="45.02157" lon="4.36442">
        <ele>1082.423801</ele>
        <time>2026-08-23T09:25:53.155Z</time>
      </trkpt>
      <trkpt lat="45.02155" lon="4.36426">
        <ele>1082.297462</ele>
        <time>2026-08-23T09:25:55.177Z</time>
      </trkpt>
      <trkpt lat="45.02151" lon="4.36411">
        <ele>1082.175258</ele>
        <time>2026-08-23T09:25:57.176Z</time>
      </trkpt>
      <trkpt lat="45.02149" lon="4.36396">
        <ele>1082.053518</ele>
        <time>2026-08-23T09:25:59.176Z</time>
      </trkpt>
      <trkpt lat="45.02145" lon="4.36381">
        <ele>1081.934593</ele>
        <time>2026-08-23T09:26:01.177Z</time>
      </trkpt>
      <trkpt lat="45.02142" lon="4.36368">
        <ele>1082.105088</ele>
        <time>2026-08-23T09:26:03.177Z</time>
      </trkpt>
      <trkpt lat="45.02137" lon="4.36357">
        <ele>1082.38368</ele>
        <time>2026-08-23T09:26:05.180Z</time>
      </trkpt>
      <trkpt lat="45.02134" lon="4.36342">
        <ele>1082.681249</ele>
        <time>2026-08-23T09:26:07.178Z</time>
      </trkpt>
      <trkpt lat="45.02131" lon="4.36329">
        <ele>1082.958043</ele>
        <time>2026-08-23T09:26:09.177Z</time>
      </trkpt>
      <trkpt lat="45.02128" lon="4.36317">
        <ele>1083.218638</ele>
        <time>2026-08-23T09:26:11.176Z</time>
      </trkpt>
      <trkpt lat="45.02126" lon="4.36298">
        <ele>1083.605994</ele>
        <time>2026-08-23T09:26:14.176Z</time>
      </trkpt>
      <trkpt lat="45.02123" lon="4.36284">
        <ele>1083.885717</ele>
        <time>2026-08-23T09:26:16.173Z</time>
      </trkpt>
      <trkpt lat="45.0212" lon="4.3627">
        <ele>1084.173387</ele>
        <time>2026-08-23T09:26:18.178Z</time>
      </trkpt>
      <trkpt lat="45.02116" lon="4.36258">
        <ele>1084.447017</ele>
        <time>2026-08-23T09:26:20.177Z</time>
      </trkpt>
      <trkpt lat="45.02113" lon="4.36245">
        <ele>1084.711374</ele>
        <time>2026-08-23T09:26:22.180Z</time>
      </trkpt>
      <trkpt lat="45.02111" lon="4.36232">
        <ele>1084.976624</ele>
        <time>2026-08-23T09:26:24.179Z</time>
      </trkpt>
      <trkpt lat="45.02108" lon="4.36218">
        <ele>1085.269019</ele>
        <time>2026-08-23T09:26:26.180Z</time>
      </trkpt>
      <trkpt lat="45.02105" lon="4.36201">
        <ele>1085.622042</ele>
        <time>2026-08-23T09:26:29.163Z</time>
      </trkpt>
      <trkpt lat="45.02102" lon="4.36183">
        <ele>1085.990759</ele>
        <time>2026-08-23T09:26:32.173Z</time>
      </trkpt>
      <trkpt lat="45.02098" lon="4.36167">
        <ele>1086.332088</ele>
        <time>2026-08-23T09:26:35.182Z</time>
      </trkpt>
      <trkpt lat="45.02095" lon="4.36149">
        <ele>1086.700909</ele>
        <time>2026-08-23T09:26:38.172Z</time>
      </trkpt>
      <trkpt lat="45.02091" lon="4.36132">
        <ele>1086.959995</ele>
        <time>2026-08-23T09:26:41.176Z</time>
      </trkpt>
      <trkpt lat="45.02086" lon="4.36119">
        <ele>1086.880211</ele>
        <time>2026-08-23T09:26:45.180Z</time>
      </trkpt>
      <trkpt lat="45.02083" lon="4.36105">
        <ele>1086.804621</ele>
        <time>2026-08-23T09:26:49.172Z</time>
      </trkpt>
      <trkpt lat="45.02079" lon="4.36089">
        <ele>1086.714886</ele>
        <time>2026-08-23T09:26:53.179Z</time>
      </trkpt>
      <trkpt lat="45.02073" lon="4.36075">
        <ele>1086.628283</ele>
        <time>2026-08-23T09:26:56.180Z</time>
      </trkpt>
      <trkpt lat="45.02067" lon="4.36059">
        <ele>1086.532754</ele>
        <time>2026-08-23T09:26:59.179Z</time>
      </trkpt>
      <trkpt lat="45.02059" lon="4.36043">
        <ele>1086.43016</ele>
        <time>2026-08-23T09:27:02.182Z</time>
      </trkpt>
      <trkpt lat="45.02053" lon="4.36029">
        <ele>1086.347565</ele>
        <time>2026-08-23T09:27:04.179Z</time>
      </trkpt>
      <trkpt lat="45.02047" lon="4.36014">
        <ele>1086.259107</ele>
        <time>2026-08-23T09:27:06.179Z</time>
      </trkpt>
      <trkpt lat="45.02041" lon="4.36">
        <ele>1086.171524</ele>
        <time>2026-08-23T09:27:08.173Z</time>
      </trkpt>
      <trkpt lat="45.02035" lon="4.35986">
        <ele>1086.084921</ele>
        <time>2026-08-23T09:27:10.173Z</time>
      </trkpt>
      <trkpt lat="45.0203" lon="4.35972">
        <ele>1086.000712</ele>
        <time>2026-08-23T09:27:12.170Z</time>
      </trkpt>
      <trkpt lat="45.02024" lon="4.35957">
        <ele>1085.913988</ele>
        <time>2026-08-23T09:27:14.174Z</time>
      </trkpt>
      <trkpt lat="45.0202" lon="4.35944">
        <ele>1085.835815</ele>
        <time>2026-08-23T09:27:16.178Z</time>
      </trkpt>
      <trkpt lat="45.02016" lon="4.35927">
        <ele>1085.745985</ele>
        <time>2026-08-23T09:27:18.185Z</time>
      </trkpt>
      <trkpt lat="45.02012" lon="4.35915">
        <ele>1085.675115</ele>
        <time>2026-08-23T09:27:20.176Z</time>
      </trkpt>
      <trkpt lat="45.02007" lon="4.35901">
        <ele>1085.712622</ele>
        <time>2026-08-23T09:27:22.180Z</time>
      </trkpt>
      <trkpt lat="45.02003" lon="4.35888">
        <ele>1085.811797</ele>
        <time>2026-08-23T09:27:24.176Z</time>
      </trkpt>
      <trkpt lat="45.01998" lon="4.35875">
        <ele>1085.914902</ele>
        <time>2026-08-23T09:27:26.179Z</time>
      </trkpt>
      <trkpt lat="45.01994" lon="4.35862">
        <ele>1086.012435</ele>
        <time>2026-08-23T09:27:28.140Z</time>
      </trkpt>
      <trkpt lat="45.0199" lon="4.3585">
        <ele>1086.102098</ele>
        <time>2026-08-23T09:27:30.175Z</time>
      </trkpt>
      <trkpt lat="45.01985" lon="4.35834">
        <ele>1086.22151</ele>
        <time>2026-08-23T09:27:33.184Z</time>
      </trkpt>
      <trkpt lat="45.01982" lon="4.3582">
        <ele>1086.324246</ele>
        <time>2026-08-23T09:27:35.174Z</time>
      </trkpt>
      <trkpt lat="45.01978" lon="4.35801">
        <ele>1086.457558</ele>
        <time>2026-08-23T09:27:38.181Z</time>
      </trkpt>
      <trkpt lat="45.01973" lon="4.35784">
        <ele>1086.582587</ele>
        <time>2026-08-23T09:27:41.177Z</time>
      </trkpt>
      <trkpt lat="45.0197" lon="4.35771">
        <ele>1086.675555</ele>
        <time>2026-08-23T09:27:43.184Z</time>
      </trkpt>
      <trkpt lat="45.01967" lon="4.35758">
        <ele>1086.772514</ele>
        <time>2026-08-23T09:27:45.181Z</time>
      </trkpt>
      <trkpt lat="45.01964" lon="4.35743">
        <ele>1086.879589</ele>
        <time>2026-08-23T09:27:47.181Z</time>
      </trkpt>
      <trkpt lat="45.01961" lon="4.35729">
        <ele>1086.979165</ele>
        <time>2026-08-23T09:27:49.187Z</time>
      </trkpt>
      <trkpt lat="45.01958" lon="4.35717">
        <ele>1087.068107</ele>
        <time>2026-08-23T09:27:51.182Z</time>
      </trkpt>
      <trkpt lat="45.01956" lon="4.35704">
        <ele>1087.156586</ele>
        <time>2026-08-23T09:27:53.176Z</time>
      </trkpt>
      <trkpt lat="45.01952" lon="4.35687">
        <ele>1087.279345</ele>
        <time>2026-08-23T09:27:56.176Z</time>
      </trkpt>
      <trkpt lat="45.01948" lon="4.35671">
        <ele>1087.416285</ele>
        <time>2026-08-23T09:27:59.180Z</time>
      </trkpt>
      <trkpt lat="45.01945" lon="4.35653">
        <ele>1087.759184</ele>
        <time>2026-08-23T09:28:02.175Z</time>
      </trkpt>
      <trkpt lat="45.01943" lon="4.35634">
        <ele>1088.130571</ele>
        <time>2026-08-23T09:28:05.183Z</time>
      </trkpt>
      <trkpt lat="45.01942" lon="4.3562">
        <ele>1088.409931</ele>
        <time>2026-08-23T09:28:07.174Z</time>
      </trkpt>
      <trkpt lat="45.01941" lon="4.35607">
        <ele>1088.655622</ele>
        <time>2026-08-23T09:28:09.179Z</time>
      </trkpt>
      <trkpt lat="45.01939" lon="4.35594">
        <ele>1088.900235</ele>
        <time>2026-08-23T09:28:11.176Z</time>
      </trkpt>
      <trkpt lat="45.01938" lon="4.35581">
        <ele>1089.160517</ele>
        <time>2026-08-23T09:28:13.171Z</time>
      </trkpt>
      <trkpt lat="45.01937" lon="4.35562">
        <ele>1089.527405</ele>
        <time>2026-08-23T09:28:16.181Z</time>
      </trkpt>
      <trkpt lat="45.01937" lon="4.35542">
        <ele>1089.901361</ele>
        <time>2026-08-23T09:28:19.170Z</time>
      </trkpt>
      <trkpt lat="45.01936" lon="4.35525">
        <ele>1090.231887</ele>
        <time>2026-08-23T09:28:22.185Z</time>
      </trkpt>
      <trkpt lat="45.01935" lon="4.35508">
        <ele>1090.554688</ele>
        <time>2026-08-23T09:28:25.186Z</time>
      </trkpt>
      <trkpt lat="45.01932" lon="4.35495">
        <ele>1090.829538</ele>
        <time>2026-08-23T09:28:28.171Z</time>
      </trkpt>
      <trkpt lat="45.01929" lon="4.3548">
        <ele>1091.126345</ele>
        <time>2026-08-23T09:28:31.171Z</time>
      </trkpt>
      <trkpt lat="45.01926" lon="4.35463">
        <ele>1091.453721</ele>
        <time>2026-08-23T09:28:34.177Z</time>
      </trkpt>
      <trkpt lat="45.01926" lon="4.35445">
        <ele>1091.808836</ele>
        <time>2026-08-23T09:28:37.172Z</time>
      </trkpt>
      <trkpt lat="45.01926" lon="4.35426">
        <ele>1092.167505</ele>
        <time>2026-08-23T09:28:40.175Z</time>
      </trkpt>
      <trkpt lat="45.01926" lon="4.35412">
        <ele>1092.3687</ele>
        <time>2026-08-23T09:28:42.156Z</time>
      </trkpt>
      <trkpt lat="45.01925" lon="4.35397">
        <ele>1092.550187</ele>
        <time>2026-08-23T09:28:45.177Z</time>
      </trkpt>
      <trkpt lat="45.01924" lon="4.3538">
        <ele>1092.76063</ele>
        <time>2026-08-23T09:28:48.176Z</time>
      </trkpt>
      <trkpt lat="45.01925" lon="4.35365">
        <ele>1092.937444</ele>
        <time>2026-08-23T09:28:50.173Z</time>
      </trkpt>
      <trkpt lat="45.01927" lon="4.35349">
        <ele>1093.126857</ele>
        <time>2026-08-23T09:28:53.172Z</time>
      </trkpt>
      <trkpt lat="45.01927" lon="4.35333">
        <ele>1093.318884</ele>
        <time>2026-08-23T09:28:56.178Z</time>
      </trkpt>
      <trkpt lat="45.01927" lon="4.35316">
        <ele>1093.518168</ele>
        <time>2026-08-23T09:29:00.179Z</time>
      </trkpt>
      <trkpt lat="45.01928" lon="4.35303">
        <ele>1093.674646</ele>
        <time>2026-08-23T09:29:03.179Z</time>
      </trkpt>
      <trkpt lat="45.01926" lon="4.3529">
        <ele>1093.825326</ele>
        <time>2026-08-23T09:29:06.185Z</time>
      </trkpt>
      <trkpt lat="45.01928" lon="4.35276">
        <ele>1093.998771</ele>
        <time>2026-08-23T09:29:09.176Z</time>
      </trkpt>
      <trkpt lat="45.0193" lon="4.3526">
        <ele>1094.185815</ele>
        <time>2026-08-23T09:29:12.179Z</time>
      </trkpt>
      <trkpt lat="45.01932" lon="4.35243">
        <ele>1094.395651</ele>
        <time>2026-08-23T09:29:15.184Z</time>
      </trkpt>
      <trkpt lat="45.01935" lon="4.35223">
        <ele>1094.636804</ele>
        <time>2026-08-23T09:29:18.184Z</time>
      </trkpt>
      <trkpt lat="45.01937" lon="4.35208">
        <ele>1094.814221</ele>
        <time>2026-08-23T09:29:20.178Z</time>
      </trkpt>
      <trkpt lat="45.0194" lon="4.35193">
        <ele>1094.999265</ele>
        <time>2026-08-23T09:29:22.175Z</time>
      </trkpt>
      <trkpt lat="45.01942" lon="4.35178">
        <ele>1095.185426</ele>
        <time>2026-08-23T09:29:24.181Z</time>
      </trkpt>
      <trkpt lat="45.01944" lon="4.35164">
        <ele>1095.163274</ele>
        <time>2026-08-23T09:29:26.179Z</time>
      </trkpt>
      <trkpt lat="45.01947" lon="4.3515">
        <ele>1094.866375</ele>
        <time>2026-08-23T09:29:28.172Z</time>
      </trkpt>
      <trkpt lat="45.0195" lon="4.35136">
        <ele>1094.580495</ele>
        <time>2026-08-23T09:29:30.176Z</time>
      </trkpt>
      <trkpt lat="45.01952" lon="4.35122">
        <ele>1094.288275</ele>
        <time>2026-08-23T09:29:32.182Z</time>
      </trkpt>
      <trkpt lat="45.01954" lon="4.35109">
        <ele>1094.012116</ele>
        <time>2026-08-23T09:29:34.174Z</time>
      </trkpt>
      <trkpt lat="45.01958" lon="4.35097">
        <ele>1093.726422</ele>
        <time>2026-08-23T09:29:36.175Z</time>
      </trkpt>
      <trkpt lat="45.01962" lon="4.35085">
        <ele>1093.460522</ele>
        <time>2026-08-23T09:29:38.178Z</time>
      </trkpt>
      <trkpt lat="45.01964" lon="4.35071">
        <ele>1093.17569</ele>
        <time>2026-08-23T09:29:40.168Z</time>
      </trkpt>
      <trkpt lat="45.01966" lon="4.35056">
        <ele>1092.855345</ele>
        <time>2026-08-23T09:29:42.170Z</time>
      </trkpt>
      <trkpt lat="45.01968" lon="4.35041">
        <ele>1092.553093</ele>
        <time>2026-08-23T09:29:44.170Z</time>
      </trkpt>
      <trkpt lat="45.01969" lon="4.35027">
        <ele>1092.246326</ele>
        <time>2026-08-23T09:29:46.184Z</time>
      </trkpt>
      <trkpt lat="45.0197" lon="4.35012">
        <ele>1091.954067</ele>
        <time>2026-08-23T09:29:48.181Z</time>
      </trkpt>
      <trkpt lat="45.01974" lon="4.34994">
        <ele>1091.566202</ele>
        <time>2026-08-23T09:29:51.175Z</time>
      </trkpt>
      <trkpt lat="45.01975" lon="4.34981">
        <ele>1091.296714</ele>
        <time>2026-08-23T09:29:53.172Z</time>
      </trkpt>
      <trkpt lat="45.01979" lon="4.34962">
        <ele>1090.899694</ele>
        <time>2026-08-23T09:29:56.182Z</time>
      </trkpt>
      <trkpt lat="45.01981" lon="4.34948">
        <ele>1090.590363</ele>
        <time>2026-08-23T09:29:58.172Z</time>
      </trkpt>
      <trkpt lat="45.01984" lon="4.34934">
        <ele>1090.306256</ele>
        <time>2026-08-23T09:30:00.184Z</time>
      </trkpt>
      <trkpt lat="45.01986" lon="4.34921">
        <ele>1090.15526</ele>
        <time>2026-08-23T09:30:02.170Z</time>
      </trkpt>
      <trkpt lat="45.0199" lon="4.34904">
        <ele>1090.700035</ele>
        <time>2026-08-23T09:30:05.179Z</time>
      </trkpt>
      <trkpt lat="45.01991" lon="4.34891">
        <ele>1091.086559</ele>
        <time>2026-08-23T09:30:07.174Z</time>
      </trkpt>
      <trkpt lat="45.01993" lon="4.34878">
        <ele>1091.487566</ele>
        <time>2026-08-23T09:30:09.166Z</time>
      </trkpt>
      <trkpt lat="45.01996" lon="4.34866">
        <ele>1091.86913</ele>
        <time>2026-08-23T09:30:11.172Z</time>
      </trkpt>
      <trkpt lat="45.02" lon="4.34848">
        <ele>1092.444857</ele>
        <time>2026-08-23T09:30:14.159Z</time>
      </trkpt>
      <trkpt lat="45.02004" lon="4.34835">
        <ele>1092.846111</ele>
        <time>2026-08-23T09:30:16.174Z</time>
      </trkpt>
      <trkpt lat="45.02007" lon="4.34817">
        <ele>1093.399485</ele>
        <time>2026-08-23T09:30:19.177Z</time>
      </trkpt>
      <trkpt lat="45.02009" lon="4.34804">
        <ele>1093.810429</ele>
        <time>2026-08-23T09:30:21.177Z</time>
      </trkpt>
      <trkpt lat="45.02012" lon="4.3479">
        <ele>1094.241722</ele>
        <time>2026-08-23T09:30:23.176Z</time>
      </trkpt>
      <trkpt lat="45.02015" lon="4.34777">
        <ele>1094.666516</ele>
        <time>2026-08-23T09:30:25.162Z</time>
      </trkpt>
      <trkpt lat="45.02018" lon="4.34764">
        <ele>1095.077459</ele>
        <time>2026-08-23T09:30:27.184Z</time>
      </trkpt>
      <trkpt lat="45.0202" lon="4.34745">
        <ele>1095.65227</ele>
        <time>2026-08-23T09:30:30.175Z</time>
      </trkpt>
      <trkpt lat="45.02023" lon="4.34732">
        <ele>1096.050494</ele>
        <time>2026-08-23T09:30:32.175Z</time>
      </trkpt>
      <trkpt lat="45.02026" lon="4.34719">
        <ele>1096.450545</ele>
        <time>2026-08-23T09:30:34.172Z</time>
      </trkpt>
      <trkpt lat="45.02024" lon="4.34704">
        <ele>1096.922905</ele>
        <time>2026-08-23T09:30:37.177Z</time>
      </trkpt>
      <trkpt lat="45.02024" lon="4.34685">
        <ele>1097.500336</ele>
        <time>2026-08-23T09:30:40.180Z</time>
      </trkpt>
      <trkpt lat="45.02025" lon="4.34667">
        <ele>1098.305539</ele>
        <time>2026-08-23T09:30:43.175Z</time>
      </trkpt>
      <trkpt lat="45.02024" lon="4.34649">
        <ele>1099.323215</ele>
        <time>2026-08-23T09:30:46.171Z</time>
      </trkpt>
      <trkpt lat="45.02025" lon="4.34633">
        <ele>1100.269251</ele>
        <time>2026-08-23T09:30:49.173Z</time>
      </trkpt>
      <trkpt lat="45.02026" lon="4.34619">
        <ele>1101.04251</ele>
        <time>2026-08-23T09:30:52.177Z</time>
      </trkpt>
      <trkpt lat="45.02025" lon="4.34604">
        <ele>1101.906414</ele>
        <time>2026-08-23T09:30:57.175Z</time>
      </trkpt>
      <trkpt lat="45.02026" lon="4.34589">
        <ele>1102.787343</ele>
        <time>2026-08-23T09:31:02.175Z</time>
      </trkpt>
      <trkpt lat="45.02028" lon="4.34575">
        <ele>1103.59375</ele>
        <time>2026-08-23T09:31:07.177Z</time>
      </trkpt>
      <trkpt lat="45.02032" lon="4.34561">
        <ele>1104.452652</ele>
        <time>2026-08-23T09:31:11.175Z</time>
      </trkpt>
      <trkpt lat="45.02036" lon="4.34548">
        <ele>1105.241018</ele>
        <time>2026-08-23T09:31:14.172Z</time>
      </trkpt>
      <trkpt lat="45.0204" lon="4.34534">
        <ele>1106.152912</ele>
        <time>2026-08-23T09:31:18.180Z</time>
      </trkpt>
      <trkpt lat="45.02046" lon="4.34519">
        <ele>1107.137842</ele>
        <time>2026-08-23T09:31:22.173Z</time>
      </trkpt>
      <trkpt lat="45.02051" lon="4.34508">
        <ele>1107.884848</ele>
        <time>2026-08-23T09:31:25.172Z</time>
      </trkpt>
      <trkpt lat="45.02057" lon="4.34495">
        <ele>1108.781981</ele>
        <time>2026-08-23T09:31:28.172Z</time>
      </trkpt>
      <trkpt lat="45.02064" lon="4.3448">
        <ele>1109.804335</ele>
        <time>2026-08-23T09:31:31.172Z</time>
      </trkpt>
      <trkpt lat="45.02071" lon="4.3447">
        <ele>1110.578122</ele>
        <time>2026-08-23T09:31:33.176Z</time>
      </trkpt>
      <trkpt lat="45.02081" lon="4.34457">
        <ele>1111.690143</ele>
        <time>2026-08-23T09:31:36.174Z</time>
      </trkpt>
      <trkpt lat="45.02088" lon="4.34447">
        <ele>1112.209277</ele>
        <time>2026-08-23T09:31:38.179Z</time>
      </trkpt>
      <trkpt lat="45.02094" lon="4.34437">
        <ele>1111.958111</ele>
        <time>2026-08-23T09:31:40.169Z</time>
      </trkpt>
      <trkpt lat="45.02103" lon="4.34423">
        <ele>1111.615899</ele>
        <time>2026-08-23T09:31:43.174Z</time>
      </trkpt>
      <trkpt lat="45.02109" lon="4.34409">
        <ele>1111.307544</ele>
        <time>2026-08-23T09:31:46.170Z</time>
      </trkpt>
      <trkpt lat="45.02115" lon="4.34391">
        <ele>1110.949703</ele>
        <time>2026-08-23T09:31:49.171Z</time>
      </trkpt>
      <trkpt lat="45.02119" lon="4.3438">
        <ele>1110.705896</ele>
        <time>2026-08-23T09:31:51.173Z</time>
      </trkpt>
      <trkpt lat="45.02123" lon="4.34367">
        <ele>1110.45254</ele>
        <time>2026-08-23T09:31:53.179Z</time>
      </trkpt>
      <trkpt lat="45.02127" lon="4.34354">
        <ele>1110.177975</ele>
        <time>2026-08-23T09:31:55.172Z</time>
      </trkpt>
      <trkpt lat="45.02132" lon="4.3434">
        <ele>1109.893935</ele>
        <time>2026-08-23T09:31:57.174Z</time>
      </trkpt>
      <trkpt lat="45.02136" lon="4.34326">
        <ele>1109.612943</ele>
        <time>2026-08-23T09:31:59.180Z</time>
      </trkpt>
      <trkpt lat="45.0214" lon="4.34311">
        <ele>1109.318944</ele>
        <time>2026-08-23T09:32:01.178Z</time>
      </trkpt>
      <trkpt lat="45.02144" lon="4.34297">
        <ele>1109.04883</ele>
        <time>2026-08-23T09:32:03.171Z</time>
      </trkpt>
      <trkpt lat="45.02147" lon="4.34285">
        <ele>1108.794818</ele>
        <time>2026-08-23T09:32:05.171Z</time>
      </trkpt>
      <trkpt lat="45.02151" lon="4.34272">
        <ele>1108.544816</ele>
        <time>2026-08-23T09:32:07.178Z</time>
      </trkpt>
      <trkpt lat="45.02154" lon="4.3426">
        <ele>1108.306061</ele>
        <time>2026-08-23T09:32:09.175Z</time>
      </trkpt>
      <trkpt lat="45.02156" lon="4.34244">
        <ele>1108.002382</ele>
        <time>2026-08-23T09:32:12.177Z</time>
      </trkpt>
      <trkpt lat="45.02155" lon="4.34229">
        <ele>1107.718575</ele>
        <time>2026-08-23T09:32:15.172Z</time>
      </trkpt>
      <trkpt lat="45.02154" lon="4.34214">
        <ele>1107.749859</ele>
        <time>2026-08-23T09:32:18.137Z</time>
      </trkpt>
      <trkpt lat="45.02153" lon="4.34197">
        <ele>1108.278192</ele>
        <time>2026-08-23T09:32:22.173Z</time>
      </trkpt>
      <trkpt lat="45.02152" lon="4.3418">
        <ele>1108.800299</ele>
        <time>2026-08-23T09:32:26.176Z</time>
      </trkpt>
      <trkpt lat="45.02149" lon="4.34166">
        <ele>1109.23917</ele>
        <time>2026-08-23T09:32:30.146Z</time>
      </trkpt>
      <trkpt lat="45.02149" lon="4.34149">
        <ele>1109.754305</ele>
        <time>2026-08-23T09:32:34.172Z</time>
      </trkpt>
      <trkpt lat="45.0215" lon="4.34136">
        <ele>1110.169924</ele>
        <time>2026-08-23T09:32:37.147Z</time>
      </trkpt>
      <trkpt lat="45.0215" lon="4.34121">
        <ele>1110.641768</ele>
        <time>2026-08-23T09:32:41.177Z</time>
      </trkpt>
      <trkpt lat="45.0215" lon="4.34106">
        <ele>1111.095149</ele>
        <time>2026-08-23T09:32:44.177Z</time>
      </trkpt>
      <trkpt lat="45.02152" lon="4.34092">
        <ele>1111.540371</ele>
        <time>2026-08-23T09:32:47.197Z</time>
      </trkpt>
      <trkpt lat="45.02153" lon="4.34078">
        <ele>1111.958537</ele>
        <time>2026-08-23T09:32:50.172Z</time>
      </trkpt>
      <trkpt lat="45.02155" lon="4.34066">
        <ele>1112.353362</ele>
        <time>2026-08-23T09:32:53.181Z</time>
      </trkpt>
      <trkpt lat="45.02156" lon="4.34051">
        <ele>1112.800248</ele>
        <time>2026-08-23T09:32:56.183Z</time>
      </trkpt>
      <trkpt lat="45.02159" lon="4.34037">
        <ele>1113.265685</ele>
        <time>2026-08-23T09:32:59.178Z</time>
      </trkpt>
      <trkpt lat="45.02162" lon="4.34022">
        <ele>1113.743495</ele>
        <time>2026-08-23T09:33:02.170Z</time>
      </trkpt>
      <trkpt lat="45.02165" lon="4.34007">
        <ele>1114.221983</ele>
        <time>2026-08-23T09:33:05.175Z</time>
      </trkpt>
      <trkpt lat="45.02169" lon="4.33994">
        <ele>1114.666385</ele>
        <time>2026-08-23T09:33:08.177Z</time>
      </trkpt>
      <trkpt lat="45.02172" lon="4.33979">
        <ele>1115.158863</ele>
        <time>2026-08-23T09:33:12.173Z</time>
      </trkpt>
      <trkpt lat="45.02177" lon="4.33965">
        <ele>1115.365846</ele>
        <time>2026-08-23T09:33:15.182Z</time>
      </trkpt>
      <trkpt lat="45.02182" lon="4.33948">
        <ele>1115.289967</ele>
        <time>2026-08-23T09:33:18.176Z</time>
      </trkpt>
      <trkpt lat="45.02187" lon="4.33933">
        <ele>1115.221226</ele>
        <time>2026-08-23T09:33:21.179Z</time>
      </trkpt>
      <trkpt lat="45.02192" lon="4.33917">
        <ele>1115.150836</ele>
        <time>2026-08-23T09:33:24.181Z</time>
      </trkpt>
      <trkpt lat="45.02197" lon="4.33901">
        <ele>1115.078791</ele>
        <time>2026-08-23T09:33:27.187Z</time>
      </trkpt>
      <trkpt lat="45.02201" lon="4.33887">
        <ele>1115.012391</ele>
        <time>2026-08-23T09:33:30.172Z</time>
      </trkpt>
      <trkpt lat="45.02204" lon="4.33873">
        <ele>1114.952083</ele>
        <time>2026-08-23T09:33:33.178Z</time>
      </trkpt>
      <trkpt lat="45.02207" lon="4.33855">
        <ele>1114.87879</ele>
        <time>2026-08-23T09:33:36.177Z</time>
      </trkpt>
      <trkpt lat="45.02209" lon="4.33839">
        <ele>1114.808674</ele>
        <time>2026-08-23T09:33:39.180Z</time>
      </trkpt>
      <trkpt lat="45.02211" lon="4.33825">
        <ele>1114.749502</ele>
        <time>2026-08-23T09:33:42.172Z</time>
      </trkpt>
      <trkpt lat="45.02212" lon="4.33809">
        <ele>1114.684575</ele>
        <time>2026-08-23T09:33:45.179Z</time>
      </trkpt>
      <trkpt lat="45.02213" lon="4.33793">
        <ele>1114.617997</ele>
        <time>2026-08-23T09:33:48.172Z</time>
      </trkpt>
      <trkpt lat="45.02214" lon="4.33777">
        <ele>1114.549896</ele>
        <time>2026-08-23T09:33:51.177Z</time>
      </trkpt>
      <trkpt lat="45.02215" lon="4.3376">
        <ele>1114.480841</ele>
        <time>2026-08-23T09:33:54.184Z</time>
      </trkpt>
      <trkpt lat="45.02216" lon="4.33744">
        <ele>1114.411263</ele>
        <time>2026-08-23T09:33:57.175Z</time>
      </trkpt>
      <trkpt lat="45.02214" lon="4.33729">
        <ele>1114.350953</ele>
        <time>2026-08-23T09:34:00.178Z</time>
      </trkpt>
      <trkpt lat="45.02214" lon="4.33714">
        <ele>1114.356228</ele>
        <time>2026-08-23T09:34:04.173Z</time>
      </trkpt>
      <trkpt lat="45.02211" lon="4.337">
        <ele>1114.370008</ele>
        <time>2026-08-23T09:34:08.180Z</time>
      </trkpt>
      <trkpt lat="45.0221" lon="4.33686">
        <ele>1114.384208</ele>
        <time>2026-08-23T09:34:12.176Z</time>
      </trkpt>
      <trkpt lat="45.0221" lon="4.33673">
        <ele>1114.397185</ele>
        <time>2026-08-23T09:34:15.177Z</time>
      </trkpt>
      <trkpt lat="45.02211" lon="4.33659">
        <ele>1114.410647</ele>
        <time>2026-08-23T09:34:18.175Z</time>
      </trkpt>
      <trkpt lat="45.02212" lon="4.33643">
        <ele>1114.426228</ele>
        <time>2026-08-23T09:34:21.181Z</time>
      </trkpt>
      <trkpt lat="45.02214" lon="4.33628">
        <ele>1114.441174</ele>
        <time>2026-08-23T09:34:24.178Z</time>
      </trkpt>
      <trkpt lat="45.02214" lon="4.33612">
        <ele>1114.457383</ele>
        <time>2026-08-23T09:34:28.173Z</time>
      </trkpt>
      <trkpt lat="45.02211" lon="4.33598">
        <ele>1114.471791</ele>
        <time>2026-08-23T09:34:32.176Z</time>
      </trkpt>
      <trkpt lat="45.02212" lon="4.33583">
        <ele>1114.485755</ele>
        <time>2026-08-23T09:34:35.182Z</time>
      </trkpt>
      <trkpt lat="45.02213" lon="4.33568">
        <ele>1114.500847</ele>
        <time>2026-08-23T09:34:38.176Z</time>
      </trkpt>
      <trkpt lat="45.02211" lon="4.33553">
        <ele>1114.515647</ele>
        <time>2026-08-23T09:34:41.179Z</time>
      </trkpt>
      <trkpt lat="45.02208" lon="4.3354">
        <ele>1114.529734</ele>
        <time>2026-08-23T09:34:44.175Z</time>
      </trkpt>
      <trkpt lat="45.02207" lon="4.33524">
        <ele>1114.545165</ele>
        <time>2026-08-23T09:34:47.162Z</time>
      </trkpt>
      <trkpt lat="45.02206" lon="4.33508">
        <ele>1114.561037</ele>
        <time>2026-08-23T09:34:50.180Z</time>
      </trkpt>
      <trkpt lat="45.02204" lon="4.33493">
        <ele>1114.575473</ele>
        <time>2026-08-23T09:34:53.174Z</time>
      </trkpt>
      <trkpt lat="45.02202" lon="4.33477">
        <ele>1114.591723</ele>
        <time>2026-08-23T09:34:57.181Z</time>
      </trkpt>
      <trkpt lat="45.02199" lon="4.33464">
        <ele>1114.730011</ele>
        <time>2026-08-23T09:35:00.177Z</time>
      </trkpt>
      <trkpt lat="45.02198" lon="4.33447">
        <ele>1114.910701</ele>
        <time>2026-08-23T09:35:03.181Z</time>
      </trkpt>
      <trkpt lat="45.02197" lon="4.33434">
        <ele>1115.054946</ele>
        <time>2026-08-23T09:35:05.169Z</time>
      </trkpt>
      <trkpt lat="45.02198" lon="4.33415">
        <ele>1115.257269</ele>
        <time>2026-08-23T09:35:08.182Z</time>
      </trkpt>
      <trkpt lat="45.02198" lon="4.33401">
        <ele>1115.408088</ele>
        <time>2026-08-23T09:35:10.169Z</time>
      </trkpt>
      <trkpt lat="45.02198" lon="4.33387">
        <ele>1115.564162</ele>
        <time>2026-08-23T09:35:12.172Z</time>
      </trkpt>
      <trkpt lat="45.02197" lon="4.33372">
        <ele>1115.718206</ele>
        <time>2026-08-23T09:35:14.172Z</time>
      </trkpt>
      <trkpt lat="45.02197" lon="4.33357">
        <ele>1115.878697</ele>
        <time>2026-08-23T09:35:16.173Z</time>
      </trkpt>
      <trkpt lat="45.02195" lon="4.33343">
        <ele>1116.036153</ele>
        <time>2026-08-23T09:35:18.177Z</time>
      </trkpt>
      <trkpt lat="45.02194" lon="4.3333">
        <ele>1116.176848</ele>
        <time>2026-08-23T09:35:20.171Z</time>
      </trkpt>
      <trkpt lat="45.02194" lon="4.33316">
        <ele>1116.323456</ele>
        <time>2026-08-23T09:35:22.176Z</time>
      </trkpt>
      <trkpt lat="45.02193" lon="4.33301">
        <ele>1116.490563</ele>
        <time>2026-08-23T09:35:24.184Z</time>
      </trkpt>
      <trkpt lat="45.02192" lon="4.33286">
        <ele>1116.654554</ele>
        <time>2026-08-23T09:35:26.182Z</time>
      </trkpt>
      <trkpt lat="45.02192" lon="4.33271">
        <ele>1116.807455</ele>
        <time>2026-08-23T09:35:28.176Z</time>
      </trkpt>
      <trkpt lat="45.02192" lon="4.33258">
        <ele>1116.953977</ele>
        <time>2026-08-23T09:35:30.173Z</time>
      </trkpt>
      <trkpt lat="45.02193" lon="4.33244">
        <ele>1117.10737</ele>
        <time>2026-08-23T09:35:32.176Z</time>
      </trkpt>
      <trkpt lat="45.02192" lon="4.33228">
        <ele>1117.277824</ele>
        <time>2026-08-23T09:35:35.185Z</time>
      </trkpt>
      <trkpt lat="45.02191" lon="4.3321">
        <ele>1117.538367</ele>
        <time>2026-08-23T09:35:38.176Z</time>
      </trkpt>
      <trkpt lat="45.02192" lon="4.33194">
        <ele>1117.781923</ele>
        <time>2026-08-23T09:35:40.178Z</time>
      </trkpt>
      <trkpt lat="45.02193" lon="4.33177">
        <ele>1118.050753</ele>
        <time>2026-08-23T09:35:42.173Z</time>
      </trkpt>
      <trkpt lat="45.02193" lon="4.3316">
        <ele>1118.302155</ele>
        <time>2026-08-23T09:35:44.176Z</time>
      </trkpt>
      <trkpt lat="45.02193" lon="4.33144">
        <ele>1118.559748</ele>
        <time>2026-08-23T09:35:46.185Z</time>
      </trkpt>
      <trkpt lat="45.02192" lon="4.33127">
        <ele>1118.816216</ele>
        <time>2026-08-23T09:35:48.181Z</time>
      </trkpt>
      <trkpt lat="45.02193" lon="4.33109">
        <ele>1119.103755</ele>
        <time>2026-08-23T09:35:50.175Z</time>
      </trkpt>
      <trkpt lat="45.02193" lon="4.33092">
        <ele>1119.36271</ele>
        <time>2026-08-23T09:35:52.183Z</time>
      </trkpt>
      <trkpt lat="45.02195" lon="4.33075">
        <ele>1119.630785</ele>
        <time>2026-08-23T09:35:54.176Z</time>
      </trkpt>
      <trkpt lat="45.02195" lon="4.3306">
        <ele>1119.863752</ele>
        <time>2026-08-23T09:35:56.180Z</time>
      </trkpt>
      <trkpt lat="45.02197" lon="4.33046">
        <ele>1120.084275</ele>
        <time>2026-08-23T09:35:58.173Z</time>
      </trkpt>
      <trkpt lat="45.02198" lon="4.33033">
        <ele>1120.284679</ele>
        <time>2026-08-23T09:36:00.181Z</time>
      </trkpt>
      <trkpt lat="45.02198" lon="4.33015">
        <ele>1120.568289</ele>
        <time>2026-08-23T09:36:03.180Z</time>
      </trkpt>
      <trkpt lat="45.022" lon="4.33">
        <ele>1120.794914</ele>
        <time>2026-08-23T09:36:05.177Z</time>
      </trkpt>
      <trkpt lat="45.02203" lon="4.32984">
        <ele>1121.05643</ele>
        <time>2026-08-23T09:36:07.175Z</time>
      </trkpt>
      <trkpt lat="45.02203" lon="4.3297">
        <ele>1121.265931</ele>
        <time>2026-08-23T09:36:09.179Z</time>
      </trkpt>
      <trkpt lat="45.02203" lon="4.32957">
        <ele>1121.150386</ele>
        <time>2026-08-23T09:36:11.176Z</time>
      </trkpt>
      <trkpt lat="45.02204" lon="4.32944">
        <ele>1121.019481</ele>
        <time>2026-08-23T09:36:13.178Z</time>
      </trkpt>
      <trkpt lat="45.02204" lon="4.32931">
        <ele>1120.895629</ele>
        <time>2026-08-23T09:36:15.176Z</time>
      </trkpt>
      <trkpt lat="45.02204" lon="4.32917">
        <ele>1120.765782</ele>
        <time>2026-08-23T09:36:17.176Z</time>
      </trkpt>
      <trkpt lat="45.02205" lon="4.32903">
        <ele>1120.627161</ele>
        <time>2026-08-23T09:36:19.177Z</time>
      </trkpt>
      <trkpt lat="45.02205" lon="4.32889">
        <ele>1120.49461</ele>
        <time>2026-08-23T09:36:21.179Z</time>
      </trkpt>
      <trkpt lat="45.02206" lon="4.32876">
        <ele>1120.367994</ele>
        <time>2026-08-23T09:36:23.173Z</time>
      </trkpt>
      <trkpt lat="45.02204" lon="4.32864">
        <ele>1120.240919</ele>
        <time>2026-08-23T09:36:26.173Z</time>
      </trkpt>
      <trkpt lat="45.02196" lon="4.32856">
        <ele>1120.109616</ele>
        <time>2026-08-23T09:36:29.191Z</time>
      </trkpt>
      <trkpt lat="45.02185" lon="4.32863">
        <ele>1119.953269</ele>
        <time>2026-08-23T09:36:32.186Z</time>
      </trkpt>
      <trkpt lat="45.02176" lon="4.3287">
        <ele>1119.812753</ele>
        <time>2026-08-23T09:36:34.172Z</time>
      </trkpt>
      <trkpt lat="45.02168" lon="4.32875">
        <ele>1119.683226</ele>
        <time>2026-08-23T09:36:36.178Z</time>
      </trkpt>
      <trkpt lat="45.02156" lon="4.32884">
        <ele>1119.500841</ele>
        <time>2026-08-23T09:36:39.177Z</time>
      </trkpt>
      <trkpt lat="45.02143" lon="4.32893">
        <ele>1119.305499</ele>
        <time>2026-08-23T09:36:42.171Z</time>
      </trkpt>
      <trkpt lat="45.02134" lon="4.32901">
        <ele>1119.158322</ele>
        <time>2026-08-23T09:36:45.175Z</time>
      </trkpt>
      <trkpt lat="45.02124" lon="4.32906">
        <ele>1119.016617</ele>
        <time>2026-08-23T09:36:48.185Z</time>
      </trkpt>
      <trkpt lat="45.02115" lon="4.32911">
        <ele>1118.878601</ele>
        <time>2026-08-23T09:36:50.184Z</time>
      </trkpt>
      <trkpt lat="45.02103" lon="4.32916">
        <ele>1118.971579</ele>
        <time>2026-08-23T09:36:53.181Z</time>
      </trkpt>
      <trkpt lat="45.02091" lon="4.32922">
        <ele>1119.233573</ele>
        <time>2026-08-23T09:36:56.175Z</time>
      </trkpt>
      <trkpt lat="45.02081" lon="4.32926">
        <ele>1119.440609</ele>
        <time>2026-08-23T09:36:58.172Z</time>
      </trkpt>
      <trkpt lat="45.02071" lon="4.3293">
        <ele>1119.658493</ele>
        <time>2026-08-23T09:37:00.180Z</time>
      </trkpt>
      <trkpt lat="45.0206" lon="4.32932">
        <ele>1119.883767</ele>
        <time>2026-08-23T09:37:02.177Z</time>
      </trkpt>
      <trkpt lat="45.0205" lon="4.32935">
        <ele>1120.098834</ele>
        <time>2026-08-23T09:37:04.173Z</time>
      </trkpt>
      <trkpt lat="45.02041" lon="4.32938">
        <ele>1120.291176</ele>
        <time>2026-08-23T09:37:06.176Z</time>
      </trkpt>
      <trkpt lat="45.02028" lon="4.32943">
        <ele>1120.562934</ele>
        <time>2026-08-23T09:37:09.191Z</time>
      </trkpt>
      <trkpt lat="45.02018" lon="4.32945">
        <ele>1120.776079</ele>
        <time>2026-08-23T09:37:11.176Z</time>
      </trkpt>
      <trkpt lat="45.02005" lon="4.32946">
        <ele>1121.037913</ele>
        <time>2026-08-23T09:37:14.152Z</time>
      </trkpt>
      <trkpt lat="45.01995" lon="4.32946">
        <ele>1121.239777</ele>
        <time>2026-08-23T09:37:16.175Z</time>
      </trkpt>
      <trkpt lat="45.01985" lon="4.32947">
        <ele>1121.443822</ele>
        <time>2026-08-23T09:37:18.181Z</time>
      </trkpt>
      <trkpt lat="45.01975" lon="4.32949">
        <ele>1121.651719</ele>
        <time>2026-08-23T09:37:20.171Z</time>
      </trkpt>
      <trkpt lat="45.01965" lon="4.32953">
        <ele>1121.874465</ele>
        <time>2026-08-23T09:37:23.179Z</time>
      </trkpt>
      <trkpt lat="45.01954" lon="4.32955">
        <ele>1122.105396</ele>
        <time>2026-08-23T09:37:26.173Z</time>
      </trkpt>
      <trkpt lat="45.01943" lon="4.32959">
        <ele>1122.342485</ele>
        <time>2026-08-23T09:37:29.180Z</time>
      </trkpt>
      <trkpt lat="45.01931" lon="4.32963">
        <ele>1122.550286</ele>
        <time>2026-08-23T09:37:32.171Z</time>
      </trkpt>
      <trkpt lat="45.01922" lon="4.32963">
        <ele>1122.647069</ele>
        <time>2026-08-23T09:37:34.186Z</time>
      </trkpt>
      <trkpt lat="45.0191" lon="4.32958">
        <ele>1122.786364</ele>
        <time>2026-08-23T09:37:37.174Z</time>
      </trkpt>
      <trkpt lat="45.01899" lon="4.32949">
        <ele>1122.91817</ele>
        <time>2026-08-23T09:37:40.171Z</time>
      </trkpt>
      <trkpt lat="45.01891" lon="4.32943">
        <ele>1123.018748</ele>
        <time>2026-08-23T09:37:42.179Z</time>
      </trkpt>
      <trkpt lat="45.01884" lon="4.32935">
        <ele>1123.11814</ele>
        <time>2026-08-23T09:37:44.183Z</time>
      </trkpt>
      <trkpt lat="45.01879" lon="4.32922">
        <ele>1123.226989</ele>
        <time>2026-08-23T09:37:46.177Z</time>
      </trkpt>
      <trkpt lat="45.01873" lon="4.3291">
        <ele>1123.335701</ele>
        <time>2026-08-23T09:37:48.193Z</time>
      </trkpt>
      <trkpt lat="45.01865" lon="4.32896">
        <ele>1123.479475</ele>
        <time>2026-08-23T09:37:51.181Z</time>
      </trkpt>
      <trkpt lat="45.01856" lon="4.32883">
        <ele>1123.616661</ele>
        <time>2026-08-23T09:37:54.181Z</time>
      </trkpt>
      <trkpt lat="45.01847" lon="4.32872">
        <ele>1123.741938</ele>
        <time>2026-08-23T09:37:57.183Z</time>
      </trkpt>
      <trkpt lat="45.01837" lon="4.32862">
        <ele>1123.87277</ele>
        <time>2026-08-23T09:38:00.174Z</time>
      </trkpt>
      <trkpt lat="45.01828" lon="4.32849">
        <ele>1124.011086</ele>
        <time>2026-08-23T09:38:03.171Z</time>
      </trkpt>
      <trkpt lat="45.0182" lon="4.32838">
        <ele>1124.134965</ele>
        <time>2026-08-23T09:38:06.181Z</time>
      </trkpt>
      <trkpt lat="45.01811" lon="4.32827">
        <ele>1124.26044</ele>
        <time>2026-08-23T09:38:09.177Z</time>
      </trkpt>
      <trkpt lat="45.01802" lon="4.32816">
        <ele>1124.386134</ele>
        <time>2026-08-23T09:38:12.182Z</time>
      </trkpt>
      <trkpt lat="45.01794" lon="4.32805">
        <ele>1124.610346</ele>
        <time>2026-08-23T09:38:15.184Z</time>
      </trkpt>
      <trkpt lat="45.01785" lon="4.32793">
        <ele>1124.982297</ele>
        <time>2026-08-23T09:38:18.175Z</time>
      </trkpt>
      <trkpt lat="45.01775" lon="4.32783">
        <ele>1125.312528</ele>
        <time>2026-08-23T09:38:21.179Z</time>
      </trkpt>
      <trkpt lat="45.01766" lon="4.32774">
        <ele>1125.636812</ele>
        <time>2026-08-23T09:38:24.174Z</time>
      </trkpt>
      <trkpt lat="45.01755" lon="4.32764">
        <ele>1126.016463</ele>
        <time>2026-08-23T09:38:27.178Z</time>
      </trkpt>
      <trkpt lat="45.01744" lon="4.32756">
        <ele>1126.385496</ele>
        <time>2026-08-23T09:38:30.178Z</time>
      </trkpt>
      <trkpt lat="45.01731" lon="4.3275">
        <ele>1126.784854</ele>
        <time>2026-08-23T09:38:33.152Z</time>
      </trkpt>
      <trkpt lat="45.01722" lon="4.32745">
        <ele>1127.058332</ele>
        <time>2026-08-23T09:38:35.180Z</time>
      </trkpt>
      <trkpt lat="45.01714" lon="4.3274">
        <ele>1127.333967</ele>
        <time>2026-08-23T09:38:37.179Z</time>
      </trkpt>
      <trkpt lat="45.01705" lon="4.32736">
        <ele>1127.601131</ele>
        <time>2026-08-23T09:38:39.178Z</time>
      </trkpt>
      <trkpt lat="45.01694" lon="4.32735">
        <ele>1127.938056</ele>
        <time>2026-08-23T09:38:42.176Z</time>
      </trkpt>
      <trkpt lat="45.01682" lon="4.32734">
        <ele>1128.268715</ele>
        <time>2026-08-23T09:38:45.185Z</time>
      </trkpt>
      <trkpt lat="45.01672" lon="4.32735">
        <ele>1128.57471</ele>
        <time>2026-08-23T09:38:48.181Z</time>
      </trkpt>
      <trkpt lat="45.01661" lon="4.32735">
        <ele>1128.88428</ele>
        <time>2026-08-23T09:38:51.181Z</time>
      </trkpt>
      <trkpt lat="45.01652" lon="4.32734">
        <ele>1129.163448</ele>
        <time>2026-08-23T09:38:54.181Z</time>
      </trkpt>
      <trkpt lat="45.01641" lon="4.32733">
        <ele>1129.471271</ele>
        <time>2026-08-23T09:38:57.178Z</time>
      </trkpt>
      <trkpt lat="45.01632" lon="4.32732">
        <ele>1129.734457</ele>
        <time>2026-08-23T09:39:00.179Z</time>
      </trkpt>
      <trkpt lat="45.01622" lon="4.32727">
        <ele>1130.039729</ele>
        <time>2026-08-23T09:39:04.174Z</time>
      </trkpt>
      <trkpt lat="45.0161" lon="4.32724">
        <ele>1130.400234</ele>
        <time>2026-08-23T09:39:08.177Z</time>
      </trkpt>
      <trkpt lat="45.01599" lon="4.32722">
        <ele>1130.721809</ele>
        <time>2026-08-23T09:39:12.181Z</time>
      </trkpt>
      <trkpt lat="45.01587" lon="4.32721">
        <ele>1131.050556</ele>
        <time>2026-08-23T09:39:15.179Z</time>
      </trkpt>
      <trkpt lat="45.01577" lon="4.32719">
        <ele>1131.343816</ele>
        <time>2026-08-23T09:39:18.173Z</time>
      </trkpt>
      <trkpt lat="45.01568" lon="4.32717">
        <ele>1131.607802</ele>
        <time>2026-08-23T09:39:21.173Z</time>
      </trkpt>
      <trkpt lat="45.01556" lon="4.32713">
        <ele>1131.978065</ele>
        <time>2026-08-23T09:39:24.180Z</time>
      </trkpt>
      <trkpt lat="45.01547" lon="4.32708">
        <ele>1132.238816</ele>
        <time>2026-08-23T09:39:26.178Z</time>
      </trkpt>
      <trkpt lat="45.01539" lon="4.32702">
        <ele>1132.507094</ele>
        <time>2026-08-23T09:39:28.169Z</time>
      </trkpt>
      <trkpt lat="45.01526" lon="4.32697">
        <ele>1132.891823</ele>
        <time>2026-08-23T09:39:31.179Z</time>
      </trkpt>
      <trkpt lat="45.01513" lon="4.32693">
        <ele>1133.275178</ele>
        <time>2026-08-23T09:39:34.171Z</time>
      </trkpt>
      <trkpt lat="45.01501" lon="4.32688">
        <ele>1133.629139</ele>
        <time>2026-08-23T09:39:37.173Z</time>
      </trkpt>
      <trkpt lat="45.01493" lon="4.32684">
        <ele>1133.893075</ele>
        <time>2026-08-23T09:39:39.178Z</time>
      </trkpt>
      <trkpt lat="45.01484" lon="4.32681">
        <ele>1134.162832</ele>
        <time>2026-08-23T09:39:41.169Z</time>
      </trkpt>
      <trkpt lat="45.01471" lon="4.32674">
        <ele>1134.549522</ele>
        <time>2026-08-23T09:39:44.182Z</time>
      </trkpt>
      <trkpt lat="45.01462" lon="4.3267">
        <ele>1134.818847</ele>
        <time>2026-08-23T09:39:46.177Z</time>
      </trkpt>
      <trkpt lat="45.01453" lon="4.32665">
        <ele>1134.793254</ele>
        <time>2026-08-23T09:39:48.187Z</time>
      </trkpt>
      <trkpt lat="45.01444" lon="4.3266">
        <ele>1134.688271</ele>
        <time>2026-08-23T09:39:50.177Z</time>
      </trkpt>
      <trkpt lat="45.01435" lon="4.32656">
        <ele>1134.583287</ele>
        <time>2026-08-23T09:39:52.177Z</time>
      </trkpt>
      <trkpt lat="45.01423" lon="4.32652">
        <ele>1134.441357</ele>
        <time>2026-08-23T09:39:55.176Z</time>
      </trkpt>
      <trkpt lat="45.0141" lon="4.32646">
        <ele>1134.285366</ele>
        <time>2026-08-23T09:39:58.171Z</time>
      </trkpt>
      <trkpt lat="45.014" lon="4.32645">
        <ele>1134.17935</ele>
        <time>2026-08-23T09:40:00.183Z</time>
      </trkpt>
      <trkpt lat="45.01392" lon="4.32641">
        <ele>1134.076301</ele>
        <time>2026-08-23T09:40:02.173Z</time>
      </trkpt>
      <trkpt lat="45.01383" lon="4.32637">
        <ele>1133.973692</ele>
        <time>2026-08-23T09:40:04.175Z</time>
      </trkpt>
      <trkpt lat="45.01374" lon="4.32633">
        <ele>1133.868627</ele>
        <time>2026-08-23T09:40:06.189Z</time>
      </trkpt>
      <trkpt lat="45.01366" lon="4.32627">
        <ele>1133.765463</ele>
        <time>2026-08-23T09:40:08.176Z</time>
      </trkpt>
      <trkpt lat="45.01357" lon="4.32621">
        <ele>1133.655415</ele>
        <time>2026-08-23T09:40:10.178Z</time>
      </trkpt>
      <trkpt lat="45.01345" lon="4.32615">
        <ele>1133.512285</ele>
        <time>2026-08-23T09:40:13.185Z</time>
      </trkpt>
      <trkpt lat="45.01334" lon="4.3261">
        <ele>1133.386603</ele>
        <time>2026-08-23T09:40:16.179Z</time>
      </trkpt>
      <trkpt lat="45.01325" lon="4.32606">
        <ele>1133.281832</ele>
        <time>2026-08-23T09:40:18.184Z</time>
      </trkpt>
      <trkpt lat="45.01316" lon="4.32603">
        <ele>1133.169282</ele>
        <time>2026-08-23T09:40:20.185Z</time>
      </trkpt>
      <trkpt lat="45.01305" lon="4.32602">
        <ele>1133.047795</ele>
        <time>2026-08-23T09:40:22.170Z</time>
      </trkpt>
      <trkpt lat="45.01293" lon="4.326">
        <ele>1132.913084</ele>
        <time>2026-08-23T09:40:24.177Z</time>
      </trkpt>
      <trkpt lat="45.01283" lon="4.32596">
        <ele>1132.805804</ele>
        <time>2026-08-23T09:40:26.180Z</time>
      </trkpt>
      <trkpt lat="45.01273" lon="4.32591">
        <ele>1132.713722</ele>
        <time>2026-08-23T09:40:28.168Z</time>
      </trkpt>
      <trkpt lat="45.01263" lon="4.32589">
        <ele>1132.623923</ele>
        <time>2026-08-23T09:40:30.177Z</time>
      </trkpt>
      <trkpt lat="45.0125" lon="4.32586">
        <ele>1132.507199</ele>
        <time>2026-08-23T09:40:33.174Z</time>
      </trkpt>
      <trkpt lat="45.01239" lon="4.3258">
        <ele>1132.396606</ele>
        <time>2026-08-23T09:40:36.176Z</time>
      </trkpt>
      <trkpt lat="45.01226" lon="4.32573">
        <ele>1132.275312</ele>
        <time>2026-08-23T09:40:39.177Z</time>
      </trkpt>
      <trkpt lat="45.01216" lon="4.32568">
        <ele>1132.173244</ele>
        <time>2026-08-23T09:40:41.178Z</time>
      </trkpt>
      <trkpt lat="45.01204" lon="4.32564">
        <ele>1132.068978</ele>
        <time>2026-08-23T09:40:43.172Z</time>
      </trkpt>
      <trkpt lat="45.01194" lon="4.32558">
        <ele>1131.967024</ele>
        <time>2026-08-23T09:40:45.169Z</time>
      </trkpt>
      <trkpt lat="45.01185" lon="4.32549">
        <ele>1131.863667</ele>
        <time>2026-08-23T09:40:47.184Z</time>
      </trkpt>
      <trkpt lat="45.01175" lon="4.3254">
        <ele>1131.763983</ele>
        <time>2026-08-23T09:40:49.176Z</time>
      </trkpt>
      <trkpt lat="45.01165" lon="4.32535">
        <ele>1131.664003</ele>
        <time>2026-08-23T09:40:51.173Z</time>
      </trkpt>
      <trkpt lat="45.01155" lon="4.32531">
        <ele>1131.568816</ele>
        <time>2026-08-23T09:40:53.177Z</time>
      </trkpt>
      <trkpt lat="45.01145" lon="4.32524">
        <ele>1131.472606</ele>
        <time>2026-08-23T09:40:55.171Z</time>
      </trkpt>
      <trkpt lat="45.01136" lon="4.32519">
        <ele>1131.378139</ele>
        <time>2026-08-23T09:40:57.179Z</time>
      </trkpt>
      <trkpt lat="45.01125" lon="4.32514">
        <ele>1131.276668</ele>
        <time>2026-08-23T09:40:59.180Z</time>
      </trkpt>
      <trkpt lat="45.01115" lon="4.32508">
        <ele>1131.465555</ele>
        <time>2026-08-23T09:41:01.178Z</time>
      </trkpt>
      <trkpt lat="45.01104" lon="4.32503">
        <ele>1131.876042</ele>
        <time>2026-08-23T09:41:03.172Z</time>
      </trkpt>
      <trkpt lat="45.01095" lon="4.32498">
        <ele>1132.259443</ele>
        <time>2026-08-23T09:41:05.175Z</time>
      </trkpt>
      <trkpt lat="45.01085" lon="4.32494">
        <ele>1132.649051</ele>
        <time>2026-08-23T09:41:07.181Z</time>
      </trkpt>
      <trkpt lat="45.01076" lon="4.32489">
        <ele>1132.99899</ele>
        <time>2026-08-23T09:41:09.177Z</time>
      </trkpt>
      <trkpt lat="45.01064" lon="4.32482">
        <ele>1133.488287</ele>
        <time>2026-08-23T09:41:12.182Z</time>
      </trkpt>
      <trkpt lat="45.01051" lon="4.32477">
        <ele>1133.980289</ele>
        <time>2026-08-23T09:41:15.175Z</time>
      </trkpt>
      <trkpt lat="45.01042" lon="4.32473">
        <ele>1134.315415</ele>
        <time>2026-08-23T09:41:17.176Z</time>
      </trkpt>
      <trkpt lat="45.01029" lon="4.32469">
        <ele>1134.803469</ele>
        <time>2026-08-23T09:41:20.177Z</time>
      </trkpt>
      <trkpt lat="45.01017" lon="4.32465">
        <ele>1135.274695</ele>
        <time>2026-08-23T09:41:23.173Z</time>
      </trkpt>
      <trkpt lat="45.01005" lon="4.32462">
        <ele>1135.713091</ele>
        <time>2026-08-23T09:41:26.179Z</time>
      </trkpt>
      <trkpt lat="45.00996" lon="4.32458">
        <ele>1136.059089</ele>
        <time>2026-08-23T09:41:30.184Z</time>
      </trkpt>
      <trkpt lat="45.00981" lon="4.32461">
        <ele>1136.624048</ele>
        <time>2026-08-23T09:47:02.183Z</time>
      </trkpt>
      <trkpt lat="45.00972" lon="4.32452">
        <ele>1137.037763</ele>
        <time>2026-08-23T09:47:07.178Z</time>
      </trkpt>
      <trkpt lat="45.00965" lon="4.32441">
        <ele>1137.40891</ele>
        <time>2026-08-23T09:47:10.173Z</time>
      </trkpt>
      <trkpt lat="45.00957" lon="4.32436">
        <ele>1137.744195</ele>
        <time>2026-08-23T09:47:13.170Z</time>
      </trkpt>
      <trkpt lat="45.00948" lon="4.32431">
        <ele>1137.871947</ele>
        <time>2026-08-23T09:47:16.180Z</time>
      </trkpt>
      <trkpt lat="45.00938" lon="4.32425">
        <ele>1137.813641</ele>
        <time>2026-08-23T09:47:19.171Z</time>
      </trkpt>
      <trkpt lat="45.00926" lon="4.32423">
        <ele>1137.752895</ele>
        <time>2026-08-23T09:47:22.179Z</time>
      </trkpt>
      <trkpt lat="45.00917" lon="4.3242">
        <ele>1137.70611</ele>
        <time>2026-08-23T09:47:24.176Z</time>
      </trkpt>
      <trkpt lat="45.00905" lon="4.32414">
        <ele>1137.645072</ele>
        <time>2026-08-23T09:47:27.142Z</time>
      </trkpt>
      <trkpt lat="45.00894" lon="4.3241">
        <ele>1137.583207</ele>
        <time>2026-08-23T09:47:30.138Z</time>
      </trkpt>
      <trkpt lat="45.00882" lon="4.32405">
        <ele>1137.522535</ele>
        <time>2026-08-23T09:47:33.178Z</time>
      </trkpt>
      <trkpt lat="45.00873" lon="4.32401">
        <ele>1137.474348</ele>
        <time>2026-08-23T09:47:35.176Z</time>
      </trkpt>
      <trkpt lat="45.00864" lon="4.32397">
        <ele>1137.425884</ele>
        <time>2026-08-23T09:47:37.174Z</time>
      </trkpt>
      <trkpt lat="45.00854" lon="4.32391">
        <ele>1137.37154</ele>
        <time>2026-08-23T09:47:39.188Z</time>
      </trkpt>
      <trkpt lat="45.00844" lon="4.32388">
        <ele>1137.317922</ele>
        <time>2026-08-23T09:47:41.180Z</time>
      </trkpt>
      <trkpt lat="45.00833" lon="4.32387">
        <ele>1137.264999</ele>
        <time>2026-08-23T09:47:43.177Z</time>
      </trkpt>
      <trkpt lat="45.00821" lon="4.32383">
        <ele>1137.19977</ele>
        <time>2026-08-23T09:47:46.182Z</time>
      </trkpt>
      <trkpt lat="45.00811" lon="4.32378">
        <ele>1137.147117</ele>
        <time>2026-08-23T09:47:48.180Z</time>
      </trkpt>
      <trkpt lat="45.00803" lon="4.32373">
        <ele>1137.099955</ele>
        <time>2026-08-23T09:47:50.185Z</time>
      </trkpt>
      <trkpt lat="45.00792" lon="4.32364">
        <ele>1137.036934</ele>
        <time>2026-08-23T09:47:53.181Z</time>
      </trkpt>
      <trkpt lat="45.00784" lon="4.32357">
        <ele>1136.990971</ele>
        <time>2026-08-23T09:47:55.172Z</time>
      </trkpt>
      <trkpt lat="45.00774" lon="4.3235">
        <ele>1137.079961</ele>
        <time>2026-08-23T09:47:58.171Z</time>
      </trkpt>
      <trkpt lat="45.00763" lon="4.32345">
        <ele>1137.18107</ele>
        <time>2026-08-23T09:48:01.172Z</time>
      </trkpt>
      <trkpt lat="45.00752" lon="4.32339">
        <ele>1137.283966</ele>
        <time>2026-08-23T09:48:04.184Z</time>
      </trkpt>
      <trkpt lat="45.00741" lon="4.32335">
        <ele>1137.382014</ele>
        <time>2026-08-23T09:48:07.179Z</time>
      </trkpt>
      <trkpt lat="45.00732" lon="4.32332">
        <ele>1137.462574</ele>
        <time>2026-08-23T09:48:09.179Z</time>
      </trkpt>
      <trkpt lat="45.00719" lon="4.32328">
        <ele>1137.575866</ele>
        <time>2026-08-23T09:48:12.181Z</time>
      </trkpt>
      <trkpt lat="45.00707" lon="4.32323">
        <ele>1137.690484</ele>
        <time>2026-08-23T09:48:15.187Z</time>
      </trkpt>
      <trkpt lat="45.00697" lon="4.32318">
        <ele>1137.786132</ele>
        <time>2026-08-23T09:48:18.171Z</time>
      </trkpt>
      <trkpt lat="45.00684" lon="4.32312">
        <ele>1137.898048</ele>
        <time>2026-08-23T09:48:21.180Z</time>
      </trkpt>
      <trkpt lat="45.00674" lon="4.32306">
        <ele>1138.000192</ele>
        <time>2026-08-23T09:48:24.176Z</time>
      </trkpt>
      <trkpt lat="45.00664" lon="4.323">
        <ele>1138.095796</ele>
        <time>2026-08-23T09:48:27.172Z</time>
      </trkpt>
      <trkpt lat="45.00653" lon="4.32292">
        <ele>1138.202519</ele>
        <time>2026-08-23T09:48:30.185Z</time>
      </trkpt>
      <trkpt lat="45.00644" lon="4.32288">
        <ele>1138.285328</ele>
        <time>2026-08-23T09:48:32.182Z</time>
      </trkpt>
      <trkpt lat="45.00635" lon="4.32284">
        <ele>1138.367825</ele>
        <time>2026-08-23T09:48:34.176Z</time>
      </trkpt>
      <trkpt lat="45.00626" lon="4.3228">
        <ele>1138.45099</ele>
        <time>2026-08-23T09:48:36.179Z</time>
      </trkpt>
      <trkpt lat="45.00613" lon="4.32275">
        <ele>1138.558864</ele>
        <time>2026-08-23T09:48:39.176Z</time>
      </trkpt>
      <trkpt lat="45.00601" lon="4.3227">
        <ele>1138.366613</ele>
        <time>2026-08-23T09:48:42.185Z</time>
      </trkpt>
      <trkpt lat="45.00589" lon="4.32264">
        <ele>1138.174467</ele>
        <time>2026-08-23T09:48:45.179Z</time>
      </trkpt>
      <trkpt lat="45.00578" lon="4.32258">
        <ele>1137.98665</ele>
        <time>2026-08-23T09:48:48.173Z</time>
      </trkpt>
      <trkpt lat="45.00568" lon="4.32252">
        <ele>1137.81908</ele>
        <time>2026-08-23T09:48:51.180Z</time>
      </trkpt>
      <trkpt lat="45.00558" lon="4.32247">
        <ele>1137.662882</ele>
        <time>2026-08-23T09:48:54.190Z</time>
      </trkpt>
      <trkpt lat="45.00549" lon="4.32241">
        <ele>1137.501845</ele>
        <time>2026-08-23T09:48:57.179Z</time>
      </trkpt>
      <trkpt lat="45.00537" lon="4.32235">
        <ele>1137.317292</ele>
        <time>2026-08-23T09:49:00.180Z</time>
      </trkpt>
      <trkpt lat="45.00525" lon="4.32227">
        <ele>1137.107629</ele>
        <time>2026-08-23T09:49:03.186Z</time>
      </trkpt>
      <trkpt lat="45.00514" lon="4.32221">
        <ele>1136.915851</ele>
        <time>2026-08-23T09:49:06.181Z</time>
      </trkpt>
      <trkpt lat="45.00502" lon="4.32211">
        <ele>1136.712256</ele>
        <time>2026-08-23T09:49:09.180Z</time>
      </trkpt>
      <trkpt lat="45.00493" lon="4.32206">
        <ele>1136.563558</ele>
        <time>2026-08-23T09:49:11.183Z</time>
      </trkpt>
      <trkpt lat="45.00482" lon="4.32196">
        <ele>1136.363805</ele>
        <time>2026-08-23T09:49:14.177Z</time>
      </trkpt>
      <trkpt lat="45.00472" lon="4.32185">
        <ele>1136.16438</ele>
        <time>2026-08-23T09:49:17.183Z</time>
      </trkpt>
      <trkpt lat="45.00464" lon="4.32179">
        <ele>1136.024329</ele>
        <time>2026-08-23T09:49:19.177Z</time>
      </trkpt>
      <trkpt lat="45.00456" lon="4.32173">
        <ele>1135.880007</ele>
        <time>2026-08-23T09:49:21.177Z</time>
      </trkpt>
      <trkpt lat="45.00448" lon="4.32165">
        <ele>1135.878631</ele>
        <time>2026-08-23T09:49:23.178Z</time>
      </trkpt>
      <trkpt lat="45.00438" lon="4.32154">
        <ele>1136.187822</ele>
        <time>2026-08-23T09:49:26.175Z</time>
      </trkpt>
      <trkpt lat="45.00428" lon="4.32139">
        <ele>1136.516777</ele>
        <time>2026-08-23T09:49:29.175Z</time>
      </trkpt>
      <trkpt lat="45.00423" lon="4.32128">
        <ele>1136.741682</ele>
        <time>2026-08-23T09:49:31.173Z</time>
      </trkpt>
      <trkpt lat="45.00416" lon="4.32113">
        <ele>1137.038221</ele>
        <time>2026-08-23T09:49:34.177Z</time>
      </trkpt>
      <trkpt lat="45.00409" lon="4.32099">
        <ele>1137.323934</ele>
        <time>2026-08-23T09:49:37.178Z</time>
      </trkpt>
      <trkpt lat="45.00404" lon="4.32088">
        <ele>1137.541609</ele>
        <time>2026-08-23T09:49:39.177Z</time>
      </trkpt>
      <trkpt lat="45.00398" lon="4.32073">
        <ele>1137.835132</ele>
        <time>2026-08-23T09:49:42.150Z</time>
      </trkpt>
      <trkpt lat="45.0039" lon="4.32061">
        <ele>1138.107571</ele>
        <time>2026-08-23T09:49:45.183Z</time>
      </trkpt>
      <trkpt lat="45.00383" lon="4.32047">
        <ele>1138.382346</ele>
        <time>2026-08-23T09:49:48.181Z</time>
      </trkpt>
      <trkpt lat="45.00377" lon="4.32034">
        <ele>1138.653041</ele>
        <time>2026-08-23T09:49:51.179Z</time>
      </trkpt>
      <trkpt lat="45.0037" lon="4.32019">
        <ele>1138.948376</ele>
        <time>2026-08-23T09:49:54.174Z</time>
      </trkpt>
      <trkpt lat="45.00365" lon="4.32005">
        <ele>1139.211467</ele>
        <time>2026-08-23T09:49:57.176Z</time>
      </trkpt>
      <trkpt lat="45.0036" lon="4.31995">
        <ele>1139.423747</ele>
        <time>2026-08-23T09:50:00.184Z</time>
      </trkpt>
      <trkpt lat="45.00354" lon="4.31984">
        <ele>1139.638673</ele>
        <time>2026-08-23T09:50:03.173Z</time>
      </trkpt>
      <trkpt lat="45.00349" lon="4.31974">
        <ele>1139.852237</ele>
        <time>2026-08-23T09:50:06.175Z</time>
      </trkpt>
      <trkpt lat="45.00345" lon="4.31961">
        <ele>1140.056103</ele>
        <time>2026-08-23T09:50:09.174Z</time>
      </trkpt>
      <trkpt lat="45.00338" lon="4.31951">
        <ele>1140.169601</ele>
        <time>2026-08-23T09:50:12.166Z</time>
      </trkpt>
      <trkpt lat="45.00331" lon="4.31942">
        <ele>1140.272832</ele>
        <time>2026-08-23T09:50:15.153Z</time>
      </trkpt>
      <trkpt lat="45.00323" lon="4.3193">
        <ele>1140.397705</ele>
        <time>2026-08-23T09:50:19.194Z</time>
      </trkpt>
      <trkpt lat="45.00318" lon="4.31918">
        <ele>1140.507019</ele>
        <time>2026-08-23T09:50:22.148Z</time>
      </trkpt>
      <trkpt lat="45.00312" lon="4.31905">
        <ele>1140.629391</ele>
        <time>2026-08-23T09:50:25.183Z</time>
      </trkpt>
      <trkpt lat="45.00306" lon="4.31894">
        <ele>1140.740092</ele>
        <time>2026-08-23T09:50:28.148Z</time>
      </trkpt>
      <trkpt lat="45.003" lon="4.3188">
        <ele>1140.863032</ele>
        <time>2026-08-23T09:50:31.145Z</time>
      </trkpt>
      <trkpt lat="45.00294" lon="4.31867">
        <ele>1140.988315</ele>
        <time>2026-08-23T09:50:34.216Z</time>
      </trkpt>
      <trkpt lat="45.00287" lon="4.31851">
        <ele>1141.131319</ele>
        <time>2026-08-23T09:50:38.162Z</time>
      </trkpt>
      <trkpt lat="45.0028" lon="4.31836">
        <ele>1141.27157</ele>
        <time>2026-08-23T09:50:41.173Z</time>
      </trkpt>
      <trkpt lat="45.00274" lon="4.31822">
        <ele>1141.402697</ele>
        <time>2026-08-23T09:50:44.223Z</time>
      </trkpt>
      <trkpt lat="45.00268" lon="4.31808">
        <ele>1141.529289</ele>
        <time>2026-08-23T09:50:47.162Z</time>
      </trkpt>
      <trkpt lat="45.00262" lon="4.31794">
        <ele>1141.654615</ele>
        <time>2026-08-23T09:50:50.162Z</time>
      </trkpt>
      <trkpt lat="45.00257" lon="4.31779">
        <ele>1141.77947</ele>
        <time>2026-08-23T09:50:53.137Z</time>
      </trkpt>
      <trkpt lat="45.00252" lon="4.31765">
        <ele>1141.901537</ele>
        <time>2026-08-23T09:50:56.137Z</time>
      </trkpt>
      <trkpt lat="45.00246" lon="4.31751">
        <ele>1142.089459</ele>
        <time>2026-08-23T09:50:59.176Z</time>
      </trkpt>
      <trkpt lat="45.0024" lon="4.31735">
        <ele>1142.536766</ele>
        <time>2026-08-23T09:51:02.160Z</time>
      </trkpt>
      <trkpt lat="45.00232" lon="4.31724">
        <ele>1142.937621</ele>
        <time>2026-08-23T09:51:05.165Z</time>
      </trkpt>
      <trkpt lat="45.00226" lon="4.31711">
        <ele>1143.344134</ele>
        <time>2026-08-23T09:51:08.171Z</time>
      </trkpt>
      <trkpt lat="45.00219" lon="4.31697">
        <ele>1143.777933</ele>
        <time>2026-08-23T09:51:11.180Z</time>
      </trkpt>
      <trkpt lat="45.00215" lon="4.31683">
        <ele>1144.168179</ele>
        <time>2026-08-23T09:51:14.172Z</time>
      </trkpt>
      <trkpt lat="45.0021" lon="4.31671">
        <ele>1144.521275</ele>
        <time>2026-08-23T09:51:17.148Z</time>
      </trkpt>
      <trkpt lat="45.00204" lon="4.31659">
        <ele>1144.905342</ele>
        <time>2026-08-23T09:51:20.173Z</time>
      </trkpt>
      <trkpt lat="45.00197" lon="4.31649">
        <ele>1145.26107</ele>
        <time>2026-08-23T09:51:23.166Z</time>
      </trkpt>
      <trkpt lat="45.00193" lon="4.31636">
        <ele>1145.62101</ele>
        <time>2026-08-23T09:51:25.189Z</time>
      </trkpt>
      <trkpt lat="45.00189" lon="4.3162">
        <ele>1146.056556</ele>
        <time>2026-08-23T09:51:28.173Z</time>
      </trkpt>
      <trkpt lat="45.00184" lon="4.31607">
        <ele>1146.4489</ele>
        <time>2026-08-23T09:51:31.175Z</time>
      </trkpt>
      <trkpt lat="45.00181" lon="4.31595">
        <ele>1146.784833</ele>
        <time>2026-08-23T09:51:34.171Z</time>
      </trkpt>
      <trkpt lat="45.00175" lon="4.31581">
        <ele>1147.187816</ele>
        <time>2026-08-23T09:51:38.179Z</time>
      </trkpt>
      <trkpt lat="45.00171" lon="4.31568">
        <ele>1147.560201</ele>
        <time>2026-08-23T09:51:41.177Z</time>
      </trkpt>
      <trkpt lat="45.00167" lon="4.31553">
        <ele>1147.952436</ele>
        <time>2026-08-23T09:51:44.168Z</time>
      </trkpt>
      <trkpt lat="45.00164" lon="4.31538">
        <ele>1148.368649</ele>
        <time>2026-08-23T09:51:47.180Z</time>
      </trkpt>
      <trkpt lat="45.0016" lon="4.31523">
        <ele>1148.511423</ele>
        <time>2026-08-23T09:51:50.177Z</time>
      </trkpt>
      <trkpt lat="45.00158" lon="4.31507">
        <ele>1148.465468</ele>
        <time>2026-08-23T09:51:53.175Z</time>
      </trkpt>
      <trkpt lat="45.00157" lon="4.3149">
        <ele>1148.414525</ele>
        <time>2026-08-23T09:51:56.157Z</time>
      </trkpt>
      <trkpt lat="45.00156" lon="4.31472">
        <ele>1148.363378</ele>
        <time>2026-08-23T09:51:59.178Z</time>
      </trkpt>
      <trkpt lat="45.00152" lon="4.31457">
        <ele>1148.316764</ele>
        <time>2026-08-23T09:52:02.181Z</time>
      </trkpt>
      <trkpt lat="45.0015" lon="4.31442">
        <ele>1148.270235</ele>
        <time>2026-08-23T09:52:05.173Z</time>
      </trkpt>
      <trkpt lat="45.00147" lon="4.31423">
        <ele>1148.21535</ele>
        <time>2026-08-23T09:52:08.175Z</time>
      </trkpt>
      <trkpt lat="45.00145" lon="4.31409">
        <ele>1148.173919</ele>
        <time>2026-08-23T09:52:10.174Z</time>
      </trkpt>
      <trkpt lat="45.00143" lon="4.3139">
        <ele>1148.11835</ele>
        <time>2026-08-23T09:52:13.183Z</time>
      </trkpt>
      <trkpt lat="45.0014" lon="4.31378">
        <ele>1148.080813</ele>
        <time>2026-08-23T09:52:15.173Z</time>
      </trkpt>
      <trkpt lat="45.00136" lon="4.31365">
        <ele>1148.039087</ele>
        <time>2026-08-23T09:52:17.176Z</time>
      </trkpt>
      <trkpt lat="45.00131" lon="4.31351">
        <ele>1147.99393</ele>
        <time>2026-08-23T09:52:19.177Z</time>
      </trkpt>
      <trkpt lat="45.00127" lon="4.31336">
        <ele>1147.945598</ele>
        <time>2026-08-23T09:52:21.177Z</time>
      </trkpt>
      <trkpt lat="45.00122" lon="4.31322">
        <ele>1147.901445</ele>
        <time>2026-08-23T09:52:23.175Z</time>
      </trkpt>
      <trkpt lat="45.00118" lon="4.31307">
        <ele>1147.854812</ele>
        <time>2026-08-23T09:52:25.175Z</time>
      </trkpt>
      <trkpt lat="45.00115" lon="4.31294">
        <ele>1147.812739</ele>
        <time>2026-08-23T09:52:27.170Z</time>
      </trkpt>
      <trkpt lat="45.00112" lon="4.31281">
        <ele>1147.837825</ele>
        <time>2026-08-23T09:52:29.178Z</time>
      </trkpt>
      <trkpt lat="45.00109" lon="4.31268">
        <ele>1147.905987</ele>
        <time>2026-08-23T09:52:31.176Z</time>
      </trkpt>
      <trkpt lat="45.00106" lon="4.31253">
        <ele>1147.980828</ele>
        <time>2026-08-23T09:52:33.173Z</time>
      </trkpt>
      <trkpt lat="45.00103" lon="4.31239">
        <ele>1148.050463</ele>
        <time>2026-08-23T09:52:35.176Z</time>
      </trkpt>
      <trkpt lat="45.00101" lon="4.31223">
        <ele>1148.130339</ele>
        <time>2026-08-23T09:52:37.174Z</time>
      </trkpt>
      <trkpt lat="45.001" lon="4.31208">
        <ele>1148.207775</ele>
        <time>2026-08-23T09:52:39.184Z</time>
      </trkpt>
      <trkpt lat="45.00099" lon="4.31194">
        <ele>1148.274098</ele>
        <time>2026-08-23T09:52:41.174Z</time>
      </trkpt>
      <trkpt lat="45.00097" lon="4.3118">
        <ele>1148.346241</ele>
        <time>2026-08-23T09:52:43.175Z</time>
      </trkpt>
      <trkpt lat="45.00094" lon="4.31166">
        <ele>1148.419004</ele>
        <time>2026-08-23T09:52:45.173Z</time>
      </trkpt>
      <trkpt lat="45.00092" lon="4.31152">
        <ele>1148.487111</ele>
        <time>2026-08-23T09:52:47.176Z</time>
      </trkpt>
      <trkpt lat="45.0009" lon="4.31139">
        <ele>1148.554292</ele>
        <time>2026-08-23T09:52:49.172Z</time>
      </trkpt>
      <trkpt lat="45.00088" lon="4.31126">
        <ele>1148.6211</ele>
        <time>2026-08-23T09:52:51.173Z</time>
      </trkpt>
      <trkpt lat="45.00084" lon="4.31113">
        <ele>1148.686454</ele>
        <time>2026-08-23T09:52:53.176Z</time>
      </trkpt>
      <trkpt lat="45.0008" lon="4.31096">
        <ele>1148.775933</ele>
        <time>2026-08-23T09:52:56.153Z</time>
      </trkpt>
      <trkpt lat="45.00076" lon="4.31079">
        <ele>1148.86423</ele>
        <time>2026-08-23T09:52:59.171Z</time>
      </trkpt>
      <trkpt lat="45.00072" lon="4.31061">
        <ele>1148.956579</ele>
        <time>2026-08-23T09:53:02.174Z</time>
      </trkpt>
      <trkpt lat="45.00069" lon="4.31042">
        <ele>1149.051441</ele>
        <time>2026-08-23T09:53:05.174Z</time>
      </trkpt>
      <trkpt lat="45.00067" lon="4.3103">
        <ele>1149.146073</ele>
        <time>2026-08-23T09:53:07.172Z</time>
      </trkpt>
      <trkpt lat="45.00063" lon="4.31012">
        <ele>1149.276729</ele>
        <time>2026-08-23T09:53:10.179Z</time>
      </trkpt>
      <trkpt lat="45.00059" lon="4.30995">
        <ele>1149.408067</ele>
        <time>2026-08-23T09:53:13.173Z</time>
      </trkpt>
      <trkpt lat="45.00055" lon="4.30978">
        <ele>1149.537682</ele>
        <time>2026-08-23T09:53:16.177Z</time>
      </trkpt>
      <trkpt lat="45.00051" lon="4.3096">
        <ele>1149.671689</ele>
        <time>2026-08-23T09:53:19.172Z</time>
      </trkpt>
      <trkpt lat="45.00048" lon="4.30948">
        <ele>1149.764081</ele>
        <time>2026-08-23T09:53:21.175Z</time>
      </trkpt>
      <trkpt lat="45.00044" lon="4.30929">
        <ele>1149.903871</ele>
        <time>2026-08-23T09:53:24.174Z</time>
      </trkpt>
      <trkpt lat="45.00042" lon="4.30916">
        <ele>1150.003552</ele>
        <time>2026-08-23T09:53:26.176Z</time>
      </trkpt>
      <trkpt lat="45.00039" lon="4.30903">
        <ele>1150.101009</ele>
        <time>2026-08-23T09:53:28.177Z</time>
      </trkpt>
      <trkpt lat="45.00035" lon="4.30889">
        <ele>1150.20458</ele>
        <time>2026-08-23T09:53:30.174Z</time>
      </trkpt>
      <trkpt lat="45.00033" lon="4.30875">
        <ele>1150.307098</ele>
        <time>2026-08-23T09:53:32.177Z</time>
      </trkpt>
      <trkpt lat="45.00031" lon="4.30861">
        <ele>1150.412956</ele>
        <time>2026-08-23T09:53:34.176Z</time>
      </trkpt>
      <trkpt lat="45.00027" lon="4.30848">
        <ele>1150.509179</ele>
        <time>2026-08-23T09:53:36.181Z</time>
      </trkpt>
      <trkpt lat="45.00024" lon="4.30835">
        <ele>1150.611445</ele>
        <time>2026-08-23T09:53:38.171Z</time>
      </trkpt>
      <trkpt lat="45.00021" lon="4.30821">
        <ele>1150.714102</ele>
        <time>2026-08-23T09:53:40.176Z</time>
      </trkpt>
      <trkpt lat="45.00019" lon="4.30808">
        <ele>1150.810298</ele>
        <time>2026-08-23T09:53:42.172Z</time>
      </trkpt>
      <trkpt lat="45.00015" lon="4.3079">
        <ele>1150.995654</ele>
        <time>2026-08-23T09:53:45.175Z</time>
      </trkpt>
      <trkpt lat="45.00011" lon="4.30778">
        <ele>1151.150781</ele>
        <time>2026-08-23T09:53:47.182Z</time>
      </trkpt>
      <trkpt lat="45.00009" lon="4.30765">
        <ele>1151.312077</ele>
        <time>2026-08-23T09:53:49.175Z</time>
      </trkpt>
      <trkpt lat="45.00006" lon="4.30753">
        <ele>1151.467205</ele>
        <time>2026-08-23T09:53:51.171Z</time>
      </trkpt>
      <trkpt lat="45.00004" lon="4.3074">
        <ele>1151.635449</ele>
        <time>2026-08-23T09:53:53.171Z</time>
      </trkpt>
      <trkpt lat="45.00002" lon="4.30727">
        <ele>1151.790854</ele>
        <time>2026-08-23T09:53:55.172Z</time>
      </trkpt>
      <trkpt lat="45" lon="4.30709">
        <ele>1152.00885</ele>
        <time>2026-08-23T09:53:58.169Z</time>
      </trkpt>
      <trkpt lat="44.99999" lon="4.30693">
        <ele>1152.208898</ele>
        <time>2026-08-23T09:54:01.171Z</time>
      </trkpt>
      <trkpt lat="45" lon="4.30676">
        <ele>1152.410045</ele>
        <time>2026-08-23T09:54:04.178Z</time>
      </trkpt>
      <trkpt lat="45.00002" lon="4.30661">
        <ele>1152.603005</ele>
        <time>2026-08-23T09:54:07.174Z</time>
      </trkpt>
      <trkpt lat="45.00004" lon="4.30642">
        <ele>1152.827263</ele>
        <time>2026-08-23T09:54:10.172Z</time>
      </trkpt>
      <trkpt lat="45.00006" lon="4.30629">
        <ele>1152.986872</ele>
        <time>2026-08-23T09:54:12.185Z</time>
      </trkpt>
      <trkpt lat="45.00008" lon="4.30617">
        <ele>1153.145072</ele>
        <time>2026-08-23T09:54:14.177Z</time>
      </trkpt>
      <trkpt lat="45.00011" lon="4.30599">
        <ele>1153.36916</ele>
        <time>2026-08-23T09:54:17.171Z</time>
      </trkpt>
      <trkpt lat="45.00013" lon="4.3058">
        <ele>1153.591215</ele>
        <time>2026-08-23T09:54:20.176Z</time>
      </trkpt>
      <trkpt lat="45.00015" lon="4.30568">
        <ele>1153.746234</ele>
        <time>2026-08-23T09:54:22.176Z</time>
      </trkpt>
      <trkpt lat="45.00017" lon="4.30555">
        <ele>1153.911282</ele>
        <time>2026-08-23T09:54:24.174Z</time>
      </trkpt>
      <trkpt lat="45.00019" lon="4.30541">
        <ele>1153.820158</ele>
        <time>2026-08-23T09:54:26.172Z</time>
      </trkpt>
      <trkpt lat="45.00021" lon="4.30528">
        <ele>1153.647634</ele>
        <time>2026-08-23T09:54:28.171Z</time>
      </trkpt>
      <trkpt lat="45.00025" lon="4.30509">
        <ele>1153.41102</ele>
        <time>2026-08-23T09:54:31.180Z</time>
      </trkpt>
      <trkpt lat="45.00028" lon="4.30496">
        <ele>1153.239208</ele>
        <time>2026-08-23T09:54:33.181Z</time>
      </trkpt>
      <trkpt lat="45.00029" lon="4.30482">
        <ele>1153.069089</ele>
        <time>2026-08-23T09:54:35.172Z</time>
      </trkpt>
      <trkpt lat="45.00032" lon="4.30469">
        <ele>1152.900159</ele>
        <time>2026-08-23T09:54:37.172Z</time>
      </trkpt>
      <trkpt lat="45.00034" lon="4.30455">
        <ele>1152.7296</ele>
        <time>2026-08-23T09:54:39.192Z</time>
      </trkpt>
      <trkpt lat="45.00037" lon="4.30442">
        <ele>1152.564675</ele>
        <time>2026-08-23T09:54:41.187Z</time>
      </trkpt>
      <trkpt lat="45.00039" lon="4.30429">
        <ele>1152.390574</ele>
        <time>2026-08-23T09:54:43.166Z</time>
      </trkpt>
      <trkpt lat="45.00039" lon="4.30415">
        <ele>1152.221742</ele>
        <time>2026-08-23T09:54:45.171Z</time>
      </trkpt>
      <trkpt lat="45.00041" lon="4.304">
        <ele>1152.04064</ele>
        <time>2026-08-23T09:54:47.171Z</time>
      </trkpt>
      <trkpt lat="45.00042" lon="4.30386">
        <ele>1151.857851</ele>
        <time>2026-08-23T09:54:49.169Z</time>
      </trkpt>
      <trkpt lat="45.00045" lon="4.3037">
        <ele>1151.662192</ele>
        <time>2026-08-23T09:54:51.167Z</time>
      </trkpt>
      <trkpt lat="45.00048" lon="4.30356">
        <ele>1151.484508</ele>
        <time>2026-08-23T09:54:53.169Z</time>
      </trkpt>
      <trkpt lat="45.0005" lon="4.30343">
        <ele>1151.31395</ele>
        <time>2026-08-23T09:54:55.177Z</time>
      </trkpt>
      <trkpt lat="45.00053" lon="4.30329">
        <ele>1151.140804</ele>
        <time>2026-08-23T09:54:57.171Z</time>
      </trkpt>
      <trkpt lat="45.00055" lon="4.30316">
        <ele>1150.968294</ele>
        <time>2026-08-23T09:54:59.168Z</time>
      </trkpt>
      <trkpt lat="45.00057" lon="4.30302">
        <ele>1150.837833</ele>
        <time>2026-08-23T09:55:01.171Z</time>
      </trkpt>
      <trkpt lat="45.0006" lon="4.30288">
        <ele>1150.953057</ele>
        <time>2026-08-23T09:55:03.167Z</time>
      </trkpt>
      <trkpt lat="45.00062" lon="4.30274">
        <ele>1151.066546</ele>
        <time>2026-08-23T09:55:05.177Z</time>
      </trkpt>
      <trkpt lat="45.00064" lon="4.30261">
        <ele>1151.178915</ele>
        <time>2026-08-23T09:55:07.184Z</time>
      </trkpt>
      <trkpt lat="45.00067" lon="4.30248">
        <ele>1151.285868</ele>
        <time>2026-08-23T09:55:09.173Z</time>
      </trkpt>
      <trkpt lat="45.00071" lon="4.30229">
        <ele>1151.451797</ele>
        <time>2026-08-23T09:55:12.171Z</time>
      </trkpt>
      <trkpt lat="45.00075" lon="4.30213">
        <ele>1151.583751</ele>
        <time>2026-08-23T09:55:14.175Z</time>
      </trkpt>
      <trkpt lat="45.00078" lon="4.302">
        <ele>1151.698205</ele>
        <time>2026-08-23T09:55:16.179Z</time>
      </trkpt>
      <trkpt lat="45.00081" lon="4.30186">
        <ele>1151.812338</ele>
        <time>2026-08-23T09:55:18.175Z</time>
      </trkpt>
      <trkpt lat="45.00084" lon="4.30172">
        <ele>1151.930566</ele>
        <time>2026-08-23T09:55:20.175Z</time>
      </trkpt>
      <trkpt lat="45.00088" lon="4.30159">
        <ele>1152.046511</ele>
        <time>2026-08-23T09:55:22.178Z</time>
      </trkpt>
      <trkpt lat="45.0009" lon="4.30143">
        <ele>1152.174326</ele>
        <time>2026-08-23T09:55:24.183Z</time>
      </trkpt>
      <trkpt lat="45.00093" lon="4.30129">
        <ele>1152.293486</ele>
        <time>2026-08-23T09:55:26.172Z</time>
      </trkpt>
      <trkpt lat="45.00096" lon="4.30116">
        <ele>1152.406741</ele>
        <time>2026-08-23T09:55:28.174Z</time>
      </trkpt>
      <trkpt lat="45.00099" lon="4.30102">
        <ele>1152.521212</ele>
        <time>2026-08-23T09:55:30.183Z</time>
      </trkpt>
      <trkpt lat="45.00103" lon="4.30089">
        <ele>1152.638333</ele>
        <time>2026-08-23T09:55:32.174Z</time>
      </trkpt>
      <trkpt lat="45.00106" lon="4.30075">
        <ele>1152.752803</ele>
        <time>2026-08-23T09:55:34.169Z</time>
      </trkpt>
      <trkpt lat="45.00109" lon="4.30061">
        <ele>1152.876047</ele>
        <time>2026-08-23T09:55:36.173Z</time>
      </trkpt>
      <trkpt lat="45.0011" lon="4.30047">
        <ele>1152.630976</ele>
        <time>2026-08-23T09:55:38.174Z</time>
      </trkpt>
      <trkpt lat="45.00112" lon="4.30031">
        <ele>1152.350183</ele>
        <time>2026-08-23T09:55:40.174Z</time>
      </trkpt>
      <trkpt lat="45.00113" lon="4.30015">
        <ele>1152.057122</ele>
        <time>2026-08-23T09:55:42.175Z</time>
      </trkpt>
      <trkpt lat="45.00114" lon="4.30001">
        <ele>1151.803281</ele>
        <time>2026-08-23T09:55:44.171Z</time>
      </trkpt>
      <trkpt lat="45.00113" lon="4.29986">
        <ele>1151.542357</ele>
        <time>2026-08-23T09:55:46.177Z</time>
      </trkpt>
      <trkpt lat="45.00112" lon="4.29971">
        <ele>1151.275836</ele>
        <time>2026-08-23T09:55:48.177Z</time>
      </trkpt>
      <trkpt lat="45.00111" lon="4.29956">
        <ele>1151.003177</ele>
        <time>2026-08-23T09:55:50.169Z</time>
      </trkpt>
      <trkpt lat="45.0011" lon="4.29939">
        <ele>1150.713508</ele>
        <time>2026-08-23T09:55:52.180Z</time>
      </trkpt>
      <trkpt lat="45.00108" lon="4.29924">
        <ele>1150.444172</ele>
        <time>2026-08-23T09:55:54.144Z</time>
      </trkpt>
      <trkpt lat="45.00107" lon="4.29909">
        <ele>1150.165047</ele>
        <time>2026-08-23T09:55:56.162Z</time>
      </trkpt>
      <trkpt lat="45.00104" lon="4.29894">
        <ele>1149.889457</ele>
        <time>2026-08-23T09:55:58.173Z</time>
      </trkpt>
      <trkpt lat="45.00102" lon="4.29879">
        <ele>1149.624053</ele>
        <time>2026-08-23T09:56:00.169Z</time>
      </trkpt>
      <trkpt lat="45.001" lon="4.29861">
        <ele>1149.310151</ele>
        <time>2026-08-23T09:56:02.177Z</time>
      </trkpt>
      <trkpt lat="45.00098" lon="4.29847">
        <ele>1149.043819</ele>
        <time>2026-08-23T09:56:04.175Z</time>
      </trkpt>
      <trkpt lat="45.00097" lon="4.2983">
        <ele>1148.75175</ele>
        <time>2026-08-23T09:56:06.173Z</time>
      </trkpt>
      <trkpt lat="45.00095" lon="4.29815">
        <ele>1148.475892</ele>
        <time>2026-08-23T09:56:08.169Z</time>
      </trkpt>
      <trkpt lat="45.00093" lon="4.29798">
        <ele>1148.310082</ele>
        <time>2026-08-23T09:56:10.171Z</time>
      </trkpt>
      <trkpt lat="45.00092" lon="4.29781">
        <ele>1148.217532</ele>
        <time>2026-08-23T09:56:12.171Z</time>
      </trkpt>
      <trkpt lat="45.0009" lon="4.29764">
        <ele>1148.129106</ele>
        <time>2026-08-23T09:56:14.178Z</time>
      </trkpt>
      <trkpt lat="45.00088" lon="4.29747">
        <ele>1148.037033</ele>
        <time>2026-08-23T09:56:16.170Z</time>
      </trkpt>
      <trkpt lat="45.00084" lon="4.29731">
        <ele>1147.94642</ele>
        <time>2026-08-23T09:56:18.175Z</time>
      </trkpt>
      <trkpt lat="45.00083" lon="4.29713">
        <ele>1147.85055</ele>
        <time>2026-08-23T09:56:20.168Z</time>
      </trkpt>
      <trkpt lat="45.00081" lon="4.29695">
        <ele>1147.753648</ele>
        <time>2026-08-23T09:56:22.173Z</time>
      </trkpt>
      <trkpt lat="45.00077" lon="4.29678">
        <ele>1147.659563</ele>
        <time>2026-08-23T09:56:24.167Z</time>
      </trkpt>
      <trkpt lat="45.00073" lon="4.29659">
        <ele>1147.557662</ele>
        <time>2026-08-23T09:56:26.174Z</time>
      </trkpt>
      <trkpt lat="45.00067" lon="4.29641">
        <ele>1147.449949</ele>
        <time>2026-08-23T09:56:28.178Z</time>
      </trkpt>
      <trkpt lat="45.00061" lon="4.29622">
        <ele>1147.340381</ele>
        <time>2026-08-23T09:56:30.172Z</time>
      </trkpt>
      <trkpt lat="45.00055" lon="4.29603">
        <ele>1147.231278</ele>
        <time>2026-08-23T09:56:32.173Z</time>
      </trkpt>
      <trkpt lat="45.00048" lon="4.29585">
        <ele>1147.125082</ele>
        <time>2026-08-23T09:56:34.171Z</time>
      </trkpt>
      <trkpt lat="45.00041" lon="4.29567">
        <ele>1147.020993</ele>
        <time>2026-08-23T09:56:36.177Z</time>
      </trkpt>
      <trkpt lat="45.00034" lon="4.29549">
        <ele>1147.000088</ele>
        <time>2026-08-23T09:56:38.171Z</time>
      </trkpt>
      <trkpt lat="45.00025" lon="4.29535">
        <ele>1146.981531</ele>
        <time>2026-08-23T09:56:40.178Z</time>
      </trkpt>
      <trkpt lat="45.00017" lon="4.29518">
        <ele>1146.962455</ele>
        <time>2026-08-23T09:56:42.176Z</time>
      </trkpt>
      <trkpt lat="45.00008" lon="4.29503">
        <ele>1146.943576</ele>
        <time>2026-08-23T09:56:44.176Z</time>
      </trkpt>
      <trkpt lat="45" lon="4.29486">
        <ele>1146.922758</ele>
        <time>2026-08-23T09:56:46.171Z</time>
      </trkpt>
      <trkpt lat="44.9999" lon="4.29468">
        <ele>1146.900958</ele>
        <time>2026-08-23T09:56:48.163Z</time>
      </trkpt>
      <trkpt lat="44.9998" lon="4.29451">
        <ele>1146.878963</ele>
        <time>2026-08-23T09:56:50.168Z</time>
      </trkpt>
      <trkpt lat="44.99968" lon="4.29434">
        <ele>1146.856494</ele>
        <time>2026-08-23T09:56:52.175Z</time>
      </trkpt>
      <trkpt lat="44.99958" lon="4.29417">
        <ele>1146.834399</ele>
        <time>2026-08-23T09:56:54.180Z</time>
      </trkpt>
      <trkpt lat="44.99947" lon="4.29401">
        <ele>1146.813053</ele>
        <time>2026-08-23T09:56:56.167Z</time>
      </trkpt>
      <trkpt lat="44.99936" lon="4.29386">
        <ele>1146.792024</ele>
        <time>2026-08-23T09:56:58.180Z</time>
      </trkpt>
      <trkpt lat="44.99926" lon="4.29369">
        <ele>1146.766545</ele>
        <time>2026-08-23T09:57:00.178Z</time>
      </trkpt>
      <trkpt lat="44.99917" lon="4.29356">
        <ele>1146.73455</ele>
        <time>2026-08-23T09:57:02.171Z</time>
      </trkpt>
      <trkpt lat="44.99909" lon="4.29343">
        <ele>1146.703578</ele>
        <time>2026-08-23T09:57:04.175Z</time>
      </trkpt>
      <trkpt lat="44.999" lon="4.29332">
        <ele>1146.673103</ele>
        <time>2026-08-23T09:57:06.178Z</time>
      </trkpt>
      <trkpt lat="44.99891" lon="4.29318">
        <ele>1146.639413</ele>
        <time>2026-08-23T09:57:08.173Z</time>
      </trkpt>
      <trkpt lat="44.99881" lon="4.29303">
        <ele>1146.604054</ele>
        <time>2026-08-23T09:57:10.171Z</time>
      </trkpt>
      <trkpt lat="44.99873" lon="4.29288">
        <ele>1146.569299</ele>
        <time>2026-08-23T09:57:12.181Z</time>
      </trkpt>
      <trkpt lat="44.99864" lon="4.29274">
        <ele>1146.536649</ele>
        <time>2026-08-23T09:57:14.180Z</time>
      </trkpt>
      <trkpt lat="44.99857" lon="4.29262">
        <ele>1146.508007</ele>
        <time>2026-08-23T09:57:16.178Z</time>
      </trkpt>
      <trkpt lat="44.9985" lon="4.29247">
        <ele>1146.47648</ele>
        <time>2026-08-23T09:57:18.173Z</time>
      </trkpt>
      <trkpt lat="44.99845" lon="4.29234">
        <ele>1146.448833</ele>
        <time>2026-08-23T09:57:20.174Z</time>
      </trkpt>
      <trkpt lat="44.99839" lon="4.29222">
        <ele>1146.423085</ele>
        <time>2026-08-23T09:57:22.173Z</time>
      </trkpt>
      <trkpt lat="44.99835" lon="4.29209">
        <ele>1146.397145</ele>
        <time>2026-08-23T09:57:24.176Z</time>
      </trkpt>
      <trkpt lat="44.99831" lon="4.29196">
        <ele>1146.371778</ele>
        <time>2026-08-23T09:57:26.178Z</time>
      </trkpt>
      <trkpt lat="44.99828" lon="4.29181">
        <ele>1146.345426</ele>
        <time>2026-08-23T09:57:28.179Z</time>
      </trkpt>
      <trkpt lat="44.99827" lon="4.29167">
        <ele>1146.319858</ele>
        <time>2026-08-23T09:57:30.171Z</time>
      </trkpt>
      <trkpt lat="44.99826" lon="4.29154">
        <ele>1146.564722</ele>
        <time>2026-08-23T09:57:32.174Z</time>
      </trkpt>
      <trkpt lat="44.99827" lon="4.29141">
        <ele>1146.798115</ele>
        <time>2026-08-23T09:57:34.173Z</time>
      </trkpt>
      <trkpt lat="44.99829" lon="4.29128">
        <ele>1147.033236</ele>
        <time>2026-08-23T09:57:36.174Z</time>
      </trkpt>
      <trkpt lat="44.99833" lon="4.29115">
        <ele>1147.281963</ele>
        <time>2026-08-23T09:57:38.173Z</time>
      </trkpt>
      <trkpt lat="44.99837" lon="4.29101">
        <ele>1147.55535</ele>
        <time>2026-08-23T09:57:40.177Z</time>
      </trkpt>
      <trkpt lat="44.9984" lon="4.29086">
        <ele>1147.836116</ele>
        <time>2026-08-23T09:57:42.175Z</time>
      </trkpt>
      <trkpt lat="44.99843" lon="4.29068">
        <ele>1148.167469</ele>
        <time>2026-08-23T09:57:45.177Z</time>
      </trkpt>
      <trkpt lat="44.99847" lon="4.29056">
        <ele>1148.40201</ele>
        <time>2026-08-23T09:57:47.183Z</time>
      </trkpt>
      <trkpt lat="44.99851" lon="4.29043">
        <ele>1148.657223</ele>
        <time>2026-08-23T09:57:49.176Z</time>
      </trkpt>
      <trkpt lat="44.99857" lon="4.29032">
        <ele>1148.895269</ele>
        <time>2026-08-23T09:57:51.172Z</time>
      </trkpt>
      <trkpt lat="44.99863" lon="4.29021">
        <ele>1149.14269</ele>
        <time>2026-08-23T09:57:53.172Z</time>
      </trkpt>
      <trkpt lat="44.99871" lon="4.29011">
        <ele>1149.403413</ele>
        <time>2026-08-23T09:57:55.176Z</time>
      </trkpt>
      <trkpt lat="44.99877" lon="4.29002">
        <ele>1149.647219</ele>
        <time>2026-08-23T09:57:57.174Z</time>
      </trkpt>
      <trkpt lat="44.99884" lon="4.28992">
        <ele>1149.891877</ele>
        <time>2026-08-23T09:57:59.172Z</time>
      </trkpt>
      <trkpt lat="44.99891" lon="4.28981">
        <ele>1150.140877</ele>
        <time>2026-08-23T09:58:01.183Z</time>
      </trkpt>
      <trkpt lat="44.99897" lon="4.28972">
        <ele>1150.368696</ele>
        <time>2026-08-23T09:58:03.169Z</time>
      </trkpt>
      <trkpt lat="44.99904" lon="4.28962">
        <ele>1150.626977</ele>
        <time>2026-08-23T09:58:05.184Z</time>
      </trkpt>
      <trkpt lat="44.99911" lon="4.28953">
        <ele>1150.871622</ele>
        <time>2026-08-23T09:58:07.183Z</time>
      </trkpt>
      <trkpt lat="44.99918" lon="4.28943">
        <ele>1151.064764</ele>
        <time>2026-08-23T09:58:09.182Z</time>
      </trkpt>
      <trkpt lat="44.99928" lon="4.2893">
        <ele>1151.325255</ele>
        <time>2026-08-23T09:58:12.171Z</time>
      </trkpt>
      <trkpt lat="44.99934" lon="4.28919">
        <ele>1151.509319</ele>
        <time>2026-08-23T09:58:14.178Z</time>
      </trkpt>
      <trkpt lat="44.9994" lon="4.28909">
        <ele>1151.692503</ele>
        <time>2026-08-23T09:58:16.169Z</time>
      </trkpt>
      <trkpt lat="44.99947" lon="4.28894">
        <ele>1151.934696</ele>
        <time>2026-08-23T09:58:19.170Z</time>
      </trkpt>
      <trkpt lat="44.99952" lon="4.28876">
        <ele>1152.195805</ele>
        <time>2026-08-23T09:58:22.174Z</time>
      </trkpt>
      <trkpt lat="44.99956" lon="4.28858">
        <ele>1152.448861</ele>
        <time>2026-08-23T09:58:25.174Z</time>
      </trkpt>
      <trkpt lat="44.99955" lon="4.28842">
        <ele>1152.675225</ele>
        <time>2026-08-23T09:58:28.171Z</time>
      </trkpt>
      <trkpt lat="44.99954" lon="4.28827">
        <ele>1152.873154</ele>
        <time>2026-08-23T09:58:31.178Z</time>
      </trkpt>
      <trkpt lat="44.99952" lon="4.28813">
        <ele>1153.075917</ele>
        <time>2026-08-23T09:58:34.174Z</time>
      </trkpt>
      <trkpt lat="44.99951" lon="4.28798">
        <ele>1153.277905</ele>
        <time>2026-08-23T09:58:37.183Z</time>
      </trkpt>
      <trkpt lat="44.99948" lon="4.28782">
        <ele>1153.504912</ele>
        <time>2026-08-23T09:58:40.173Z</time>
      </trkpt>
      <trkpt lat="44.99944" lon="4.28766">
        <ele>1153.734469</ele>
        <time>2026-08-23T09:58:43.174Z</time>
      </trkpt>
      <trkpt lat="44.99939" lon="4.28749">
        <ele>1153.981733</ele>
        <time>2026-08-23T09:58:46.174Z</time>
      </trkpt>
      <trkpt lat="44.99934" lon="4.28734">
        <ele>1154.211541</ele>
        <time>2026-08-23T09:58:49.173Z</time>
      </trkpt>
      <trkpt lat="44.99932" lon="4.2872">
        <ele>1154.288003</ele>
        <time>2026-08-23T09:58:51.172Z</time>
      </trkpt>
      <trkpt lat="44.99927" lon="4.28703">
        <ele>1154.098928</ele>
        <time>2026-08-23T09:58:54.172Z</time>
      </trkpt>
      <trkpt lat="44.99925" lon="4.2869">
        <ele>1153.960276</ele>
        <time>2026-08-23T09:58:56.171Z</time>
      </trkpt>
      <trkpt lat="44.99923" lon="4.28677">
        <ele>1153.821787</ele>
        <time>2026-08-23T09:58:58.172Z</time>
      </trkpt>
      <trkpt lat="44.9992" lon="4.28664">
        <ele>1153.680999</ele>
        <time>2026-08-23T09:59:00.175Z</time>
      </trkpt>
      <trkpt lat="44.99917" lon="4.28649">
        <ele>1153.525895</ele>
        <time>2026-08-23T09:59:02.176Z</time>
      </trkpt>
      <trkpt lat="44.99915" lon="4.28636">
        <ele>1153.3855</ele>
        <time>2026-08-23T09:59:04.176Z</time>
      </trkpt>
      <trkpt lat="44.99912" lon="4.28623">
        <ele>1153.247068</ele>
        <time>2026-08-23T09:59:06.184Z</time>
      </trkpt>
      <trkpt lat="44.99909" lon="4.28609">
        <ele>1153.094295</ele>
        <time>2026-08-23T09:59:08.176Z</time>
      </trkpt>
      <trkpt lat="44.99907" lon="4.28595">
        <ele>1152.943847</ele>
        <time>2026-08-23T09:59:10.168Z</time>
      </trkpt>
      <trkpt lat="44.99905" lon="4.2858">
        <ele>1152.790799</ele>
        <time>2026-08-23T09:59:12.169Z</time>
      </trkpt>
      <trkpt lat="44.99903" lon="4.28566">
        <ele>1152.646642</ele>
        <time>2026-08-23T09:59:14.182Z</time>
      </trkpt>
      <trkpt lat="44.999" lon="4.28552">
        <ele>1152.495014</ele>
        <time>2026-08-23T09:59:16.175Z</time>
      </trkpt>
      <trkpt lat="44.99898" lon="4.28538">
        <ele>1152.346477</ele>
        <time>2026-08-23T09:59:18.170Z</time>
      </trkpt>
      <trkpt lat="44.99895" lon="4.28523">
        <ele>1152.18738</ele>
        <time>2026-08-23T09:59:20.172Z</time>
      </trkpt>
      <trkpt lat="44.99893" lon="4.28507">
        <ele>1152.024906</ele>
        <time>2026-08-23T09:59:22.179Z</time>
      </trkpt>
      <trkpt lat="44.99891" lon="4.28491">
        <ele>1151.85923</ele>
        <time>2026-08-23T09:59:24.169Z</time>
      </trkpt>
      <trkpt lat="44.99888" lon="4.28475">
        <ele>1151.669674</ele>
        <time>2026-08-23T09:59:26.177Z</time>
      </trkpt>
      <trkpt lat="44.99886" lon="4.28459">
        <ele>1151.409846</ele>
        <time>2026-08-23T09:59:28.170Z</time>
      </trkpt>
      <trkpt lat="44.99884" lon="4.28444">
        <ele>1151.16271</ele>
        <time>2026-08-23T09:59:30.169Z</time>
      </trkpt>
      <trkpt lat="44.99881" lon="4.2843">
        <ele>1150.92124</ele>
        <time>2026-08-23T09:59:32.173Z</time>
      </trkpt>
      <trkpt lat="44.9988" lon="4.28414">
        <ele>1150.674615</ele>
        <time>2026-08-23T09:59:34.175Z</time>
      </trkpt>
      <trkpt lat="44.99879" lon="4.28401">
        <ele>1150.454711</ele>
        <time>2026-08-23T09:59:36.178Z</time>
      </trkpt>
      <trkpt lat="44.99877" lon="4.28387">
        <ele>1150.237648</ele>
        <time>2026-08-23T09:59:38.180Z</time>
      </trkpt>
      <trkpt lat="44.99875" lon="4.28374">
        <ele>1150.024574</ele>
        <time>2026-08-23T09:59:40.172Z</time>
      </trkpt>
      <trkpt lat="44.99873" lon="4.2836">
        <ele>1149.797147</ele>
        <time>2026-08-23T09:59:42.176Z</time>
      </trkpt>
      <trkpt lat="44.9987" lon="4.28346">
        <ele>1149.555925</ele>
        <time>2026-08-23T09:59:44.177Z</time>
      </trkpt>
      <trkpt lat="44.99866" lon="4.28333">
        <ele>1149.334634</ele>
        <time>2026-08-23T09:59:46.174Z</time>
      </trkpt>
      <trkpt lat="44.99863" lon="4.28321">
        <ele>1149.131413</ele>
        <time>2026-08-23T09:59:48.172Z</time>
      </trkpt>
      <trkpt lat="44.9986" lon="4.28309">
        <ele>1148.925834</ele>
        <time>2026-08-23T09:59:50.177Z</time>
      </trkpt>
      <trkpt lat="44.99856" lon="4.28294">
        <ele>1148.671835</ele>
        <time>2026-08-23T09:59:52.179Z</time>
      </trkpt>
      <trkpt lat="44.99851" lon="4.2828">
        <ele>1148.430133</ele>
        <time>2026-08-23T09:59:54.182Z</time>
      </trkpt>
      <trkpt lat="44.99847" lon="4.28268">
        <ele>1148.203324</ele>
        <time>2026-08-23T09:59:56.176Z</time>
      </trkpt>
      <trkpt lat="44.99842" lon="4.28257">
        <ele>1147.995968</ele>
        <time>2026-08-23T09:59:58.176Z</time>
      </trkpt>
      <trkpt lat="44.99836" lon="4.28247">
        <ele>1147.788023</ele>
        <time>2026-08-23T10:00:00.143Z</time>
      </trkpt>
      <trkpt lat="44.99826" lon="4.28234">
        <ele>1147.76996</ele>
        <time>2026-08-23T10:00:03.142Z</time>
      </trkpt>
      <trkpt lat="44.99818" lon="4.28226">
        <ele>1147.890381</ele>
        <time>2026-08-23T10:00:05.141Z</time>
      </trkpt>
      <trkpt lat="44.99812" lon="4.28217">
        <ele>1148.006037</ele>
        <time>2026-08-23T10:00:07.177Z</time>
      </trkpt>
      <trkpt lat="44.99801" lon="4.28207">
        <ele>1148.173502</ele>
        <time>2026-08-23T10:00:10.166Z</time>
      </trkpt>
      <trkpt lat="44.99791" lon="4.28195">
        <ele>1148.341855</ele>
        <time>2026-08-23T10:00:13.180Z</time>
      </trkpt>
      <trkpt lat="44.99784" lon="4.28186">
        <ele>1148.458464</ele>
        <time>2026-08-23T10:00:15.169Z</time>
      </trkpt>
      <trkpt lat="44.99774" lon="4.28174">
        <ele>1148.627814</ele>
        <time>2026-08-23T10:00:18.170Z</time>
      </trkpt>
      <trkpt lat="44.99767" lon="4.28165">
        <ele>1148.755913</ele>
        <time>2026-08-23T10:00:20.182Z</time>
      </trkpt>
      <trkpt lat="44.9976" lon="4.28155">
        <ele>1148.878441</ele>
        <time>2026-08-23T10:00:22.174Z</time>
      </trkpt>
      <trkpt lat="44.99753" lon="4.28147">
        <ele>1148.998511</ele>
        <time>2026-08-23T10:00:24.172Z</time>
      </trkpt>
      <trkpt lat="44.99741" lon="4.28136">
        <ele>1149.17491</ele>
        <time>2026-08-23T10:00:27.176Z</time>
      </trkpt>
      <trkpt lat="44.99733" lon="4.28129">
        <ele>1149.298788</ele>
        <time>2026-08-23T10:00:29.170Z</time>
      </trkpt>
      <trkpt lat="44.99722" lon="4.2812">
        <ele>1149.459469</ele>
        <time>2026-08-23T10:00:32.173Z</time>
      </trkpt>
      <trkpt lat="44.99715" lon="4.28112">
        <ele>1149.577854</ele>
        <time>2026-08-23T10:00:34.170Z</time>
      </trkpt>
      <trkpt lat="44.99707" lon="4.28106">
        <ele>1149.696578</ele>
        <time>2026-08-23T10:00:36.175Z</time>
      </trkpt>
      <trkpt lat="44.99697" lon="4.28095">
        <ele>1149.850129</ele>
        <time>2026-08-23T10:00:39.181Z</time>
      </trkpt>
      <trkpt lat="44.99689" lon="4.28084">
        <ele>1149.960466</ele>
        <time>2026-08-23T10:00:42.175Z</time>
      </trkpt>
      <trkpt lat="44.99681" lon="4.28073">
        <ele>1149.880719</ele>
        <time>2026-08-23T10:00:45.174Z</time>
      </trkpt>
      <trkpt lat="44.99672" lon="4.28065">
        <ele>1149.800391</ele>
        <time>2026-08-23T10:00:48.177Z</time>
      </trkpt>
      <trkpt lat="44.99663" lon="4.28056">
        <ele>1149.722131</ele>
        <time>2026-08-23T10:00:51.177Z</time>
      </trkpt>
      <trkpt lat="44.99653" lon="4.28046">
        <ele>1149.633608</ele>
        <time>2026-08-23T10:00:54.175Z</time>
      </trkpt>
      <trkpt lat="44.99642" lon="4.28037">
        <ele>1149.545989</ele>
        <time>2026-08-23T10:00:57.178Z</time>
      </trkpt>
      <trkpt lat="44.99631" lon="4.28028">
        <ele>1149.451618</ele>
        <time>2026-08-23T10:01:00.175Z</time>
      </trkpt>
      <trkpt lat="44.99624" lon="4.2802">
        <ele>1149.385969</ele>
        <time>2026-08-23T10:01:02.177Z</time>
      </trkpt>
      <trkpt lat="44.99613" lon="4.28011">
        <ele>1149.293177</ele>
        <time>2026-08-23T10:01:05.179Z</time>
      </trkpt>
      <trkpt lat="44.99601" lon="4.28001">
        <ele>1149.194683</ele>
        <time>2026-08-23T10:01:08.172Z</time>
      </trkpt>
      <trkpt lat="44.99592" lon="4.27995">
        <ele>1149.125636</ele>
        <time>2026-08-23T10:01:10.179Z</time>
      </trkpt>
      <trkpt lat="44.99583" lon="4.27987">
        <ele>1149.046145</ele>
        <time>2026-08-23T10:01:12.173Z</time>
      </trkpt>
      <trkpt lat="44.99572" lon="4.27976">
        <ele>1148.951774</ele>
        <time>2026-08-23T10:01:14.184Z</time>
      </trkpt>
      <trkpt lat="44.99561" lon="4.27965">
        <ele>1148.854989</ele>
        <time>2026-08-23T10:01:16.191Z</time>
      </trkpt>
      <trkpt lat="44.99549" lon="4.27957">
        <ele>1148.762986</ele>
        <time>2026-08-23T10:01:18.132Z</time>
      </trkpt>
      <trkpt lat="44.99538" lon="4.27949">
        <ele>1148.615127</ele>
        <time>2026-08-23T10:01:20.134Z</time>
      </trkpt>
      <trkpt lat="44.99525" lon="4.27941">
        <ele>1148.091098</ele>
        <time>2026-08-23T10:01:22.176Z</time>
      </trkpt>
      <trkpt lat="44.99512" lon="4.27934">
        <ele>1147.573855</ele>
        <time>2026-08-23T10:01:24.171Z</time>
      </trkpt>
      <trkpt lat="44.99498" lon="4.27928">
        <ele>1147.020903</ele>
        <time>2026-08-23T10:01:26.174Z</time>
      </trkpt>
      <trkpt lat="44.99484" lon="4.27922">
        <ele>1146.436444</ele>
        <time>2026-08-23T10:01:28.175Z</time>
      </trkpt>
      <trkpt lat="44.99468" lon="4.27915">
        <ele>1145.823695</ele>
        <time>2026-08-23T10:01:30.143Z</time>
      </trkpt>
      <trkpt lat="44.99454" lon="4.27908">
        <ele>1145.255641</ele>
        <time>2026-08-23T10:01:32.186Z</time>
      </trkpt>
      <trkpt lat="44.99439" lon="4.27899">
        <ele>1144.641428</ele>
        <time>2026-08-23T10:01:34.178Z</time>
      </trkpt>
      <trkpt lat="44.99426" lon="4.27888">
        <ele>1144.053091</ele>
        <time>2026-08-23T10:01:36.176Z</time>
      </trkpt>
      <trkpt lat="44.99415" lon="4.2787">
        <ele>1143.417155</ele>
        <time>2026-08-23T10:01:38.170Z</time>
      </trkpt>
      <trkpt lat="44.99406" lon="4.27851">
        <ele>1142.787776</ele>
        <time>2026-08-23T10:01:40.174Z</time>
      </trkpt>
      <trkpt lat="44.99399" lon="4.27833">
        <ele>1142.256018</ele>
        <time>2026-08-23T10:01:42.173Z</time>
      </trkpt>
      <trkpt lat="44.99394" lon="4.27815">
        <ele>1142.020404</ele>
        <time>2026-08-23T10:01:44.175Z</time>
      </trkpt>
      <trkpt lat="44.99389" lon="4.27799">
        <ele>1142.676636</ele>
        <time>2026-08-23T10:01:46.149Z</time>
      </trkpt>
      <trkpt lat="44.99383" lon="4.27785">
        <ele>1143.279038</ele>
        <time>2026-08-23T10:01:48.176Z</time>
      </trkpt>
      <trkpt lat="44.99378" lon="4.27771">
        <ele>1143.851397</ele>
        <time>2026-08-23T10:01:51.175Z</time>
      </trkpt>
      <trkpt lat="44.99372" lon="4.27758">
        <ele>1144.430066</ele>
        <time>2026-08-23T10:01:54.179Z</time>
      </trkpt>
      <trkpt lat="44.99367" lon="4.27745">
        <ele>1144.978978</ele>
        <time>2026-08-23T10:01:57.172Z</time>
      </trkpt>
      <trkpt lat="44.99362" lon="4.27733">
        <ele>1145.484118</ele>
        <time>2026-08-23T10:02:00.177Z</time>
      </trkpt>
      <trkpt lat="44.99358" lon="4.27721">
        <ele>1145.994444</ele>
        <time>2026-08-23T10:02:03.174Z</time>
      </trkpt>
      <trkpt lat="44.99353" lon="4.27707">
        <ele>1146.567958</ele>
        <time>2026-08-23T10:02:06.171Z</time>
      </trkpt>
      <trkpt lat="44.99349" lon="4.27692">
        <ele>1147.156664</ele>
        <time>2026-08-23T10:02:09.178Z</time>
      </trkpt>
      <trkpt lat="44.99345" lon="4.27677">
        <ele>1147.743005</ele>
        <time>2026-08-23T10:02:12.173Z</time>
      </trkpt>
      <trkpt lat="44.99341" lon="4.27663">
        <ele>1148.302023</ele>
        <time>2026-08-23T10:02:15.172Z</time>
      </trkpt>
      <trkpt lat="44.99337" lon="4.27649">
        <ele>1148.86573</ele>
        <time>2026-08-23T10:02:18.173Z</time>
      </trkpt>
      <trkpt lat="44.99334" lon="4.27633">
        <ele>1149.469837</ele>
        <time>2026-08-23T10:02:21.176Z</time>
      </trkpt>
      <trkpt lat="44.99329" lon="4.27621">
        <ele>1150.007753</ele>
        <time>2026-08-23T10:02:24.177Z</time>
      </trkpt>
      <trkpt lat="44.99325" lon="4.27605">
        <ele>1150.641184</ele>
        <time>2026-08-23T10:02:27.140Z</time>
      </trkpt>
      <trkpt lat="44.99321" lon="4.27589">
        <ele>1151.258754</ele>
        <time>2026-08-23T10:02:30.173Z</time>
      </trkpt>
      <trkpt lat="44.99316" lon="4.27575">
        <ele>1151.486931</ele>
        <time>2026-08-23T10:02:33.179Z</time>
      </trkpt>
      <trkpt lat="44.99311" lon="4.2756">
        <ele>1151.729708</ele>
        <time>2026-08-23T10:02:36.173Z</time>
      </trkpt>
      <trkpt lat="44.99308" lon="4.27548">
        <ele>1151.9263</ele>
        <time>2026-08-23T10:02:38.180Z</time>
      </trkpt>
      <trkpt lat="44.99304" lon="4.27533">
        <ele>1152.172424</ele>
        <time>2026-08-23T10:02:41.181Z</time>
      </trkpt>
      <trkpt lat="44.99299" lon="4.27517">
        <ele>1152.416548</ele>
        <time>2026-08-23T10:02:44.174Z</time>
      </trkpt>
      <trkpt lat="44.99294" lon="4.27502">
        <ele>1152.660202</ele>
        <time>2026-08-23T10:02:47.179Z</time>
      </trkpt>
      <trkpt lat="44.99289" lon="4.27487">
        <ele>1152.911006</ele>
        <time>2026-08-23T10:02:50.179Z</time>
      </trkpt>
      <trkpt lat="44.99285" lon="4.27474">
        <ele>1153.129625</ele>
        <time>2026-08-23T10:02:53.183Z</time>
      </trkpt>
      <trkpt lat="44.99279" lon="4.27462">
        <ele>1153.333078</ele>
        <time>2026-08-23T10:02:56.180Z</time>
      </trkpt>
      <trkpt lat="44.99273" lon="4.27451">
        <ele>1153.547422</ele>
        <time>2026-08-23T10:02:59.177Z</time>
      </trkpt>
      <trkpt lat="44.99267" lon="4.27436">
        <ele>1153.800866</ele>
        <time>2026-08-23T10:03:02.177Z</time>
      </trkpt>
      <trkpt lat="44.99259" lon="4.27427">
        <ele>1154.009044</ele>
        <time>2026-08-23T10:03:04.178Z</time>
      </trkpt>
      <trkpt lat="44.99254" lon="4.27416">
        <ele>1154.206386</ele>
        <time>2026-08-23T10:03:06.180Z</time>
      </trkpt>
      <trkpt lat="44.99248" lon="4.27404">
        <ele>1154.427205</ele>
        <time>2026-08-23T10:03:08.179Z</time>
      </trkpt>
      <trkpt lat="44.99243" lon="4.27393">
        <ele>1154.618678</ele>
        <time>2026-08-23T10:03:10.178Z</time>
      </trkpt>
      <trkpt lat="44.99237" lon="4.27383">
        <ele>1154.822647</ele>
        <time>2026-08-23T10:03:12.133Z</time>
      </trkpt>
      <trkpt lat="44.9923" lon="4.27372">
        <ele>1155.037483</ele>
        <time>2026-08-23T10:03:14.178Z</time>
      </trkpt>
      <trkpt lat="44.99224" lon="4.2736">
        <ele>1154.849784</ele>
        <time>2026-08-23T10:03:16.172Z</time>
      </trkpt>
      <trkpt lat="44.99218" lon="4.27346">
        <ele>1154.634743</ele>
        <time>2026-08-23T10:03:18.176Z</time>
      </trkpt>
      <trkpt lat="44.99213" lon="4.27333">
        <ele>1154.440538</ele>
        <time>2026-08-23T10:03:20.172Z</time>
      </trkpt>
      <trkpt lat="44.99209" lon="4.27322">
        <ele>1154.27253</ele>
        <time>2026-08-23T10:03:22.163Z</time>
      </trkpt>
      <trkpt lat="44.99203" lon="4.27308">
        <ele>1154.052914</ele>
        <time>2026-08-23T10:03:25.171Z</time>
      </trkpt>
      <trkpt lat="44.99197" lon="4.27295">
        <ele>1153.851563</ele>
        <time>2026-08-23T10:03:28.177Z</time>
      </trkpt>
      <trkpt lat="44.99191" lon="4.27281">
        <ele>1153.642346</ele>
        <time>2026-08-23T10:03:31.173Z</time>
      </trkpt>
      <trkpt lat="44.99187" lon="4.27267">
        <ele>1153.431409</ele>
        <time>2026-08-23T10:03:34.174Z</time>
      </trkpt>
      <trkpt lat="44.99182" lon="4.27252">
        <ele>1153.224125</ele>
        <time>2026-08-23T10:03:37.173Z</time>
      </trkpt>
      <trkpt lat="44.99176" lon="4.27238">
        <ele>1153.002995</ele>
        <time>2026-08-23T10:03:40.175Z</time>
      </trkpt>
      <trkpt lat="44.9917" lon="4.27223">
        <ele>1152.773506</ele>
        <time>2026-08-23T10:03:43.173Z</time>
      </trkpt>
      <trkpt lat="44.99162" lon="4.27211">
        <ele>1152.558212</ele>
        <time>2026-08-23T10:03:47.183Z</time>
      </trkpt>
      <trkpt lat="44.99157" lon="4.272">
        <ele>1152.382167</ele>
        <time>2026-08-23T10:03:50.176Z</time>
      </trkpt>
      <trkpt lat="44.9915" lon="4.27187">
        <ele>1152.17167</ele>
        <time>2026-08-23T10:03:53.172Z</time>
      </trkpt>
      <trkpt lat="44.99147" lon="4.2717">
        <ele>1151.937214</ele>
        <time>2026-08-23T10:03:56.177Z</time>
      </trkpt>
      <trkpt lat="44.99144" lon="4.27153">
        <ele>1151.712614</ele>
        <time>2026-08-23T10:03:59.177Z</time>
      </trkpt>
      <trkpt lat="44.99141" lon="4.2714">
        <ele>1151.748228</ele>
        <time>2026-08-23T10:04:02.175Z</time>
      </trkpt>
      <trkpt lat="44.99138" lon="4.27128">
        <ele>1151.813341</ele>
        <time>2026-08-23T10:04:05.176Z</time>
      </trkpt>
      <trkpt lat="44.99132" lon="4.27114">
        <ele>1151.89273</ele>
        <time>2026-08-23T10:04:08.168Z</time>
      </trkpt>
      <trkpt lat="44.99127" lon="4.27099">
        <ele>1151.980151</ele>
        <time>2026-08-23T10:04:11.174Z</time>
      </trkpt>
      <trkpt lat="44.99121" lon="4.27087">
        <ele>1152.056258</ele>
        <time>2026-08-23T10:04:14.181Z</time>
      </trkpt>
      <trkpt lat="44.99115" lon="4.27073">
        <ele>1152.138458</ele>
        <time>2026-08-23T10:04:17.171Z</time>
      </trkpt>
      <trkpt lat="44.99111" lon="4.27062">
        <ele>1152.202715</ele>
        <time>2026-08-23T10:04:19.177Z</time>
      </trkpt>
      <trkpt lat="44.99104" lon="4.27047">
        <ele>1152.291225</ele>
        <time>2026-08-23T10:04:22.171Z</time>
      </trkpt>
      <trkpt lat="44.99098" lon="4.27033">
        <ele>1152.375475</ele>
        <time>2026-08-23T10:04:25.167Z</time>
      </trkpt>
      <trkpt lat="44.99093" lon="4.27017">
        <ele>1152.464261</ele>
        <time>2026-08-23T10:04:28.174Z</time>
      </trkpt>
      <trkpt lat="44.99087" lon="4.27001">
        <ele>1152.554272</ele>
        <time>2026-08-23T10:04:31.172Z</time>
      </trkpt>
      <trkpt lat="44.99081" lon="4.26985">
        <ele>1152.647902</ele>
        <time>2026-08-23T10:04:34.177Z</time>
      </trkpt>
      <trkpt lat="44.99076" lon="4.26967">
        <ele>1152.744668</ele>
        <time>2026-08-23T10:04:37.177Z</time>
      </trkpt>
      <trkpt lat="44.9907" lon="4.26953">
        <ele>1152.831132</ele>
        <time>2026-08-23T10:04:40.175Z</time>
      </trkpt>
      <trkpt lat="44.99063" lon="4.2694">
        <ele>1152.911585</ele>
        <time>2026-08-23T10:04:43.179Z</time>
      </trkpt>
      <trkpt lat="44.99057" lon="4.26926">
        <ele>1153.027013</ele>
        <time>2026-08-23T10:04:46.177Z</time>
      </trkpt>
      <trkpt lat="44.99052" lon="4.26914">
        <ele>1153.219944</ele>
        <time>2026-08-23T10:04:48.153Z</time>
      </trkpt>
      <trkpt lat="44.99044" lon="4.269">
        <ele>1153.465974</ele>
        <time>2026-08-23T10:04:51.182Z</time>
      </trkpt>
      <trkpt lat="44.99039" lon="4.26885">
        <ele>1153.69702</ele>
        <time>2026-08-23T10:04:54.181Z</time>
      </trkpt>
      <trkpt lat="44.99034" lon="4.2687">
        <ele>1153.922192</ele>
        <time>2026-08-23T10:04:57.175Z</time>
      </trkpt>
      <trkpt lat="44.9903" lon="4.26855">
        <ele>1154.136577</ele>
        <time>2026-08-23T10:04:59.184Z</time>
      </trkpt>
      <trkpt lat="44.99026" lon="4.26838">
        <ele>1154.383487</ele>
        <time>2026-08-23T10:05:02.172Z</time>
      </trkpt>
      <trkpt lat="44.99023" lon="4.26824">
        <ele>1154.591975</ele>
        <time>2026-08-23T10:05:05.180Z</time>
      </trkpt>
      <trkpt lat="44.99022" lon="4.26806">
        <ele>1154.838242</ele>
        <time>2026-08-23T10:05:08.176Z</time>
      </trkpt>
      <trkpt lat="44.99022" lon="4.26788">
        <ele>1155.089788</ele>
        <time>2026-08-23T10:05:11.180Z</time>
      </trkpt>
      <trkpt lat="44.99021" lon="4.26771">
        <ele>1155.3214</ele>
        <time>2026-08-23T10:05:14.176Z</time>
      </trkpt>
      <trkpt lat="44.9902" lon="4.26755">
        <ele>1155.545817</ele>
        <time>2026-08-23T10:05:17.175Z</time>
      </trkpt>
      <trkpt lat="44.99016" lon="4.26741">
        <ele>1155.757546</ele>
        <time>2026-08-23T10:05:20.176Z</time>
      </trkpt>
      <trkpt lat="44.99014" lon="4.26727">
        <ele>1155.95353</ele>
        <time>2026-08-23T10:05:23.174Z</time>
      </trkpt>
      <trkpt lat="44.99013" lon="4.26712">
        <ele>1156.156239</ele>
        <time>2026-08-23T10:05:26.172Z</time>
      </trkpt>
      <trkpt lat="44.99011" lon="4.26697">
        <ele>1156.36659</ele>
        <time>2026-08-23T10:05:29.173Z</time>
      </trkpt>
      <trkpt lat="44.99009" lon="4.26683">
        <ele>1156.716306</ele>
        <time>2026-08-23T10:05:32.171Z</time>
      </trkpt>
      <trkpt lat="44.99006" lon="4.26669">
        <ele>1157.253894</ele>
        <time>2026-08-23T10:05:36.176Z</time>
      </trkpt>
      <trkpt lat="44.99002" lon="4.26655">
        <ele>1157.818701</ele>
        <time>2026-08-23T10:05:40.175Z</time>
      </trkpt>
      <trkpt lat="44.98998" lon="4.26641">
        <ele>1158.349506</ele>
        <time>2026-08-23T10:05:44.143Z</time>
      </trkpt>
      <trkpt lat="44.98995" lon="4.26629">
        <ele>1158.841473</ele>
        <time>2026-08-23T10:05:48.173Z</time>
      </trkpt>
      <trkpt lat="44.98991" lon="4.26615">
        <ele>1159.389233</ele>
        <time>2026-08-23T10:05:53.173Z</time>
      </trkpt>
      <trkpt lat="44.98986" lon="4.26602">
        <ele>1159.959452</ele>
        <time>2026-08-23T10:05:58.177Z</time>
      </trkpt>
      <trkpt lat="44.98985" lon="4.26588">
        <ele>1160.467281</ele>
        <time>2026-08-23T10:06:03.175Z</time>
      </trkpt>
      <trkpt lat="44.98984" lon="4.26573">
        <ele>1161.034248</ele>
        <time>2026-08-23T10:06:08.175Z</time>
      </trkpt>
      <trkpt lat="44.98982" lon="4.26559">
        <ele>1161.564712</ele>
        <time>2026-08-23T10:06:13.180Z</time>
      </trkpt>
      <trkpt lat="44.98981" lon="4.26546">
        <ele>1162.068847</ele>
        <time>2026-08-23T10:06:17.158Z</time>
      </trkpt>
      <trkpt lat="44.98978" lon="4.26533">
        <ele>1162.560665</ele>
        <time>2026-08-23T10:06:22.185Z</time>
      </trkpt>
      <trkpt lat="44.98978" lon="4.26519">
        <ele>1163.088997</ele>
        <time>2026-08-23T10:06:27.154Z</time>
      </trkpt>
      <trkpt lat="44.98976" lon="4.26504">
        <ele>1163.630387</ele>
        <time>2026-08-23T10:06:32.173Z</time>
      </trkpt>
      <trkpt lat="44.98973" lon="4.2649">
        <ele>1164.184693</ele>
        <time>2026-08-23T10:06:37.176Z</time>
      </trkpt>
      <trkpt lat="44.98971" lon="4.26476">
        <ele>1164.703205</ele>
        <time>2026-08-23T10:06:42.183Z</time>
      </trkpt>
      <trkpt lat="44.98968" lon="4.26464">
        <ele>1165.202518</ele>
        <time>2026-08-23T10:06:47.174Z</time>
      </trkpt>
      <trkpt lat="44.98967" lon="4.26451">
        <ele>1165.679115</ele>
        <time>2026-08-23T10:06:51.175Z</time>
      </trkpt>
      <trkpt lat="44.98965" lon="4.26437">
        <ele>1166.182165</ele>
        <time>2026-08-23T10:06:55.179Z</time>
      </trkpt>
      <trkpt lat="44.98958" lon="4.26429">
        <ele>1166.631392</ele>
        <time>2026-08-23T10:07:00.171Z</time>
      </trkpt>
      <trkpt lat="44.98952" lon="4.26418">
        <ele>1167.104997</ele>
        <time>2026-08-23T10:07:06.172Z</time>
      </trkpt>
      <trkpt lat="44.98945" lon="4.26406">
        <ele>1167.626146</ele>
        <time>2026-08-23T10:07:12.173Z</time>
      </trkpt>
      <trkpt lat="44.98938" lon="4.26397">
        <ele>1168.091386</ele>
        <time>2026-08-23T10:07:17.173Z</time>
      </trkpt>
      <trkpt lat="44.98932" lon="4.26387">
        <ele>1168.538753</ele>
        <time>2026-08-23T10:07:23.170Z</time>
      </trkpt>
      <trkpt lat="44.98929" lon="4.26373">
        <ele>1169.037768</ele>
        <time>2026-08-23T10:07:28.173Z</time>
      </trkpt>
      <trkpt lat="44.98925" lon="4.26359">
        <ele>1169.558447</ele>
        <time>2026-08-23T10:07:33.182Z</time>
      </trkpt>
      <trkpt lat="44.98923" lon="4.26346">
        <ele>1170.011091</ele>
        <time>2026-08-23T10:07:37.181Z</time>
      </trkpt>
      <trkpt lat="44.98922" lon="4.2633">
        <ele>1170.547409</ele>
        <time>2026-08-23T10:07:42.179Z</time>
      </trkpt>
      <trkpt lat="44.9892" lon="4.26315">
        <ele>1171.092044</ele>
        <time>2026-08-23T10:07:47.173Z</time>
      </trkpt>
      <trkpt lat="44.98916" lon="4.26301">
        <ele>1171.605846</ele>
        <time>2026-08-23T10:07:53.174Z</time>
      </trkpt>
      <trkpt lat="44.98914" lon="4.26288">
        <ele>1172.065546</ele>
        <time>2026-08-23T10:07:58.177Z</time>
      </trkpt>
      <trkpt lat="44.98913" lon="4.26274">
        <ele>1172.540042</ele>
        <time>2026-08-23T10:08:03.172Z</time>
      </trkpt>
      <trkpt lat="44.98912" lon="4.26259">
        <ele>1173.040473</ele>
        <time>2026-08-23T10:08:08.176Z</time>
      </trkpt>
      <trkpt lat="44.98912" lon="4.26246">
        <ele>1173.499268</ele>
        <time>2026-08-23T10:08:12.175Z</time>
      </trkpt>
      <trkpt lat="44.98911" lon="4.26231">
        <ele>1174.017718</ele>
        <time>2026-08-23T10:08:17.173Z</time>
      </trkpt>
      <trkpt lat="44.98913" lon="4.26218">
        <ele>1174.476255</ele>
        <time>2026-08-23T10:08:22.173Z</time>
      </trkpt>
      <trkpt lat="44.98916" lon="4.26206">
        <ele>1174.509189</ele>
        <time>2026-08-23T10:08:27.166Z</time>
      </trkpt>
      <trkpt lat="44.98914" lon="4.26193">
        <ele>1174.286753</ele>
        <time>2026-08-23T10:13:17.172Z</time>
      </trkpt>
      <trkpt lat="44.98907" lon="4.2618">
        <ele>1174.010237</ele>
        <time>2026-08-23T10:13:22.173Z</time>
      </trkpt>
      <trkpt lat="44.98901" lon="4.26168">
        <ele>1173.762875</ele>
        <time>2026-08-23T10:13:25.177Z</time>
      </trkpt>
      <trkpt lat="44.98895" lon="4.26157">
        <ele>1173.530083</ele>
        <time>2026-08-23T10:13:28.175Z</time>
      </trkpt>
      <trkpt lat="44.98888" lon="4.26143">
        <ele>1173.227171</ele>
        <time>2026-08-23T10:13:31.177Z</time>
      </trkpt>
      <trkpt lat="44.98881" lon="4.26128">
        <ele>1172.923946</ele>
        <time>2026-08-23T10:13:34.177Z</time>
      </trkpt>
      <trkpt lat="44.98873" lon="4.26113">
        <ele>1172.599943</ele>
        <time>2026-08-23T10:13:37.180Z</time>
      </trkpt>
      <trkpt lat="44.98867" lon="4.26103">
        <ele>1172.379843</ele>
        <time>2026-08-23T10:13:39.176Z</time>
      </trkpt>
      <trkpt lat="44.98862" lon="4.2609">
        <ele>1172.141131</ele>
        <time>2026-08-23T10:13:41.175Z</time>
      </trkpt>
      <trkpt lat="44.98857" lon="4.26079">
        <ele>1171.913244</ele>
        <time>2026-08-23T10:13:43.180Z</time>
      </trkpt>
      <trkpt lat="44.98852" lon="4.26068">
        <ele>1171.683671</ele>
        <time>2026-08-23T10:13:45.172Z</time>
      </trkpt>
      <trkpt lat="44.98845" lon="4.26058">
        <ele>1171.454132</ele>
        <time>2026-08-23T10:13:47.176Z</time>
      </trkpt>
      <trkpt lat="44.98839" lon="4.26048">
        <ele>1171.224695</ele>
        <time>2026-08-23T10:13:49.178Z</time>
      </trkpt>
      <trkpt lat="44.9883" lon="4.26034">
        <ele>1170.905634</ele>
        <time>2026-08-23T10:13:52.175Z</time>
      </trkpt>
      <trkpt lat="44.98823" lon="4.26025">
        <ele>1170.677959</ele>
        <time>2026-08-23T10:13:54.168Z</time>
      </trkpt>
      <trkpt lat="44.98813" lon="4.26014">
        <ele>1170.367187</ele>
        <time>2026-08-23T10:13:57.175Z</time>
      </trkpt>
      <trkpt lat="44.98805" lon="4.26006">
        <ele>1170.462733</ele>
        <time>2026-08-23T10:13:59.185Z</time>
      </trkpt>
      <trkpt lat="44.98794" lon="4.25997">
        <ele>1170.739784</ele>
        <time>2026-08-23T10:14:02.178Z</time>
      </trkpt>
      <trkpt lat="44.98785" lon="4.25989">
        <ele>1170.938264</ele>
        <time>2026-08-23T10:14:04.177Z</time>
      </trkpt>
      <trkpt lat="44.98774" lon="4.25977">
        <ele>1171.226608</ele>
        <time>2026-08-23T10:14:07.173Z</time>
      </trkpt>
      <trkpt lat="44.98765" lon="4.25968">
        <ele>1171.449138</ele>
        <time>2026-08-23T10:14:09.174Z</time>
      </trkpt>
      <trkpt lat="44.98757" lon="4.25958">
        <ele>1171.669767</ele>
        <time>2026-08-23T10:14:11.184Z</time>
      </trkpt>
      <trkpt lat="44.98748" lon="4.2595">
        <ele>1171.900704</ele>
        <time>2026-08-23T10:14:13.175Z</time>
      </trkpt>
      <trkpt lat="44.98738" lon="4.25942">
        <ele>1172.124846</ele>
        <time>2026-08-23T10:14:15.175Z</time>
      </trkpt>
      <trkpt lat="44.98729" lon="4.25935">
        <ele>1172.339808</ele>
        <time>2026-08-23T10:14:17.174Z</time>
      </trkpt>
      <trkpt lat="44.9872" lon="4.25927">
        <ele>1172.545647</ele>
        <time>2026-08-23T10:14:19.185Z</time>
      </trkpt>
      <trkpt lat="44.98711" lon="4.25919">
        <ele>1172.761288</ele>
        <time>2026-08-23T10:14:21.171Z</time>
      </trkpt>
      <trkpt lat="44.98704" lon="4.2591">
        <ele>1172.964208</ele>
        <time>2026-08-23T10:14:23.173Z</time>
      </trkpt>
      <trkpt lat="44.98696" lon="4.25903">
        <ele>1173.148322</ele>
        <time>2026-08-23T10:14:25.176Z</time>
      </trkpt>
      <trkpt lat="44.98686" lon="4.25892">
        <ele>1173.407718</ele>
        <time>2026-08-23T10:14:28.174Z</time>
      </trkpt>
      <trkpt lat="44.98678" lon="4.25883">
        <ele>1173.623524</ele>
        <time>2026-08-23T10:14:31.181Z</time>
      </trkpt>
      <trkpt lat="44.9867" lon="4.25875">
        <ele>1173.818482</ele>
        <time>2026-08-23T10:14:34.180Z</time>
      </trkpt>
      <trkpt lat="44.98662" lon="4.25866">
        <ele>1174.042098</ele>
        <time>2026-08-23T10:14:37.175Z</time>
      </trkpt>
      <trkpt lat="44.98653" lon="4.25858">
        <ele>1174.454555</ele>
        <time>2026-08-23T10:14:41.175Z</time>
      </trkpt>
      <trkpt lat="44.98644" lon="4.2585">
        <ele>1174.830634</ele>
        <time>2026-08-23T10:14:45.183Z</time>
      </trkpt>
      <trkpt lat="44.98634" lon="4.25844">
        <ele>1175.211493</ele>
        <time>2026-08-23T10:14:49.175Z</time>
      </trkpt>
      <trkpt lat="44.98626" lon="4.25835">
        <ele>1175.57916</ele>
        <time>2026-08-23T10:14:53.181Z</time>
      </trkpt>
      <trkpt lat="44.98618" lon="4.25828">
        <ele>1175.920742</ele>
        <time>2026-08-23T10:14:57.179Z</time>
      </trkpt>
      <trkpt lat="44.98608" lon="4.25821">
        <ele>1176.31377</ele>
        <time>2026-08-23T10:15:02.174Z</time>
      </trkpt>
      <trkpt lat="44.98599" lon="4.25815">
        <ele>1176.661033</ele>
        <time>2026-08-23T10:15:06.181Z</time>
      </trkpt>
      <trkpt lat="44.9859" lon="4.2581">
        <ele>1177.009475</ele>
        <time>2026-08-23T10:15:10.172Z</time>
      </trkpt>
      <trkpt lat="44.98581" lon="4.25803">
        <ele>1177.393007</ele>
        <time>2026-08-23T10:15:14.179Z</time>
      </trkpt>
      <trkpt lat="44.98572" lon="4.25794">
        <ele>1177.786206</ele>
        <time>2026-08-23T10:15:19.174Z</time>
      </trkpt>
      <trkpt lat="44.98563" lon="4.25786">
        <ele>1178.175906</ele>
        <time>2026-08-23T10:15:24.177Z</time>
      </trkpt>
      <trkpt lat="44.98553" lon="4.2578">
        <ele>1178.538322</ele>
        <time>2026-08-23T10:15:28.177Z</time>
      </trkpt>
      <trkpt lat="44.98546" lon="4.25772">
        <ele>1178.87816</ele>
        <time>2026-08-23T10:15:31.160Z</time>
      </trkpt>
      <trkpt lat="44.98536" lon="4.25763">
        <ele>1179.300043</ele>
        <time>2026-08-23T10:15:35.173Z</time>
      </trkpt>
      <trkpt lat="44.98527" lon="4.25753">
        <ele>1179.693138</ele>
        <time>2026-08-23T10:15:39.180Z</time>
      </trkpt>
      <trkpt lat="44.98519" lon="4.25742">
        <ele>1180.098103</ele>
        <time>2026-08-23T10:15:43.181Z</time>
      </trkpt>
      <trkpt lat="44.98511" lon="4.25731">
        <ele>1180.483209</ele>
        <time>2026-08-23T10:15:47.176Z</time>
      </trkpt>
      <trkpt lat="44.98503" lon="4.2572">
        <ele>1180.762371</ele>
        <time>2026-08-23T10:15:51.179Z</time>
      </trkpt>
      <trkpt lat="44.98495" lon="4.2571">
        <ele>1181.025981</ele>
        <time>2026-08-23T10:15:55.181Z</time>
      </trkpt>
      <trkpt lat="44.98486" lon="4.257">
        <ele>1181.310503</ele>
        <time>2026-08-23T10:15:59.175Z</time>
      </trkpt>
      <trkpt lat="44.98477" lon="4.2569">
        <ele>1181.599121</ele>
        <time>2026-08-23T10:16:03.177Z</time>
      </trkpt>
      <trkpt lat="44.98469" lon="4.25683">
        <ele>1181.827191</ele>
        <time>2026-08-23T10:16:06.176Z</time>
      </trkpt>
      <trkpt lat="44.9846" lon="4.25675">
        <ele>1182.092456</ele>
        <time>2026-08-23T10:16:09.180Z</time>
      </trkpt>
      <trkpt lat="44.98453" lon="4.25666">
        <ele>1182.324015</ele>
        <time>2026-08-23T10:16:12.173Z</time>
      </trkpt>
      <trkpt lat="44.98444" lon="4.25659">
        <ele>1182.569529</ele>
        <time>2026-08-23T10:16:15.188Z</time>
      </trkpt>
      <trkpt lat="44.98436" lon="4.2565">
        <ele>1182.820536</ele>
        <time>2026-08-23T10:16:18.178Z</time>
      </trkpt>
      <trkpt lat="44.98426" lon="4.25643">
        <ele>1183.090863</ele>
        <time>2026-08-23T10:16:21.175Z</time>
      </trkpt>
      <trkpt lat="44.98416" lon="4.25633">
        <ele>1183.390332</ele>
        <time>2026-08-23T10:16:24.169Z</time>
      </trkpt>
      <trkpt lat="44.98405" lon="4.25626">
        <ele>1183.691811</ele>
        <time>2026-08-23T10:16:27.180Z</time>
      </trkpt>
      <trkpt lat="44.98394" lon="4.25618">
        <ele>1184.006683</ele>
        <time>2026-08-23T10:16:30.177Z</time>
      </trkpt>
      <trkpt lat="44.98385" lon="4.25612">
        <ele>1184.240443</ele>
        <time>2026-08-23T10:16:32.181Z</time>
      </trkpt>
      <trkpt lat="44.98376" lon="4.25609">
        <ele>1184.466868</ele>
        <time>2026-08-23T10:16:34.176Z</time>
      </trkpt>
      <trkpt lat="44.98367" lon="4.25605">
        <ele>1184.699052</ele>
        <time>2026-08-23T10:16:36.147Z</time>
      </trkpt>
      <trkpt lat="44.98358" lon="4.25599">
        <ele>1184.893438</ele>
        <time>2026-08-23T10:16:38.177Z</time>
      </trkpt>
      <trkpt lat="44.98348" lon="4.25594">
        <ele>1184.946227</ele>
        <time>2026-08-23T10:16:40.175Z</time>
      </trkpt>
      <trkpt lat="44.98339" lon="4.25589">
        <ele>1184.993311</ele>
        <time>2026-08-23T10:16:42.180Z</time>
      </trkpt>
      <trkpt lat="44.9833" lon="4.25585">
        <ele>1185.043274</ele>
        <time>2026-08-23T10:16:44.174Z</time>
      </trkpt>
      <trkpt lat="44.98321" lon="4.25582">
        <ele>1185.088902</ele>
        <time>2026-08-23T10:16:46.179Z</time>
      </trkpt>
      <trkpt lat="44.9831" lon="4.25577">
        <ele>1185.143082</ele>
        <time>2026-08-23T10:16:48.177Z</time>
      </trkpt>
      <trkpt lat="44.98301" lon="4.25572">
        <ele>1185.19436</ele>
        <time>2026-08-23T10:16:50.199Z</time>
      </trkpt>
      <trkpt lat="44.98291" lon="4.25568">
        <ele>1185.243932</ele>
        <time>2026-08-23T10:16:52.180Z</time>
      </trkpt>
      <trkpt lat="44.9828" lon="4.25564">
        <ele>1185.298372</ele>
        <time>2026-08-23T10:16:54.183Z</time>
      </trkpt>
      <trkpt lat="44.9827" lon="4.2556">
        <ele>1185.350903</ele>
        <time>2026-08-23T10:16:56.187Z</time>
      </trkpt>
      <trkpt lat="44.9826" lon="4.25555">
        <ele>1185.401835</ele>
        <time>2026-08-23T10:16:58.175Z</time>
      </trkpt>
      <trkpt lat="44.9825" lon="4.25551">
        <ele>1185.454756</ele>
        <time>2026-08-23T10:17:00.175Z</time>
      </trkpt>
      <trkpt lat="44.98241" lon="4.25546">
        <ele>1185.501255</ele>
        <time>2026-08-23T10:17:02.181Z</time>
      </trkpt>
      <trkpt lat="44.98233" lon="4.2554">
        <ele>1185.548216</ele>
        <time>2026-08-23T10:17:04.165Z</time>
      </trkpt>
      <trkpt lat="44.98221" lon="4.25532">
        <ele>1185.613349</ele>
        <time>2026-08-23T10:17:07.174Z</time>
      </trkpt>
      <trkpt lat="44.9821" lon="4.25522">
        <ele>1185.679365</ele>
        <time>2026-08-23T10:17:10.170Z</time>
      </trkpt>
      <trkpt lat="44.98199" lon="4.25512">
        <ele>1185.743448</ele>
        <time>2026-08-23T10:17:13.175Z</time>
      </trkpt>
      <trkpt lat="44.98187" lon="4.25503">
        <ele>1185.884991</ele>
        <time>2026-08-23T10:17:16.176Z</time>
      </trkpt>
      <trkpt lat="44.9818" lon="4.25495">
        <ele>1186.022494</ele>
        <time>2026-08-23T10:17:18.182Z</time>
      </trkpt>
      <trkpt lat="44.98172" lon="4.25487">
        <ele>1186.162611</ele>
        <time>2026-08-23T10:17:20.182Z</time>
      </trkpt>
      <trkpt lat="44.98166" lon="4.25477">
        <ele>1186.29815</ele>
        <time>2026-08-23T10:17:22.174Z</time>
      </trkpt>
      <trkpt lat="44.9816" lon="4.25466">
        <ele>1186.443777</ele>
        <time>2026-08-23T10:17:24.184Z</time>
      </trkpt>
      <trkpt lat="44.98155" lon="4.25453">
        <ele>1186.593931</ele>
        <time>2026-08-23T10:17:26.180Z</time>
      </trkpt>
      <trkpt lat="44.98152" lon="4.2544">
        <ele>1186.736884</ele>
        <time>2026-08-23T10:17:28.175Z</time>
      </trkpt>
      <trkpt lat="44.98151" lon="4.25426">
        <ele>1186.874729</ele>
        <time>2026-08-23T10:17:30.154Z</time>
      </trkpt>
      <trkpt lat="44.9815" lon="4.25411">
        <ele>1187.036523</ele>
        <time>2026-08-23T10:17:32.169Z</time>
      </trkpt>
      <trkpt lat="44.98148" lon="4.25396">
        <ele>1187.191316</ele>
        <time>2026-08-23T10:17:34.178Z</time>
      </trkpt>
      <trkpt lat="44.98147" lon="4.25382">
        <ele>1187.332627</ele>
        <time>2026-08-23T10:17:36.186Z</time>
      </trkpt>
      <trkpt lat="44.98146" lon="4.25369">
        <ele>1187.472308</ele>
        <time>2026-08-23T10:17:38.175Z</time>
      </trkpt>
      <trkpt lat="44.98146" lon="4.25355">
        <ele>1187.618901</ele>
        <time>2026-08-23T10:17:40.177Z</time>
      </trkpt>
      <trkpt lat="44.98145" lon="4.25341">
        <ele>1187.761307</ele>
        <time>2026-08-23T10:17:42.178Z</time>
      </trkpt>
      <trkpt lat="44.98144" lon="4.25328">
        <ele>1187.897117</ele>
        <time>2026-08-23T10:17:44.167Z</time>
      </trkpt>
      <trkpt lat="44.98141" lon="4.25311">
        <ele>1188.080868</ele>
        <time>2026-08-23T10:17:47.179Z</time>
      </trkpt>
      <trkpt lat="44.98136" lon="4.25296">
        <ele>1188.247805</ele>
        <time>2026-08-23T10:17:50.180Z</time>
      </trkpt>
      <trkpt lat="44.9813" lon="4.25281">
        <ele>1188.411583</ele>
        <time>2026-08-23T10:17:53.174Z</time>
      </trkpt>
      <trkpt lat="44.98126" lon="4.25265">
        <ele>1188.559144</ele>
        <time>2026-08-23T10:17:56.174Z</time>
      </trkpt>
      <trkpt lat="44.9812" lon="4.25249">
        <ele>1188.709537</ele>
        <time>2026-08-23T10:17:59.177Z</time>
      </trkpt>
      <trkpt lat="44.98114" lon="4.25233">
        <ele>1188.855186</ele>
        <time>2026-08-23T10:18:02.178Z</time>
      </trkpt>
      <trkpt lat="44.98108" lon="4.25219">
        <ele>1188.992426</ele>
        <time>2026-08-23T10:18:05.173Z</time>
      </trkpt>
      <trkpt lat="44.98101" lon="4.25208">
        <ele>1189.112489</ele>
        <time>2026-08-23T10:18:08.179Z</time>
      </trkpt>
      <trkpt lat="44.98096" lon="4.25195">
        <ele>1189.233028</ele>
        <time>2026-08-23T10:18:11.173Z</time>
      </trkpt>
      <trkpt lat="44.98091" lon="4.25184">
        <ele>1189.339226</ele>
        <time>2026-08-23T10:18:14.179Z</time>
      </trkpt>
      <trkpt lat="44.98086" lon="4.25173">
        <ele>1189.450652</ele>
        <time>2026-08-23T10:18:17.179Z</time>
      </trkpt>
      <trkpt lat="44.98082" lon="4.25161">
        <ele>1189.565618</ele>
        <time>2026-08-23T10:18:20.181Z</time>
      </trkpt>
      <trkpt lat="44.98077" lon="4.25149">
        <ele>1189.681083</ele>
        <time>2026-08-23T10:18:23.176Z</time>
      </trkpt>
      <trkpt lat="44.98072" lon="4.25136">
        <ele>1189.799308</ele>
        <time>2026-08-23T10:18:26.175Z</time>
      </trkpt>
      <trkpt lat="44.98067" lon="4.25122">
        <ele>1189.93077</ele>
        <time>2026-08-23T10:18:29.177Z</time>
      </trkpt>
      <trkpt lat="44.98062" lon="4.2511">
        <ele>1190.040921</ele>
        <time>2026-08-23T10:18:31.177Z</time>
      </trkpt>
      <trkpt lat="44.98058" lon="4.25099">
        <ele>1190.14851</ele>
        <time>2026-08-23T10:18:33.178Z</time>
      </trkpt>
      <trkpt lat="44.98054" lon="4.25086">
        <ele>1190.262015</ele>
        <time>2026-08-23T10:18:35.177Z</time>
      </trkpt>
      <trkpt lat="44.98048" lon="4.2507">
        <ele>1190.416211</ele>
        <time>2026-08-23T10:18:38.180Z</time>
      </trkpt>
      <trkpt lat="44.98043" lon="4.25052">
        <ele>1190.602463</ele>
        <time>2026-08-23T10:18:41.171Z</time>
      </trkpt>
      <trkpt lat="44.98038" lon="4.25038">
        <ele>1190.785976</ele>
        <time>2026-08-23T10:18:44.176Z</time>
      </trkpt>
      <trkpt lat="44.98031" lon="4.25024">
        <ele>1190.982285</ele>
        <time>2026-08-23T10:18:47.195Z</time>
      </trkpt>
      <trkpt lat="44.98025" lon="4.2501">
        <ele>1191.171789</ele>
        <time>2026-08-23T10:18:50.173Z</time>
      </trkpt>
      <trkpt lat="44.98018" lon="4.24999">
        <ele>1191.343973</ele>
        <time>2026-08-23T10:18:53.183Z</time>
      </trkpt>
      <trkpt lat="44.98012" lon="4.2499">
        <ele>1191.496164</ele>
        <time>2026-08-23T10:18:56.175Z</time>
      </trkpt>
      <trkpt lat="44.98004" lon="4.24979">
        <ele>1191.673739</ele>
        <time>2026-08-23T10:18:59.176Z</time>
      </trkpt>
      <trkpt lat="44.97995" lon="4.24972">
        <ele>1191.83903</ele>
        <time>2026-08-23T10:19:02.173Z</time>
      </trkpt>
      <trkpt lat="44.97985" lon="4.24963">
        <ele>1192.033173</ele>
        <time>2026-08-23T10:19:06.167Z</time>
      </trkpt>
      <trkpt lat="44.97977" lon="4.24956">
        <ele>1192.181106</ele>
        <time>2026-08-23T10:19:09.175Z</time>
      </trkpt>
      <trkpt lat="44.97967" lon="4.24948">
        <ele>1192.377657</ele>
        <time>2026-08-23T10:19:13.172Z</time>
      </trkpt>
      <trkpt lat="44.97959" lon="4.2494">
        <ele>1192.540438</ele>
        <time>2026-08-23T10:19:16.185Z</time>
      </trkpt>
      <trkpt lat="44.97952" lon="4.2493">
        <ele>1192.688976</ele>
        <time>2026-08-23T10:19:19.180Z</time>
      </trkpt>
      <trkpt lat="44.97953" lon="4.24915">
        <ele>1192.871937</ele>
        <time>2026-08-23T10:19:23.175Z</time>
      </trkpt>
      <trkpt lat="44.97959" lon="4.24901">
        <ele>1193.058161</ele>
        <time>2026-08-23T10:19:26.153Z</time>
      </trkpt>
      <trkpt lat="44.97965" lon="4.24886">
        <ele>1193.255813</ele>
        <time>2026-08-23T10:19:30.172Z</time>
      </trkpt>
      <trkpt lat="44.97971" lon="4.24873">
        <ele>1193.433598</ele>
        <time>2026-08-23T10:19:33.171Z</time>
      </trkpt>
      <trkpt lat="44.97977" lon="4.24861">
        <ele>1193.505349</ele>
        <time>2026-08-23T10:19:36.184Z</time>
      </trkpt>
      <trkpt lat="44.97984" lon="4.24848">
        <ele>1193.584242</ele>
        <time>2026-08-23T10:19:39.187Z</time>
      </trkpt>
      <trkpt lat="44.97991" lon="4.24835">
        <ele>1193.661952</ele>
        <time>2026-08-23T10:19:42.178Z</time>
      </trkpt>
      <trkpt lat="44.97996" lon="4.24819">
        <ele>1193.745874</ele>
        <time>2026-08-23T10:19:45.175Z</time>
      </trkpt>
      <trkpt lat="44.97999" lon="4.24803">
        <ele>1193.826401</ele>
        <time>2026-08-23T10:19:48.177Z</time>
      </trkpt>
      <trkpt lat="44.98002" lon="4.24787">
        <ele>1193.907561</ele>
        <time>2026-08-23T10:19:51.173Z</time>
      </trkpt>
      <trkpt lat="44.98006" lon="4.24771">
        <ele>1193.988019</ele>
        <time>2026-08-23T10:19:54.176Z</time>
      </trkpt>
      <trkpt lat="44.98009" lon="4.24756">
        <ele>1194.066264</ele>
        <time>2026-08-23T10:19:57.185Z</time>
      </trkpt>
      <trkpt lat="44.98014" lon="4.2474">
        <ele>1194.150814</ele>
        <time>2026-08-23T10:20:00.172Z</time>
      </trkpt>
      <trkpt lat="44.98017" lon="4.24724">
        <ele>1194.230403</ele>
        <time>2026-08-23T10:20:03.177Z</time>
      </trkpt>
      <trkpt lat="44.9802" lon="4.24708">
        <ele>1194.309763</ele>
        <time>2026-08-23T10:20:06.172Z</time>
      </trkpt>
      <trkpt lat="44.98023" lon="4.24692">
        <ele>1194.387925</ele>
        <time>2026-08-23T10:20:09.182Z</time>
      </trkpt>
      <trkpt lat="44.98026" lon="4.24677">
        <ele>1194.463013</ele>
        <time>2026-08-23T10:20:12.174Z</time>
      </trkpt>
      <trkpt lat="44.9803" lon="4.24662">
        <ele>1194.54292</ele>
        <time>2026-08-23T10:20:15.184Z</time>
      </trkpt>
      <trkpt lat="44.98033" lon="4.24646">
        <ele>1194.621626</ele>
        <time>2026-08-23T10:20:18.177Z</time>
      </trkpt>
      <trkpt lat="44.98035" lon="4.2463">
        <ele>1194.8256</ele>
        <time>2026-08-23T10:20:21.173Z</time>
      </trkpt>
      <trkpt lat="44.98039" lon="4.24615">
        <ele>1195.166316</ele>
        <time>2026-08-23T10:20:24.179Z</time>
      </trkpt>
      <trkpt lat="44.98043" lon="4.24599">
        <ele>1195.524876</ele>
        <time>2026-08-23T10:20:27.175Z</time>
      </trkpt>
      <trkpt lat="44.98046" lon="4.24582">
        <ele>1195.88786</ele>
        <time>2026-08-23T10:20:30.173Z</time>
      </trkpt>
      <trkpt lat="44.98051" lon="4.24566">
        <ele>1196.254413</ele>
        <time>2026-08-23T10:20:33.182Z</time>
      </trkpt>
      <trkpt lat="44.98053" lon="4.2455">
        <ele>1196.586189</ele>
        <time>2026-08-23T10:20:36.183Z</time>
      </trkpt>
      <trkpt lat="44.98056" lon="4.24532">
        <ele>1196.979061</ele>
        <time>2026-08-23T10:20:39.175Z</time>
      </trkpt>
      <trkpt lat="44.9806" lon="4.24515">
        <ele>1197.364331</ele>
        <time>2026-08-23T10:20:42.177Z</time>
      </trkpt>
      <trkpt lat="44.98062" lon="4.24497">
        <ele>1197.746998</ele>
        <time>2026-08-23T10:20:45.177Z</time>
      </trkpt>
      <trkpt lat="44.98066" lon="4.24479">
        <ele>1198.120338</ele>
        <time>2026-08-23T10:20:48.181Z</time>
      </trkpt>
      <trkpt lat="44.98069" lon="4.24467">
        <ele>1198.386963</ele>
        <time>2026-08-23T10:20:50.175Z</time>
      </trkpt>
      <trkpt lat="44.98071" lon="4.24451">
        <ele>1198.737667</ele>
        <time>2026-08-23T10:20:53.177Z</time>
      </trkpt>
      <trkpt lat="44.98075" lon="4.24436">
        <ele>1199.076763</ele>
        <time>2026-08-23T10:20:56.182Z</time>
      </trkpt>
      <trkpt lat="44.98079" lon="4.24418">
        <ele>1199.46684</ele>
        <time>2026-08-23T10:20:59.179Z</time>
      </trkpt>
      <trkpt lat="44.98082" lon="4.244">
        <ele>1199.854244</ele>
        <time>2026-08-23T10:21:02.159Z</time>
      </trkpt>
      <trkpt lat="44.98085" lon="4.24382">
        <ele>1200.186655</ele>
        <time>2026-08-23T10:21:05.177Z</time>
      </trkpt>
      <trkpt lat="44.98088" lon="4.24367">
        <ele>1200.448795</ele>
        <time>2026-08-23T10:21:08.180Z</time>
      </trkpt>
      <trkpt lat="44.98092" lon="4.24349">
        <ele>1200.75255</ele>
        <time>2026-08-23T10:21:11.187Z</time>
      </trkpt>
      <trkpt lat="44.98096" lon="4.24331">
        <ele>1201.058325</ele>
        <time>2026-08-23T10:21:14.179Z</time>
      </trkpt>
      <trkpt lat="44.98099" lon="4.24312">
        <ele>1201.379058</ele>
        <time>2026-08-23T10:21:17.187Z</time>
      </trkpt>
      <trkpt lat="44.98101" lon="4.243">
        <ele>1201.591159</ele>
        <time>2026-08-23T10:21:19.174Z</time>
      </trkpt>
      <trkpt lat="44.98103" lon="4.24287">
        <ele>1201.804327</ele>
        <time>2026-08-23T10:21:21.182Z</time>
      </trkpt>
      <trkpt lat="44.98106" lon="4.2427">
        <ele>1202.098964</ele>
        <time>2026-08-23T10:21:24.173Z</time>
      </trkpt>
      <trkpt lat="44.98107" lon="4.24251">
        <ele>1202.408117</ele>
        <time>2026-08-23T10:21:27.182Z</time>
      </trkpt>
      <trkpt lat="44.98106" lon="4.24237">
        <ele>1202.629922</ele>
        <time>2026-08-23T10:21:29.176Z</time>
      </trkpt>
      <trkpt lat="44.98105" lon="4.24224">
        <ele>1202.854459</ele>
        <time>2026-08-23T10:21:31.179Z</time>
      </trkpt>
      <trkpt lat="44.98103" lon="4.24209">
        <ele>1203.099061</ele>
        <time>2026-08-23T10:21:33.190Z</time>
      </trkpt>
      <trkpt lat="44.98102" lon="4.24194">
        <ele>1203.353976</ele>
        <time>2026-08-23T10:21:35.179Z</time>
      </trkpt>
      <trkpt lat="44.98101" lon="4.24179">
        <ele>1203.599179</ele>
        <time>2026-08-23T10:21:37.176Z</time>
      </trkpt>
      <trkpt lat="44.981" lon="4.24163">
        <ele>1203.863162</ele>
        <time>2026-08-23T10:21:39.176Z</time>
      </trkpt>
      <trkpt lat="44.98098" lon="4.24146">
        <ele>1204.136347</ele>
        <time>2026-08-23T10:21:41.172Z</time>
      </trkpt>
      <trkpt lat="44.98097" lon="4.24129">
        <ele>1203.525359</ele>
        <time>2026-08-23T10:21:43.175Z</time>
      </trkpt>
      <trkpt lat="44.98094" lon="4.24112">
        <ele>1202.813137</ele>
        <time>2026-08-23T10:21:45.178Z</time>
      </trkpt>
      <trkpt lat="44.98089" lon="4.24095">
        <ele>1202.083463</ele>
        <time>2026-08-23T10:21:47.180Z</time>
      </trkpt>
      <trkpt lat="44.98081" lon="4.24081">
        <ele>1201.361317</ele>
        <time>2026-08-23T10:21:49.171Z</time>
      </trkpt>
      <trkpt lat="44.9807" lon="4.24069">
        <ele>1200.584145</ele>
        <time>2026-08-23T10:21:51.176Z</time>
      </trkpt>
      <trkpt lat="44.98058" lon="4.24059">
        <ele>1199.749463</ele>
        <time>2026-08-23T10:21:53.177Z</time>
      </trkpt>
      <trkpt lat="44.98044" lon="4.24051">
        <ele>1198.907435</ele>
        <time>2026-08-23T10:21:55.172Z</time>
      </trkpt>
      <trkpt lat="44.9803" lon="4.24043">
        <ele>1198.045041</ele>
        <time>2026-08-23T10:21:57.174Z</time>
      </trkpt>
      <trkpt lat="44.98015" lon="4.24035">
        <ele>1197.138506</ele>
        <time>2026-08-23T10:21:59.181Z</time>
      </trkpt>
      <trkpt lat="44.98001" lon="4.24029">
        <ele>1196.336984</ele>
        <time>2026-08-23T10:22:01.180Z</time>
      </trkpt>
      <trkpt lat="44.97988" lon="4.24021">
        <ele>1195.508518</ele>
        <time>2026-08-23T10:22:03.173Z</time>
      </trkpt>
      <trkpt lat="44.97974" lon="4.24013">
        <ele>1194.665705</ele>
        <time>2026-08-23T10:22:05.172Z</time>
      </trkpt>
      <trkpt lat="44.9796" lon="4.24006">
        <ele>1193.899131</ele>
        <time>2026-08-23T10:22:07.177Z</time>
      </trkpt>
      <trkpt lat="44.97946" lon="4.23998">
        <ele>1193.576024</ele>
        <time>2026-08-23T10:22:09.181Z</time>
      </trkpt>
      <trkpt lat="44.97933" lon="4.23988">
        <ele>1193.249402</ele>
        <time>2026-08-23T10:22:11.185Z</time>
      </trkpt>
      <trkpt lat="44.97919" lon="4.2398">
        <ele>1192.928596</ele>
        <time>2026-08-23T10:22:13.176Z</time>
      </trkpt>
      <trkpt lat="44.97905" lon="4.23973">
        <ele>1192.613248</ele>
        <time>2026-08-23T10:22:15.187Z</time>
      </trkpt>
      <trkpt lat="44.97892" lon="4.23965">
        <ele>1192.294134</ele>
        <time>2026-08-23T10:22:17.171Z</time>
      </trkpt>
      <trkpt lat="44.97878" lon="4.23956">
        <ele>1191.965298</ele>
        <time>2026-08-23T10:22:19.175Z</time>
      </trkpt>
      <trkpt lat="44.97864" lon="4.23949">
        <ele>1191.653385</ele>
        <time>2026-08-23T10:22:21.175Z</time>
      </trkpt>
      <trkpt lat="44.97851" lon="4.23943">
        <ele>1191.346639</ele>
        <time>2026-08-23T10:22:23.171Z</time>
      </trkpt>
      <trkpt lat="44.97836" lon="4.23935">
        <ele>1191.005834</ele>
        <time>2026-08-23T10:22:25.171Z</time>
      </trkpt>
      <trkpt lat="44.97822" lon="4.23927">
        <ele>1190.683817</ele>
        <time>2026-08-23T10:22:27.147Z</time>
      </trkpt>
      <trkpt lat="44.97808" lon="4.2392">
        <ele>1190.366443</ele>
        <time>2026-08-23T10:22:29.178Z</time>
      </trkpt>
      <trkpt lat="44.97794" lon="4.23912">
        <ele>1190.046147</ele>
        <time>2026-08-23T10:22:31.186Z</time>
      </trkpt>
      <trkpt lat="44.97781" lon="4.23903">
        <ele>1189.788174</ele>
        <time>2026-08-23T10:22:33.188Z</time>
      </trkpt>
      <trkpt lat="44.97768" lon="4.23892">
        <ele>1189.520607</ele>
        <time>2026-08-23T10:22:35.182Z</time>
      </trkpt>
      <trkpt lat="44.97756" lon="4.23881">
        <ele>1189.263353</ele>
        <time>2026-08-23T10:22:37.183Z</time>
      </trkpt>
      <trkpt lat="44.97746" lon="4.23868">
        <ele>1189.027812</ele>
        <time>2026-08-23T10:22:39.171Z</time>
      </trkpt>
      <trkpt lat="44.97738" lon="4.23854">
        <ele>1188.802336</ele>
        <time>2026-08-23T10:22:41.182Z</time>
      </trkpt>
      <trkpt lat="44.97733" lon="4.23839">
        <ele>1188.593243</ele>
        <time>2026-08-23T10:22:43.178Z</time>
      </trkpt>
      <trkpt lat="44.97728" lon="4.23827">
        <ele>1188.41555</ele>
        <time>2026-08-23T10:22:45.175Z</time>
      </trkpt>
      <trkpt lat="44.97723" lon="4.23814">
        <ele>1188.239495</ele>
        <time>2026-08-23T10:22:47.184Z</time>
      </trkpt>
      <trkpt lat="44.97719" lon="4.23801">
        <ele>1188.057078</ele>
        <time>2026-08-23T10:22:49.191Z</time>
      </trkpt>
      <trkpt lat="44.97715" lon="4.23789">
        <ele>1187.88975</ele>
        <time>2026-08-23T10:22:51.180Z</time>
      </trkpt>
      <trkpt lat="44.97716" lon="4.23772">
        <ele>1187.67484</ele>
        <time>2026-08-23T10:22:54.171Z</time>
      </trkpt>
      <trkpt lat="44.97719" lon="4.23759">
        <ele>1187.499688</ele>
        <time>2026-08-23T10:22:56.184Z</time>
      </trkpt>
      <trkpt lat="44.97721" lon="4.23745">
        <ele>1187.325385</ele>
        <time>2026-08-23T10:22:58.157Z</time>
      </trkpt>
      <trkpt lat="44.97723" lon="4.23729">
        <ele>1187.11981</ele>
        <time>2026-08-23T10:23:00.175Z</time>
      </trkpt>
      <trkpt lat="44.97727" lon="4.23715">
        <ele>1186.929119</ele>
        <time>2026-08-23T10:23:02.180Z</time>
      </trkpt>
      <trkpt lat="44.97731" lon="4.23702">
        <ele>1187.10208</ele>
        <time>2026-08-23T10:23:04.180Z</time>
      </trkpt>
      <trkpt lat="44.97734" lon="4.2369">
        <ele>1187.382383</ele>
        <time>2026-08-23T10:23:06.175Z</time>
      </trkpt>
      <trkpt lat="44.97738" lon="4.23679">
        <ele>1187.661034</ele>
        <time>2026-08-23T10:23:08.173Z</time>
      </trkpt>
      <trkpt lat="44.97743" lon="4.23663">
        <ele>1188.042874</ele>
        <time>2026-08-23T10:23:11.178Z</time>
      </trkpt>
      <trkpt lat="44.97749" lon="4.23647">
        <ele>1188.431329</ele>
        <time>2026-08-23T10:23:14.178Z</time>
      </trkpt>
      <trkpt lat="44.97758" lon="4.23634">
        <ele>1188.827694</ele>
        <time>2026-08-23T10:23:17.178Z</time>
      </trkpt>
      <trkpt lat="44.97768" lon="4.23625">
        <ele>1189.179828</ele>
        <time>2026-08-23T10:23:20.171Z</time>
      </trkpt>
      <trkpt lat="44.9778" lon="4.23623">
        <ele>1189.542878</ele>
        <time>2026-08-23T10:23:23.179Z</time>
      </trkpt>
      <trkpt lat="44.97789" lon="4.23621">
        <ele>1189.82485</ele>
        <time>2026-08-23T10:23:26.177Z</time>
      </trkpt>
      <trkpt lat="44.978" lon="4.23618">
        <ele>1190.183717</ele>
        <time>2026-08-23T10:23:29.186Z</time>
      </trkpt>
      <trkpt lat="44.97812" lon="4.23617">
        <ele>1190.549137</ele>
        <time>2026-08-23T10:23:32.175Z</time>
      </trkpt>
      <trkpt lat="44.97824" lon="4.23616">
        <ele>1190.895691</ele>
        <time>2026-08-23T10:23:35.180Z</time>
      </trkpt>
      <trkpt lat="44.97836" lon="4.23615">
        <ele>1191.264171</ele>
        <time>2026-08-23T10:23:38.175Z</time>
      </trkpt>
      <trkpt lat="44.97847" lon="4.23615">
        <ele>1191.625986</ele>
        <time>2026-08-23T10:23:41.174Z</time>
      </trkpt>
      <trkpt lat="44.97859" lon="4.23616">
        <ele>1191.979998</ele>
        <time>2026-08-23T10:23:44.180Z</time>
      </trkpt>
      <trkpt lat="44.97871" lon="4.23618">
        <ele>1192.364367</ele>
        <time>2026-08-23T10:23:47.173Z</time>
      </trkpt>
      <trkpt lat="44.97881" lon="4.23616">
        <ele>1192.637146</ele>
        <time>2026-08-23T10:23:50.175Z</time>
      </trkpt>
      <trkpt lat="44.97891" lon="4.23615">
        <ele>1192.944155</ele>
        <time>2026-08-23T10:23:53.171Z</time>
      </trkpt>
      <trkpt lat="44.97901" lon="4.23612">
        <ele>1193.249614</ele>
        <time>2026-08-23T10:23:56.174Z</time>
      </trkpt>
      <trkpt lat="44.97912" lon="4.2361">
        <ele>1193.557221</ele>
        <time>2026-08-23T10:23:59.171Z</time>
      </trkpt>
      <trkpt lat="44.97921" lon="4.23604">
        <ele>1193.854271</ele>
        <time>2026-08-23T10:24:02.172Z</time>
      </trkpt>
      <trkpt lat="44.97931" lon="4.236">
        <ele>1194.160679</ele>
        <time>2026-08-23T10:24:05.183Z</time>
      </trkpt>
      <trkpt lat="44.97942" lon="4.23596">
        <ele>1194.47164</ele>
        <time>2026-08-23T10:24:08.173Z</time>
      </trkpt>
      <trkpt lat="44.9795" lon="4.23589">
        <ele>1194.759542</ele>
        <time>2026-08-23T10:24:11.184Z</time>
      </trkpt>
      <trkpt lat="44.97957" lon="4.23579">
        <ele>1195.03421</ele>
        <time>2026-08-23T10:24:14.172Z</time>
      </trkpt>
      <trkpt lat="44.97964" lon="4.2357">
        <ele>1195.325109</ele>
        <time>2026-08-23T10:24:17.176Z</time>
      </trkpt>
      <trkpt lat="44.97973" lon="4.23559">
        <ele>1195.656979</ele>
        <time>2026-08-23T10:24:20.149Z</time>
      </trkpt>
      <trkpt lat="44.97978" lon="4.23547">
        <ele>1195.958572</ele>
        <time>2026-08-23T10:24:23.160Z</time>
      </trkpt>
      <trkpt lat="44.97981" lon="4.23532">
        <ele>1196.273648</ele>
        <time>2026-08-23T10:24:26.179Z</time>
      </trkpt>
      <trkpt lat="44.97984" lon="4.23517">
        <ele>1196.595525</ele>
        <time>2026-08-23T10:24:29.176Z</time>
      </trkpt>
      <trkpt lat="44.97987" lon="4.23502">
        <ele>1196.91626</ele>
        <time>2026-08-23T10:24:32.177Z</time>
      </trkpt>
      <trkpt lat="44.97989" lon="4.23487">
        <ele>1197.226002</ele>
        <time>2026-08-23T10:24:35.173Z</time>
      </trkpt>
      <trkpt lat="44.9799" lon="4.23471">
        <ele>1197.558126</ele>
        <time>2026-08-23T10:24:38.172Z</time>
      </trkpt>
      <trkpt lat="44.97991" lon="4.23457">
        <ele>1197.670977</ele>
        <time>2026-08-23T10:24:41.184Z</time>
      </trkpt>
      <trkpt lat="44.97992" lon="4.23443">
        <ele>1197.711335</ele>
        <time>2026-08-23T10:24:44.176Z</time>
      </trkpt>
      <trkpt lat="44.97993" lon="4.23427">
        <ele>1197.756155</ele>
        <time>2026-08-23T10:24:47.179Z</time>
      </trkpt>
      <trkpt lat="44.97995" lon="4.23412">
        <ele>1197.798603</ele>
        <time>2026-08-23T10:24:50.178Z</time>
      </trkpt>
      <trkpt lat="44.97996" lon="4.23396">
        <ele>1197.841873</ele>
        <time>2026-08-23T10:24:53.172Z</time>
      </trkpt>
      <trkpt lat="44.97998" lon="4.23381">
        <ele>1197.885479</ele>
        <time>2026-08-23T10:24:56.182Z</time>
      </trkpt>
      <trkpt lat="44.97998" lon="4.23365">
        <ele>1197.929239</ele>
        <time>2026-08-23T10:24:59.174Z</time>
      </trkpt>
      <trkpt lat="44.98" lon="4.23347">
        <ele>1197.980455</ele>
        <time>2026-08-23T10:25:02.177Z</time>
      </trkpt>
      <trkpt lat="44.97999" lon="4.23332">
        <ele>1198.021443</ele>
        <time>2026-08-23T10:25:05.174Z</time>
      </trkpt>
      <trkpt lat="44.97999" lon="4.23315">
        <ele>1198.06819</ele>
        <time>2026-08-23T10:25:08.177Z</time>
      </trkpt>
      <trkpt lat="44.97999" lon="4.233">
        <ele>1198.111881</ele>
        <time>2026-08-23T10:25:11.189Z</time>
      </trkpt>
      <trkpt lat="44.97998" lon="4.23283">
        <ele>1198.158415</ele>
        <time>2026-08-23T10:25:14.177Z</time>
      </trkpt>
      <trkpt lat="44.97998" lon="4.23267">
        <ele>1198.202939</ele>
        <time>2026-08-23T10:25:17.179Z</time>
      </trkpt>
      <trkpt lat="44.97996" lon="4.23252">
        <ele>1198.245002</ele>
        <time>2026-08-23T10:25:20.176Z</time>
      </trkpt>
      <trkpt lat="44.97997" lon="4.23234">
        <ele>1198.294512</ele>
        <time>2026-08-23T10:25:23.176Z</time>
      </trkpt>
      <trkpt lat="44.97994" lon="4.23219">
        <ele>1198.336734</ele>
        <time>2026-08-23T10:25:26.179Z</time>
      </trkpt>
      <trkpt lat="44.97994" lon="4.23204">
        <ele>1198.74227</ele>
        <time>2026-08-23T10:25:29.173Z</time>
      </trkpt>
      <trkpt lat="44.97994" lon="4.23187">
        <ele>1199.387535</ele>
        <time>2026-08-23T10:25:32.183Z</time>
      </trkpt>
      <trkpt lat="44.97993" lon="4.23174">
        <ele>1199.887821</ele>
        <time>2026-08-23T10:25:35.174Z</time>
      </trkpt>
      <trkpt lat="44.97993" lon="4.23158">
        <ele>1200.502292</ele>
        <time>2026-08-23T10:25:38.180Z</time>
      </trkpt>
      <trkpt lat="44.97992" lon="4.23143">
        <ele>1201.094657</ele>
        <time>2026-08-23T10:25:41.177Z</time>
      </trkpt>
      <trkpt lat="44.97992" lon="4.23126">
        <ele>1201.720574</ele>
        <time>2026-08-23T10:25:44.176Z</time>
      </trkpt>
      <trkpt lat="44.97992" lon="4.23113">
        <ele>1202.247293</ele>
        <time>2026-08-23T10:25:47.168Z</time>
      </trkpt>
      <trkpt lat="44.97988" lon="4.231">
        <ele>1202.749677</ele>
        <time>2026-08-23T10:25:50.179Z</time>
      </trkpt>
      <trkpt lat="44.97985" lon="4.23086">
        <ele>1203.338687</ele>
        <time>2026-08-23T10:25:53.175Z</time>
      </trkpt>
      <trkpt lat="44.97981" lon="4.23072">
        <ele>1203.902616</ele>
        <time>2026-08-23T10:25:56.177Z</time>
      </trkpt>
      <trkpt lat="44.97974" lon="4.23061">
        <ele>1204.451663</ele>
        <time>2026-08-23T10:25:59.175Z</time>
      </trkpt>
      <trkpt lat="44.97967" lon="4.2305">
        <ele>1205.0365</ele>
        <time>2026-08-23T10:26:02.180Z</time>
      </trkpt>
      <trkpt lat="44.97959" lon="4.23037">
        <ele>1205.694041</ele>
        <time>2026-08-23T10:26:05.176Z</time>
      </trkpt>
      <trkpt lat="44.97952" lon="4.23025">
        <ele>1206.28368</ele>
        <time>2026-08-23T10:26:08.177Z</time>
      </trkpt>
      <trkpt lat="44.97944" lon="4.23014">
        <ele>1206.869449</ele>
        <time>2026-08-23T10:26:11.176Z</time>
      </trkpt>
      <trkpt lat="44.97937" lon="4.23004">
        <ele>1207.398784</ele>
        <time>2026-08-23T10:26:14.154Z</time>
      </trkpt>
      <trkpt lat="44.9793" lon="4.22993">
        <ele>1207.976313</ele>
        <time>2026-08-23T10:26:17.184Z</time>
      </trkpt>
      <trkpt lat="44.97923" lon="4.22984">
        <ele>1208.413204</ele>
        <time>2026-08-23T10:26:20.170Z</time>
      </trkpt>
      <trkpt lat="44.97916" lon="4.22975">
        <ele>1208.845497</ele>
        <time>2026-08-23T10:26:23.175Z</time>
      </trkpt>
      <trkpt lat="44.9791" lon="4.22961">
        <ele>1209.352517</ele>
        <time>2026-08-23T10:26:26.174Z</time>
      </trkpt>
      <trkpt lat="44.97905" lon="4.22944">
        <ele>1209.922548</ele>
        <time>2026-08-23T10:26:29.180Z</time>
      </trkpt>
      <trkpt lat="44.97904" lon="4.22928">
        <ele>1210.435506</ele>
        <time>2026-08-23T10:26:32.173Z</time>
      </trkpt>
      <trkpt lat="44.97905" lon="4.22912">
        <ele>1210.928915</ele>
        <time>2026-08-23T10:26:35.184Z</time>
      </trkpt>
      <trkpt lat="44.97909" lon="4.22894">
        <ele>1211.522189</ele>
        <time>2026-08-23T10:26:38.176Z</time>
      </trkpt>
      <trkpt lat="44.97912" lon="4.2288">
        <ele>1211.991397</ele>
        <time>2026-08-23T10:26:41.176Z</time>
      </trkpt>
      <trkpt lat="44.97916" lon="4.22865">
        <ele>1212.499025</ele>
        <time>2026-08-23T10:26:44.176Z</time>
      </trkpt>
      <trkpt lat="44.97922" lon="4.22853">
        <ele>1212.952928</ele>
        <time>2026-08-23T10:26:47.176Z</time>
      </trkpt>
      <trkpt lat="44.97928" lon="4.2284">
        <ele>1213.425675</ele>
        <time>2026-08-23T10:26:50.178Z</time>
      </trkpt>
      <trkpt lat="44.97935" lon="4.22828">
        <ele>1213.910116</ele>
        <time>2026-08-23T10:26:53.176Z</time>
      </trkpt>
      <trkpt lat="44.97943" lon="4.22817">
        <ele>1214.420032</ele>
        <time>2026-08-23T10:26:56.174Z</time>
      </trkpt>
      <trkpt lat="44.97953" lon="4.22807">
        <ele>1214.96415</ele>
        <time>2026-08-23T10:26:59.180Z</time>
      </trkpt>
      <trkpt lat="44.97963" lon="4.22798">
        <ele>1215.496194</ele>
        <time>2026-08-23T10:27:02.172Z</time>
      </trkpt>
      <trkpt lat="44.97972" lon="4.22789">
        <ele>1215.95155</ele>
        <time>2026-08-23T10:27:05.174Z</time>
      </trkpt>
      <trkpt lat="44.9798" lon="4.22782">
        <ele>1216.346062</ele>
        <time>2026-08-23T10:27:08.174Z</time>
      </trkpt>
      <trkpt lat="44.97989" lon="4.22776">
        <ele>1216.742944</ele>
        <time>2026-08-23T10:27:11.172Z</time>
      </trkpt>
      <trkpt lat="44.97999" lon="4.2277">
        <ele>1217.142367</ele>
        <time>2026-08-23T10:27:14.178Z</time>
      </trkpt>
      <trkpt lat="44.98008" lon="4.22764">
        <ele>1217.532306</ele>
        <time>2026-08-23T10:27:17.172Z</time>
      </trkpt>
      <trkpt lat="44.98018" lon="4.2276">
        <ele>1217.933449</ele>
        <time>2026-08-23T10:27:20.173Z</time>
      </trkpt>
      <trkpt lat="44.98028" lon="4.22755">
        <ele>1218.339357</ele>
        <time>2026-08-23T10:27:23.176Z</time>
      </trkpt>
      <trkpt lat="44.98039" lon="4.2275">
        <ele>1218.788815</ele>
        <time>2026-08-23T10:27:26.181Z</time>
      </trkpt>
      <trkpt lat="44.9805" lon="4.22743">
        <ele>1219.232358</ele>
        <time>2026-08-23T10:27:29.171Z</time>
      </trkpt>
      <trkpt lat="44.98061" lon="4.22739">
        <ele>1219.681991</ele>
        <time>2026-08-23T10:27:32.178Z</time>
      </trkpt>
      <trkpt lat="44.98072" lon="4.22732">
        <ele>1220.164201</ele>
        <time>2026-08-23T10:27:35.174Z</time>
      </trkpt>
      <trkpt lat="44.98084" lon="4.22732">
        <ele>1220.627397</ele>
        <time>2026-08-23T10:27:38.179Z</time>
      </trkpt>
      <trkpt lat="44.98095" lon="4.22732">
        <ele>1221.048267</ele>
        <time>2026-08-23T10:27:41.175Z</time>
      </trkpt>
      <trkpt lat="44.98106" lon="4.22733">
        <ele>1221.477141</ele>
        <time>2026-08-23T10:27:44.174Z</time>
      </trkpt>
      <trkpt lat="44.98118" lon="4.22736">
        <ele>1221.921095</ele>
        <time>2026-08-23T10:27:47.176Z</time>
      </trkpt>
      <trkpt lat="44.98128" lon="4.22741">
        <ele>1222.356944</ele>
        <time>2026-08-23T10:27:50.172Z</time>
      </trkpt>
      <trkpt lat="44.9814" lon="4.2275">
        <ele>1222.866378</ele>
        <time>2026-08-23T10:27:53.177Z</time>
      </trkpt>
      <trkpt lat="44.98151" lon="4.22757">
        <ele>1223.470479</ele>
        <time>2026-08-23T10:27:56.174Z</time>
      </trkpt>
      <trkpt lat="44.98161" lon="4.22766">
        <ele>1224.039439</ele>
        <time>2026-08-23T10:27:59.178Z</time>
      </trkpt>
      <trkpt lat="44.9817" lon="4.22776">
        <ele>1224.644566</ele>
        <time>2026-08-23T10:28:02.173Z</time>
      </trkpt>
      <trkpt lat="44.98181" lon="4.22785">
        <ele>1225.263114</ele>
        <time>2026-08-23T10:28:05.170Z</time>
      </trkpt>
      <trkpt lat="44.98188" lon="4.22795">
        <ele>1225.77874</ele>
        <time>2026-08-23T10:28:07.181Z</time>
      </trkpt>
      <trkpt lat="44.98198" lon="4.22803">
        <ele>1226.366969</ele>
        <time>2026-08-23T10:28:10.170Z</time>
      </trkpt>
      <trkpt lat="44.98209" lon="4.22811">
        <ele>1227.011283</ele>
        <time>2026-08-23T10:28:13.176Z</time>
      </trkpt>
      <trkpt lat="44.9822" lon="4.22815">
        <ele>1227.585697</ele>
        <time>2026-08-23T10:28:16.178Z</time>
      </trkpt>
      <trkpt lat="44.98231" lon="4.22813">
        <ele>1228.147017</ele>
        <time>2026-08-23T10:28:20.182Z</time>
      </trkpt>
      <trkpt lat="44.98241" lon="4.22812">
        <ele>1228.650763</ele>
        <time>2026-08-23T10:28:23.172Z</time>
      </trkpt>
      <trkpt lat="44.98253" lon="4.22812">
        <ele>1229.234663</ele>
        <time>2026-08-23T10:28:26.183Z</time>
      </trkpt>
      <trkpt lat="44.98264" lon="4.22813">
        <ele>1229.799376</ele>
        <time>2026-08-23T10:28:29.172Z</time>
      </trkpt>
      <trkpt lat="44.98275" lon="4.22809">
        <ele>1230.380468</ele>
        <time>2026-08-23T10:28:33.172Z</time>
      </trkpt>
      <trkpt lat="44.98287" lon="4.22807">
        <ele>1231.008943</ele>
        <time>2026-08-23T10:28:36.188Z</time>
      </trkpt>
      <trkpt lat="44.983" lon="4.22806">
        <ele>1231.630147</ele>
        <time>2026-08-23T10:28:39.188Z</time>
      </trkpt>
      <trkpt lat="44.98311" lon="4.22806">
        <ele>1232.295896</ele>
        <time>2026-08-23T10:28:42.176Z</time>
      </trkpt>
      <trkpt lat="44.98322" lon="4.22804">
        <ele>1233.108215</ele>
        <time>2026-08-23T10:28:45.178Z</time>
      </trkpt>
      <trkpt lat="44.98332" lon="4.22805">
        <ele>1233.799436</ele>
        <time>2026-08-23T10:28:48.179Z</time>
      </trkpt>
      <trkpt lat="44.98343" lon="4.22797">
        <ele>1234.683337</ele>
        <time>2026-08-23T10:28:52.174Z</time>
      </trkpt>
      <trkpt lat="44.98353" lon="4.22793">
        <ele>1235.459114</ele>
        <time>2026-08-23T10:28:55.175Z</time>
      </trkpt>
      <trkpt lat="44.98364" lon="4.22789">
        <ele>1236.299536</ele>
        <time>2026-08-23T10:28:58.172Z</time>
      </trkpt>
      <trkpt lat="44.98373" lon="4.22788">
        <ele>1236.966545</ele>
        <time>2026-08-23T10:29:00.175Z</time>
      </trkpt>
      <trkpt lat="44.98385" lon="4.22787">
        <ele>1237.856921</ele>
        <time>2026-08-23T10:29:03.169Z</time>
      </trkpt>
      <trkpt lat="44.98398" lon="4.22786">
        <ele>1238.805245</ele>
        <time>2026-08-23T10:29:06.153Z</time>
      </trkpt>
      <trkpt lat="44.98409" lon="4.22783">
        <ele>1239.662463</ele>
        <time>2026-08-23T10:29:09.172Z</time>
      </trkpt>
      <trkpt lat="44.9842" lon="4.22777">
        <ele>1240.497413</ele>
        <time>2026-08-23T10:29:12.173Z</time>
      </trkpt>
      <trkpt lat="44.9843" lon="4.22773">
        <ele>1241.268319</ele>
        <time>2026-08-23T10:29:15.181Z</time>
      </trkpt>
      <trkpt lat="44.98441" lon="4.22767">
        <ele>1242.125415</ele>
        <time>2026-08-23T10:29:18.175Z</time>
      </trkpt>
      <trkpt lat="44.98452" lon="4.22759">
        <ele>1243.025201</ele>
        <time>2026-08-23T10:29:21.175Z</time>
      </trkpt>
      <trkpt lat="44.98463" lon="4.22754">
        <ele>1243.890958</ele>
        <time>2026-08-23T10:29:24.175Z</time>
      </trkpt>
      <trkpt lat="44.98475" lon="4.22748">
        <ele>1244.805224</ele>
        <time>2026-08-23T10:29:28.172Z</time>
      </trkpt>
      <trkpt lat="44.98484" lon="4.22745">
        <ele>1245.241585</ele>
        <time>2026-08-23T10:29:30.173Z</time>
      </trkpt>
      <trkpt lat="44.98492" lon="4.2274">
        <ele>1245.075686</ele>
        <time>2026-08-23T10:29:32.181Z</time>
      </trkpt>
      <trkpt lat="44.98504" lon="4.22733">
        <ele>1244.849397</ele>
        <time>2026-08-23T10:29:35.181Z</time>
      </trkpt>
      <trkpt lat="44.98516" lon="4.22726">
        <ele>1244.615473</ele>
        <time>2026-08-23T10:29:38.177Z</time>
      </trkpt>
      <trkpt lat="44.98525" lon="4.2272">
        <ele>1244.432183</ele>
        <time>2026-08-23T10:29:41.173Z</time>
      </trkpt>
      <trkpt lat="44.98534" lon="4.22714">
        <ele>1244.248147</ele>
        <time>2026-08-23T10:29:44.175Z</time>
      </trkpt>
      <trkpt lat="44.98544" lon="4.22707">
        <ele>1244.052475</ele>
        <time>2026-08-23T10:29:47.178Z</time>
      </trkpt>
      <trkpt lat="44.98555" lon="4.227">
        <ele>1243.83948</ele>
        <time>2026-08-23T10:29:50.175Z</time>
      </trkpt>
      <trkpt lat="44.98563" lon="4.22693">
        <ele>1243.665697</ele>
        <time>2026-08-23T10:29:52.173Z</time>
      </trkpt>
      <trkpt lat="44.98568" lon="4.22677">
        <ele>1243.444334</ele>
        <time>2026-08-23T10:29:55.173Z</time>
      </trkpt>
      <trkpt lat="44.98577" lon="4.22664">
        <ele>1243.219626</ele>
        <time>2026-08-23T10:29:58.177Z</time>
      </trkpt>
      <trkpt lat="44.98586" lon="4.22654">
        <ele>1243.002756</ele>
        <time>2026-08-23T10:30:01.179Z</time>
      </trkpt>
      <trkpt lat="44.98594" lon="4.22645">
        <ele>1242.827938</ele>
        <time>2026-08-23T10:30:04.172Z</time>
      </trkpt>
      <trkpt lat="44.98602" lon="4.22636">
        <ele>1242.632223</ele>
        <time>2026-08-23T10:30:08.173Z</time>
      </trkpt>
      <trkpt lat="44.98606" lon="4.22624">
        <ele>1242.46877</ele>
        <time>2026-08-23T10:30:11.171Z</time>
      </trkpt>
      <trkpt lat="44.98613" lon="4.22612">
        <ele>1242.268207</ele>
        <time>2026-08-23T10:30:16.174Z</time>
      </trkpt>
      <trkpt lat="44.98623" lon="4.2261">
        <ele>1242.076108</ele>
        <time>2026-08-23T10:30:19.173Z</time>
      </trkpt>
      <trkpt lat="44.98627" lon="4.22598">
        <ele>1241.882217</ele>
        <time>2026-08-23T10:30:25.178Z</time>
      </trkpt>
      <trkpt lat="44.98619" lon="4.22592">
        <ele>1241.675405</ele>
        <time>2026-08-23T10:30:32.173Z</time>
      </trkpt>
      <trkpt lat="44.98611" lon="4.22584">
        <ele>1241.47744</ele>
        <time>2026-08-23T10:30:36.171Z</time>
      </trkpt>
      <trkpt lat="44.98602" lon="4.22579">
        <ele>1241.273537</ele>
        <time>2026-08-23T10:30:41.170Z</time>
      </trkpt>
      <trkpt lat="44.98593" lon="4.22582">
        <ele>1241.074446</ele>
        <time>2026-08-23T10:30:46.170Z</time>
      </trkpt>
      <trkpt lat="44.98582" lon="4.22584">
        <ele>1240.844875</ele>
        <time>2026-08-23T10:30:52.174Z</time>
      </trkpt>
      <trkpt lat="44.98573" lon="4.22586">
        <ele>1240.64787</ele>
        <time>2026-08-23T10:30:56.155Z</time>
      </trkpt>
      <trkpt lat="44.98565" lon="4.22595">
        <ele>1240.418777</ele>
        <time>2026-08-23T10:31:02.166Z</time>
      </trkpt>
      <trkpt lat="44.9856" lon="4.22608">
        <ele>1240.208939</ele>
        <time>2026-08-23T10:31:06.181Z</time>
      </trkpt>
      <trkpt lat="44.9855" lon="4.22614">
        <ele>1239.975689</ele>
        <time>2026-08-23T10:31:10.172Z</time>
      </trkpt>
      <trkpt lat="44.98541" lon="4.22619">
        <ele>1239.77414</ele>
        <time>2026-08-23T10:31:14.176Z</time>
      </trkpt>
      <trkpt lat="44.98528" lon="4.22622">
        <ele>1239.502041</ele>
        <time>2026-08-23T10:31:17.181Z</time>
      </trkpt>
      <trkpt lat="44.98519" lon="4.22624">
        <ele>1239.295365</ele>
        <time>2026-08-23T10:31:20.170Z</time>
      </trkpt>
      <trkpt lat="44.98509" lon="4.22624">
        <ele>1239.08922</ele>
        <time>2026-08-23T10:31:25.176Z</time>
      </trkpt>
      <trkpt lat="44.98502" lon="4.22617">
        <ele>1238.895716</ele>
        <time>2026-08-23T10:32:34.163Z</time>
      </trkpt>
      <trkpt lat="44.98506" lon="4.22634">
        <ele>1238.611537</ele>
        <time>2026-08-23T10:35:37.177Z</time>
      </trkpt>
      <trkpt lat="44.98506" lon="4.22647">
        <ele>1238.414448</ele>
        <time>2026-08-23T10:35:47.175Z</time>
      </trkpt>
      <trkpt lat="44.98505" lon="4.2266">
        <ele>1238.224795</ele>
        <time>2026-08-23T10:35:54.156Z</time>
      </trkpt>
      <trkpt lat="44.98497" lon="4.22672">
        <ele>1238.07547</ele>
        <time>2026-08-23T10:36:20.176Z</time>
      </trkpt>
      <trkpt lat="44.98484" lon="4.22675">
        <ele>1237.898361</ele>
        <time>2026-08-23T10:43:10.187Z</time>
      </trkpt>
      <trkpt lat="44.98511" lon="4.22656">
        <ele>1237.505289</ele>
        <time>2026-08-23T11:10:34.188Z</time>
      </trkpt>
      <trkpt lat="44.98517" lon="4.22646">
        <ele>1237.384166</ele>
        <time>2026-08-23T11:10:43.176Z</time>
      </trkpt>
      <trkpt lat="44.98513" lon="4.22662">
        <ele>1237.227205</ele>
        <time>2026-08-23T11:11:20.176Z</time>
      </trkpt>
      <trkpt lat="44.98497" lon="4.22677">
        <ele>1236.979501</ele>
        <time>2026-08-23T11:11:41.178Z</time>
      </trkpt>
      <trkpt lat="44.98504" lon="4.22653">
        <ele>1236.739897</ele>
        <time>2026-08-23T11:19:52.152Z</time>
      </trkpt>
      <trkpt lat="44.9851" lon="4.22644">
        <ele>1236.620125</ele>
        <time>2026-08-23T11:19:56.183Z</time>
      </trkpt>
      <trkpt lat="44.98521" lon="4.2264">
        <ele>1236.475048</ele>
        <time>2026-08-23T11:20:01.172Z</time>
      </trkpt>
      <trkpt lat="44.98531" lon="4.22636">
        <ele>1236.342931</ele>
        <time>2026-08-23T11:20:05.182Z</time>
      </trkpt>
      <trkpt lat="44.98538" lon="4.22629">
        <ele>1236.222129</ele>
        <time>2026-08-23T11:20:09.182Z</time>
      </trkpt>
      <trkpt lat="44.98543" lon="4.22617">
        <ele>1236.095522</ele>
        <time>2026-08-23T11:20:15.176Z</time>
      </trkpt>
      <trkpt lat="44.98554" lon="4.22611">
        <ele>1235.937117</ele>
        <time>2026-08-23T11:20:19.164Z</time>
      </trkpt>
      <trkpt lat="44.98562" lon="4.22605">
        <ele>1235.798579</ele>
        <time>2026-08-23T11:20:22.180Z</time>
      </trkpt>
      <trkpt lat="44.98572" lon="4.22602">
        <ele>1235.616025</ele>
        <time>2026-08-23T11:20:25.165Z</time>
      </trkpt>
      <trkpt lat="44.98581" lon="4.22602">
        <ele>1235.437133</ele>
        <time>2026-08-23T11:20:29.179Z</time>
      </trkpt>
      <trkpt lat="44.98591" lon="4.22603">
        <ele>1235.240274</ele>
        <time>2026-08-23T11:20:33.173Z</time>
      </trkpt>
      <trkpt lat="44.986" lon="4.22605">
        <ele>1235.059136</ele>
        <time>2026-08-23T11:20:37.172Z</time>
      </trkpt>
      <trkpt lat="44.98609" lon="4.22606">
        <ele>1234.885603</ele>
        <time>2026-08-23T11:20:43.170Z</time>
      </trkpt>
      <trkpt lat="44.98618" lon="4.22601">
        <ele>1234.701996</ele>
        <time>2026-08-23T11:20:49.170Z</time>
      </trkpt>
      <trkpt lat="44.98625" lon="4.22588">
        <ele>1234.475416</ele>
        <time>2026-08-23T11:20:53.176Z</time>
      </trkpt>
      <trkpt lat="44.98629" lon="4.22573">
        <ele>1234.259019</ele>
        <time>2026-08-23T11:20:57.173Z</time>
      </trkpt>
      <trkpt lat="44.98631" lon="4.22559">
        <ele>1234.071777</ele>
        <time>2026-08-23T11:21:00.168Z</time>
      </trkpt>
      <trkpt lat="44.9863" lon="4.22544">
        <ele>1233.868504</ele>
        <time>2026-08-23T11:21:03.173Z</time>
      </trkpt>
      <trkpt lat="44.98621" lon="4.22534">
        <ele>1233.645829</ele>
        <time>2026-08-23T11:21:06.175Z</time>
      </trkpt>
      <trkpt lat="44.98611" lon="4.22525">
        <ele>1233.417808</ele>
        <time>2026-08-23T11:21:09.171Z</time>
      </trkpt>
      <trkpt lat="44.98602" lon="4.2252">
        <ele>1233.235398</ele>
        <time>2026-08-23T11:21:11.170Z</time>
      </trkpt>
      <trkpt lat="44.98591" lon="4.22514">
        <ele>1232.997695</ele>
        <time>2026-08-23T11:21:14.169Z</time>
      </trkpt>
      <trkpt lat="44.9858" lon="4.22513">
        <ele>1232.781556</ele>
        <time>2026-08-23T11:21:16.172Z</time>
      </trkpt>
      <trkpt lat="44.9857" lon="4.22512">
        <ele>1232.589178</ele>
        <time>2026-08-23T11:21:18.173Z</time>
      </trkpt>
      <trkpt lat="44.98558" lon="4.22515">
        <ele>1232.353448</ele>
        <time>2026-08-23T11:21:20.172Z</time>
      </trkpt>
      <trkpt lat="44.98546" lon="4.22522">
        <ele>1232.000337</ele>
        <time>2026-08-23T11:21:22.173Z</time>
      </trkpt>
      <trkpt lat="44.98535" lon="4.22531">
        <ele>1231.666852</ele>
        <time>2026-08-23T11:21:24.178Z</time>
      </trkpt>
      <trkpt lat="44.98527" lon="4.22538">
        <ele>1231.398531</ele>
        <time>2026-08-23T11:21:26.173Z</time>
      </trkpt>
      <trkpt lat="44.98518" lon="4.22543">
        <ele>1231.138716</ele>
        <time>2026-08-23T11:21:28.172Z</time>
      </trkpt>
      <trkpt lat="44.98508" lon="4.22545">
        <ele>1230.857672</ele>
        <time>2026-08-23T11:21:30.172Z</time>
      </trkpt>
      <trkpt lat="44.98494" lon="4.22538">
        <ele>1230.457664</ele>
        <time>2026-08-23T11:21:32.173Z</time>
      </trkpt>
      <trkpt lat="44.98482" lon="4.2253">
        <ele>1230.095548</ele>
        <time>2026-08-23T11:21:34.170Z</time>
      </trkpt>
      <trkpt lat="44.9847" lon="4.2252">
        <ele>1229.737891</ele>
        <time>2026-08-23T11:21:36.182Z</time>
      </trkpt>
      <trkpt lat="44.98459" lon="4.22509">
        <ele>1229.377658</ele>
        <time>2026-08-23T11:21:38.170Z</time>
      </trkpt>
      <trkpt lat="44.98449" lon="4.225">
        <ele>1229.051544</ele>
        <time>2026-08-23T11:21:40.174Z</time>
      </trkpt>
      <trkpt lat="44.98437" lon="4.22491">
        <ele>1228.687702</ele>
        <time>2026-08-23T11:21:42.173Z</time>
      </trkpt>
      <trkpt lat="44.98426" lon="4.22481">
        <ele>1228.326414</ele>
        <time>2026-08-23T11:21:44.172Z</time>
      </trkpt>
      <trkpt lat="44.98415" lon="4.22472">
        <ele>1227.984511</ele>
        <time>2026-08-23T11:21:46.168Z</time>
      </trkpt>
      <trkpt lat="44.98402" lon="4.22462">
        <ele>1227.590441</ele>
        <time>2026-08-23T11:21:48.171Z</time>
      </trkpt>
      <trkpt lat="44.98394" lon="4.22457">
        <ele>1227.238038</ele>
        <time>2026-08-23T11:21:49.167Z</time>
      </trkpt>
      <trkpt lat="44.98379" lon="4.22449">
        <ele>1226.581958</ele>
        <time>2026-08-23T11:21:51.175Z</time>
      </trkpt>
      <trkpt lat="44.98366" lon="4.22441">
        <ele>1225.984588</ele>
        <time>2026-08-23T11:21:53.176Z</time>
      </trkpt>
      <trkpt lat="44.98354" lon="4.2243">
        <ele>1225.394925</ele>
        <time>2026-08-23T11:21:55.175Z</time>
      </trkpt>
      <trkpt lat="44.98342" lon="4.22419">
        <ele>1224.767877</ele>
        <time>2026-08-23T11:21:57.173Z</time>
      </trkpt>
      <trkpt lat="44.98331" lon="4.22406">
        <ele>1224.175391</ele>
        <time>2026-08-23T11:21:59.173Z</time>
      </trkpt>
      <trkpt lat="44.9832" lon="4.22391">
        <ele>1223.531775</ele>
        <time>2026-08-23T11:22:01.179Z</time>
      </trkpt>
      <trkpt lat="44.98308" lon="4.22375">
        <ele>1222.847633</ele>
        <time>2026-08-23T11:22:03.172Z</time>
      </trkpt>
      <trkpt lat="44.98297" lon="4.22355">
        <ele>1222.116537</ele>
        <time>2026-08-23T11:22:05.188Z</time>
      </trkpt>
      <trkpt lat="44.98291" lon="4.22345">
        <ele>1221.726872</ele>
        <time>2026-08-23T11:22:06.176Z</time>
      </trkpt>
      <trkpt lat="44.98284" lon="4.22336">
        <ele>1221.332139</ele>
        <time>2026-08-23T11:22:07.171Z</time>
      </trkpt>
      <trkpt lat="44.98278" lon="4.22327">
        <ele>1220.956316</ele>
        <time>2026-08-23T11:22:08.172Z</time>
      </trkpt>
      <trkpt lat="44.98271" lon="4.22317">
        <ele>1220.549861</ele>
        <time>2026-08-23T11:22:09.175Z</time>
      </trkpt>
      <trkpt lat="44.98265" lon="4.22307">
        <ele>1220.162907</ele>
        <time>2026-08-23T11:22:10.170Z</time>
      </trkpt>
      <trkpt lat="44.98256" lon="4.22299">
        <ele>1219.295429</ele>
        <time>2026-08-23T11:22:11.177Z</time>
      </trkpt>
      <trkpt lat="44.98245" lon="4.2228">
        <ele>1217.522054</ele>
        <time>2026-08-23T11:22:13.170Z</time>
      </trkpt>
      <trkpt lat="44.98233" lon="4.22262">
        <ele>1215.770132</ele>
        <time>2026-08-23T11:22:15.179Z</time>
      </trkpt>
      <trkpt lat="44.98227" lon="4.22252">
        <ele>1214.840197</ele>
        <time>2026-08-23T11:22:16.164Z</time>
      </trkpt>
      <trkpt lat="44.98221" lon="4.22242">
        <ele>1213.910262</ele>
        <time>2026-08-23T11:22:17.178Z</time>
      </trkpt>
      <trkpt lat="44.98217" lon="4.2223">
        <ele>1212.960784</ele>
        <time>2026-08-23T11:22:18.180Z</time>
      </trkpt>
      <trkpt lat="44.98207" lon="4.2221">
        <ele>1211.264402</ele>
        <time>2026-08-23T11:22:20.168Z</time>
      </trkpt>
      <trkpt lat="44.98203" lon="4.22199">
        <ele>1210.353045</ele>
        <time>2026-08-23T11:22:21.169Z</time>
      </trkpt>
      <trkpt lat="44.98196" lon="4.22177">
        <ele>1208.650428</ele>
        <time>2026-08-23T11:22:23.176Z</time>
      </trkpt>
      <trkpt lat="44.98185" lon="4.22163">
        <ele>1207.156987</ele>
        <time>2026-08-23T11:22:25.169Z</time>
      </trkpt>
      <trkpt lat="44.98171" lon="4.22148">
        <ele>1205.379786</ele>
        <time>2026-08-23T11:22:27.146Z</time>
      </trkpt>
      <trkpt lat="44.98154" lon="4.22137">
        <ele>1203.571776</ele>
        <time>2026-08-23T11:22:29.167Z</time>
      </trkpt>
      <trkpt lat="44.98141" lon="4.22121">
        <ele>1201.852358</ele>
        <time>2026-08-23T11:22:31.173Z</time>
      </trkpt>
      <trkpt lat="44.98133" lon="4.22115">
        <ele>1201.164053</ele>
        <time>2026-08-23T11:22:32.155Z</time>
      </trkpt>
      <trkpt lat="44.98118" lon="4.22101">
        <ele>1199.84064</ele>
        <time>2026-08-23T11:22:34.170Z</time>
      </trkpt>
      <trkpt lat="44.98104" lon="4.22089">
        <ele>1198.555913</ele>
        <time>2026-08-23T11:22:36.173Z</time>
      </trkpt>
      <trkpt lat="44.9809" lon="4.22076">
        <ele>1197.257136</ele>
        <time>2026-08-23T11:22:38.173Z</time>
      </trkpt>
      <trkpt lat="44.98075" lon="4.22062">
        <ele>1195.923631</ele>
        <time>2026-08-23T11:22:40.174Z</time>
      </trkpt>
      <trkpt lat="44.9806" lon="4.22049">
        <ele>1194.602857</ele>
        <time>2026-08-23T11:22:42.175Z</time>
      </trkpt>
      <trkpt lat="44.98047" lon="4.22033">
        <ele>1193.262058</ele>
        <time>2026-08-23T11:22:44.172Z</time>
      </trkpt>
      <trkpt lat="44.98032" lon="4.22023">
        <ele>1192.006719</ele>
        <time>2026-08-23T11:22:46.170Z</time>
      </trkpt>
      <trkpt lat="44.98017" lon="4.22016">
        <ele>1190.824523</ele>
        <time>2026-08-23T11:22:48.173Z</time>
      </trkpt>
      <trkpt lat="44.98" lon="4.22013">
        <ele>1189.519869</ele>
        <time>2026-08-23T11:22:50.174Z</time>
      </trkpt>
      <trkpt lat="44.97984" lon="4.22014">
        <ele>1188.310429</ele>
        <time>2026-08-23T11:22:52.187Z</time>
      </trkpt>
      <trkpt lat="44.97966" lon="4.22017">
        <ele>1187.784254</ele>
        <time>2026-08-23T11:22:54.180Z</time>
      </trkpt>
      <trkpt lat="44.9795" lon="4.22022">
        <ele>1187.272825</ele>
        <time>2026-08-23T11:22:56.172Z</time>
      </trkpt>
      <trkpt lat="44.97933" lon="4.22024">
        <ele>1186.783938</ele>
        <time>2026-08-23T11:22:58.169Z</time>
      </trkpt>
      <trkpt lat="44.97917" lon="4.22025">
        <ele>1186.289455</ele>
        <time>2026-08-23T11:23:00.167Z</time>
      </trkpt>
      <trkpt lat="44.979" lon="4.22021">
        <ele>1185.779807</ele>
        <time>2026-08-23T11:23:02.172Z</time>
      </trkpt>
      <trkpt lat="44.97891" lon="4.22018">
        <ele>1185.496983</ele>
        <time>2026-08-23T11:23:03.175Z</time>
      </trkpt>
      <trkpt lat="44.97882" lon="4.22016">
        <ele>1185.228107</ele>
        <time>2026-08-23T11:23:04.175Z</time>
      </trkpt>
      <trkpt lat="44.97865" lon="4.2201">
        <ele>1184.710892</ele>
        <time>2026-08-23T11:23:06.174Z</time>
      </trkpt>
      <trkpt lat="44.97856" lon="4.22007">
        <ele>1184.436926</ele>
        <time>2026-08-23T11:23:07.177Z</time>
      </trkpt>
      <trkpt lat="44.9784" lon="4.22001">
        <ele>1183.938707</ele>
        <time>2026-08-23T11:23:09.173Z</time>
      </trkpt>
      <trkpt lat="44.97825" lon="4.21993">
        <ele>1183.442209</ele>
        <time>2026-08-23T11:23:11.179Z</time>
      </trkpt>
      <trkpt lat="44.97811" lon="4.21984">
        <ele>1182.983249</ele>
        <time>2026-08-23T11:23:13.191Z</time>
      </trkpt>
      <trkpt lat="44.97799" lon="4.21974">
        <ele>1182.557426</ele>
        <time>2026-08-23T11:23:15.177Z</time>
      </trkpt>
      <trkpt lat="44.97789" lon="4.21961">
        <ele>1182.165249</ele>
        <time>2026-08-23T11:23:17.189Z</time>
      </trkpt>
      <trkpt lat="44.97783" lon="4.21946">
        <ele>1181.7973</ele>
        <time>2026-08-23T11:23:19.188Z</time>
      </trkpt>
      <trkpt lat="44.97778" lon="4.21927">
        <ele>1181.365826</ele>
        <time>2026-08-23T11:23:21.181Z</time>
      </trkpt>
      <trkpt lat="44.97778" lon="4.21906">
        <ele>1180.936451</ele>
        <time>2026-08-23T11:23:23.173Z</time>
      </trkpt>
      <trkpt lat="44.97778" lon="4.21884">
        <ele>1180.46702</ele>
        <time>2026-08-23T11:23:25.177Z</time>
      </trkpt>
      <trkpt lat="44.97781" lon="4.21863">
        <ele>1180.016866</ele>
        <time>2026-08-23T11:23:27.173Z</time>
      </trkpt>
      <trkpt lat="44.97782" lon="4.21842">
        <ele>1179.572311</ele>
        <time>2026-08-23T11:23:29.174Z</time>
      </trkpt>
      <trkpt lat="44.97781" lon="4.21823">
        <ele>1179.164062</ele>
        <time>2026-08-23T11:23:31.173Z</time>
      </trkpt>
      <trkpt lat="44.97781" lon="4.21802">
        <ele>1178.730679</ele>
        <time>2026-08-23T11:23:33.174Z</time>
      </trkpt>
      <trkpt lat="44.97781" lon="4.21785">
        <ele>1178.356334</ele>
        <time>2026-08-23T11:23:35.170Z</time>
      </trkpt>
      <trkpt lat="44.9778" lon="4.2177">
        <ele>1178.038902</ele>
        <time>2026-08-23T11:23:37.177Z</time>
      </trkpt>
      <trkpt lat="44.97779" lon="4.21753">
        <ele>1177.680569</ele>
        <time>2026-08-23T11:23:40.177Z</time>
      </trkpt>
      <trkpt lat="44.9777" lon="4.21742">
        <ele>1178.101536</ele>
        <time>2026-08-23T11:23:43.175Z</time>
      </trkpt>
      <trkpt lat="44.97757" lon="4.21738">
        <ele>1178.943799</ele>
        <time>2026-08-23T11:23:46.169Z</time>
      </trkpt>
      <trkpt lat="44.97749" lon="4.21734">
        <ele>1179.543918</ele>
        <time>2026-08-23T11:23:48.171Z</time>
      </trkpt>
      <trkpt lat="44.97738" lon="4.21729">
        <ele>1180.327555</ele>
        <time>2026-08-23T11:23:51.169Z</time>
      </trkpt>
      <trkpt lat="44.97726" lon="4.21725">
        <ele>1181.106677</ele>
        <time>2026-08-23T11:23:55.174Z</time>
      </trkpt>
      <trkpt lat="44.97715" lon="4.21723">
        <ele>1181.859002</ele>
        <time>2026-08-23T11:23:59.171Z</time>
      </trkpt>
      <trkpt lat="44.97706" lon="4.21713">
        <ele>1182.585163</ele>
        <time>2026-08-23T11:24:02.177Z</time>
      </trkpt>
      <trkpt lat="44.97697" lon="4.21703">
        <ele>1183.391355</ele>
        <time>2026-08-23T11:24:05.190Z</time>
      </trkpt>
      <trkpt lat="44.97688" lon="4.21694">
        <ele>1184.122121</ele>
        <time>2026-08-23T11:24:08.176Z</time>
      </trkpt>
      <trkpt lat="44.9768" lon="4.21686">
        <ele>1184.752</ele>
        <time>2026-08-23T11:24:11.179Z</time>
      </trkpt>
      <trkpt lat="44.97673" lon="4.21678">
        <ele>1185.373588</ele>
        <time>2026-08-23T11:24:14.179Z</time>
      </trkpt>
      <trkpt lat="44.97663" lon="4.21671">
        <ele>1186.113289</ele>
        <time>2026-08-23T11:24:18.177Z</time>
      </trkpt>
      <trkpt lat="44.97654" lon="4.21666">
        <ele>1186.74303</ele>
        <time>2026-08-23T11:24:22.175Z</time>
      </trkpt>
      <trkpt lat="44.97644" lon="4.21662">
        <ele>1187.459668</ele>
        <time>2026-08-23T11:24:27.180Z</time>
      </trkpt>
      <trkpt lat="44.97636" lon="4.21653">
        <ele>1188.130617</ele>
        <time>2026-08-23T11:24:32.175Z</time>
      </trkpt>
      <trkpt lat="44.97627" lon="4.21645">
        <ele>1188.817342</ele>
        <time>2026-08-23T11:24:37.177Z</time>
      </trkpt>
      <trkpt lat="44.97619" lon="4.21639">
        <ele>1189.426856</ele>
        <time>2026-08-23T11:24:41.172Z</time>
      </trkpt>
      <trkpt lat="44.9761" lon="4.2163">
        <ele>1189.708011</ele>
        <time>2026-08-23T11:24:46.178Z</time>
      </trkpt>
      <trkpt lat="44.97602" lon="4.21621">
        <ele>1189.908565</ele>
        <time>2026-08-23T11:24:51.188Z</time>
      </trkpt>
      <trkpt lat="44.97595" lon="4.21613">
        <ele>1190.090804</ele>
        <time>2026-08-23T11:24:56.173Z</time>
      </trkpt>
      <trkpt lat="44.97589" lon="4.21601">
        <ele>1190.28686</ele>
        <time>2026-08-23T11:25:01.177Z</time>
      </trkpt>
      <trkpt lat="44.97583" lon="4.21589">
        <ele>1190.48995</ele>
        <time>2026-08-23T11:25:06.174Z</time>
      </trkpt>
      <trkpt lat="44.97578" lon="4.21574">
        <ele>1190.715034</ele>
        <time>2026-08-23T11:25:11.174Z</time>
      </trkpt>
      <trkpt lat="44.97574" lon="4.21561">
        <ele>1190.910478</ele>
        <time>2026-08-23T11:25:15.172Z</time>
      </trkpt>
      <trkpt lat="44.97571" lon="4.21547">
        <ele>1191.118554</ele>
        <time>2026-08-23T11:25:20.176Z</time>
      </trkpt>
      <trkpt lat="44.97569" lon="4.21533">
        <ele>1191.323872</ele>
        <time>2026-08-23T11:25:24.173Z</time>
      </trkpt>
      <trkpt lat="44.97566" lon="4.21519">
        <ele>1191.530084</ele>
        <time>2026-08-23T11:25:28.177Z</time>
      </trkpt>
      <trkpt lat="44.97563" lon="4.21505">
        <ele>1191.730445</ele>
        <time>2026-08-23T11:25:32.176Z</time>
      </trkpt>
      <trkpt lat="44.97561" lon="4.21491">
        <ele>1191.927789</ele>
        <time>2026-08-23T11:25:36.176Z</time>
      </trkpt>
      <trkpt lat="44.97558" lon="4.21479">
        <ele>1192.106494</ele>
        <time>2026-08-23T11:25:40.175Z</time>
      </trkpt>
      <trkpt lat="44.97556" lon="4.21465">
        <ele>1192.295135</ele>
        <time>2026-08-23T11:25:44.172Z</time>
      </trkpt>
      <trkpt lat="44.97553" lon="4.21452">
        <ele>1192.48503</ele>
        <time>2026-08-23T11:25:48.174Z</time>
      </trkpt>
      <trkpt lat="44.9755" lon="4.21438">
        <ele>1192.690672</ele>
        <time>2026-08-23T11:25:52.171Z</time>
      </trkpt>
      <trkpt lat="44.97546" lon="4.21425">
        <ele>1192.879801</ele>
        <time>2026-08-23T11:25:56.161Z</time>
      </trkpt>
      <trkpt lat="44.97542" lon="4.21414">
        <ele>1193.072676</ele>
        <time>2026-08-23T11:26:00.176Z</time>
      </trkpt>
      <trkpt lat="44.9754" lon="4.21401">
        <ele>1193.534505</ele>
        <time>2026-08-23T11:26:04.169Z</time>
      </trkpt>
      <trkpt lat="44.97535" lon="4.21387">
        <ele>1194.087696</ele>
        <time>2026-08-23T11:26:08.173Z</time>
      </trkpt>
      <trkpt lat="44.97533" lon="4.21373">
        <ele>1194.602301</ele>
        <time>2026-08-23T11:26:12.178Z</time>
      </trkpt>
      <trkpt lat="44.97528" lon="4.21359">
        <ele>1195.150203</ele>
        <time>2026-08-23T11:26:16.171Z</time>
      </trkpt>
      <trkpt lat="44.97526" lon="4.21345">
        <ele>1195.671689</ele>
        <time>2026-08-23T11:26:20.173Z</time>
      </trkpt>
      <trkpt lat="44.97523" lon="4.21329">
        <ele>1196.22539</ele>
        <time>2026-08-23T11:26:24.172Z</time>
      </trkpt>
      <trkpt lat="44.97521" lon="4.21316">
        <ele>1196.707782</ele>
        <time>2026-08-23T11:26:28.177Z</time>
      </trkpt>
      <trkpt lat="44.97516" lon="4.21303">
        <ele>1197.244801</ele>
        <time>2026-08-23T11:26:32.180Z</time>
      </trkpt>
      <trkpt lat="44.97511" lon="4.21292">
        <ele>1197.726626</ele>
        <time>2026-08-23T11:26:36.172Z</time>
      </trkpt>
      <trkpt lat="44.97505" lon="4.21278">
        <ele>1198.278005</ele>
        <time>2026-08-23T11:26:40.170Z</time>
      </trkpt>
      <trkpt lat="44.975" lon="4.21264">
        <ele>1198.841939</ele>
        <time>2026-08-23T11:26:45.175Z</time>
      </trkpt>
      <trkpt lat="44.97497" lon="4.2125">
        <ele>1199.362015</ele>
        <time>2026-08-23T11:26:49.172Z</time>
      </trkpt>
      <trkpt lat="44.97495" lon="4.21238">
        <ele>1199.814638</ele>
        <time>2026-08-23T11:26:52.171Z</time>
      </trkpt>
      <trkpt lat="44.97493" lon="4.21223">
        <ele>1200.341335</ele>
        <time>2026-08-23T11:26:56.171Z</time>
      </trkpt>
      <trkpt lat="44.97494" lon="4.21206">
        <ele>1200.963696</ele>
        <time>2026-08-23T11:27:00.172Z</time>
      </trkpt>
      <trkpt lat="44.97492" lon="4.21192">
        <ele>1201.441635</ele>
        <time>2026-08-23T11:27:04.169Z</time>
      </trkpt>
      <trkpt lat="44.9749" lon="4.21178">
        <ele>1201.946657</ele>
        <time>2026-08-23T11:27:08.166Z</time>
      </trkpt>
      <trkpt lat="44.97488" lon="4.21165">
        <ele>1202.352817</ele>
        <time>2026-08-23T11:27:12.174Z</time>
      </trkpt>
      <trkpt lat="44.97486" lon="4.21148">
        <ele>1202.788157</ele>
        <time>2026-08-23T11:27:16.169Z</time>
      </trkpt>
      <trkpt lat="44.97485" lon="4.21136">
        <ele>1203.122555</ele>
        <time>2026-08-23T11:27:19.172Z</time>
      </trkpt>
      <trkpt lat="44.97484" lon="4.21123">
        <ele>1203.456216</ele>
        <time>2026-08-23T11:27:22.183Z</time>
      </trkpt>
      <trkpt lat="44.97483" lon="4.21106">
        <ele>1203.900331</ele>
        <time>2026-08-23T11:27:26.174Z</time>
      </trkpt>
      <trkpt lat="44.97481" lon="4.21092">
        <ele>1204.264651</ele>
        <time>2026-08-23T11:27:29.172Z</time>
      </trkpt>
      <trkpt lat="44.9748" lon="4.21079">
        <ele>1204.606761</ele>
        <time>2026-08-23T11:27:32.174Z</time>
      </trkpt>
      <trkpt lat="44.97478" lon="4.21063">
        <ele>1205.033905</ele>
        <time>2026-08-23T11:27:36.174Z</time>
      </trkpt>
      <trkpt lat="44.97476" lon="4.21049">
        <ele>1205.420501</ele>
        <time>2026-08-23T11:27:40.171Z</time>
      </trkpt>
      <trkpt lat="44.97474" lon="4.21034">
        <ele>1205.807098</ele>
        <time>2026-08-23T11:27:44.182Z</time>
      </trkpt>
      <trkpt lat="44.97472" lon="4.21019">
        <ele>1206.216496</ele>
        <time>2026-08-23T11:27:48.176Z</time>
      </trkpt>
      <trkpt lat="44.97471" lon="4.21006">
        <ele>1206.559226</ele>
        <time>2026-08-23T11:27:52.136Z</time>
      </trkpt>
      <trkpt lat="44.97469" lon="4.20992">
        <ele>1206.934524</ele>
        <time>2026-08-23T11:27:56.171Z</time>
      </trkpt>
      <trkpt lat="44.97469" lon="4.20975">
        <ele>1207.366313</ele>
        <time>2026-08-23T11:28:00.175Z</time>
      </trkpt>
      <trkpt lat="44.97468" lon="4.20962">
        <ele>1207.722386</ele>
        <time>2026-08-23T11:28:04.174Z</time>
      </trkpt>
      <trkpt lat="44.97468" lon="4.20945">
        <ele>1208.154429</ele>
        <time>2026-08-23T11:28:08.179Z</time>
      </trkpt>
      <trkpt lat="44.97468" lon="4.20928">
        <ele>1208.599319</ele>
        <time>2026-08-23T11:28:12.178Z</time>
      </trkpt>
      <trkpt lat="44.97468" lon="4.20913">
        <ele>1208.781177</ele>
        <time>2026-08-23T11:28:16.172Z</time>
      </trkpt>
      <trkpt lat="44.9747" lon="4.20897">
        <ele>1208.838758</ele>
        <time>2026-08-23T11:28:20.172Z</time>
      </trkpt>
      <trkpt lat="44.97474" lon="4.20882">
        <ele>1208.898658</ele>
        <time>2026-08-23T11:28:24.183Z</time>
      </trkpt>
      <trkpt lat="44.97479" lon="4.20869">
        <ele>1208.950979</ele>
        <time>2026-08-23T11:28:27.176Z</time>
      </trkpt>
      <trkpt lat="44.97483" lon="4.20855">
        <ele>1209.002738</ele>
        <time>2026-08-23T11:28:31.183Z</time>
      </trkpt>
      <trkpt lat="44.97487" lon="4.20844">
        <ele>1209.048928</ele>
        <time>2026-08-23T11:28:34.173Z</time>
      </trkpt>
      <trkpt lat="44.9749" lon="4.20828">
        <ele>1209.107441</ele>
        <time>2026-08-23T11:28:38.172Z</time>
      </trkpt>
      <trkpt lat="44.97492" lon="4.20814">
        <ele>1209.159419</ele>
        <time>2026-08-23T11:28:42.175Z</time>
      </trkpt>
      <trkpt lat="44.97492" lon="4.20798">
        <ele>1209.216656</ele>
        <time>2026-08-23T11:28:46.168Z</time>
      </trkpt>
      <trkpt lat="44.97493" lon="4.20785">
        <ele>1209.265424</ele>
        <time>2026-08-23T11:28:49.178Z</time>
      </trkpt>
      <trkpt lat="44.97494" lon="4.20772">
        <ele>1209.313044</ele>
        <time>2026-08-23T11:28:52.179Z</time>
      </trkpt>
      <trkpt lat="44.97497" lon="4.20757">
        <ele>1209.368054</ele>
        <time>2026-08-23T11:28:55.174Z</time>
      </trkpt>
      <trkpt lat="44.97499" lon="4.20744">
        <ele>1209.416056</ele>
        <time>2026-08-23T11:28:58.176Z</time>
      </trkpt>
      <trkpt lat="44.97499" lon="4.2073">
        <ele>1209.466464</ele>
        <time>2026-08-23T11:29:01.179Z</time>
      </trkpt>
      <trkpt lat="44.97499" lon="4.20717">
        <ele>1209.51333</ele>
        <time>2026-08-23T11:29:04.174Z</time>
      </trkpt>
      <trkpt lat="44.97499" lon="4.20704">
        <ele>1209.559419</ele>
        <time>2026-08-23T11:29:07.177Z</time>
      </trkpt>
      <trkpt lat="44.97498" lon="4.20688">
        <ele>1209.617127</ele>
        <time>2026-08-23T11:29:11.130Z</time>
      </trkpt>
      <trkpt lat="44.97496" lon="4.20673">
        <ele>1209.63432</ele>
        <time>2026-08-23T11:29:15.184Z</time>
      </trkpt>
      <trkpt lat="44.97493" lon="4.20657">
        <ele>1209.493797</ele>
        <time>2026-08-23T11:29:18.173Z</time>
      </trkpt>
      <trkpt lat="44.97492" lon="4.20643">
        <ele>1209.377176</ele>
        <time>2026-08-23T11:29:20.175Z</time>
      </trkpt>
      <trkpt lat="44.97491" lon="4.20628">
        <ele>1209.247014</ele>
        <time>2026-08-23T11:29:22.178Z</time>
      </trkpt>
      <trkpt lat="44.97488" lon="4.20614">
        <ele>1209.122974</ele>
        <time>2026-08-23T11:29:24.187Z</time>
      </trkpt>
      <trkpt lat="44.97486" lon="4.206">
        <ele>1209.004941</ele>
        <time>2026-08-23T11:29:26.175Z</time>
      </trkpt>
      <trkpt lat="44.97482" lon="4.20586">
        <ele>1208.877339</ele>
        <time>2026-08-23T11:29:28.179Z</time>
      </trkpt>
      <trkpt lat="44.97478" lon="4.20574">
        <ele>1208.763562</ele>
        <time>2026-08-23T11:29:30.176Z</time>
      </trkpt>
      <trkpt lat="44.97473" lon="4.20563">
        <ele>1208.65368</ele>
        <time>2026-08-23T11:29:32.176Z</time>
      </trkpt>
      <trkpt lat="44.97462" lon="4.20554">
        <ele>1208.506928</ele>
        <time>2026-08-23T11:29:35.175Z</time>
      </trkpt>
      <trkpt lat="44.97456" lon="4.20546">
        <ele>1208.39845</ele>
        <time>2026-08-23T11:29:37.180Z</time>
      </trkpt>
      <trkpt lat="44.97448" lon="4.20536">
        <ele>1208.276907</ele>
        <time>2026-08-23T11:29:40.172Z</time>
      </trkpt>
      <trkpt lat="44.97442" lon="4.20527">
        <ele>1208.168118</ele>
        <time>2026-08-23T11:29:43.175Z</time>
      </trkpt>
      <trkpt lat="44.97434" lon="4.20517">
        <ele>1208.044107</ele>
        <time>2026-08-23T11:29:46.173Z</time>
      </trkpt>
      <trkpt lat="44.97428" lon="4.20507">
        <ele>1207.927213</ele>
        <time>2026-08-23T11:29:49.176Z</time>
      </trkpt>
      <trkpt lat="44.97424" lon="4.20494">
        <ele>1207.808634</ele>
        <time>2026-08-23T11:29:52.175Z</time>
      </trkpt>
      <trkpt lat="44.97417" lon="4.20484">
        <ele>1207.693464</ele>
        <time>2026-08-23T11:29:55.172Z</time>
      </trkpt>
      <trkpt lat="44.97411" lon="4.20472">
        <ele>1207.575351</ele>
        <time>2026-08-23T11:29:58.180Z</time>
      </trkpt>
      <trkpt lat="44.97406" lon="4.20459">
        <ele>1207.280135</ele>
        <time>2026-08-23T11:30:01.179Z</time>
      </trkpt>
      <trkpt lat="44.97398" lon="4.20449">
        <ele>1206.829221</ele>
        <time>2026-08-23T11:30:04.175Z</time>
      </trkpt>
      <trkpt lat="44.97389" lon="4.20443">
        <ele>1206.413561</ele>
        <time>2026-08-23T11:30:07.170Z</time>
      </trkpt>
      <trkpt lat="44.97377" lon="4.20438">
        <ele>1205.914455</ele>
        <time>2026-08-23T11:30:10.179Z</time>
      </trkpt>
      <trkpt lat="44.97365" lon="4.20437">
        <ele>1205.394193</ele>
        <time>2026-08-23T11:30:13.168Z</time>
      </trkpt>
      <trkpt lat="44.97355" lon="4.20436">
        <ele>1204.984671</ele>
        <time>2026-08-23T11:30:15.174Z</time>
      </trkpt>
      <trkpt lat="44.97344" lon="4.20435">
        <ele>1204.511445</ele>
        <time>2026-08-23T11:30:17.167Z</time>
      </trkpt>
      <trkpt lat="44.97331" lon="4.20433">
        <ele>1203.985762</ele>
        <time>2026-08-23T11:30:19.179Z</time>
      </trkpt>
      <trkpt lat="44.97318" lon="4.2043">
        <ele>1203.419648</ele>
        <time>2026-08-23T11:30:21.175Z</time>
      </trkpt>
      <trkpt lat="44.97304" lon="4.20426">
        <ele>1202.812009</ele>
        <time>2026-08-23T11:30:23.182Z</time>
      </trkpt>
      <trkpt lat="44.97288" lon="4.20424">
        <ele>1202.161161</ele>
        <time>2026-08-23T11:30:25.172Z</time>
      </trkpt>
      <trkpt lat="44.97271" lon="4.20421">
        <ele>1201.456008</ele>
        <time>2026-08-23T11:30:27.173Z</time>
      </trkpt>
      <trkpt lat="44.97255" lon="4.20421">
        <ele>1200.758203</ele>
        <time>2026-08-23T11:30:29.173Z</time>
      </trkpt>
      <trkpt lat="44.97237" lon="4.20418">
        <ele>1200.009597</ele>
        <time>2026-08-23T11:30:31.172Z</time>
      </trkpt>
      <trkpt lat="44.97227" lon="4.20417">
        <ele>1200.070301</ele>
        <time>2026-08-23T11:30:32.177Z</time>
      </trkpt>
      <trkpt lat="44.97218" lon="4.20418">
        <ele>1200.143936</ele>
        <time>2026-08-23T11:30:33.173Z</time>
      </trkpt>
      <trkpt lat="44.97208" lon="4.20418">
        <ele>1200.219934</ele>
        <time>2026-08-23T11:30:34.179Z</time>
      </trkpt>
      <trkpt lat="44.97199" lon="4.2042">
        <ele>1200.292817</ele>
        <time>2026-08-23T11:30:35.174Z</time>
      </trkpt>
      <trkpt lat="44.9719" lon="4.20423">
        <ele>1200.365299</ele>
        <time>2026-08-23T11:30:36.177Z</time>
      </trkpt>
      <trkpt lat="44.9718" lon="4.20424">
        <ele>1200.43756</ele>
        <time>2026-08-23T11:30:37.175Z</time>
      </trkpt>
      <trkpt lat="44.97163" lon="4.20424">
        <ele>1200.574733</ele>
        <time>2026-08-23T11:30:39.173Z</time>
      </trkpt>
      <trkpt lat="44.97144" lon="4.20426">
        <ele>1200.716754</ele>
        <time>2026-08-23T11:30:41.175Z</time>
      </trkpt>
      <trkpt lat="44.97135" lon="4.20427">
        <ele>1200.789878</ele>
        <time>2026-08-23T11:30:42.175Z</time>
      </trkpt>
      <trkpt lat="44.97125" lon="4.20427">
        <ele>1200.864256</ele>
        <time>2026-08-23T11:30:43.176Z</time>
      </trkpt>
      <trkpt lat="44.97116" lon="4.20427">
        <ele>1200.933993</ele>
        <time>2026-08-23T11:30:44.176Z</time>
      </trkpt>
      <trkpt lat="44.97107" lon="4.20426">
        <ele>1201.003776</ele>
        <time>2026-08-23T11:30:45.173Z</time>
      </trkpt>
      <trkpt lat="44.9709" lon="4.20426">
        <ele>1201.135527</ele>
        <time>2026-08-23T11:30:47.142Z</time>
      </trkpt>
      <trkpt lat="44.97076" lon="4.20425">
        <ele>1201.245566</ele>
        <time>2026-08-23T11:30:49.163Z</time>
      </trkpt>
      <trkpt lat="44.97065" lon="4.20426">
        <ele>1201.330834</ele>
        <time>2026-08-23T11:30:51.174Z</time>
      </trkpt>
      <trkpt lat="44.97053" lon="4.20427">
        <ele>1201.750726</ele>
        <time>2026-08-23T11:30:54.182Z</time>
      </trkpt>
      <trkpt lat="44.97043" lon="4.20429">
        <ele>1202.575429</ele>
        <time>2026-08-23T11:30:57.183Z</time>
      </trkpt>
      <trkpt lat="44.97033" lon="4.20431">
        <ele>1203.445691</ele>
        <time>2026-08-23T11:31:01.173Z</time>
      </trkpt>
      <trkpt lat="44.97024" lon="4.20432">
        <ele>1204.231017</ele>
        <time>2026-08-23T11:31:05.174Z</time>
      </trkpt>
      <trkpt lat="44.97015" lon="4.20434">
        <ele>1205.022929</ele>
        <time>2026-08-23T11:31:10.176Z</time>
      </trkpt>
      <trkpt lat="44.97005" lon="4.20434">
        <ele>1205.855022</ele>
        <time>2026-08-23T11:31:14.183Z</time>
      </trkpt>
      <trkpt lat="44.96996" lon="4.20433">
        <ele>1206.641814</ele>
        <time>2026-08-23T11:31:18.185Z</time>
      </trkpt>
      <trkpt lat="44.96986" lon="4.20431">
        <ele>1207.452417</ele>
        <time>2026-08-23T11:31:22.183Z</time>
      </trkpt>
      <trkpt lat="44.96976" lon="4.20429">
        <ele>1208.288532</ele>
        <time>2026-08-23T11:31:27.177Z</time>
      </trkpt>
      <trkpt lat="44.96967" lon="4.20423">
        <ele>1209.123147</ele>
        <time>2026-08-23T11:31:31.179Z</time>
      </trkpt>
      <trkpt lat="44.96958" lon="4.20416">
        <ele>1209.986835</ele>
        <time>2026-08-23T11:31:36.175Z</time>
      </trkpt>
      <trkpt lat="44.96951" lon="4.2041">
        <ele>1210.760829</ele>
        <time>2026-08-23T11:31:40.175Z</time>
      </trkpt>
      <trkpt lat="44.96942" lon="4.204">
        <ele>1211.693093</ele>
        <time>2026-08-23T11:31:45.172Z</time>
      </trkpt>
      <trkpt lat="44.96935" lon="4.20392">
        <ele>1212.474406</ele>
        <time>2026-08-23T11:31:50.177Z</time>
      </trkpt>
      <trkpt lat="44.96927" lon="4.20383">
        <ele>1213.348971</ele>
        <time>2026-08-23T11:31:56.176Z</time>
      </trkpt>
      <trkpt lat="44.96919" lon="4.20373">
        <ele>1214.195017</ele>
        <time>2026-08-23T11:32:02.172Z</time>
      </trkpt>
      <trkpt lat="44.96912" lon="4.20364">
        <ele>1215.05</ele>
        <time>2026-08-23T11:32:07.174Z</time>
      </trkpt>
      <trkpt lat="44.96904" lon="4.20355">
        <ele>1215.879368</ele>
        <time>2026-08-23T11:32:12.179Z</time>
      </trkpt>
      <trkpt lat="44.96896" lon="4.20344">
        <ele>1216.744635</ele>
        <time>2026-08-23T11:32:18.181Z</time>
      </trkpt>
      <trkpt lat="44.96889" lon="4.20337">
        <ele>1217.226793</ele>
        <time>2026-08-23T11:32:22.172Z</time>
      </trkpt>
      <trkpt lat="44.96882" lon="4.20329">
        <ele>1217.705404</ele>
        <time>2026-08-23T11:32:26.173Z</time>
      </trkpt>
      <trkpt lat="44.96872" lon="4.20322">
        <ele>1218.2778</ele>
        <time>2026-08-23T11:32:30.146Z</time>
      </trkpt>
      <trkpt lat="44.96862" lon="4.20313">
        <ele>1218.907696</ele>
        <time>2026-08-23T11:32:34.128Z</time>
      </trkpt>
      <trkpt lat="44.96853" lon="4.20312">
        <ele>1219.398815</ele>
        <time>2026-08-23T11:32:38.174Z</time>
      </trkpt>
      <trkpt lat="44.96845" lon="4.20306">
        <ele>1219.874454</ele>
        <time>2026-08-23T11:32:41.172Z</time>
      </trkpt>
      <trkpt lat="44.96836" lon="4.20297">
        <ele>1220.444953</ele>
        <time>2026-08-23T11:32:44.178Z</time>
      </trkpt>
      <trkpt lat="44.96828" lon="4.20287">
        <ele>1221.005074</ele>
        <time>2026-08-23T11:32:47.179Z</time>
      </trkpt>
      <trkpt lat="44.96821" lon="4.20276">
        <ele>1221.564004</ele>
        <time>2026-08-23T11:32:50.176Z</time>
      </trkpt>
      <trkpt lat="44.96814" lon="4.20265">
        <ele>1222.117406</ele>
        <time>2026-08-23T11:32:53.178Z</time>
      </trkpt>
      <trkpt lat="44.96808" lon="4.20254">
        <ele>1222.636546</ele>
        <time>2026-08-23T11:32:56.175Z</time>
      </trkpt>
      <trkpt lat="44.96802" lon="4.20243">
        <ele>1223.135848</ele>
        <time>2026-08-23T11:32:59.174Z</time>
      </trkpt>
      <trkpt lat="44.96796" lon="4.20229">
        <ele>1223.778841</ele>
        <time>2026-08-23T11:33:03.177Z</time>
      </trkpt>
      <trkpt lat="44.9679" lon="4.20216">
        <ele>1224.331415</ele>
        <time>2026-08-23T11:33:06.176Z</time>
      </trkpt>
      <trkpt lat="44.96785" lon="4.20203">
        <ele>1224.90773</ele>
        <time>2026-08-23T11:33:10.177Z</time>
      </trkpt>
      <trkpt lat="44.9678" lon="4.20188">
        <ele>1225.521686</ele>
        <time>2026-08-23T11:33:14.179Z</time>
      </trkpt>
      <trkpt lat="44.96775" lon="4.20175">
        <ele>1226.051363</ele>
        <time>2026-08-23T11:33:18.179Z</time>
      </trkpt>
      <trkpt lat="44.96768" lon="4.20162">
        <ele>1226.818876</ele>
        <time>2026-08-23T11:33:22.181Z</time>
      </trkpt>
      <trkpt lat="44.96763" lon="4.20148">
        <ele>1227.597493</ele>
        <time>2026-08-23T11:33:26.181Z</time>
      </trkpt>
      <trkpt lat="44.9676" lon="4.20133">
        <ele>1228.340248</ele>
        <time>2026-08-23T11:33:30.175Z</time>
      </trkpt>
      <trkpt lat="44.96758" lon="4.20119">
        <ele>1229.019278</ele>
        <time>2026-08-23T11:33:34.173Z</time>
      </trkpt>
      <trkpt lat="44.96755" lon="4.20107">
        <ele>1229.666861</ele>
        <time>2026-08-23T11:33:38.177Z</time>
      </trkpt>
      <trkpt lat="44.9675" lon="4.20095">
        <ele>1230.32403</ele>
        <time>2026-08-23T11:33:42.174Z</time>
      </trkpt>
      <trkpt lat="44.96747" lon="4.2008">
        <ele>1231.050523</ele>
        <time>2026-08-23T11:33:47.177Z</time>
      </trkpt>
      <trkpt lat="44.96745" lon="4.20068">
        <ele>1231.669967</ele>
        <time>2026-08-23T11:33:51.177Z</time>
      </trkpt>
      <trkpt lat="44.96745" lon="4.20054">
        <ele>1232.352345</ele>
        <time>2026-08-23T11:33:55.176Z</time>
      </trkpt>
      <trkpt lat="44.96744" lon="4.20041">
        <ele>1232.982517</ele>
        <time>2026-08-23T11:34:00.177Z</time>
      </trkpt>
      <trkpt lat="44.96744" lon="4.20025">
        <ele>1233.756631</ele>
        <time>2026-08-23T11:34:05.173Z</time>
      </trkpt>
      <trkpt lat="44.96744" lon="4.2001">
        <ele>1234.492116</ele>
        <time>2026-08-23T11:34:10.175Z</time>
      </trkpt>
      <trkpt lat="44.96743" lon="4.19996">
        <ele>1235.133785</ele>
        <time>2026-08-23T11:34:14.160Z</time>
      </trkpt>
      <trkpt lat="44.9674" lon="4.19981">
        <ele>1235.883361</ele>
        <time>2026-08-23T11:34:19.184Z</time>
      </trkpt>
      <trkpt lat="44.96735" lon="4.19969">
        <ele>1236.589202</ele>
        <time>2026-08-23T11:34:24.179Z</time>
      </trkpt>
      <trkpt lat="44.96731" lon="4.19957">
        <ele>1237.230373</ele>
        <time>2026-08-23T11:34:28.170Z</time>
      </trkpt>
      <trkpt lat="44.96726" lon="4.19946">
        <ele>1237.881635</ele>
        <time>2026-08-23T11:34:33.179Z</time>
      </trkpt>
      <trkpt lat="44.96723" lon="4.19929">
        <ele>1238.660471</ele>
        <time>2026-08-23T11:34:37.171Z</time>
      </trkpt>
      <trkpt lat="44.9672" lon="4.19916">
        <ele>1239.248115</ele>
        <time>2026-08-23T11:34:41.171Z</time>
      </trkpt>
      <trkpt lat="44.96711" lon="4.19908">
        <ele>1239.843558</ele>
        <time>2026-08-23T11:34:47.170Z</time>
      </trkpt>
      <trkpt lat="44.96705" lon="4.19898">
        <ele>1240.410005</ele>
        <time>2026-08-23T11:34:54.177Z</time>
      </trkpt>
      <trkpt lat="44.96695" lon="4.19894">
        <ele>1241.01618</ele>
        <time>2026-08-23T11:35:01.175Z</time>
      </trkpt>
      <trkpt lat="44.96685" lon="4.19896">
        <ele>1241.564862</ele>
        <time>2026-08-23T11:35:06.179Z</time>
      </trkpt>
      <trkpt lat="44.96676" lon="4.19892">
        <ele>1242.11214</ele>
        <time>2026-08-23T11:35:10.171Z</time>
      </trkpt>
      <trkpt lat="44.96667" lon="4.19894">
        <ele>1242.66675</ele>
        <time>2026-08-23T11:35:15.178Z</time>
      </trkpt>
      <trkpt lat="44.96658" lon="4.19895">
        <ele>1243.209581</ele>
        <time>2026-08-23T11:35:19.180Z</time>
      </trkpt>
      <trkpt lat="44.96647" lon="4.19895">
        <ele>1243.845557</ele>
        <time>2026-08-23T11:35:24.181Z</time>
      </trkpt>
      <trkpt lat="44.96637" lon="4.19894">
        <ele>1244.431679</ele>
        <time>2026-08-23T11:35:29.175Z</time>
      </trkpt>
      <trkpt lat="44.96629" lon="4.19901">
        <ele>1244.981927</ele>
        <time>2026-08-23T11:35:35.179Z</time>
      </trkpt>
      <trkpt lat="44.9662" lon="4.19907">
        <ele>1245.544759</ele>
        <time>2026-08-23T11:35:42.172Z</time>
      </trkpt>
      <trkpt lat="44.96611" lon="4.1991">
        <ele>1246.118219</ele>
        <time>2026-08-23T11:35:47.173Z</time>
      </trkpt>
      <trkpt lat="44.966" lon="4.19914">
        <ele>1246.739916</ele>
        <time>2026-08-23T11:35:52.175Z</time>
      </trkpt>
      <trkpt lat="44.9659" lon="4.19916">
        <ele>1247.336614</ele>
        <time>2026-08-23T11:35:58.184Z</time>
      </trkpt>
      <trkpt lat="44.96581" lon="4.19919">
        <ele>1247.896093</ele>
        <time>2026-08-23T11:36:04.173Z</time>
      </trkpt>
      <trkpt lat="44.96573" lon="4.19924">
        <ele>1248.434328</ele>
        <time>2026-08-23T11:36:09.177Z</time>
      </trkpt>
      <trkpt lat="44.96562" lon="4.19928">
        <ele>1249.090325</ele>
        <time>2026-08-23T11:36:15.173Z</time>
      </trkpt>
      <trkpt lat="44.96553" lon="4.19931">
        <ele>1249.830951</ele>
        <time>2026-08-23T11:36:21.175Z</time>
      </trkpt>
      <trkpt lat="44.96545" lon="4.19936">
        <ele>1250.524864</ele>
        <time>2026-08-23T11:36:27.178Z</time>
      </trkpt>
      <trkpt lat="44.96536" lon="4.19941">
        <ele>1251.270044</ele>
        <time>2026-08-23T11:36:32.176Z</time>
      </trkpt>
      <trkpt lat="44.96526" lon="4.19945">
        <ele>1252.071294</ele>
        <time>2026-08-23T11:36:37.175Z</time>
      </trkpt>
      <trkpt lat="44.96517" lon="4.1995">
        <ele>1252.797247</ele>
        <time>2026-08-23T11:36:41.178Z</time>
      </trkpt>
      <trkpt lat="44.96507" lon="4.19958">
        <ele>1253.671613</ele>
        <time>2026-08-23T11:36:46.179Z</time>
      </trkpt>
      <trkpt lat="44.965" lon="4.19966">
        <ele>1254.428372</ele>
        <time>2026-08-23T11:36:51.182Z</time>
      </trkpt>
      <trkpt lat="44.96491" lon="4.19973">
        <ele>1255.205717</ele>
        <time>2026-08-23T11:36:56.172Z</time>
      </trkpt>
      <trkpt lat="44.96482" lon="4.19982">
        <ele>1256.034272</ele>
        <time>2026-08-23T11:37:02.173Z</time>
      </trkpt>
      <trkpt lat="44.96474" lon="4.19989">
        <ele>1256.77709</ele>
        <time>2026-08-23T11:37:07.173Z</time>
      </trkpt>
      <trkpt lat="44.96465" lon="4.19994">
        <ele>1257.55236</ele>
        <time>2026-08-23T11:37:11.175Z</time>
      </trkpt>
      <trkpt lat="44.96456" lon="4.20001">
        <ele>1258.339145</ele>
        <time>2026-08-23T11:37:16.175Z</time>
      </trkpt>
      <trkpt lat="44.96448" lon="4.20008">
        <ele>1259.089017</ele>
        <time>2026-08-23T11:37:22.179Z</time>
      </trkpt>
      <trkpt lat="44.96441" lon="4.20017">
        <ele>1259.809872</ele>
        <time>2026-08-23T11:37:27.177Z</time>
      </trkpt>
      <trkpt lat="44.96433" lon="4.20025">
        <ele>1260.580852</ele>
        <time>2026-08-23T11:37:33.185Z</time>
      </trkpt>
      <trkpt lat="44.96424" lon="4.20033">
        <ele>1261.356208</ele>
        <time>2026-08-23T11:37:39.171Z</time>
      </trkpt>
      <trkpt lat="44.96414" lon="4.20037">
        <ele>1262.165</ele>
        <time>2026-08-23T11:37:44.167Z</time>
      </trkpt>
      <trkpt lat="44.96406" lon="4.20043">
        <ele>1262.8608</ele>
        <time>2026-08-23T11:37:51.185Z</time>
      </trkpt>
      <trkpt lat="44.96396" lon="4.20051">
        <ele>1263.554098</ele>
        <time>2026-08-23T11:37:58.173Z</time>
      </trkpt>
      <trkpt lat="44.96387" lon="4.20056">
        <ele>1264.176625</ele>
        <time>2026-08-23T11:38:04.177Z</time>
      </trkpt>
      <trkpt lat="44.96377" lon="4.20059">
        <ele>1264.78472</ele>
        <time>2026-08-23T11:38:08.176Z</time>
      </trkpt>
      <trkpt lat="44.96368" lon="4.20061">
        <ele>1265.372929</ele>
        <time>2026-08-23T11:38:13.171Z</time>
      </trkpt>
      <trkpt lat="44.96357" lon="4.20064">
        <ele>1266.016107</ele>
        <time>2026-08-23T11:38:19.171Z</time>
      </trkpt>
      <trkpt lat="44.96347" lon="4.20063">
        <ele>1266.672818</ele>
        <time>2026-08-23T11:38:24.177Z</time>
      </trkpt>
      <trkpt lat="44.96338" lon="4.20061">
        <ele>1267.222519</ele>
        <time>2026-08-23T11:38:28.180Z</time>
      </trkpt>
      <trkpt lat="44.96328" lon="4.20057">
        <ele>1267.835611</ele>
        <time>2026-08-23T11:38:32.172Z</time>
      </trkpt>
      <trkpt lat="44.96319" lon="4.20054">
        <ele>1268.392085</ele>
        <time>2026-08-23T11:38:36.151Z</time>
      </trkpt>
      <trkpt lat="44.9631" lon="4.20051">
        <ele>1268.988221</ele>
        <time>2026-08-23T11:38:41.176Z</time>
      </trkpt>
      <trkpt lat="44.96302" lon="4.20044">
        <ele>1269.55245</ele>
        <time>2026-08-23T11:38:46.184Z</time>
      </trkpt>
      <trkpt lat="44.96293" lon="4.20038">
        <ele>1270.150609</ele>
        <time>2026-08-23T11:38:50.175Z</time>
      </trkpt>
      <trkpt lat="44.96286" lon="4.20028">
        <ele>1270.740513</ele>
        <time>2026-08-23T11:38:54.175Z</time>
      </trkpt>
      <trkpt lat="44.96279" lon="4.2002">
        <ele>1271.329262</ele>
        <time>2026-08-23T11:38:58.179Z</time>
      </trkpt>
      <trkpt lat="44.96269" lon="4.20011">
        <ele>1272.030513</ele>
        <time>2026-08-23T11:39:03.174Z</time>
      </trkpt>
      <trkpt lat="44.9626" lon="4.20004">
        <ele>1272.685317</ele>
        <time>2026-08-23T11:39:08.174Z</time>
      </trkpt>
      <trkpt lat="44.96251" lon="4.19995">
        <ele>1273.32804</ele>
        <time>2026-08-23T11:39:13.176Z</time>
      </trkpt>
      <trkpt lat="44.96244" lon="4.19984">
        <ele>1274.029116</ele>
        <time>2026-08-23T11:39:19.179Z</time>
      </trkpt>
      <trkpt lat="44.96237" lon="4.19972">
        <ele>1274.944246</ele>
        <time>2026-08-23T11:39:24.177Z</time>
      </trkpt>
      <trkpt lat="44.9623" lon="4.19963">
        <ele>1275.829418</ele>
        <time>2026-08-23T11:39:30.171Z</time>
      </trkpt>
      <trkpt lat="44.96221" lon="4.19953">
        <ele>1276.736833</ele>
        <time>2026-08-23T11:39:35.169Z</time>
      </trkpt>
      <trkpt lat="44.96213" lon="4.19944">
        <ele>1277.642157</ele>
        <time>2026-08-23T11:39:40.177Z</time>
      </trkpt>
      <trkpt lat="44.96205" lon="4.19938">
        <ele>1278.442319</ele>
        <time>2026-08-23T11:39:45.181Z</time>
      </trkpt>
      <trkpt lat="44.96195" lon="4.1993">
        <ele>1279.363161</ele>
        <time>2026-08-23T11:39:51.173Z</time>
      </trkpt>
      <trkpt lat="44.96188" lon="4.19922">
        <ele>1280.176488</ele>
        <time>2026-08-23T11:39:56.170Z</time>
      </trkpt>
      <trkpt lat="44.96182" lon="4.19909">
        <ele>1281.086152</ele>
        <time>2026-08-23T11:40:02.175Z</time>
      </trkpt>
      <trkpt lat="44.96173" lon="4.19902">
        <ele>1282.003034</ele>
        <time>2026-08-23T11:40:08.173Z</time>
      </trkpt>
      <trkpt lat="44.96166" lon="4.19892">
        <ele>1282.818358</ele>
        <time>2026-08-23T11:40:13.172Z</time>
      </trkpt>
      <trkpt lat="44.96161" lon="4.19881">
        <ele>1283.600353</ele>
        <time>2026-08-23T11:40:17.174Z</time>
      </trkpt>
      <trkpt lat="44.96154" lon="4.19872">
        <ele>1284.441275</ele>
        <time>2026-08-23T11:40:22.172Z</time>
      </trkpt>
      <trkpt lat="44.96146" lon="4.19866">
        <ele>1285.223328</ele>
        <time>2026-08-23T11:40:26.172Z</time>
      </trkpt>
      <trkpt lat="44.96136" lon="4.1986">
        <ele>1286.134413</ele>
        <time>2026-08-23T11:40:31.173Z</time>
      </trkpt>
      <trkpt lat="44.96128" lon="4.19851">
        <ele>1287.009492</ele>
        <time>2026-08-23T11:40:36.177Z</time>
      </trkpt>
      <trkpt lat="44.96121" lon="4.1984">
        <ele>1287.896393</ele>
        <time>2026-08-23T11:40:42.176Z</time>
      </trkpt>
      <trkpt lat="44.96112" lon="4.19833">
        <ele>1288.841642</ele>
        <time>2026-08-23T11:40:48.178Z</time>
      </trkpt>
      <trkpt lat="44.96103" lon="4.19832">
        <ele>1289.568392</ele>
        <time>2026-08-23T11:40:52.175Z</time>
      </trkpt>
      <trkpt lat="44.96093" lon="4.19832">
        <ele>1290.269295</ele>
        <time>2026-08-23T11:40:57.175Z</time>
      </trkpt>
      <trkpt lat="44.96082" lon="4.19833">
        <ele>1291.09249</ele>
        <time>2026-08-23T11:41:03.174Z</time>
      </trkpt>
      <trkpt lat="44.96073" lon="4.19833">
        <ele>1291.778383</ele>
        <time>2026-08-23T11:41:08.169Z</time>
      </trkpt>
      <trkpt lat="44.96066" lon="4.19824">
        <ele>1292.486023</ele>
        <time>2026-08-23T11:41:13.170Z</time>
      </trkpt>
      <trkpt lat="44.96058" lon="4.19813">
        <ele>1293.353986</ele>
        <time>2026-08-23T11:41:18.167Z</time>
      </trkpt>
      <trkpt lat="44.96049" lon="4.19806">
        <ele>1294.087481</ele>
        <time>2026-08-23T11:41:23.181Z</time>
      </trkpt>
      <trkpt lat="44.96039" lon="4.19799">
        <ele>1294.964716</ele>
        <time>2026-08-23T11:41:29.180Z</time>
      </trkpt>
      <trkpt lat="44.9603" lon="4.19792">
        <ele>1295.738926</ele>
        <time>2026-08-23T11:41:35.173Z</time>
      </trkpt>
      <trkpt lat="44.9602" lon="4.19787">
        <ele>1296.479878</ele>
        <time>2026-08-23T11:41:41.175Z</time>
      </trkpt>
      <trkpt lat="44.9601" lon="4.19784">
        <ele>1297.264889</ele>
        <time>2026-08-23T11:41:48.175Z</time>
      </trkpt>
      <trkpt lat="44.96002" lon="4.19776">
        <ele>1298.020086</ele>
        <time>2026-08-23T11:41:53.188Z</time>
      </trkpt>
      <trkpt lat="44.95992" lon="4.19771">
        <ele>1298.775161</ele>
        <time>2026-08-23T11:41:58.177Z</time>
      </trkpt>
      <trkpt lat="44.9597" lon="4.19749">
        <ele>1300.843344</ele>
        <time>2026-08-23T11:43:04.183Z</time>
      </trkpt>
      <trkpt lat="44.95961" lon="4.19745">
        <ele>1301.559332</ele>
        <time>2026-08-23T11:43:09.184Z</time>
      </trkpt>
      <trkpt lat="44.95951" lon="4.19742">
        <ele>1302.341411</ele>
        <time>2026-08-23T11:43:14.184Z</time>
      </trkpt>
      <trkpt lat="44.95942" lon="4.19736">
        <ele>1302.874964</ele>
        <time>2026-08-23T11:43:18.177Z</time>
      </trkpt>
      <trkpt lat="44.95934" lon="4.1973">
        <ele>1303.125597</ele>
        <time>2026-08-23T11:43:22.179Z</time>
      </trkpt>
      <trkpt lat="44.95923" lon="4.19726">
        <ele>1303.42569</ele>
        <time>2026-08-23T11:43:27.176Z</time>
      </trkpt>
      <trkpt lat="44.95914" lon="4.19722">
        <ele>1303.690199</ele>
        <time>2026-08-23T11:43:31.172Z</time>
      </trkpt>
      <trkpt lat="44.95905" lon="4.19718">
        <ele>1303.932715</ele>
        <time>2026-08-23T11:43:35.447Z</time>
      </trkpt>
      <trkpt lat="44.95896" lon="4.1971">
        <ele>1304.210324</ele>
        <time>2026-08-23T11:43:39.131Z</time>
      </trkpt>
      <trkpt lat="44.95887" lon="4.19706">
        <ele>1304.475573</ele>
        <time>2026-08-23T11:43:43.163Z</time>
      </trkpt>
      <trkpt lat="44.95878" lon="4.19699">
        <ele>1304.760869</ele>
        <time>2026-08-23T11:43:47.184Z</time>
      </trkpt>
      <trkpt lat="44.95869" lon="4.19694">
        <ele>1305.006806</ele>
        <time>2026-08-23T11:43:51.131Z</time>
      </trkpt>
      <trkpt lat="44.95859" lon="4.19689">
        <ele>1305.280319</ele>
        <time>2026-08-23T11:43:55.133Z</time>
      </trkpt>
      <trkpt lat="44.9585" lon="4.19685">
        <ele>1305.55523</ele>
        <time>2026-08-23T11:43:59.180Z</time>
      </trkpt>
      <trkpt lat="44.9584" lon="4.19681">
        <ele>1305.825936</ele>
        <time>2026-08-23T11:44:03.161Z</time>
      </trkpt>
      <trkpt lat="44.9583" lon="4.19676">
        <ele>1306.107053</ele>
        <time>2026-08-23T11:44:07.176Z</time>
      </trkpt>
      <trkpt lat="44.95822" lon="4.19671">
        <ele>1306.355194</ele>
        <time>2026-08-23T11:44:11.174Z</time>
      </trkpt>
      <trkpt lat="44.95812" lon="4.19667">
        <ele>1306.619194</ele>
        <time>2026-08-23T11:44:16.176Z</time>
      </trkpt>
      <trkpt lat="44.95802" lon="4.19663">
        <ele>1306.889996</ele>
        <time>2026-08-23T11:44:21.180Z</time>
      </trkpt>
      <trkpt lat="44.95793" lon="4.19659">
        <ele>1307.152996</ele>
        <time>2026-08-23T11:44:26.184Z</time>
      </trkpt>
      <trkpt lat="44.95784" lon="4.19656">
        <ele>1307.398433</ele>
        <time>2026-08-23T11:44:31.179Z</time>
      </trkpt>
      <trkpt lat="44.95775" lon="4.19653">
        <ele>1307.705916</ele>
        <time>2026-08-23T11:44:36.181Z</time>
      </trkpt>
      <trkpt lat="44.95766" lon="4.1965">
        <ele>1308.482698</ele>
        <time>2026-08-23T11:44:41.178Z</time>
      </trkpt>
      <trkpt lat="44.95755" lon="4.19651">
        <ele>1309.305803</ele>
        <time>2026-08-23T11:44:46.171Z</time>
      </trkpt>
      <trkpt lat="44.95745" lon="4.1965">
        <ele>1310.076974</ele>
        <time>2026-08-23T11:44:51.176Z</time>
      </trkpt>
      <trkpt lat="44.95735" lon="4.19649">
        <ele>1310.878029</ele>
        <time>2026-08-23T11:44:55.181Z</time>
      </trkpt>
      <trkpt lat="44.95725" lon="4.19647">
        <ele>1311.649201</ele>
        <time>2026-08-23T11:44:59.166Z</time>
      </trkpt>
      <trkpt lat="44.95716" lon="4.19651">
        <ele>1312.433543</ele>
        <time>2026-08-23T11:45:05.175Z</time>
      </trkpt>
      <trkpt lat="44.95704" lon="4.19649">
        <ele>1313.339444</ele>
        <time>2026-08-23T11:45:09.175Z</time>
      </trkpt>
      <trkpt lat="44.95693" lon="4.19647">
        <ele>1314.20836</ele>
        <time>2026-08-23T11:45:14.184Z</time>
      </trkpt>
      <trkpt lat="44.95683" lon="4.19649">
        <ele>1315.013701</ele>
        <time>2026-08-23T11:45:19.179Z</time>
      </trkpt>
      <trkpt lat="44.95674" lon="4.19649">
        <ele>1315.727193</ele>
        <time>2026-08-23T11:45:26.172Z</time>
      </trkpt>
      <trkpt lat="44.95662" lon="4.19651">
        <ele>1316.626534</ele>
        <time>2026-08-23T11:45:32.176Z</time>
      </trkpt>
      <trkpt lat="44.95652" lon="4.1965">
        <ele>1317.462338</ele>
        <time>2026-08-23T11:45:36.171Z</time>
      </trkpt>
      <trkpt lat="44.95642" lon="4.19649">
        <ele>1318.238147</ele>
        <time>2026-08-23T11:45:41.188Z</time>
      </trkpt>
      <trkpt lat="44.95632" lon="4.19647">
        <ele>1319.001953</ele>
        <time>2026-08-23T11:45:47.174Z</time>
      </trkpt>
      <trkpt lat="44.95623" lon="4.19646">
        <ele>1319.749726</ele>
        <time>2026-08-23T11:45:52.176Z</time>
      </trkpt>
      <trkpt lat="44.95613" lon="4.19646">
        <ele>1320.495339</ele>
        <time>2026-08-23T11:45:57.187Z</time>
      </trkpt>
      <trkpt lat="44.95604" lon="4.1965">
        <ele>1321.26313</ele>
        <time>2026-08-23T11:46:02.172Z</time>
      </trkpt>
      <trkpt lat="44.95593" lon="4.19653">
        <ele>1321.866284</ele>
        <time>2026-08-23T11:46:08.177Z</time>
      </trkpt>
      <trkpt lat="44.95582" lon="4.19654">
        <ele>1322.254568</ele>
        <time>2026-08-23T11:46:12.180Z</time>
      </trkpt>
      <trkpt lat="44.95572" lon="4.19655">
        <ele>1322.572273</ele>
        <time>2026-08-23T11:46:16.177Z</time>
      </trkpt>
      <trkpt lat="44.95562" lon="4.19655">
        <ele>1322.906141</ele>
        <time>2026-08-23T11:46:20.180Z</time>
      </trkpt>
      <trkpt lat="44.95553" lon="4.19656">
        <ele>1323.207046</ele>
        <time>2026-08-23T11:46:23.181Z</time>
      </trkpt>
      <trkpt lat="44.95544" lon="4.19657">
        <ele>1323.515081</ele>
        <time>2026-08-23T11:46:26.183Z</time>
      </trkpt>
      <trkpt lat="44.95534" lon="4.19658">
        <ele>1323.856116</ele>
        <time>2026-08-23T11:46:30.176Z</time>
      </trkpt>
      <trkpt lat="44.95524" lon="4.19656">
        <ele>1324.201786</ele>
        <time>2026-08-23T11:46:34.181Z</time>
      </trkpt>
      <trkpt lat="44.95515" lon="4.19657">
        <ele>1324.502469</ele>
        <time>2026-08-23T11:46:38.185Z</time>
      </trkpt>
      <trkpt lat="44.95503" lon="4.19657">
        <ele>1324.876394</ele>
        <time>2026-08-23T11:46:42.176Z</time>
      </trkpt>
      <trkpt lat="44.95494" lon="4.19657">
        <ele>1325.176928</ele>
        <time>2026-08-23T11:46:45.175Z</time>
      </trkpt>
      <trkpt lat="44.95483" lon="4.19657">
        <ele>1325.544336</ele>
        <time>2026-08-23T11:46:49.180Z</time>
      </trkpt>
      <trkpt lat="44.95474" lon="4.1966">
        <ele>1325.857911</ele>
        <time>2026-08-23T11:46:54.177Z</time>
      </trkpt>
      <trkpt lat="44.95464" lon="4.19665">
        <ele>1326.206179</ele>
        <time>2026-08-23T11:46:59.177Z</time>
      </trkpt>
      <trkpt lat="44.95454" lon="4.19667">
        <ele>1326.553259</ele>
        <time>2026-08-23T11:47:03.176Z</time>
      </trkpt>
      <trkpt lat="44.95445" lon="4.1967">
        <ele>1326.878225</ele>
        <time>2026-08-23T11:47:07.187Z</time>
      </trkpt>
      <trkpt lat="44.95435" lon="4.19674">
        <ele>1327.220098</ele>
        <time>2026-08-23T11:47:11.165Z</time>
      </trkpt>
      <trkpt lat="44.95426" lon="4.19679">
        <ele>1327.54071</ele>
        <time>2026-08-23T11:47:15.178Z</time>
      </trkpt>
      <trkpt lat="44.95417" lon="4.19683">
        <ele>1328.039509</ele>
        <time>2026-08-23T11:47:19.181Z</time>
      </trkpt>
      <trkpt lat="44.95407" lon="4.19687">
        <ele>1328.764345</ele>
        <time>2026-08-23T11:47:23.173Z</time>
      </trkpt>
      <trkpt lat="44.95398" lon="4.19691">
        <ele>1329.426756</ele>
        <time>2026-08-23T11:47:28.179Z</time>
      </trkpt>
      <trkpt lat="44.95388" lon="4.19697">
        <ele>1330.1863</ele>
        <time>2026-08-23T11:47:33.132Z</time>
      </trkpt>
      <trkpt lat="44.95378" lon="4.19703">
        <ele>1330.971109</ele>
        <time>2026-08-23T11:47:39.185Z</time>
      </trkpt>
      <trkpt lat="44.95368" lon="4.19708">
        <ele>1331.707233</ele>
        <time>2026-08-23T11:47:44.171Z</time>
      </trkpt>
      <trkpt lat="44.9536" lon="4.19712">
        <ele>1332.349718</ele>
        <time>2026-08-23T11:47:48.163Z</time>
      </trkpt>
      <trkpt lat="44.95349" lon="4.19717">
        <ele>1333.108519</ele>
        <time>2026-08-23T11:47:53.176Z</time>
      </trkpt>
      <trkpt lat="44.95341" lon="4.19724">
        <ele>1333.837812</ele>
        <time>2026-08-23T11:47:58.167Z</time>
      </trkpt>
      <trkpt lat="44.95332" lon="4.19733">
        <ele>1334.566297</ele>
        <time>2026-08-23T11:48:03.176Z</time>
      </trkpt>
      <trkpt lat="44.95323" lon="4.19739">
        <ele>1335.283501</ele>
        <time>2026-08-23T11:48:08.171Z</time>
      </trkpt>
      <trkpt lat="44.95314" lon="4.19744">
        <ele>1335.981597</ele>
        <time>2026-08-23T11:48:13.183Z</time>
      </trkpt>
      <trkpt lat="44.95305" lon="4.19754">
        <ele>1336.748122</ele>
        <time>2026-08-23T11:48:18.176Z</time>
      </trkpt>
      <trkpt lat="44.95297" lon="4.19763">
        <ele>1337.519154</ele>
        <time>2026-08-23T11:48:23.176Z</time>
      </trkpt>
      <trkpt lat="44.9529" lon="4.19772">
        <ele>1338.16821</ele>
        <time>2026-08-23T11:48:28.184Z</time>
      </trkpt>
      <trkpt lat="44.9528" lon="4.19781">
        <ele>1338.977778</ele>
        <time>2026-08-23T11:48:33.179Z</time>
      </trkpt>
      <trkpt lat="44.95272" lon="4.19789">
        <ele>1339.697615</ele>
        <time>2026-08-23T11:48:38.171Z</time>
      </trkpt>
      <trkpt lat="44.95263" lon="4.19798">
        <ele>1340.440449</ele>
        <time>2026-08-23T11:48:43.172Z</time>
      </trkpt>
      <trkpt lat="44.95255" lon="4.19805">
        <ele>1340.754469</ele>
        <time>2026-08-23T11:48:47.179Z</time>
      </trkpt>
      <trkpt lat="44.95247" lon="4.19812">
        <ele>1341.036587</ele>
        <time>2026-08-23T11:48:52.182Z</time>
      </trkpt>
      <trkpt lat="44.95237" lon="4.19819">
        <ele>1341.377597</ele>
        <time>2026-08-23T11:48:57.179Z</time>
      </trkpt>
      <trkpt lat="44.95221" lon="4.19835">
        <ele>1341.970348</ele>
        <time>2026-08-23T11:50:36.176Z</time>
      </trkpt>
      <trkpt lat="44.95214" lon="4.19846">
        <ele>1342.303133</ele>
        <time>2026-08-23T11:50:41.179Z</time>
      </trkpt>
      <trkpt lat="44.95206" lon="4.19856">
        <ele>1342.623724</ele>
        <time>2026-08-23T11:50:45.177Z</time>
      </trkpt>
      <trkpt lat="44.95199" lon="4.19865">
        <ele>1342.914549</ele>
        <time>2026-08-23T11:50:49.180Z</time>
      </trkpt>
      <trkpt lat="44.95191" lon="4.19874">
        <ele>1343.250903</ele>
        <time>2026-08-23T11:50:54.172Z</time>
      </trkpt>
      <trkpt lat="44.95184" lon="4.19885">
        <ele>1343.563356</ele>
        <time>2026-08-23T11:50:59.169Z</time>
      </trkpt>
      <trkpt lat="44.95178" lon="4.19897">
        <ele>1343.892662</ele>
        <time>2026-08-23T11:51:04.174Z</time>
      </trkpt>
      <trkpt lat="44.95173" lon="4.19908">
        <ele>1344.181122</ele>
        <time>2026-08-23T11:51:07.178Z</time>
      </trkpt>
      <trkpt lat="44.95165" lon="4.19919">
        <ele>1344.507976</ele>
        <time>2026-08-23T11:51:10.181Z</time>
      </trkpt>
      <trkpt lat="44.95157" lon="4.1993">
        <ele>1344.851896</ele>
        <time>2026-08-23T11:51:13.175Z</time>
      </trkpt>
      <trkpt lat="44.95148" lon="4.19941">
        <ele>1345.221234</ele>
        <time>2026-08-23T11:51:16.175Z</time>
      </trkpt>
      <trkpt lat="44.95139" lon="4.19953">
        <ele>1345.618255</ele>
        <time>2026-08-23T11:51:19.171Z</time>
      </trkpt>
      <trkpt lat="44.95129" lon="4.19966">
        <ele>1345.929789</ele>
        <time>2026-08-23T11:51:22.179Z</time>
      </trkpt>
      <trkpt lat="44.9512" lon="4.1998">
        <ele>1345.657663</ele>
        <time>2026-08-23T11:51:25.175Z</time>
      </trkpt>
      <trkpt lat="44.95113" lon="4.19994">
        <ele>1345.400739</ele>
        <time>2026-08-23T11:51:28.172Z</time>
      </trkpt>
      <trkpt lat="44.95107" lon="4.20009">
        <ele>1345.145958</ele>
        <time>2026-08-23T11:51:31.172Z</time>
      </trkpt>
      <trkpt lat="44.95101" lon="4.20024">
        <ele>1344.886471</ele>
        <time>2026-08-23T11:51:34.173Z</time>
      </trkpt>
      <trkpt lat="44.95097" lon="4.20041">
        <ele>1344.607394</ele>
        <time>2026-08-23T11:51:37.171Z</time>
      </trkpt>
      <trkpt lat="44.95092" lon="4.20057">
        <ele>1344.34012</ele>
        <time>2026-08-23T11:51:40.176Z</time>
      </trkpt>
      <trkpt lat="44.95088" lon="4.20069">
        <ele>1344.148499</ele>
        <time>2026-08-23T11:51:42.176Z</time>
      </trkpt>
      <trkpt lat="44.95082" lon="4.20086">
        <ele>1343.863753</ele>
        <time>2026-08-23T11:51:45.175Z</time>
      </trkpt>
      <trkpt lat="44.95078" lon="4.20097">
        <ele>1343.670532</ele>
        <time>2026-08-23T11:51:47.177Z</time>
      </trkpt>
      <trkpt lat="44.95074" lon="4.20109">
        <ele>1343.470768</ele>
        <time>2026-08-23T11:51:49.169Z</time>
      </trkpt>
      <trkpt lat="44.95069" lon="4.20126">
        <ele>1343.202903</ele>
        <time>2026-08-23T11:51:52.171Z</time>
      </trkpt>
      <trkpt lat="44.95063" lon="4.20141">
        <ele>1342.934153</ele>
        <time>2026-08-23T11:51:55.180Z</time>
      </trkpt>
      <trkpt lat="44.9506" lon="4.20157">
        <ele>1342.693118</ele>
        <time>2026-08-23T11:51:58.170Z</time>
      </trkpt>
      <trkpt lat="44.95059" lon="4.2017">
        <ele>1342.491454</ele>
        <time>2026-08-23T11:52:01.158Z</time>
      </trkpt>
      <trkpt lat="44.95056" lon="4.20184">
        <ele>1342.271766</ele>
        <time>2026-08-23T11:52:04.174Z</time>
      </trkpt>
      <trkpt lat="44.95053" lon="4.20201">
        <ele>1342.412678</ele>
        <time>2026-08-23T11:52:07.157Z</time>
      </trkpt>
      <trkpt lat="44.95051" lon="4.20216">
        <ele>1342.82665</ele>
        <time>2026-08-23T11:52:10.173Z</time>
      </trkpt>
      <trkpt lat="44.95048" lon="4.2023">
        <ele>1343.231318</ele>
        <time>2026-08-23T11:52:13.172Z</time>
      </trkpt>
      <trkpt lat="44.95043" lon="4.20242">
        <ele>1343.614231</ele>
        <time>2026-08-23T11:52:16.172Z</time>
      </trkpt>
      <trkpt lat="44.95042" lon="4.20255">
        <ele>1343.979896</ele>
        <time>2026-08-23T11:52:19.170Z</time>
      </trkpt>
      <trkpt lat="44.9504" lon="4.2027">
        <ele>1344.385633</ele>
        <time>2026-08-23T11:52:24.179Z</time>
      </trkpt>
      <trkpt lat="44.95037" lon="4.20282">
        <ele>1344.750512</ele>
        <time>2026-08-23T11:52:28.171Z</time>
      </trkpt>
      <trkpt lat="44.95029" lon="4.20292">
        <ele>1345.164218</ele>
        <time>2026-08-23T11:52:32.171Z</time>
      </trkpt>
      <trkpt lat="44.95023" lon="4.20303">
        <ele>1345.538468</ele>
        <time>2026-08-23T11:52:36.177Z</time>
      </trkpt>
      <trkpt lat="44.95017" lon="4.20313">
        <ele>1345.901901</ele>
        <time>2026-08-23T11:52:39.173Z</time>
      </trkpt>
      <trkpt lat="44.95009" lon="4.20324">
        <ele>1346.338916</ele>
        <time>2026-08-23T11:52:43.176Z</time>
      </trkpt>
      <trkpt lat="44.95004" lon="4.20339">
        <ele>1346.789419</ele>
        <time>2026-08-23T11:52:47.173Z</time>
      </trkpt>
      <trkpt lat="44.95002" lon="4.20352">
        <ele>1347.154357</ele>
        <time>2026-08-23T11:52:50.172Z</time>
      </trkpt>
      <trkpt lat="44.94998" lon="4.20364">
        <ele>1347.537528</ele>
        <time>2026-08-23T11:52:55.178Z</time>
      </trkpt>
      <trkpt lat="44.94992" lon="4.20377">
        <ele>1347.968186</ele>
        <time>2026-08-23T11:53:00.172Z</time>
      </trkpt>
      <trkpt lat="44.94983" lon="4.20384">
        <ele>1348.351932</ele>
        <time>2026-08-23T11:53:03.174Z</time>
      </trkpt>
      <trkpt lat="44.94974" lon="4.2039">
        <ele>1348.743696</ele>
        <time>2026-08-23T11:53:06.180Z</time>
      </trkpt>
      <trkpt lat="44.94963" lon="4.20397">
        <ele>1349.160983</ele>
        <time>2026-08-23T11:53:09.174Z</time>
      </trkpt>
      <trkpt lat="44.94953" lon="4.20403">
        <ele>1349.155914</ele>
        <time>2026-08-23T11:53:11.173Z</time>
      </trkpt>
      <trkpt lat="44.94944" lon="4.20409">
        <ele>1349.151168</ele>
        <time>2026-08-23T11:53:13.181Z</time>
      </trkpt>
      <trkpt lat="44.94937" lon="4.20416">
        <ele>1349.146738</ele>
        <time>2026-08-23T11:53:15.175Z</time>
      </trkpt>
      <trkpt lat="44.94927" lon="4.20425">
        <ele>1349.140997</ele>
        <time>2026-08-23T11:53:18.172Z</time>
      </trkpt>
      <trkpt lat="44.94919" lon="4.20432">
        <ele>1349.136341</ele>
        <time>2026-08-23T11:53:20.174Z</time>
      </trkpt>
      <trkpt lat="44.94909" lon="4.20439">
        <ele>1349.131255</ele>
        <time>2026-08-23T11:53:22.174Z</time>
      </trkpt>
      <trkpt lat="44.94898" lon="4.20448">
        <ele>1349.124805</ele>
        <time>2026-08-23T11:53:25.179Z</time>
      </trkpt>
      <trkpt lat="44.94887" lon="4.20454">
        <ele>1349.119063</ele>
        <time>2026-08-23T11:53:28.171Z</time>
      </trkpt>
      <trkpt lat="44.94875" lon="4.20459">
        <ele>1349.113099</ele>
        <time>2026-08-23T11:53:31.179Z</time>
      </trkpt>
      <trkpt lat="44.94862" lon="4.20462">
        <ele>1349.106864</ele>
        <time>2026-08-23T11:53:34.171Z</time>
      </trkpt>
      <trkpt lat="44.94852" lon="4.20462">
        <ele>1349.102118</ele>
        <time>2026-08-23T11:53:36.172Z</time>
      </trkpt>
      <trkpt lat="44.9484" lon="4.2046">
        <ele>1349.096027</ele>
        <time>2026-08-23T11:53:39.147Z</time>
      </trkpt>
      <trkpt lat="44.94829" lon="4.20453">
        <ele>1349.090548</ele>
        <time>2026-08-23T11:53:42.189Z</time>
      </trkpt>
      <trkpt lat="44.94818" lon="4.20449">
        <ele>1349.085004</ele>
        <time>2026-08-23T11:53:45.179Z</time>
      </trkpt>
      <trkpt lat="44.94807" lon="4.20443">
        <ele>1349.079034</ele>
        <time>2026-08-23T11:53:48.186Z</time>
      </trkpt>
      <trkpt lat="44.94798" lon="4.20438">
        <ele>1349.069293</ele>
        <time>2026-08-23T11:53:51.174Z</time>
      </trkpt>
      <trkpt lat="44.94788" lon="4.20433">
        <ele>1348.669019</ele>
        <time>2026-08-23T11:53:55.177Z</time>
      </trkpt>
      <trkpt lat="44.94779" lon="4.2043">
        <ele>1348.337394</ele>
        <time>2026-08-23T11:53:58.175Z</time>
      </trkpt>
      <trkpt lat="44.9477" lon="4.20424">
        <ele>1347.983681</ele>
        <time>2026-08-23T11:54:01.176Z</time>
      </trkpt>
      <trkpt lat="44.9476" lon="4.20417">
        <ele>1347.583849</ele>
        <time>2026-08-23T11:54:04.173Z</time>
      </trkpt>
      <trkpt lat="44.94749" lon="4.20409">
        <ele>1347.140615</ele>
        <time>2026-08-23T11:54:07.170Z</time>
      </trkpt>
      <trkpt lat="44.94739" lon="4.20403">
        <ele>1346.730161</ele>
        <time>2026-08-23T11:54:10.177Z</time>
      </trkpt>
      <trkpt lat="44.94728" lon="4.20395">
        <ele>1346.285546</ele>
        <time>2026-08-23T11:54:13.175Z</time>
      </trkpt>
      <trkpt lat="44.94719" lon="4.2039">
        <ele>1345.956974</ele>
        <time>2026-08-23T11:54:15.175Z</time>
      </trkpt>
      <trkpt lat="44.94709" lon="4.20386">
        <ele>1345.575868</ele>
        <time>2026-08-23T11:54:17.177Z</time>
      </trkpt>
      <trkpt lat="44.94697" lon="4.20382">
        <ele>1345.115463</ele>
        <time>2026-08-23T11:54:19.173Z</time>
      </trkpt>
      <trkpt lat="44.94685" lon="4.2038">
        <ele>1344.692452</ele>
        <time>2026-08-23T11:54:21.177Z</time>
      </trkpt>
      <trkpt lat="44.94673" lon="4.2038">
        <ele>1344.23997</ele>
        <time>2026-08-23T11:54:23.179Z</time>
      </trkpt>
      <trkpt lat="44.9466" lon="4.20382">
        <ele>1343.7882</ele>
        <time>2026-08-23T11:54:25.170Z</time>
      </trkpt>
      <trkpt lat="44.94648" lon="4.20386">
        <ele>1343.338785</ele>
        <time>2026-08-23T11:54:27.191Z</time>
      </trkpt>
      <trkpt lat="44.94637" lon="4.20392">
        <ele>1342.900922</ele>
        <time>2026-08-23T11:54:29.173Z</time>
      </trkpt>
      <trkpt lat="44.94626" lon="4.20396">
        <ele>1342.51642</ele>
        <time>2026-08-23T11:54:31.174Z</time>
      </trkpt>
      <trkpt lat="44.94615" lon="4.20401">
        <ele>1342.282389</ele>
        <time>2026-08-23T11:54:33.176Z</time>
      </trkpt>
      <trkpt lat="44.94604" lon="4.20407">
        <ele>1342.045028</ele>
        <time>2026-08-23T11:54:35.180Z</time>
      </trkpt>
      <trkpt lat="44.94594" lon="4.20412">
        <ele>1341.808592</ele>
        <time>2026-08-23T11:54:37.177Z</time>
      </trkpt>
      <trkpt lat="44.94581" lon="4.20418">
        <ele>1341.533383</ele>
        <time>2026-08-23T11:54:39.173Z</time>
      </trkpt>
      <trkpt lat="44.94568" lon="4.20423">
        <ele>1341.240169</ele>
        <time>2026-08-23T11:54:41.172Z</time>
      </trkpt>
      <trkpt lat="44.94553" lon="4.20428">
        <ele>1340.923162</ele>
        <time>2026-08-23T11:54:43.170Z</time>
      </trkpt>
      <trkpt lat="44.9454" lon="4.20432">
        <ele>1340.640291</ele>
        <time>2026-08-23T11:54:45.181Z</time>
      </trkpt>
      <trkpt lat="44.94527" lon="4.20434">
        <ele>1340.38458</ele>
        <time>2026-08-23T11:54:47.171Z</time>
      </trkpt>
      <trkpt lat="44.94515" lon="4.20435">
        <ele>1340.13407</ele>
        <time>2026-08-23T11:54:49.182Z</time>
      </trkpt>
      <trkpt lat="44.94504" lon="4.20437">
        <ele>1339.900799</ele>
        <time>2026-08-23T11:54:51.174Z</time>
      </trkpt>
      <trkpt lat="44.94493" lon="4.20438">
        <ele>1339.662595</ele>
        <time>2026-08-23T11:54:53.173Z</time>
      </trkpt>
      <trkpt lat="44.94481" lon="4.20437">
        <ele>1339.422747</ele>
        <time>2026-08-23T11:54:55.173Z</time>
      </trkpt>
      <trkpt lat="44.94471" lon="4.20438">
        <ele>1339.201754</ele>
        <time>2026-08-23T11:54:57.181Z</time>
      </trkpt>
      <trkpt lat="44.94461" lon="4.20436">
        <ele>1338.998635</ele>
        <time>2026-08-23T11:54:59.180Z</time>
      </trkpt>
      <trkpt lat="44.94452" lon="4.20433">
        <ele>1338.855599</ele>
        <time>2026-08-23T11:55:01.171Z</time>
      </trkpt>
      <trkpt lat="44.9444" lon="4.2043">
        <ele>1339.517988</ele>
        <time>2026-08-23T11:55:04.169Z</time>
      </trkpt>
      <trkpt lat="44.9443" lon="4.20427">
        <ele>1340.114861</ele>
        <time>2026-08-23T11:55:07.172Z</time>
      </trkpt>
      <trkpt lat="44.9442" lon="4.20423">
        <ele>1340.688493</ele>
        <time>2026-08-23T11:55:10.174Z</time>
      </trkpt>
      <trkpt lat="44.94409" lon="4.20421">
        <ele>1341.343552</ele>
        <time>2026-08-23T11:55:14.181Z</time>
      </trkpt>
      <trkpt lat="44.94399" lon="4.20414">
        <ele>1341.954781</ele>
        <time>2026-08-23T11:55:18.175Z</time>
      </trkpt>
      <trkpt lat="44.9439" lon="4.20408">
        <ele>1342.504603</ele>
        <time>2026-08-23T11:55:21.179Z</time>
      </trkpt>
      <trkpt lat="44.94381" lon="4.20406">
        <ele>1343.020866</ele>
        <time>2026-08-23T11:55:25.143Z</time>
      </trkpt>
      <trkpt lat="44.94371" lon="4.20403">
        <ele>1343.610645</ele>
        <time>2026-08-23T11:55:30.136Z</time>
      </trkpt>
      <trkpt lat="44.94361" lon="4.20398">
        <ele>1344.181579</ele>
        <time>2026-08-23T11:55:35.168Z</time>
      </trkpt>
      <trkpt lat="44.94352" lon="4.20397">
        <ele>1344.692247</ele>
        <time>2026-08-23T11:55:40.153Z</time>
      </trkpt>
      <trkpt lat="44.94343" lon="4.20393">
        <ele>1345.255337</ele>
        <time>2026-08-23T11:55:45.132Z</time>
      </trkpt>
      <trkpt lat="44.94333" lon="4.20388">
        <ele>1345.86094</ele>
        <time>2026-08-23T11:55:51.137Z</time>
      </trkpt>
      <trkpt lat="44.94324" lon="4.20385">
        <ele>1346.369248</ele>
        <time>2026-08-23T11:55:56.198Z</time>
      </trkpt>
      <trkpt lat="44.94314" lon="4.20382">
        <ele>1346.91411</ele>
        <time>2026-08-23T11:56:01.161Z</time>
      </trkpt>
      <trkpt lat="44.94304" lon="4.2038">
        <ele>1347.484203</ele>
        <time>2026-08-23T11:56:07.138Z</time>
      </trkpt>
      <trkpt lat="44.94294" lon="4.20377">
        <ele>1348.067705</ele>
        <time>2026-08-23T11:56:12.178Z</time>
      </trkpt>
      <trkpt lat="44.94284" lon="4.20376">
        <ele>1348.632524</ele>
        <time>2026-08-23T11:56:17.157Z</time>
      </trkpt>
      <trkpt lat="44.94274" lon="4.20375">
        <ele>1349.384647</ele>
        <time>2026-08-23T11:56:24.178Z</time>
      </trkpt>
      <trkpt lat="44.94263" lon="4.20371">
        <ele>1350.331849</ele>
        <time>2026-08-23T11:56:30.177Z</time>
      </trkpt>
      <trkpt lat="44.94254" lon="4.20368">
        <ele>1351.126275</ele>
        <time>2026-08-23T11:56:35.155Z</time>
      </trkpt>
      <trkpt lat="44.94245" lon="4.20366">
        <ele>1351.895618</ele>
        <time>2026-08-23T11:56:40.169Z</time>
      </trkpt>
      <trkpt lat="44.94236" lon="4.20361">
        <ele>1352.691303</ele>
        <time>2026-08-23T11:56:46.176Z</time>
      </trkpt>
      <trkpt lat="44.94226" lon="4.20356">
        <ele>1353.603659</ele>
        <time>2026-08-23T11:56:52.177Z</time>
      </trkpt>
      <trkpt lat="44.94216" lon="4.20352">
        <ele>1354.463618</ele>
        <time>2026-08-23T11:56:57.184Z</time>
      </trkpt>
      <trkpt lat="44.94207" lon="4.20346">
        <ele>1355.387555</ele>
        <time>2026-08-23T11:57:02.173Z</time>
      </trkpt>
      <trkpt lat="44.94199" lon="4.20338">
        <ele>1356.204326</ele>
        <time>2026-08-23T11:57:07.173Z</time>
      </trkpt>
      <trkpt lat="44.9419" lon="4.20331">
        <ele>1357.022321</ele>
        <time>2026-08-23T11:57:12.177Z</time>
      </trkpt>
      <trkpt lat="44.9418" lon="4.20325">
        <ele>1357.946933</ele>
        <time>2026-08-23T11:57:17.173Z</time>
      </trkpt>
      <trkpt lat="44.94172" lon="4.20318">
        <ele>1358.803895</ele>
        <time>2026-08-23T11:57:21.179Z</time>
      </trkpt>
      <trkpt lat="44.94162" lon="4.20311">
        <ele>1359.72545</ele>
        <time>2026-08-23T11:57:26.178Z</time>
      </trkpt>
      <trkpt lat="44.94153" lon="4.20304">
        <ele>1360.576199</ele>
        <time>2026-08-23T11:57:31.172Z</time>
      </trkpt>
      <trkpt lat="44.94143" lon="4.20301">
        <ele>1361.479545</ele>
        <time>2026-08-23T11:57:36.176Z</time>
      </trkpt>
      <trkpt lat="44.94134" lon="4.20297">
        <ele>1362.276013</ele>
        <time>2026-08-23T11:57:40.175Z</time>
      </trkpt>
      <trkpt lat="44.94123" lon="4.20294">
        <ele>1363.227234</ele>
        <time>2026-08-23T11:57:45.180Z</time>
      </trkpt>
      <trkpt lat="44.94113" lon="4.2029">
        <ele>1364.104204</ele>
        <time>2026-08-23T11:57:49.175Z</time>
      </trkpt>
      <trkpt lat="44.94103" lon="4.20285">
        <ele>1364.882869</ele>
        <time>2026-08-23T11:57:55.175Z</time>
      </trkpt>
      <trkpt lat="44.94093" lon="4.20281">
        <ele>1365.586731</ele>
        <time>2026-08-23T11:58:00.184Z</time>
      </trkpt>
      <trkpt lat="44.94084" lon="4.20281">
        <ele>1366.22546</ele>
        <time>2026-08-23T11:58:05.170Z</time>
      </trkpt>
      <trkpt lat="44.94075" lon="4.20279">
        <ele>1366.910197</ele>
        <time>2026-08-23T11:58:10.176Z</time>
      </trkpt>
      <trkpt lat="44.94065" lon="4.20278">
        <ele>1367.597877</ele>
        <time>2026-08-23T11:58:15.180Z</time>
      </trkpt>
      <trkpt lat="44.94055" lon="4.20278">
        <ele>1368.277568</ele>
        <time>2026-08-23T11:58:20.179Z</time>
      </trkpt>
      <trkpt lat="44.94045" lon="4.20279">
        <ele>1369.000219</ele>
        <time>2026-08-23T11:58:26.174Z</time>
      </trkpt>
      <trkpt lat="44.94035" lon="4.2028">
        <ele>1369.683807</ele>
        <time>2026-08-23T11:58:31.176Z</time>
      </trkpt>
      <trkpt lat="44.94025" lon="4.20281">
        <ele>1370.372129</ele>
        <time>2026-08-23T11:58:35.176Z</time>
      </trkpt>
      <trkpt lat="44.94015" lon="4.20286">
        <ele>1371.125285</ele>
        <time>2026-08-23T11:58:40.172Z</time>
      </trkpt>
      <trkpt lat="44.94006" lon="4.20292">
        <ele>1371.803473</ele>
        <time>2026-08-23T11:58:45.171Z</time>
      </trkpt>
      <trkpt lat="44.93999" lon="4.20299">
        <ele>1372.455897</ele>
        <time>2026-08-23T11:58:50.179Z</time>
      </trkpt>
      <trkpt lat="44.93989" lon="4.20308">
        <ele>1373.24102</ele>
        <time>2026-08-23T11:58:55.177Z</time>
      </trkpt>
      <trkpt lat="44.93982" lon="4.20318">
        <ele>1373.938423</ele>
        <time>2026-08-23T11:59:00.184Z</time>
      </trkpt>
      <trkpt lat="44.93973" lon="4.20325">
        <ele>1374.670455</ele>
        <time>2026-08-23T11:59:04.173Z</time>
      </trkpt>
      <trkpt lat="44.93966" lon="4.20333">
        <ele>1375.317089</ele>
        <time>2026-08-23T11:59:08.175Z</time>
      </trkpt>
      <trkpt lat="44.93957" lon="4.20342">
        <ele>1376.075496</ele>
        <time>2026-08-23T11:59:12.180Z</time>
      </trkpt>
      <trkpt lat="44.9395" lon="4.20352">
        <ele>1376.79333</ele>
        <time>2026-08-23T11:59:16.178Z</time>
      </trkpt>
      <trkpt lat="44.93944" lon="4.20363">
        <ele>1377.215292</ele>
        <time>2026-08-23T11:59:20.175Z</time>
      </trkpt>
      <trkpt lat="44.93937" lon="4.20375">
        <ele>1377.664077</ele>
        <time>2026-08-23T11:59:25.171Z</time>
      </trkpt>
      <trkpt lat="44.93929" lon="4.20387">
        <ele>1378.097528</ele>
        <time>2026-08-23T11:59:29.172Z</time>
      </trkpt>
      <trkpt lat="44.93921" lon="4.20396">
        <ele>1378.507856</ele>
        <time>2026-08-23T11:59:33.175Z</time>
      </trkpt>
      <trkpt lat="44.93912" lon="4.20402">
        <ele>1378.923178</ele>
        <time>2026-08-23T11:59:37.184Z</time>
      </trkpt>
      <trkpt lat="44.939" lon="4.20401">
        <ele>1379.376863</ele>
        <time>2026-08-23T11:59:41.176Z</time>
      </trkpt>
      <trkpt lat="44.93891" lon="4.20397">
        <ele>1379.772825</ele>
        <time>2026-08-23T11:59:44.177Z</time>
      </trkpt>
      <trkpt lat="44.93881" lon="4.20394">
        <ele>1380.15774</ele>
        <time>2026-08-23T11:59:47.174Z</time>
      </trkpt>
      <trkpt lat="44.93869" lon="4.20395">
        <ele>1380.635148</ele>
        <time>2026-08-23T11:59:51.177Z</time>
      </trkpt>
      <trkpt lat="44.93859" lon="4.20397">
        <ele>1381.042089</ele>
        <time>2026-08-23T11:59:54.174Z</time>
      </trkpt>
      <trkpt lat="44.93849" lon="4.20399">
        <ele>1381.463536</ele>
        <time>2026-08-23T11:59:57.180Z</time>
      </trkpt>
      <trkpt lat="44.93839" lon="4.20402">
        <ele>1381.859761</ele>
        <time>2026-08-23T12:00:00.137Z</time>
      </trkpt>
      <trkpt lat="44.9383" lon="4.20407">
        <ele>1382.239523</ele>
        <time>2026-08-23T12:00:04.136Z</time>
      </trkpt>
      <trkpt lat="44.93821" lon="4.20411">
        <ele>1382.630554</ele>
        <time>2026-08-23T12:00:08.178Z</time>
      </trkpt>
      <trkpt lat="44.9381" lon="4.20412">
        <ele>1383.056772</ele>
        <time>2026-08-23T12:00:12.177Z</time>
      </trkpt>
      <trkpt lat="44.93801" lon="4.20413">
        <ele>1383.425157</ele>
        <time>2026-08-23T12:00:16.175Z</time>
      </trkpt>
      <trkpt lat="44.93791" lon="4.20411">
        <ele>1383.811154</ele>
        <time>2026-08-23T12:00:21.177Z</time>
      </trkpt>
      <trkpt lat="44.93781" lon="4.20413">
        <ele>1384.472609</ele>
        <time>2026-08-23T12:00:26.172Z</time>
      </trkpt>
      <trkpt lat="44.93772" lon="4.20417">
        <ele>1385.445258</ele>
        <time>2026-08-23T12:00:31.179Z</time>
      </trkpt>
      <trkpt lat="44.93762" lon="4.20419">
        <ele>1386.387679</ele>
        <time>2026-08-23T12:00:36.183Z</time>
      </trkpt>
      <trkpt lat="44.93754" lon="4.20423">
        <ele>1387.27927</ele>
        <time>2026-08-23T12:00:43.180Z</time>
      </trkpt>
      <trkpt lat="44.93744" lon="4.20424">
        <ele>1388.239197</ele>
        <time>2026-08-23T12:00:50.176Z</time>
      </trkpt>
      <trkpt lat="44.93734" lon="4.20422">
        <ele>1389.21176</ele>
        <time>2026-08-23T12:00:57.172Z</time>
      </trkpt>
      <trkpt lat="44.93725" lon="4.2042">
        <ele>1390.158675</ele>
        <time>2026-08-23T12:01:03.155Z</time>
      </trkpt>
      <trkpt lat="44.93715" lon="4.20416">
        <ele>1391.095357</ele>
        <time>2026-08-23T12:01:09.176Z</time>
      </trkpt>
      <trkpt lat="44.93707" lon="4.2041">
        <ele>1392.05411</ele>
        <time>2026-08-23T12:01:15.157Z</time>
      </trkpt>
      <trkpt lat="44.93697" lon="4.20405">
        <ele>1393.067241</ele>
        <time>2026-08-23T12:01:20.181Z</time>
      </trkpt>
      <trkpt lat="44.93689" lon="4.20397">
        <ele>1394.03382</ele>
        <time>2026-08-23T12:01:25.180Z</time>
      </trkpt>
      <trkpt lat="44.93684" lon="4.20384">
        <ele>1395.045856</ele>
        <time>2026-08-23T12:01:30.175Z</time>
      </trkpt>
      <trkpt lat="44.93681" lon="4.20372">
        <ele>1395.936517</ele>
        <time>2026-08-23T12:01:34.166Z</time>
      </trkpt>
      <trkpt lat="44.93678" lon="4.20359">
        <ele>1396.90694</ele>
        <time>2026-08-23T12:01:39.179Z</time>
      </trkpt>
      <trkpt lat="44.93678" lon="4.20342">
        <ele>1398.088074</ele>
        <time>2026-08-23T12:01:44.177Z</time>
      </trkpt>
      <trkpt lat="44.93679" lon="4.20326">
        <ele>1399.19288</ele>
        <time>2026-08-23T12:01:48.175Z</time>
      </trkpt>
      <trkpt lat="44.93678" lon="4.20311">
        <ele>1400.254127</ele>
        <time>2026-08-23T12:01:53.175Z</time>
      </trkpt>
      <trkpt lat="44.93678" lon="4.20296">
        <ele>1401.305173</ele>
        <time>2026-08-23T12:01:57.175Z</time>
      </trkpt>
      <trkpt lat="44.93675" lon="4.2028">
        <ele>1401.607312</ele>
        <time>2026-08-23T12:02:01.172Z</time>
      </trkpt>
      <trkpt lat="44.93673" lon="4.20266">
        <ele>1401.509682</ele>
        <time>2026-08-23T12:02:06.182Z</time>
      </trkpt>
      <trkpt lat="44.9367" lon="4.2025">
        <ele>1401.405164</ele>
        <time>2026-08-23T12:02:11.187Z</time>
      </trkpt>
      <trkpt lat="44.93667" lon="4.20236">
        <ele>1401.308938</ele>
        <time>2026-08-23T12:02:15.183Z</time>
      </trkpt>
      <trkpt lat="44.93665" lon="4.2022">
        <ele>1401.200359</ele>
        <time>2026-08-23T12:02:19.175Z</time>
      </trkpt>
      <trkpt lat="44.93663" lon="4.20207">
        <ele>1401.110725</ele>
        <time>2026-08-23T12:02:23.176Z</time>
      </trkpt>
      <trkpt lat="44.93656" lon="4.20194">
        <ele>1401.003078</ele>
        <time>2026-08-23T12:03:24.176Z</time>
      </trkpt>
      <trkpt lat="44.93652" lon="4.20179">
        <ele>1400.896216</ele>
        <time>2026-08-23T12:03:29.178Z</time>
      </trkpt>
      <trkpt lat="44.93648" lon="4.20165">
        <ele>1400.798404</ele>
        <time>2026-08-23T12:03:33.181Z</time>
      </trkpt>
      <trkpt lat="44.93644" lon="4.20152">
        <ele>1400.701886</ele>
        <time>2026-08-23T12:03:37.176Z</time>
      </trkpt>
      <trkpt lat="44.9364" lon="4.20137">
        <ele>1400.598678</ele>
        <time>2026-08-23T12:03:40.178Z</time>
      </trkpt>
      <trkpt lat="44.93635" lon="4.20123">
        <ele>1400.496404</ele>
        <time>2026-08-23T12:03:43.182Z</time>
      </trkpt>
      <trkpt lat="44.93631" lon="4.20108">
        <ele>1400.386647</ele>
        <time>2026-08-23T12:03:46.175Z</time>
      </trkpt>
      <trkpt lat="44.93626" lon="4.2009">
        <ele>1400.263989</ele>
        <time>2026-08-23T12:03:49.176Z</time>
      </trkpt>
      <trkpt lat="44.93623" lon="4.20078">
        <ele>1400.1761</ele>
        <time>2026-08-23T12:03:51.179Z</time>
      </trkpt>
      <trkpt lat="44.9362" lon="4.20065">
        <ele>1400.089148</ele>
        <time>2026-08-23T12:03:53.176Z</time>
      </trkpt>
      <trkpt lat="44.93618" lon="4.20051">
        <ele>1400.062435</ele>
        <time>2026-08-23T12:03:55.181Z</time>
      </trkpt>
      <trkpt lat="44.93615" lon="4.20037">
        <ele>1400.619925</ele>
        <time>2026-08-23T12:03:57.176Z</time>
      </trkpt>
      <trkpt lat="44.93613" lon="4.20024">
        <ele>1401.132614</ele>
        <time>2026-08-23T12:03:59.174Z</time>
      </trkpt>
      <trkpt lat="44.93611" lon="4.20012">
        <ele>1401.630682</ele>
        <time>2026-08-23T12:04:01.182Z</time>
      </trkpt>
      <trkpt lat="44.93611" lon="4.19994">
        <ele>1402.30673</ele>
        <time>2026-08-23T12:04:04.176Z</time>
      </trkpt>
      <trkpt lat="44.93613" lon="4.19978">
        <ele>1402.939067</ele>
        <time>2026-08-23T12:04:07.177Z</time>
      </trkpt>
      <trkpt lat="44.93613" lon="4.19963">
        <ele>1403.50279</ele>
        <time>2026-08-23T12:04:12.177Z</time>
      </trkpt>
      <trkpt lat="44.93612" lon="4.19949">
        <ele>1404.052397</ele>
        <time>2026-08-23T12:04:18.173Z</time>
      </trkpt>
      <trkpt lat="44.93612" lon="4.19935">
        <ele>1404.593201</ele>
        <time>2026-08-23T12:04:24.172Z</time>
      </trkpt>
      <trkpt lat="44.9361" lon="4.19922">
        <ele>1405.123618</ele>
        <time>2026-08-23T12:04:29.181Z</time>
      </trkpt>
      <trkpt lat="44.93609" lon="4.19908">
        <ele>1405.658709</ele>
        <time>2026-08-23T12:04:35.178Z</time>
      </trkpt>
      <trkpt lat="44.93607" lon="4.19893">
        <ele>1406.223312</ele>
        <time>2026-08-23T12:04:42.178Z</time>
      </trkpt>
      <trkpt lat="44.93607" lon="4.19878">
        <ele>1406.833369</ele>
        <time>2026-08-23T12:04:47.188Z</time>
      </trkpt>
      <trkpt lat="44.93609" lon="4.19863">
        <ele>1407.422722</ele>
        <time>2026-08-23T12:04:52.177Z</time>
      </trkpt>
      <trkpt lat="44.93608" lon="4.19848">
        <ele>1407.991981</ele>
        <time>2026-08-23T12:04:59.179Z</time>
      </trkpt>
      <trkpt lat="44.93608" lon="4.19834">
        <ele>1408.544229</ele>
        <time>2026-08-23T12:05:05.179Z</time>
      </trkpt>
      <trkpt lat="44.93607" lon="4.19818">
        <ele>1409.145184</ele>
        <time>2026-08-23T12:05:10.181Z</time>
      </trkpt>
      <trkpt lat="44.93606" lon="4.19805">
        <ele>1409.65628</ele>
        <time>2026-08-23T12:05:14.172Z</time>
      </trkpt>
      <trkpt lat="44.93606" lon="4.19792">
        <ele>1410.529983</ele>
        <time>2026-08-23T12:05:18.180Z</time>
      </trkpt>
      <trkpt lat="44.93603" lon="4.19777">
        <ele>1411.721913</ele>
        <time>2026-08-23T12:05:24.180Z</time>
      </trkpt>
      <trkpt lat="44.936" lon="4.19764">
        <ele>1412.819928</ele>
        <time>2026-08-23T12:05:29.184Z</time>
      </trkpt>
      <trkpt lat="44.93596" lon="4.19752">
        <ele>1413.934692</ele>
        <time>2026-08-23T12:05:34.180Z</time>
      </trkpt>
      <trkpt lat="44.93592" lon="4.19739">
        <ele>1415.061535</ele>
        <time>2026-08-23T12:05:40.175Z</time>
      </trkpt>
      <trkpt lat="44.93586" lon="4.19728">
        <ele>1416.133011</ele>
        <time>2026-08-23T12:05:47.171Z</time>
      </trkpt>
      <trkpt lat="44.93581" lon="4.19717">
        <ele>1417.250241</ele>
        <time>2026-08-23T12:05:53.177Z</time>
      </trkpt>
      <trkpt lat="44.93576" lon="4.19704">
        <ele>1418.418662</ele>
        <time>2026-08-23T12:05:59.175Z</time>
      </trkpt>
      <trkpt lat="44.93572" lon="4.19691">
        <ele>1419.567218</ele>
        <time>2026-08-23T12:06:05.177Z</time>
      </trkpt>
      <trkpt lat="44.93566" lon="4.1968">
        <ele>1420.612529</ele>
        <time>2026-08-23T12:06:11.174Z</time>
      </trkpt>
      <trkpt lat="44.9356" lon="4.19668">
        <ele>1421.809313</ele>
        <time>2026-08-23T12:06:17.170Z</time>
      </trkpt>
      <trkpt lat="44.93556" lon="4.19657">
        <ele>1422.834931</ele>
        <time>2026-08-23T12:06:22.177Z</time>
      </trkpt>
      <trkpt lat="44.93551" lon="4.19646">
        <ele>1423.861174</ele>
        <time>2026-08-23T12:06:28.175Z</time>
      </trkpt>
      <trkpt lat="44.93547" lon="4.19633">
        <ele>1425.01049</ele>
        <time>2026-08-23T12:06:33.178Z</time>
      </trkpt>
      <trkpt lat="44.93543" lon="4.19619">
        <ele>1426.249728</ele>
        <time>2026-08-23T12:06:39.178Z</time>
      </trkpt>
      <trkpt lat="44.9354" lon="4.19606">
        <ele>1427.289445</ele>
        <time>2026-08-23T12:06:44.182Z</time>
      </trkpt>
      <trkpt lat="44.93537" lon="4.19592">
        <ele>1428.489566</ele>
        <time>2026-08-23T12:06:50.187Z</time>
      </trkpt>
      <trkpt lat="44.93534" lon="4.19578">
        <ele>1429.670675</ele>
        <time>2026-08-23T12:06:56.174Z</time>
      </trkpt>
      <trkpt lat="44.93529" lon="4.19567">
        <ele>1430.535321</ele>
        <time>2026-08-23T12:07:02.173Z</time>
      </trkpt>
      <trkpt lat="44.93525" lon="4.19553">
        <ele>1431.306394</ele>
        <time>2026-08-23T12:07:08.172Z</time>
      </trkpt>
      <trkpt lat="44.9352" lon="4.19541">
        <ele>1432.035776</ele>
        <time>2026-08-23T12:07:14.176Z</time>
      </trkpt>
      <trkpt lat="44.93518" lon="4.19527">
        <ele>1432.755918</ele>
        <time>2026-08-23T12:07:19.185Z</time>
      </trkpt>
      <trkpt lat="44.93517" lon="4.19512">
        <ele>1433.567174</ele>
        <time>2026-08-23T12:07:24.170Z</time>
      </trkpt>
      <trkpt lat="44.93513" lon="4.19498">
        <ele>1434.351334</ele>
        <time>2026-08-23T12:07:29.178Z</time>
      </trkpt>
      <trkpt lat="44.9351" lon="4.19486">
        <ele>1435.040429</ele>
        <time>2026-08-23T12:07:34.173Z</time>
      </trkpt>
      <trkpt lat="44.93509" lon="4.19473">
        <ele>1435.728912</ele>
        <time>2026-08-23T12:07:38.177Z</time>
      </trkpt>
      <trkpt lat="44.93507" lon="4.19458">
        <ele>1436.519878</ele>
        <time>2026-08-23T12:07:43.173Z</time>
      </trkpt>
      <trkpt lat="44.93506" lon="4.19445">
        <ele>1437.204503</ele>
        <time>2026-08-23T12:07:47.184Z</time>
      </trkpt>
      <trkpt lat="44.93504" lon="4.19432">
        <ele>1437.934683</ele>
        <time>2026-08-23T12:07:51.177Z</time>
      </trkpt>
      <trkpt lat="44.93504" lon="4.19417">
        <ele>1438.707839</ele>
        <time>2026-08-23T12:07:55.172Z</time>
      </trkpt>
      <trkpt lat="44.93503" lon="4.19404">
        <ele>1439.392465</ele>
        <time>2026-08-23T12:07:58.177Z</time>
      </trkpt>
      <trkpt lat="44.93501" lon="4.19391">
        <ele>1440.098783</ele>
        <time>2026-08-23T12:08:02.171Z</time>
      </trkpt>
      <trkpt lat="44.93498" lon="4.19378">
        <ele>1440.792825</ele>
        <time>2026-08-23T12:08:06.175Z</time>
      </trkpt>
      <trkpt lat="44.93494" lon="4.19366">
        <ele>1441.534956</ele>
        <time>2026-08-23T12:08:11.172Z</time>
      </trkpt>
      <trkpt lat="44.9349" lon="4.19354">
        <ele>1442.232902</ele>
        <time>2026-08-23T12:08:16.175Z</time>
      </trkpt>
      <trkpt lat="44.93485" lon="4.19342">
        <ele>1442.963343</ele>
        <time>2026-08-23T12:08:21.176Z</time>
      </trkpt>
      <trkpt lat="44.93478" lon="4.1933">
        <ele>1443.733215</ele>
        <time>2026-08-23T12:08:26.171Z</time>
      </trkpt>
      <trkpt lat="44.93471" lon="4.19321">
        <ele>1444.364713</ele>
        <time>2026-08-23T12:08:31.179Z</time>
      </trkpt>
      <trkpt lat="44.93467" lon="4.19308">
        <ele>1445.051009</ele>
        <time>2026-08-23T12:08:35.178Z</time>
      </trkpt>
      <trkpt lat="44.93463" lon="4.19293">
        <ele>1445.814794</ele>
        <time>2026-08-23T12:08:40.176Z</time>
      </trkpt>
      <trkpt lat="44.93458" lon="4.1928">
        <ele>1446.51379</ele>
        <time>2026-08-23T12:08:44.173Z</time>
      </trkpt>
      <trkpt lat="44.93453" lon="4.19267">
        <ele>1447.250514</ele>
        <time>2026-08-23T12:08:48.176Z</time>
      </trkpt>
      <trkpt lat="44.93448" lon="4.19252">
        <ele>1448.042978</ele>
        <time>2026-08-23T12:08:52.186Z</time>
      </trkpt>
      <trkpt lat="44.93444" lon="4.19239">
        <ele>1448.711743</ele>
        <time>2026-08-23T12:08:55.173Z</time>
      </trkpt>
      <trkpt lat="44.93439" lon="4.19227">
        <ele>1449.336558</ele>
        <time>2026-08-23T12:08:58.171Z</time>
      </trkpt>
      <trkpt lat="44.93435" lon="4.19214">
        <ele>1450.039774</ele>
        <time>2026-08-23T12:09:01.171Z</time>
      </trkpt>
      <trkpt lat="44.93429" lon="4.192">
        <ele>1450.812948</ele>
        <time>2026-08-23T12:09:05.175Z</time>
      </trkpt>
      <trkpt lat="44.93422" lon="4.1919">
        <ele>1451.491286</ele>
        <time>2026-08-23T12:09:09.171Z</time>
      </trkpt>
      <trkpt lat="44.93418" lon="4.19176">
        <ele>1452.188214</ele>
        <time>2026-08-23T12:09:13.187Z</time>
      </trkpt>
      <trkpt lat="44.93412" lon="4.19164">
        <ele>1452.921636</ele>
        <time>2026-08-23T12:09:19.181Z</time>
      </trkpt>
      <trkpt lat="44.93406" lon="4.19152">
        <ele>1453.616143</ele>
        <time>2026-08-23T12:09:24.171Z</time>
      </trkpt>
      <trkpt lat="44.93399" lon="4.19141">
        <ele>1454.329101</ele>
        <time>2026-08-23T12:09:30.174Z</time>
      </trkpt>
      <trkpt lat="44.93394" lon="4.19129">
        <ele>1455.022095</ele>
        <time>2026-08-23T12:09:35.175Z</time>
      </trkpt>
      <trkpt lat="44.93387" lon="4.19118">
        <ele>1455.705298</ele>
        <time>2026-08-23T12:09:41.173Z</time>
      </trkpt>
      <trkpt lat="44.93381" lon="4.19106">
        <ele>1456.541079</ele>
        <time>2026-08-23T12:09:47.175Z</time>
      </trkpt>
      <trkpt lat="44.93374" lon="4.19094">
        <ele>1457.430664</ele>
        <time>2026-08-23T12:09:53.169Z</time>
      </trkpt>
      <trkpt lat="44.93365" lon="4.19084">
        <ele>1458.296521</ele>
        <time>2026-08-23T12:10:00.175Z</time>
      </trkpt>
      <trkpt lat="44.93357" lon="4.19076">
        <ele>1459.131775</ele>
        <time>2026-08-23T12:10:05.188Z</time>
      </trkpt>
      <trkpt lat="44.93346" lon="4.19074">
        <ele>1459.996384</ele>
        <time>2026-08-23T12:10:10.176Z</time>
      </trkpt>
      <trkpt lat="44.93336" lon="4.19078">
        <ele>1460.876283</ele>
        <time>2026-08-23T12:10:15.179Z</time>
      </trkpt>
      <trkpt lat="44.93328" lon="4.19085">
        <ele>1461.617552</ele>
        <time>2026-08-23T12:10:20.175Z</time>
      </trkpt>
      <trkpt lat="44.93318" lon="4.19091">
        <ele>1462.437727</ele>
        <time>2026-08-23T12:10:25.176Z</time>
      </trkpt>
      <trkpt lat="44.9331" lon="4.19097">
        <ele>1463.165242</ele>
        <time>2026-08-23T12:10:29.183Z</time>
      </trkpt>
      <trkpt lat="44.933" lon="4.19103">
        <ele>1464.055277</ele>
        <time>2026-08-23T12:10:34.160Z</time>
      </trkpt>
      <trkpt lat="44.93292" lon="4.19109">
        <ele>1464.78043</ele>
        <time>2026-08-23T12:10:38.169Z</time>
      </trkpt>
      <trkpt lat="44.93283" lon="4.19116">
        <ele>1465.58173</ele>
        <time>2026-08-23T12:10:43.180Z</time>
      </trkpt>
      <trkpt lat="44.93274" lon="4.19119">
        <ele>1466.309068</ele>
        <time>2026-08-23T12:10:47.182Z</time>
      </trkpt>
      <trkpt lat="44.93266" lon="4.19127">
        <ele>1467.131236</ele>
        <time>2026-08-23T12:10:52.176Z</time>
      </trkpt>
      <trkpt lat="44.93257" lon="4.19133">
        <ele>1467.910178</ele>
        <time>2026-08-23T12:10:57.177Z</time>
      </trkpt>
      <trkpt lat="44.93248" lon="4.19137">
        <ele>1468.669156</ele>
        <time>2026-08-23T12:11:02.181Z</time>
      </trkpt>
      <trkpt lat="44.93239" lon="4.19143">
        <ele>1469.425731</ele>
        <time>2026-08-23T12:11:07.173Z</time>
      </trkpt>
      <trkpt lat="44.9323" lon="4.19148">
        <ele>1470.284874</ele>
        <time>2026-08-23T12:11:12.176Z</time>
      </trkpt>
      <trkpt lat="44.93219" lon="4.19149">
        <ele>1471.239908</ele>
        <time>2026-08-23T12:11:17.175Z</time>
      </trkpt>
      <trkpt lat="44.9321" lon="4.19144">
        <ele>1472.130703</ele>
        <time>2026-08-23T12:11:22.176Z</time>
      </trkpt>
      <trkpt lat="44.93203" lon="4.19134">
        <ele>1472.986653</ele>
        <time>2026-08-23T12:11:27.177Z</time>
      </trkpt>
      <trkpt lat="44.932" lon="4.1912">
        <ele>1473.89907</ele>
        <time>2026-08-23T12:11:32.171Z</time>
      </trkpt>
      <trkpt lat="44.93195" lon="4.19107">
        <ele>1474.813273</ele>
        <time>2026-08-23T12:11:37.178Z</time>
      </trkpt>
      <trkpt lat="44.93192" lon="4.19095">
        <ele>1475.63672</ele>
        <time>2026-08-23T12:11:41.177Z</time>
      </trkpt>
      <trkpt lat="44.93187" lon="4.19081">
        <ele>1476.594673</ele>
        <time>2026-08-23T12:11:48.172Z</time>
      </trkpt>
      <trkpt lat="44.93181" lon="4.19069">
        <ele>1477.515811</ele>
        <time>2026-08-23T12:11:54.173Z</time>
      </trkpt>
      <trkpt lat="44.93176" lon="4.19056">
        <ele>1478.465282</ele>
        <time>2026-08-23T12:12:00.137Z</time>
      </trkpt>
      <trkpt lat="44.93171" lon="4.19043">
        <ele>1479.360718</ele>
        <time>2026-08-23T12:12:05.183Z</time>
      </trkpt>
      <trkpt lat="44.93165" lon="4.19033">
        <ele>1480.228531</ele>
        <time>2026-08-23T12:12:10.173Z</time>
      </trkpt>
      <trkpt lat="44.93163" lon="4.19019">
        <ele>1481.145001</ele>
        <time>2026-08-23T12:12:15.177Z</time>
      </trkpt>
      <trkpt lat="44.93159" lon="4.19005">
        <ele>1482.084479</ele>
        <time>2026-08-23T12:12:20.177Z</time>
      </trkpt>
      <trkpt lat="44.93154" lon="4.18993">
        <ele>1482.967842</ele>
        <time>2026-08-23T12:12:25.184Z</time>
      </trkpt>
      <trkpt lat="44.93144" lon="4.18987">
        <ele>1483.912999</ele>
        <time>2026-08-23T12:12:31.181Z</time>
      </trkpt>
      <trkpt lat="44.93134" lon="4.18988">
        <ele>1484.760226</ele>
        <time>2026-08-23T12:12:35.142Z</time>
      </trkpt>
      <trkpt lat="44.93126" lon="4.18994">
        <ele>1485.599397</ele>
        <time>2026-08-23T12:12:39.190Z</time>
      </trkpt>
      <trkpt lat="44.93118" lon="4.19">
        <ele>1486.407642</ele>
        <time>2026-08-23T12:12:43.172Z</time>
      </trkpt>
      <trkpt lat="44.93109" lon="4.1901">
        <ele>1487.337538</ele>
        <time>2026-08-23T12:12:48.175Z</time>
      </trkpt>
      <trkpt lat="44.93101" lon="4.19018">
        <ele>1488.145353</ele>
        <time>2026-08-23T12:12:53.181Z</time>
      </trkpt>
      <trkpt lat="44.93093" lon="4.19026">
        <ele>1489.006178</ele>
        <time>2026-08-23T12:12:58.180Z</time>
      </trkpt>
      <trkpt lat="44.93085" lon="4.19036">
        <ele>1489.917578</ele>
        <time>2026-08-23T12:13:04.157Z</time>
      </trkpt>
      <trkpt lat="44.93076" lon="4.19043">
        <ele>1490.715413</ele>
        <time>2026-08-23T12:13:08.171Z</time>
      </trkpt>
      <trkpt lat="44.93066" lon="4.19051">
        <ele>1491.667294</ele>
        <time>2026-08-23T12:13:12.173Z</time>
      </trkpt>
      <trkpt lat="44.93058" lon="4.19061">
        <ele>1492.566348</ele>
        <time>2026-08-23T12:13:18.186Z</time>
      </trkpt>
      <trkpt lat="44.93051" lon="4.1907">
        <ele>1493.394743</ele>
        <time>2026-08-23T12:13:23.186Z</time>
      </trkpt>
      <trkpt lat="44.93043" lon="4.19078">
        <ele>1494.203677</ele>
        <time>2026-08-23T12:13:27.177Z</time>
      </trkpt>
      <trkpt lat="44.93035" lon="4.19085">
        <ele>1494.957032</ele>
        <time>2026-08-23T12:13:33.177Z</time>
      </trkpt>
      <trkpt lat="44.93027" lon="4.19092">
        <ele>1495.786862</ele>
        <time>2026-08-23T12:13:38.177Z</time>
      </trkpt>
      <trkpt lat="44.93018" lon="4.191">
        <ele>1496.690414</ele>
        <time>2026-08-23T12:13:43.172Z</time>
      </trkpt>
      <trkpt lat="44.93009" lon="4.19108">
        <ele>1497.50956</ele>
        <time>2026-08-23T12:13:48.174Z</time>
      </trkpt>
      <trkpt lat="44.93" lon="4.19116">
        <ele>1498.38998</ele>
        <time>2026-08-23T12:13:53.174Z</time>
      </trkpt>
      <trkpt lat="44.92992" lon="4.19125">
        <ele>1499.293909</ele>
        <time>2026-08-23T12:13:58.175Z</time>
      </trkpt>
      <trkpt lat="44.92983" lon="4.19131">
        <ele>1500.117075</ele>
        <time>2026-08-23T12:14:03.180Z</time>
      </trkpt>
      <trkpt lat="44.92974" lon="4.19137">
        <ele>1500.957891</ele>
        <time>2026-08-23T12:14:09.179Z</time>
      </trkpt>
      <trkpt lat="44.92964" lon="4.19134">
        <ele>1501.620252</ele>
        <time>2026-08-23T12:14:13.173Z</time>
      </trkpt>
      <trkpt lat="44.92958" lon="4.19124">
        <ele>1502.297436</ele>
        <time>2026-08-23T12:14:18.172Z</time>
      </trkpt>
      <trkpt lat="44.92956" lon="4.1911">
        <ele>1502.981966</ele>
        <time>2026-08-23T12:14:23.173Z</time>
      </trkpt>
      <trkpt lat="44.92953" lon="4.19096">
        <ele>1503.681572</ele>
        <time>2026-08-23T12:14:29.145Z</time>
      </trkpt>
      <trkpt lat="44.92951" lon="4.19081">
        <ele>1504.417155</ele>
        <time>2026-08-23T12:14:34.178Z</time>
      </trkpt>
      <trkpt lat="44.92946" lon="4.19068">
        <ele>1505.102097</ele>
        <time>2026-08-23T12:14:38.173Z</time>
      </trkpt>
      <trkpt lat="44.92943" lon="4.19055">
        <ele>1505.803932</ele>
        <time>2026-08-23T12:14:43.176Z</time>
      </trkpt>
      <trkpt lat="44.9294" lon="4.1904">
        <ele>1506.522323</ele>
        <time>2026-08-23T12:14:48.174Z</time>
      </trkpt>
      <trkpt lat="44.92935" lon="4.19027">
        <ele>1507.234324</ele>
        <time>2026-08-23T12:14:53.169Z</time>
      </trkpt>
      <trkpt lat="44.9293" lon="4.19016">
        <ele>1507.877585</ele>
        <time>2026-08-23T12:14:58.173Z</time>
      </trkpt>
      <trkpt lat="44.92922" lon="4.19008">
        <ele>1508.528201</ele>
        <time>2026-08-23T12:15:03.176Z</time>
      </trkpt>
      <trkpt lat="44.92913" lon="4.19009">
        <ele>1509.165094</ele>
        <time>2026-08-23T12:15:08.179Z</time>
      </trkpt>
      <trkpt lat="44.92902" lon="4.19013">
        <ele>1509.911622</ele>
        <time>2026-08-23T12:17:12.177Z</time>
      </trkpt>
      <trkpt lat="44.92892" lon="4.19021">
        <ele>1510.694028</ele>
        <time>2026-08-23T12:17:16.175Z</time>
      </trkpt>
      <trkpt lat="44.92883" lon="4.19028">
        <ele>1511.427161</ele>
        <time>2026-08-23T12:17:20.174Z</time>
      </trkpt>
      <trkpt lat="44.92874" lon="4.19033">
        <ele>1512.039598</ele>
        <time>2026-08-23T12:17:23.177Z</time>
      </trkpt>
      <trkpt lat="44.92864" lon="4.1904">
        <ele>1512.817332</ele>
        <time>2026-08-23T12:17:27.164Z</time>
      </trkpt>
      <trkpt lat="44.92855" lon="4.19047">
        <ele>1513.460358</ele>
        <time>2026-08-23T12:17:31.139Z</time>
      </trkpt>
      <trkpt lat="44.92846" lon="4.19053">
        <ele>1513.941296</ele>
        <time>2026-08-23T12:17:35.172Z</time>
      </trkpt>
      <trkpt lat="44.92836" lon="4.19057">
        <ele>1514.441982</ele>
        <time>2026-08-23T12:17:39.175Z</time>
      </trkpt>
      <trkpt lat="44.92827" lon="4.19061">
        <ele>1514.886143</ele>
        <time>2026-08-23T12:17:42.176Z</time>
      </trkpt>
      <trkpt lat="44.92816" lon="4.19063">
        <ele>1515.381811</ele>
        <time>2026-08-23T12:17:46.174Z</time>
      </trkpt>
      <trkpt lat="44.92806" lon="4.19068">
        <ele>1515.879053</ele>
        <time>2026-08-23T12:17:50.175Z</time>
      </trkpt>
      <trkpt lat="44.92796" lon="4.19074">
        <ele>1516.415999</ele>
        <time>2026-08-23T12:17:55.178Z</time>
      </trkpt>
      <trkpt lat="44.92786" lon="4.19077">
        <ele>1516.894021</ele>
        <time>2026-08-23T12:17:58.177Z</time>
      </trkpt>
      <trkpt lat="44.92777" lon="4.19081">
        <ele>1517.339173</ele>
        <time>2026-08-23T12:18:01.177Z</time>
      </trkpt>
      <trkpt lat="44.92766" lon="4.19084">
        <ele>1517.877266</ele>
        <time>2026-08-23T12:18:05.180Z</time>
      </trkpt>
      <trkpt lat="44.92756" lon="4.19087">
        <ele>1518.33052</ele>
        <time>2026-08-23T12:18:08.174Z</time>
      </trkpt>
      <trkpt lat="44.92747" lon="4.19088">
        <ele>1518.779979</ele>
        <time>2026-08-23T12:18:11.169Z</time>
      </trkpt>
      <trkpt lat="44.92735" lon="4.19092">
        <ele>1519.352521</ele>
        <time>2026-08-23T12:18:15.180Z</time>
      </trkpt>
      <trkpt lat="44.92723" lon="4.19095">
        <ele>1519.937967</ele>
        <time>2026-08-23T12:18:18.171Z</time>
      </trkpt>
      <trkpt lat="44.92714" lon="4.19096">
        <ele>1520.376863</ele>
        <time>2026-08-23T12:18:20.175Z</time>
      </trkpt>
      <trkpt lat="44.92701" lon="4.19098">
        <ele>1520.964675</ele>
        <time>2026-08-23T12:18:23.180Z</time>
      </trkpt>
      <trkpt lat="44.9269" lon="4.19102">
        <ele>1521.513054</ele>
        <time>2026-08-23T12:18:26.174Z</time>
      </trkpt>
      <trkpt lat="44.92679" lon="4.19104">
        <ele>1522.24772</ele>
        <time>2026-08-23T12:18:29.165Z</time>
      </trkpt>
      <trkpt lat="44.92668" lon="4.19108">
        <ele>1523.437752</ele>
        <time>2026-08-23T12:18:32.175Z</time>
      </trkpt>
      <trkpt lat="44.92656" lon="4.19111">
        <ele>1524.755308</ele>
        <time>2026-08-23T12:18:35.175Z</time>
      </trkpt>
      <trkpt lat="44.92645" lon="4.19112">
        <ele>1525.929801</ele>
        <time>2026-08-23T12:18:38.167Z</time>
      </trkpt>
      <trkpt lat="44.92634" lon="4.19113">
        <ele>1527.076519</ele>
        <time>2026-08-23T12:18:41.177Z</time>
      </trkpt>
      <trkpt lat="44.92625" lon="4.1911">
        <ele>1528.033672</ele>
        <time>2026-08-23T12:18:44.179Z</time>
      </trkpt>
      <trkpt lat="44.92613" lon="4.1911">
        <ele>1529.201218</ele>
        <time>2026-08-23T12:18:48.174Z</time>
      </trkpt>
      <trkpt lat="44.92603" lon="4.1911">
        <ele>1530.305665</ele>
        <time>2026-08-23T12:18:53.176Z</time>
      </trkpt>
      <trkpt lat="44.92593" lon="4.19106">
        <ele>1531.338548</ele>
        <time>2026-08-23T12:18:58.176Z</time>
      </trkpt>
      <trkpt lat="44.92584" lon="4.19101">
        <ele>1532.394874</ele>
        <time>2026-08-23T12:19:03.178Z</time>
      </trkpt>
      <trkpt lat="44.92574" lon="4.19098">
        <ele>1533.472291</ele>
        <time>2026-08-23T12:19:09.186Z</time>
      </trkpt>
      <trkpt lat="44.92563" lon="4.19099">
        <ele>1534.535471</ele>
        <time>2026-08-23T12:19:15.183Z</time>
      </trkpt>
      <trkpt lat="44.92554" lon="4.19097">
        <ele>1535.515635</ele>
        <time>2026-08-23T12:19:21.181Z</time>
      </trkpt>
      <trkpt lat="44.92544" lon="4.19094">
        <ele>1536.603331</ele>
        <time>2026-08-23T12:19:27.176Z</time>
      </trkpt>
      <trkpt lat="44.92534" lon="4.1909">
        <ele>1537.656201</ele>
        <time>2026-08-23T12:19:37.175Z</time>
      </trkpt>
      <trkpt lat="44.92525" lon="4.19087">
        <ele>1538.634945</ele>
        <time>2026-08-23T12:19:43.184Z</time>
      </trkpt>
      <trkpt lat="44.92518" lon="4.19077">
        <ele>1539.621197</ele>
        <time>2026-08-23T12:19:50.176Z</time>
      </trkpt>
      <trkpt lat="44.92512" lon="4.19067">
        <ele>1540.702726</ele>
        <time>2026-08-23T12:20:00.180Z</time>
      </trkpt>
      <trkpt lat="44.92507" lon="4.19054">
        <ele>1542.032209</ele>
        <time>2026-08-23T12:20:07.175Z</time>
      </trkpt>
      <trkpt lat="44.92503" lon="4.1904">
        <ele>1543.44619</ele>
        <time>2026-08-23T12:20:13.187Z</time>
      </trkpt>
      <trkpt lat="44.92502" lon="4.19025">
        <ele>1544.757109</ele>
        <time>2026-08-23T12:20:18.182Z</time>
      </trkpt>
      <trkpt lat="44.925" lon="4.19012">
        <ele>1546.004765</ele>
        <time>2026-08-23T12:20:25.182Z</time>
      </trkpt>
      <trkpt lat="44.92496" lon="4.18999">
        <ele>1547.354122</ele>
        <time>2026-08-23T12:20:32.178Z</time>
      </trkpt>
      <trkpt lat="44.92496" lon="4.18986">
        <ele>1548.543843</ele>
        <time>2026-08-23T12:20:37.179Z</time>
      </trkpt>
      <trkpt lat="44.9249" lon="4.18974">
        <ele>1549.943598</ele>
        <time>2026-08-23T12:20:43.183Z</time>
      </trkpt>
      <trkpt lat="44.92484" lon="4.18964">
        <ele>1551.152186</ele>
        <time>2026-08-23T12:20:48.165Z</time>
      </trkpt>
      <trkpt lat="44.92476" lon="4.18954">
        <ele>1552.51539</ele>
        <time>2026-08-23T12:20:55.184Z</time>
      </trkpt>
      <trkpt lat="44.92468" lon="4.18947">
        <ele>1553.752021</ele>
        <time>2026-08-23T12:21:01.174Z</time>
      </trkpt>
      <trkpt lat="44.92459" lon="4.18943">
        <ele>1554.992804</ele>
        <time>2026-08-23T12:21:06.173Z</time>
      </trkpt>
      <trkpt lat="44.92449" lon="4.1894">
        <ele>1556.334457</ele>
        <time>2026-08-23T12:21:12.182Z</time>
      </trkpt>
      <trkpt lat="44.92438" lon="4.18938">
        <ele>1557.688404</ele>
        <time>2026-08-23T12:21:17.179Z</time>
      </trkpt>
      <trkpt lat="44.92429" lon="4.18937">
        <ele>1558.864061</ele>
        <time>2026-08-23T12:21:22.175Z</time>
      </trkpt>
      <trkpt lat="44.92419" lon="4.18936">
        <ele>1560.154124</ele>
        <time>2026-08-23T12:21:28.174Z</time>
      </trkpt>
      <trkpt lat="44.92408" lon="4.18937">
        <ele>1561.587354</ele>
        <time>2026-08-23T12:21:33.179Z</time>
      </trkpt>
      <trkpt lat="44.92399" lon="4.18937">
        <ele>1562.825361</ele>
        <time>2026-08-23T12:21:38.171Z</time>
      </trkpt>
      <trkpt lat="44.9239" lon="4.18938">
        <ele>1563.988859</ele>
        <time>2026-08-23T12:21:44.176Z</time>
      </trkpt>
      <trkpt lat="44.92379" lon="4.18938">
        <ele>1564.25668</ele>
        <time>2026-08-23T12:21:49.177Z</time>
      </trkpt>
      <trkpt lat="44.92369" lon="4.18937">
        <ele>1564.495973</ele>
        <time>2026-08-23T12:21:53.179Z</time>
      </trkpt>
      <trkpt lat="44.9236" lon="4.18936">
        <ele>1564.715915</ele>
        <time>2026-08-23T12:21:56.181Z</time>
      </trkpt>
      <trkpt lat="44.92349" lon="4.18933">
        <ele>1564.985557</ele>
        <time>2026-08-23T12:22:00.156Z</time>
      </trkpt>
      <trkpt lat="44.92338" lon="4.18933">
        <ele>1565.236162</ele>
        <time>2026-08-23T12:22:05.153Z</time>
      </trkpt>
      <trkpt lat="44.92329" lon="4.18931">
        <ele>1565.47613</ele>
        <time>2026-08-23T12:22:10.175Z</time>
      </trkpt>
      <trkpt lat="44.92319" lon="4.18929">
        <ele>1565.719045</ele>
        <time>2026-08-23T12:22:15.173Z</time>
      </trkpt>
      <trkpt lat="44.92308" lon="4.18926">
        <ele>1565.984954</ele>
        <time>2026-08-23T12:22:20.184Z</time>
      </trkpt>
      <trkpt lat="44.92298" lon="4.18925">
        <ele>1566.219444</ele>
        <time>2026-08-23T12:22:25.158Z</time>
      </trkpt>
      <trkpt lat="44.92288" lon="4.18925">
        <ele>1566.467645</ele>
        <time>2026-08-23T12:22:31.172Z</time>
      </trkpt>
      <trkpt lat="44.92278" lon="4.18921">
        <ele>1566.711625</ele>
        <time>2026-08-23T12:22:36.143Z</time>
      </trkpt>
      <trkpt lat="44.92269" lon="4.1891">
        <ele>1566.991867</ele>
        <time>2026-08-23T12:22:40.175Z</time>
      </trkpt>
      <trkpt lat="44.92259" lon="4.18906">
        <ele>1567.244631</ele>
        <time>2026-08-23T12:22:45.181Z</time>
      </trkpt>
      <trkpt lat="44.92249" lon="4.18903">
        <ele>1567.491334</ele>
        <time>2026-08-23T12:22:50.180Z</time>
      </trkpt>
      <trkpt lat="44.9224" lon="4.18898">
        <ele>1567.736843</ele>
        <time>2026-08-23T12:22:55.174Z</time>
      </trkpt>
      <trkpt lat="44.92231" lon="4.18896">
        <ele>1567.960649</ele>
        <time>2026-08-23T12:23:02.175Z</time>
      </trkpt>
      <trkpt lat="44.92221" lon="4.18891">
        <ele>1568.198664</ele>
        <time>2026-08-23T12:23:07.174Z</time>
      </trkpt>
      <trkpt lat="44.92213" lon="4.18885">
        <ele>1568.66878</ele>
        <time>2026-08-23T12:23:12.172Z</time>
      </trkpt>
      <trkpt lat="44.92205" lon="4.18878">
        <ele>1569.492937</ele>
        <time>2026-08-23T12:23:17.172Z</time>
      </trkpt>
      <trkpt lat="44.92198" lon="4.18868">
        <ele>1570.287034</ele>
        <time>2026-08-23T12:23:21.175Z</time>
      </trkpt>
      <trkpt lat="44.92191" lon="4.18859">
        <ele>1571.091252</ele>
        <time>2026-08-23T12:23:25.175Z</time>
      </trkpt>
      <trkpt lat="44.92181" lon="4.18853">
        <ele>1571.96932</ele>
        <time>2026-08-23T12:23:29.175Z</time>
      </trkpt>
      <trkpt lat="44.92173" lon="4.18845">
        <ele>1572.775548</ele>
        <time>2026-08-23T12:23:36.176Z</time>
      </trkpt>
      <trkpt lat="44.92167" lon="4.18836">
        <ele>1573.553683</ele>
        <time>2026-08-23T12:23:40.177Z</time>
      </trkpt>
      <trkpt lat="44.92157" lon="4.18831">
        <ele>1574.401658</ele>
        <time>2026-08-23T12:23:45.176Z</time>
      </trkpt>
      <trkpt lat="44.92149" lon="4.18823">
        <ele>1575.2455</ele>
        <time>2026-08-23T12:23:49.180Z</time>
      </trkpt>
      <trkpt lat="44.92142" lon="4.18814">
        <ele>1576.026623</ele>
        <time>2026-08-23T12:23:53.178Z</time>
      </trkpt>
      <trkpt lat="44.92135" lon="4.18805">
        <ele>1576.856998</ele>
        <time>2026-08-23T12:23:57.177Z</time>
      </trkpt>
      <trkpt lat="44.92128" lon="4.18793">
        <ele>1577.758783</ele>
        <time>2026-08-23T12:24:01.178Z</time>
      </trkpt>
      <trkpt lat="44.9212" lon="4.18784">
        <ele>1578.581963</ele>
        <time>2026-08-23T12:24:05.166Z</time>
      </trkpt>
      <trkpt lat="44.92114" lon="4.18773">
        <ele>1579.401579</ele>
        <time>2026-08-23T12:24:10.167Z</time>
      </trkpt>
      <trkpt lat="44.92106" lon="4.18764">
        <ele>1580.251582</ele>
        <time>2026-08-23T12:24:15.166Z</time>
      </trkpt>
      <trkpt lat="44.92098" lon="4.18753">
        <ele>1581.203963</ele>
        <time>2026-08-23T12:24:20.176Z</time>
      </trkpt>
      <trkpt lat="44.9209" lon="4.18745">
        <ele>1582.01416</ele>
        <time>2026-08-23T12:24:24.175Z</time>
      </trkpt>
      <trkpt lat="44.92083" lon="4.18734">
        <ele>1582.901336</ele>
        <time>2026-08-23T12:24:29.179Z</time>
      </trkpt>
      <trkpt lat="44.9208" lon="4.18721">
        <ele>1583.290021</ele>
        <time>2026-08-23T12:24:34.172Z</time>
      </trkpt>
      <trkpt lat="44.92074" lon="4.1871">
        <ele>1583.120989</ele>
        <time>2026-08-23T12:24:38.195Z</time>
      </trkpt>
      <trkpt lat="44.92068" lon="4.18699">
        <ele>1582.954842</ele>
        <time>2026-08-23T12:24:42.182Z</time>
      </trkpt>
      <trkpt lat="44.92059" lon="4.18692">
        <ele>1582.781545</ele>
        <time>2026-08-23T12:24:47.180Z</time>
      </trkpt>
      <trkpt lat="44.92051" lon="4.18685">
        <ele>1582.617351</ele>
        <time>2026-08-23T12:24:50.177Z</time>
      </trkpt>
      <trkpt lat="44.92043" lon="4.18673">
        <ele>1582.410404</ele>
        <time>2026-08-23T12:24:54.182Z</time>
      </trkpt>
      <trkpt lat="44.92038" lon="4.1866">
        <ele>1582.232907</ele>
        <time>2026-08-23T12:24:57.181Z</time>
      </trkpt>
      <trkpt lat="44.92032" lon="4.18649">
        <ele>1582.066961</ele>
        <time>2026-08-23T12:25:00.171Z</time>
      </trkpt>
      <trkpt lat="44.92027" lon="4.18637">
        <ele>1581.892033</ele>
        <time>2026-08-23T12:25:03.178Z</time>
      </trkpt>
      <trkpt lat="44.92022" lon="4.18624">
        <ele>1581.719451</ele>
        <time>2026-08-23T12:25:06.177Z</time>
      </trkpt>
      <trkpt lat="44.92014" lon="4.18612">
        <ele>1581.516768</ele>
        <time>2026-08-23T12:25:10.184Z</time>
      </trkpt>
      <trkpt lat="44.92008" lon="4.18598">
        <ele>1581.309527</ele>
        <time>2026-08-23T12:25:14.161Z</time>
      </trkpt>
      <trkpt lat="44.92002" lon="4.18587">
        <ele>1581.143379</ele>
        <time>2026-08-23T12:25:17.176Z</time>
      </trkpt>
      <trkpt lat="44.91994" lon="4.18576">
        <ele>1580.949292</ele>
        <time>2026-08-23T12:25:20.177Z</time>
      </trkpt>
      <trkpt lat="44.91989" lon="4.18565">
        <ele>1580.789416</ele>
        <time>2026-08-23T12:25:22.183Z</time>
      </trkpt>
      <trkpt lat="44.91984" lon="4.18554">
        <ele>1580.622102</ele>
        <time>2026-08-23T12:25:24.174Z</time>
      </trkpt>
      <trkpt lat="44.91978" lon="4.18543">
        <ele>1580.461162</ele>
        <time>2026-08-23T12:25:26.189Z</time>
      </trkpt>
      <trkpt lat="44.91971" lon="4.18529">
        <ele>1580.272439</ele>
        <time>2026-08-23T12:25:29.177Z</time>
      </trkpt>
      <trkpt lat="44.91966" lon="4.18516">
        <ele>1580.74799</ele>
        <time>2026-08-23T12:25:32.181Z</time>
      </trkpt>
      <trkpt lat="44.91958" lon="4.18503">
        <ele>1581.251934</ele>
        <time>2026-08-23T12:25:36.176Z</time>
      </trkpt>
      <trkpt lat="44.91949" lon="4.18496">
        <ele>1581.707258</ele>
        <time>2026-08-23T12:25:40.180Z</time>
      </trkpt>
      <trkpt lat="44.91944" lon="4.18486">
        <ele>1582.107997</ele>
        <time>2026-08-23T12:25:44.175Z</time>
      </trkpt>
      <trkpt lat="44.91936" lon="4.18474">
        <ele>1582.624394</ele>
        <time>2026-08-23T12:25:48.176Z</time>
      </trkpt>
      <trkpt lat="44.91929" lon="4.18466">
        <ele>1583.022123</ele>
        <time>2026-08-23T12:25:51.175Z</time>
      </trkpt>
      <trkpt lat="44.91922" lon="4.18458">
        <ele>1583.444334</ele>
        <time>2026-08-23T12:25:54.185Z</time>
      </trkpt>
      <trkpt lat="44.91912" lon="4.1845">
        <ele>1583.93286</ele>
        <time>2026-08-23T12:25:57.173Z</time>
      </trkpt>
      <trkpt lat="44.91904" lon="4.1844">
        <ele>1584.398566</ele>
        <time>2026-08-23T12:26:00.179Z</time>
      </trkpt>
      <trkpt lat="44.91896" lon="4.18428">
        <ele>1584.914029</ele>
        <time>2026-08-23T12:26:03.179Z</time>
      </trkpt>
      <trkpt lat="44.91888" lon="4.18419">
        <ele>1585.357495</ele>
        <time>2026-08-23T12:26:06.186Z</time>
      </trkpt>
      <trkpt lat="44.91879" lon="4.18409">
        <ele>1585.866767</ele>
        <time>2026-08-23T12:26:10.175Z</time>
      </trkpt>
      <trkpt lat="44.9187" lon="4.184">
        <ele>1586.375538</ele>
        <time>2026-08-23T12:26:14.174Z</time>
      </trkpt>
      <trkpt lat="44.91862" lon="4.18389">
        <ele>1586.868697</ele>
        <time>2026-08-23T12:26:17.175Z</time>
      </trkpt>
      <trkpt lat="44.91855" lon="4.18378">
        <ele>1587.309882</ele>
        <time>2026-08-23T12:26:20.178Z</time>
      </trkpt>
      <trkpt lat="44.91847" lon="4.18365">
        <ele>1587.860444</ele>
        <time>2026-08-23T12:26:24.176Z</time>
      </trkpt>
      <trkpt lat="44.91839" lon="4.18352">
        <ele>1588.642748</ele>
        <time>2026-08-23T12:26:27.188Z</time>
      </trkpt>
      <trkpt lat="44.91834" lon="4.1834">
        <ele>1589.787856</ele>
        <time>2026-08-23T12:26:30.181Z</time>
      </trkpt>
      <trkpt lat="44.91829" lon="4.18329">
        <ele>1590.823424</ele>
        <time>2026-08-23T12:26:33.184Z</time>
      </trkpt>
      <trkpt lat="44.91818" lon="4.18307">
        <ele>1592.971805</ele>
        <time>2026-08-23T12:27:46.181Z</time>
      </trkpt>
      <trkpt lat="44.91811" lon="4.18298">
        <ele>1593.976709</ele>
        <time>2026-08-23T12:27:52.177Z</time>
      </trkpt>
      <trkpt lat="44.91806" lon="4.18287">
        <ele>1595.070198</ele>
        <time>2026-08-23T12:27:59.176Z</time>
      </trkpt>
      <trkpt lat="44.91798" lon="4.18278">
        <ele>1596.124908</ele>
        <time>2026-08-23T12:28:04.177Z</time>
      </trkpt>
      <trkpt lat="44.91791" lon="4.18267">
        <ele>1597.318882</ele>
        <time>2026-08-23T12:28:09.180Z</time>
      </trkpt>
      <trkpt lat="44.91784" lon="4.18256">
        <ele>1598.516761</ele>
        <time>2026-08-23T12:28:14.179Z</time>
      </trkpt>
      <trkpt lat="44.91777" lon="4.18246">
        <ele>1599.589488</ele>
        <time>2026-08-23T12:28:19.175Z</time>
      </trkpt>
      <trkpt lat="44.91772" lon="4.18235">
        <ele>1600.613603</ele>
        <time>2026-08-23T12:28:24.182Z</time>
      </trkpt>
      <trkpt lat="44.91765" lon="4.18225">
        <ele>1601.716455</ele>
        <time>2026-08-23T12:28:29.181Z</time>
      </trkpt>
      <trkpt lat="44.91759" lon="4.18214">
        <ele>1602.830461</ele>
        <time>2026-08-23T12:28:34.176Z</time>
      </trkpt>
      <trkpt lat="44.91753" lon="4.18203">
        <ele>1603.937366</ele>
        <time>2026-08-23T12:28:40.174Z</time>
      </trkpt>
      <trkpt lat="44.91746" lon="4.18192">
        <ele>1605.073997</ele>
        <time>2026-08-23T12:28:45.180Z</time>
      </trkpt>
      <trkpt lat="44.9174" lon="4.1818">
        <ele>1606.271725</ele>
        <time>2026-08-23T12:28:51.180Z</time>
      </trkpt>
      <trkpt lat="44.91735" lon="4.18168">
        <ele>1607.343095</ele>
        <time>2026-08-23T12:28:57.175Z</time>
      </trkpt>
      <trkpt lat="44.91729" lon="4.18157">
        <ele>1608.379873</ele>
        <time>2026-08-23T12:29:02.178Z</time>
      </trkpt>
      <trkpt lat="44.91725" lon="4.18145">
        <ele>1609.185014</ele>
        <time>2026-08-23T12:29:07.182Z</time>
      </trkpt>
      <trkpt lat="44.91718" lon="4.18135">
        <ele>1610.076668</ele>
        <time>2026-08-23T12:29:13.180Z</time>
      </trkpt>
      <trkpt lat="44.91711" lon="4.18124">
        <ele>1611.006179</ele>
        <time>2026-08-23T12:29:18.178Z</time>
      </trkpt>
      <trkpt lat="44.91704" lon="4.18112">
        <ele>1611.957711</ele>
        <time>2026-08-23T12:29:23.179Z</time>
      </trkpt>
      <trkpt lat="44.91699" lon="4.181">
        <ele>1612.796852</ele>
        <time>2026-08-23T12:29:29.175Z</time>
      </trkpt>
      <trkpt lat="44.91692" lon="4.18089">
        <ele>1613.721714</ele>
        <time>2026-08-23T12:29:34.179Z</time>
      </trkpt>
      <trkpt lat="44.91684" lon="4.18079">
        <ele>1614.615077</ele>
        <time>2026-08-23T12:29:38.179Z</time>
      </trkpt>
      <trkpt lat="44.91679" lon="4.18069">
        <ele>1615.41953</ele>
        <time>2026-08-23T12:29:42.179Z</time>
      </trkpt>
      <trkpt lat="44.91674" lon="4.18058">
        <ele>1616.218396</ele>
        <time>2026-08-23T12:29:47.179Z</time>
      </trkpt>
      <trkpt lat="44.91667" lon="4.18048">
        <ele>1617.102695</ele>
        <time>2026-08-23T12:29:53.176Z</time>
      </trkpt>
      <trkpt lat="44.91662" lon="4.18035">
        <ele>1617.974857</ele>
        <time>2026-08-23T12:29:59.176Z</time>
      </trkpt>
      <trkpt lat="44.91656" lon="4.18024">
        <ele>1618.882579</ele>
        <time>2026-08-23T12:30:06.180Z</time>
      </trkpt>
      <trkpt lat="44.91649" lon="4.18014">
        <ele>1619.705466</ele>
        <time>2026-08-23T12:30:12.180Z</time>
      </trkpt>
      <trkpt lat="44.91642" lon="4.18003">
        <ele>1620.652458</ele>
        <time>2026-08-23T12:30:18.174Z</time>
      </trkpt>
      <trkpt lat="44.91639" lon="4.1799">
        <ele>1621.507467</ele>
        <time>2026-08-23T12:30:23.182Z</time>
      </trkpt>
      <trkpt lat="44.91631" lon="4.17979">
        <ele>1622.451958</ele>
        <time>2026-08-23T12:30:30.180Z</time>
      </trkpt>
      <trkpt lat="44.91626" lon="4.17966">
        <ele>1623.340792</ele>
        <time>2026-08-23T12:30:36.188Z</time>
      </trkpt>
      <trkpt lat="44.91623" lon="4.17954">
        <ele>1623.827681</ele>
        <time>2026-08-23T12:30:41.153Z</time>
      </trkpt>
      <trkpt lat="44.91618" lon="4.17943">
        <ele>1623.358348</ele>
        <time>2026-08-23T12:30:47.175Z</time>
      </trkpt>
      <trkpt lat="44.91613" lon="4.17932">
        <ele>1622.903743</ele>
        <time>2026-08-23T12:30:52.173Z</time>
      </trkpt>
      <trkpt lat="44.91607" lon="4.17919">
        <ele>1622.369871</ele>
        <time>2026-08-23T12:30:58.175Z</time>
      </trkpt>
      <trkpt lat="44.91604" lon="4.17906">
        <ele>1621.902668</ele>
        <time>2026-08-23T12:31:04.176Z</time>
      </trkpt>
      <trkpt lat="44.91601" lon="4.17892">
        <ele>1621.395352</ele>
        <time>2026-08-23T12:31:11.172Z</time>
      </trkpt>
      <trkpt lat="44.91599" lon="4.17878">
        <ele>1620.913212</ele>
        <time>2026-08-23T12:31:16.177Z</time>
      </trkpt>
      <trkpt lat="44.91599" lon="4.17865">
        <ele>1620.459375</ele>
        <time>2026-08-23T12:31:21.180Z</time>
      </trkpt>
      <trkpt lat="44.91595" lon="4.17844">
        <ele>1619.69661</ele>
        <time>2026-08-23T12:34:14.179Z</time>
      </trkpt>
      <trkpt lat="44.91591" lon="4.17831">
        <ele>1619.203135</ele>
        <time>2026-08-23T12:34:17.180Z</time>
      </trkpt>
      <trkpt lat="44.91589" lon="4.17818">
        <ele>1618.753361</ele>
        <time>2026-08-23T12:34:19.193Z</time>
      </trkpt>
      <trkpt lat="44.91585" lon="4.17804">
        <ele>1618.235319</ele>
        <time>2026-08-23T12:34:21.178Z</time>
      </trkpt>
      <trkpt lat="44.91582" lon="4.17787">
        <ele>1617.608673</ele>
        <time>2026-08-23T12:34:23.175Z</time>
      </trkpt>
      <trkpt lat="44.91577" lon="4.17769">
        <ele>1616.934926</ele>
        <time>2026-08-23T12:34:25.177Z</time>
      </trkpt>
      <trkpt lat="44.91572" lon="4.17746">
        <ele>1616.105697</ele>
        <time>2026-08-23T12:34:27.178Z</time>
      </trkpt>
      <trkpt lat="44.91568" lon="4.17721">
        <ele>1615.219968</ele>
        <time>2026-08-23T12:34:29.172Z</time>
      </trkpt>
      <trkpt lat="44.91564" lon="4.17696">
        <ele>1613.63009</ele>
        <time>2026-08-23T12:34:31.172Z</time>
      </trkpt>
      <trkpt lat="44.91562" lon="4.17684">
        <ele>1612.754326</ele>
        <time>2026-08-23T12:34:32.171Z</time>
      </trkpt>
      <trkpt lat="44.9156" lon="4.1767">
        <ele>1611.862853</ele>
        <time>2026-08-23T12:34:33.173Z</time>
      </trkpt>
      <trkpt lat="44.91557" lon="4.17656">
        <ele>1610.895502</ele>
        <time>2026-08-23T12:34:34.177Z</time>
      </trkpt>
      <trkpt lat="44.91555" lon="4.17643">
        <ele>1609.961351</ele>
        <time>2026-08-23T12:34:35.177Z</time>
      </trkpt>
      <trkpt lat="44.91552" lon="4.17628">
        <ele>1608.969399</ele>
        <time>2026-08-23T12:34:36.174Z</time>
      </trkpt>
      <trkpt lat="44.91549" lon="4.17613">
        <ele>1607.938228</ele>
        <time>2026-08-23T12:34:37.172Z</time>
      </trkpt>
      <trkpt lat="44.91547" lon="4.17599">
        <ele>1606.946275</ele>
        <time>2026-08-23T12:34:38.177Z</time>
      </trkpt>
      <trkpt lat="44.91544" lon="4.17585">
        <ele>1606.023386</ele>
        <time>2026-08-23T12:34:39.180Z</time>
      </trkpt>
      <trkpt lat="44.91541" lon="4.17571">
        <ele>1605.044855</ele>
        <time>2026-08-23T12:34:40.182Z</time>
      </trkpt>
      <trkpt lat="44.91536" lon="4.17558">
        <ele>1604.09724</ele>
        <time>2026-08-23T12:34:41.177Z</time>
      </trkpt>
      <trkpt lat="44.91532" lon="4.17544">
        <ele>1603.091304</ele>
        <time>2026-08-23T12:34:42.171Z</time>
      </trkpt>
      <trkpt lat="44.91528" lon="4.17531">
        <ele>1602.133027</ele>
        <time>2026-08-23T12:34:43.169Z</time>
      </trkpt>
      <trkpt lat="44.91524" lon="4.17519">
        <ele>1601.241129</ele>
        <time>2026-08-23T12:34:44.173Z</time>
      </trkpt>
      <trkpt lat="44.9152" lon="4.17507">
        <ele>1600.373152</ele>
        <time>2026-08-23T12:34:45.176Z</time>
      </trkpt>
      <trkpt lat="44.91513" lon="4.17485">
        <ele>1598.755481</ele>
        <time>2026-08-23T12:34:47.175Z</time>
      </trkpt>
      <trkpt lat="44.91507" lon="4.17465">
        <ele>1597.52633</ele>
        <time>2026-08-23T12:34:49.171Z</time>
      </trkpt>
      <trkpt lat="44.91502" lon="4.1745">
        <ele>1596.611397</ele>
        <time>2026-08-23T12:34:51.174Z</time>
      </trkpt>
      <trkpt lat="44.91497" lon="4.17434">
        <ele>1595.6407</ele>
        <time>2026-08-23T12:34:53.181Z</time>
      </trkpt>
      <trkpt lat="44.91491" lon="4.17416">
        <ele>1594.585351</ele>
        <time>2026-08-23T12:34:55.172Z</time>
      </trkpt>
      <trkpt lat="44.91486" lon="4.17396">
        <ele>1593.438195</ele>
        <time>2026-08-23T12:34:57.174Z</time>
      </trkpt>
      <trkpt lat="44.91482" lon="4.17375">
        <ele>1592.266241</ele>
        <time>2026-08-23T12:34:59.173Z</time>
      </trkpt>
      <trkpt lat="44.91477" lon="4.17354">
        <ele>1591.055236</ele>
        <time>2026-08-23T12:35:01.173Z</time>
      </trkpt>
      <trkpt lat="44.91471" lon="4.17333">
        <ele>1589.854369</ele>
        <time>2026-08-23T12:35:03.169Z</time>
      </trkpt>
      <trkpt lat="44.91465" lon="4.17312">
        <ele>1588.59879</ele>
        <time>2026-08-23T12:35:05.172Z</time>
      </trkpt>
      <trkpt lat="44.9146" lon="4.17289">
        <ele>1587.300402</ele>
        <time>2026-08-23T12:35:07.172Z</time>
      </trkpt>
      <trkpt lat="44.91457" lon="4.17276">
        <ele>1586.578033</ele>
        <time>2026-08-23T12:35:08.175Z</time>
      </trkpt>
      <trkpt lat="44.91454" lon="4.17264">
        <ele>1585.871679</ele>
        <time>2026-08-23T12:35:09.175Z</time>
      </trkpt>
      <trkpt lat="44.91447" lon="4.1724">
        <ele>1584.455135</ele>
        <time>2026-08-23T12:35:11.180Z</time>
      </trkpt>
      <trkpt lat="44.91443" lon="4.17228">
        <ele>1583.68849</ele>
        <time>2026-08-23T12:35:12.176Z</time>
      </trkpt>
      <trkpt lat="44.9144" lon="4.17216">
        <ele>1582.926597</ele>
        <time>2026-08-23T12:35:13.176Z</time>
      </trkpt>
      <trkpt lat="44.91434" lon="4.17194">
        <ele>1581.553987</ele>
        <time>2026-08-23T12:35:15.173Z</time>
      </trkpt>
      <trkpt lat="44.91428" lon="4.17173">
        <ele>1580.182278</ele>
        <time>2026-08-23T12:35:17.172Z</time>
      </trkpt>
      <trkpt lat="44.91421" lon="4.17151">
        <ele>1578.735822</ele>
        <time>2026-08-23T12:35:19.171Z</time>
      </trkpt>
      <trkpt lat="44.91415" lon="4.17129">
        <ele>1577.334817</ele>
        <time>2026-08-23T12:35:21.177Z</time>
      </trkpt>
      <trkpt lat="44.91409" lon="4.17108">
        <ele>1576.019285</ele>
        <time>2026-08-23T12:35:23.171Z</time>
      </trkpt>
      <trkpt lat="44.91404" lon="4.1709">
        <ele>1574.8142</ele>
        <time>2026-08-23T12:35:25.180Z</time>
      </trkpt>
      <trkpt lat="44.91399" lon="4.17073">
        <ele>1573.728913</ele>
        <time>2026-08-23T12:35:27.171Z</time>
      </trkpt>
      <trkpt lat="44.91393" lon="4.17056">
        <ele>1572.575665</ele>
        <time>2026-08-23T12:35:29.175Z</time>
      </trkpt>
      <trkpt lat="44.91385" lon="4.17037">
        <ele>1571.284282</ele>
        <time>2026-08-23T12:35:31.179Z</time>
      </trkpt>
      <trkpt lat="44.91377" lon="4.17017">
        <ele>1569.952451</ele>
        <time>2026-08-23T12:35:33.177Z</time>
      </trkpt>
      <trkpt lat="44.91367" lon="4.17">
        <ele>1568.987549</ele>
        <time>2026-08-23T12:35:35.171Z</time>
      </trkpt>
      <trkpt lat="44.91358" lon="4.16984">
        <ele>1568.308591</ele>
        <time>2026-08-23T12:35:37.166Z</time>
      </trkpt>
      <trkpt lat="44.91348" lon="4.16968">
        <ele>1567.620675</ele>
        <time>2026-08-23T12:35:39.173Z</time>
      </trkpt>
      <trkpt lat="44.91339" lon="4.16952">
        <ele>1566.957542</ele>
        <time>2026-08-23T12:35:41.171Z</time>
      </trkpt>
      <trkpt lat="44.91332" lon="4.16935">
        <ele>1566.331918</ele>
        <time>2026-08-23T12:35:43.172Z</time>
      </trkpt>
      <trkpt lat="44.91328" lon="4.1692">
        <ele>1565.800836</ele>
        <time>2026-08-23T12:35:45.173Z</time>
      </trkpt>
      <trkpt lat="44.91323" lon="4.16907">
        <ele>1565.343052</ele>
        <time>2026-08-23T12:35:48.173Z</time>
      </trkpt>
      <trkpt lat="44.91321" lon="4.16892">
        <ele>1564.864047</ele>
        <time>2026-08-23T12:35:59.172Z</time>
      </trkpt>
      <trkpt lat="44.91311" lon="4.16889">
        <ele>1564.403906</ele>
        <time>2026-08-23T12:36:03.179Z</time>
      </trkpt>
      <trkpt lat="44.91302" lon="4.16895">
        <ele>1563.930183</ele>
        <time>2026-08-23T12:36:06.179Z</time>
      </trkpt>
      <trkpt lat="44.91291" lon="4.16904">
        <ele>1563.376624</ele>
        <time>2026-08-23T12:36:09.173Z</time>
      </trkpt>
      <trkpt lat="44.91284" lon="4.16912">
        <ele>1562.954013</ele>
        <time>2026-08-23T12:36:11.171Z</time>
      </trkpt>
      <trkpt lat="44.91276" lon="4.16923">
        <ele>1562.441382</ele>
        <time>2026-08-23T12:36:13.177Z</time>
      </trkpt>
      <trkpt lat="44.9127" lon="4.16936">
        <ele>1561.938666</ele>
        <time>2026-08-23T12:36:15.175Z</time>
      </trkpt>
      <trkpt lat="44.91264" lon="4.16949">
        <ele>1561.438203</ele>
        <time>2026-08-23T12:36:17.175Z</time>
      </trkpt>
      <trkpt lat="44.91258" lon="4.16963">
        <ele>1560.927578</ele>
        <time>2026-08-23T12:36:19.176Z</time>
      </trkpt>
      <trkpt lat="44.91253" lon="4.16978">
        <ele>1560.447511</ele>
        <time>2026-08-23T12:36:21.173Z</time>
      </trkpt>
      <trkpt lat="44.9125" lon="4.16993">
        <ele>1559.967858</ele>
        <time>2026-08-23T12:36:23.178Z</time>
      </trkpt>
      <trkpt lat="44.91246" lon="4.17006">
        <ele>1559.535043</ele>
        <time>2026-08-23T12:36:25.180Z</time>
      </trkpt>
      <trkpt lat="44.91242" lon="4.1702">
        <ele>1559.081841</ele>
        <time>2026-08-23T12:36:27.187Z</time>
      </trkpt>
      <trkpt lat="44.91236" lon="4.17034">
        <ele>1558.588555</ele>
        <time>2026-08-23T12:36:29.196Z</time>
      </trkpt>
      <trkpt lat="44.91228" lon="4.17048">
        <ele>1558.066526</ele>
        <time>2026-08-23T12:36:31.180Z</time>
      </trkpt>
      <trkpt lat="44.91219" lon="4.17061">
        <ele>1557.508974</ele>
        <time>2026-08-23T12:36:33.175Z</time>
      </trkpt>
      <trkpt lat="44.91209" lon="4.17075">
        <ele>1556.929265</ele>
        <time>2026-08-23T12:36:35.176Z</time>
      </trkpt>
      <trkpt lat="44.91198" lon="4.17088">
        <ele>1556.316243</ele>
        <time>2026-08-23T12:36:37.179Z</time>
      </trkpt>
      <trkpt lat="44.91188" lon="4.17102">
        <ele>1555.722517</ele>
        <time>2026-08-23T12:36:39.177Z</time>
      </trkpt>
      <trkpt lat="44.91177" lon="4.17116">
        <ele>1555.081739</ele>
        <time>2026-08-23T12:36:41.174Z</time>
      </trkpt>
      <trkpt lat="44.91166" lon="4.17131">
        <ele>1554.418097</ele>
        <time>2026-08-23T12:36:43.172Z</time>
      </trkpt>
      <trkpt lat="44.91152" lon="4.17145">
        <ele>1553.727435</ele>
        <time>2026-08-23T12:36:45.175Z</time>
      </trkpt>
      <trkpt lat="44.91139" lon="4.17158">
        <ele>1552.798206</ele>
        <time>2026-08-23T12:36:47.179Z</time>
      </trkpt>
      <trkpt lat="44.91125" lon="4.17171">
        <ele>1551.775161</ele>
        <time>2026-08-23T12:36:49.184Z</time>
      </trkpt>
      <trkpt lat="44.91112" lon="4.17182">
        <ele>1550.878494</ele>
        <time>2026-08-23T12:36:51.177Z</time>
      </trkpt>
      <trkpt lat="44.91096" lon="4.17189">
        <ele>1549.832692</ele>
        <time>2026-08-23T12:36:53.176Z</time>
      </trkpt>
      <trkpt lat="44.91079" lon="4.17194">
        <ele>1548.786728</ele>
        <time>2026-08-23T12:36:55.175Z</time>
      </trkpt>
      <trkpt lat="44.91062" lon="4.17199">
        <ele>1547.754961</ele>
        <time>2026-08-23T12:36:57.173Z</time>
      </trkpt>
      <trkpt lat="44.91044" lon="4.17204">
        <ele>1546.671824</ele>
        <time>2026-08-23T12:36:59.176Z</time>
      </trkpt>
      <trkpt lat="44.91027" lon="4.17209">
        <ele>1545.635776</ele>
        <time>2026-08-23T12:37:01.173Z</time>
      </trkpt>
      <trkpt lat="44.91011" lon="4.17213">
        <ele>1544.643</ele>
        <time>2026-08-23T12:37:03.174Z</time>
      </trkpt>
      <trkpt lat="44.90997" lon="4.17219">
        <ele>1543.728698</ele>
        <time>2026-08-23T12:37:05.179Z</time>
      </trkpt>
      <trkpt lat="44.90981" lon="4.17223">
        <ele>1542.787497</ele>
        <time>2026-08-23T12:37:07.179Z</time>
      </trkpt>
      <trkpt lat="44.90966" lon="4.17226">
        <ele>1542.030464</ele>
        <time>2026-08-23T12:37:09.174Z</time>
      </trkpt>
      <trkpt lat="44.90951" lon="4.1723">
        <ele>1541.260005</ele>
        <time>2026-08-23T12:37:11.172Z</time>
      </trkpt>
      <trkpt lat="44.90935" lon="4.17234">
        <ele>1540.47734</ele>
        <time>2026-08-23T12:37:13.172Z</time>
      </trkpt>
      <trkpt lat="44.9092" lon="4.17238">
        <ele>1539.703189</ele>
        <time>2026-08-23T12:37:15.178Z</time>
      </trkpt>
      <trkpt lat="44.90905" lon="4.17243">
        <ele>1538.95634</ele>
        <time>2026-08-23T12:37:17.182Z</time>
      </trkpt>
      <trkpt lat="44.90889" lon="4.1725">
        <ele>1538.142301</ele>
        <time>2026-08-23T12:37:19.181Z</time>
      </trkpt>
      <trkpt lat="44.90874" lon="4.17259">
        <ele>1537.347675</ele>
        <time>2026-08-23T12:37:21.182Z</time>
      </trkpt>
      <trkpt lat="44.90862" lon="4.1727">
        <ele>1536.594303</ele>
        <time>2026-08-23T12:37:23.183Z</time>
      </trkpt>
      <trkpt lat="44.90849" lon="4.17282">
        <ele>1535.871378</ele>
        <time>2026-08-23T12:37:25.186Z</time>
      </trkpt>
      <trkpt lat="44.90838" lon="4.17293">
        <ele>1535.192635</ele>
        <time>2026-08-23T12:37:27.168Z</time>
      </trkpt>
      <trkpt lat="44.90827" lon="4.17304">
        <ele>1534.521764</ele>
        <time>2026-08-23T12:37:29.177Z</time>
      </trkpt>
      <trkpt lat="44.90815" lon="4.17314">
        <ele>1533.85257</ele>
        <time>2026-08-23T12:37:31.189Z</time>
      </trkpt>
      <trkpt lat="44.90804" lon="4.17323">
        <ele>1533.235661</ele>
        <time>2026-08-23T12:37:33.176Z</time>
      </trkpt>
      <trkpt lat="44.9079" lon="4.17332">
        <ele>1532.562923</ele>
        <time>2026-08-23T12:37:35.167Z</time>
      </trkpt>
      <trkpt lat="44.90778" lon="4.17339">
        <ele>1531.95626</ele>
        <time>2026-08-23T12:37:37.176Z</time>
      </trkpt>
      <trkpt lat="44.90765" lon="4.17342">
        <ele>1531.350101</ele>
        <time>2026-08-23T12:37:39.178Z</time>
      </trkpt>
      <trkpt lat="44.9075" lon="4.17343">
        <ele>1530.691615</ele>
        <time>2026-08-23T12:37:41.193Z</time>
      </trkpt>
      <trkpt lat="44.90737" lon="4.1734">
        <ele>1530.05525</ele>
        <time>2026-08-23T12:37:43.183Z</time>
      </trkpt>
      <trkpt lat="44.90722" lon="4.17333">
        <ele>1529.363454</ele>
        <time>2026-08-23T12:37:45.175Z</time>
      </trkpt>
      <trkpt lat="44.90708" lon="4.17325">
        <ele>1528.673117</ele>
        <time>2026-08-23T12:37:47.175Z</time>
      </trkpt>
      <trkpt lat="44.90695" lon="4.17316">
        <ele>1527.97259</ele>
        <time>2026-08-23T12:37:49.171Z</time>
      </trkpt>
      <trkpt lat="44.90682" lon="4.17308">
        <ele>1527.328214</ele>
        <time>2026-08-23T12:37:51.178Z</time>
      </trkpt>
      <trkpt lat="44.90667" lon="4.17302">
        <ele>1526.63936</ele>
        <time>2026-08-23T12:37:53.176Z</time>
      </trkpt>
      <trkpt lat="44.90652" lon="4.17299">
        <ele>1525.931911</ele>
        <time>2026-08-23T12:37:55.173Z</time>
      </trkpt>
      <trkpt lat="44.90637" lon="4.17299">
        <ele>1525.261281</ele>
        <time>2026-08-23T12:37:57.176Z</time>
      </trkpt>
      <trkpt lat="44.90622" lon="4.17301">
        <ele>1524.608147</ele>
        <time>2026-08-23T12:37:59.172Z</time>
      </trkpt>
      <trkpt lat="44.90613" lon="4.17302">
        <ele>1524.206619</ele>
        <time>2026-08-23T12:38:00.184Z</time>
      </trkpt>
      <trkpt lat="44.90598" lon="4.17304">
        <ele>1523.541016</ele>
        <time>2026-08-23T12:38:02.173Z</time>
      </trkpt>
      <trkpt lat="44.90582" lon="4.17307">
        <ele>1522.821486</ele>
        <time>2026-08-23T12:38:04.177Z</time>
      </trkpt>
      <trkpt lat="44.90567" lon="4.17308">
        <ele>1522.129712</ele>
        <time>2026-08-23T12:38:06.177Z</time>
      </trkpt>
      <trkpt lat="44.90553" lon="4.17312">
        <ele>1521.480612</ele>
        <time>2026-08-23T12:38:08.179Z</time>
      </trkpt>
      <trkpt lat="44.90539" lon="4.17316">
        <ele>1520.86179</ele>
        <time>2026-08-23T12:38:10.176Z</time>
      </trkpt>
      <trkpt lat="44.90524" lon="4.17319">
        <ele>1520.192552</ele>
        <time>2026-08-23T12:38:12.179Z</time>
      </trkpt>
      <trkpt lat="44.9051" lon="4.17326">
        <ele>1519.551004</ele>
        <time>2026-08-23T12:38:14.174Z</time>
      </trkpt>
      <trkpt lat="44.90497" lon="4.17332">
        <ele>1518.942021</ele>
        <time>2026-08-23T12:38:16.177Z</time>
      </trkpt>
      <trkpt lat="44.90484" lon="4.17338">
        <ele>1518.30759</ele>
        <time>2026-08-23T12:38:18.172Z</time>
      </trkpt>
      <trkpt lat="44.90469" lon="4.17345">
        <ele>1517.616085</ele>
        <time>2026-08-23T12:38:20.188Z</time>
      </trkpt>
      <trkpt lat="44.90456" lon="4.17351">
        <ele>1516.900534</ele>
        <time>2026-08-23T12:38:22.175Z</time>
      </trkpt>
      <trkpt lat="44.90442" lon="4.17356">
        <ele>1516.164476</ele>
        <time>2026-08-23T12:38:24.180Z</time>
      </trkpt>
      <trkpt lat="44.90427" lon="4.17361">
        <ele>1515.408172</ele>
        <time>2026-08-23T12:38:26.174Z</time>
      </trkpt>
      <trkpt lat="44.90414" lon="4.17367">
        <ele>1514.713632</ele>
        <time>2026-08-23T12:38:28.174Z</time>
      </trkpt>
      <trkpt lat="44.90401" lon="4.17372">
        <ele>1514.003023</ele>
        <time>2026-08-23T12:38:30.174Z</time>
      </trkpt>
      <trkpt lat="44.90389" lon="4.1738">
        <ele>1513.338278</ele>
        <time>2026-08-23T12:38:32.177Z</time>
      </trkpt>
      <trkpt lat="44.90377" lon="4.17387">
        <ele>1512.693342</ele>
        <time>2026-08-23T12:38:34.177Z</time>
      </trkpt>
      <trkpt lat="44.90365" lon="4.17394">
        <ele>1512.031216</ele>
        <time>2026-08-23T12:38:36.171Z</time>
      </trkpt>
      <trkpt lat="44.90353" lon="4.17402">
        <ele>1511.344747</ele>
        <time>2026-08-23T12:38:38.177Z</time>
      </trkpt>
      <trkpt lat="44.9034" lon="4.1741">
        <ele>1510.619942</ele>
        <time>2026-08-23T12:38:40.177Z</time>
      </trkpt>
      <trkpt lat="44.90328" lon="4.17418">
        <ele>1509.936842</ele>
        <time>2026-08-23T12:38:42.177Z</time>
      </trkpt>
      <trkpt lat="44.90318" lon="4.17427">
        <ele>1509.339206</ele>
        <time>2026-08-23T12:38:44.176Z</time>
      </trkpt>
      <trkpt lat="44.90306" lon="4.17435">
        <ele>1508.688173</ele>
        <time>2026-08-23T12:38:46.177Z</time>
      </trkpt>
      <trkpt lat="44.90294" lon="4.17441">
        <ele>1507.864885</ele>
        <time>2026-08-23T12:38:48.182Z</time>
      </trkpt>
      <trkpt lat="44.90282" lon="4.17444">
        <ele>1507.038101</ele>
        <time>2026-08-23T12:38:50.181Z</time>
      </trkpt>
      <trkpt lat="44.9027" lon="4.17445">
        <ele>1506.253124</ele>
        <time>2026-08-23T12:38:52.182Z</time>
      </trkpt>
      <trkpt lat="44.9026" lon="4.17446">
        <ele>1505.567841</ele>
        <time>2026-08-23T12:38:54.180Z</time>
      </trkpt>
      <trkpt lat="44.90251" lon="4.17444">
        <ele>1504.905826</ele>
        <time>2026-08-23T12:38:56.180Z</time>
      </trkpt>
      <trkpt lat="44.9024" lon="4.1744">
        <ele>1504.14454</ele>
        <time>2026-08-23T12:38:59.171Z</time>
      </trkpt>
      <trkpt lat="44.90235" lon="4.17428">
        <ele>1503.472631</ele>
        <time>2026-08-23T12:39:02.188Z</time>
      </trkpt>
      <trkpt lat="44.90235" lon="4.1741">
        <ele>1502.615549</ele>
        <time>2026-08-23T12:39:05.174Z</time>
      </trkpt>
      <trkpt lat="44.90239" lon="4.17395">
        <ele>1501.861349</ele>
        <time>2026-08-23T12:39:07.184Z</time>
      </trkpt>
      <trkpt lat="44.90244" lon="4.17378">
        <ele>1500.97592</ele>
        <time>2026-08-23T12:39:09.179Z</time>
      </trkpt>
      <trkpt lat="44.90249" lon="4.1736">
        <ele>1500.020122</ele>
        <time>2026-08-23T12:39:11.189Z</time>
      </trkpt>
      <trkpt lat="44.90255" lon="4.1734">
        <ele>1499.019723</ele>
        <time>2026-08-23T12:39:13.171Z</time>
      </trkpt>
      <trkpt lat="44.9026" lon="4.17321">
        <ele>1498.021101</ele>
        <time>2026-08-23T12:39:15.175Z</time>
      </trkpt>
      <trkpt lat="44.90267" lon="4.173">
        <ele>1496.891547</ele>
        <time>2026-08-23T12:39:17.182Z</time>
      </trkpt>
      <trkpt lat="44.90273" lon="4.17276">
        <ele>1495.692377</ele>
        <time>2026-08-23T12:39:19.181Z</time>
      </trkpt>
      <trkpt lat="44.90277" lon="4.17263">
        <ele>1495.011986</ele>
        <time>2026-08-23T12:39:20.174Z</time>
      </trkpt>
      <trkpt lat="44.90281" lon="4.1725">
        <ele>1494.348113</ele>
        <time>2026-08-23T12:39:21.180Z</time>
      </trkpt>
      <trkpt lat="44.90285" lon="4.17237">
        <ele>1493.677292</ele>
        <time>2026-08-23T12:39:22.176Z</time>
      </trkpt>
      <trkpt lat="44.90288" lon="4.17225">
        <ele>1493.015347</ele>
        <time>2026-08-23T12:39:23.176Z</time>
      </trkpt>
      <trkpt lat="44.90292" lon="4.17212">
        <ele>1492.347018</ele>
        <time>2026-08-23T12:39:24.179Z</time>
      </trkpt>
      <trkpt lat="44.90295" lon="4.17199">
        <ele>1491.696948</ele>
        <time>2026-08-23T12:39:25.177Z</time>
      </trkpt>
      <trkpt lat="44.90299" lon="4.17187">
        <ele>1491.067184</ele>
        <time>2026-08-23T12:39:26.179Z</time>
      </trkpt>
      <trkpt lat="44.90302" lon="4.17174">
        <ele>1490.396364</ele>
        <time>2026-08-23T12:39:27.175Z</time>
      </trkpt>
      <trkpt lat="44.90306" lon="4.17162">
        <ele>1489.774991</ele>
        <time>2026-08-23T12:39:28.182Z</time>
      </trkpt>
      <trkpt lat="44.9031" lon="4.17149">
        <ele>1489.123689</ele>
        <time>2026-08-23T12:39:29.174Z</time>
      </trkpt>
      <trkpt lat="44.90314" lon="4.17137">
        <ele>1488.466937</ele>
        <time>2026-08-23T12:39:30.179Z</time>
      </trkpt>
      <trkpt lat="44.90318" lon="4.17124">
        <ele>1487.804505</ele>
        <time>2026-08-23T12:39:31.177Z</time>
      </trkpt>
      <trkpt lat="44.90321" lon="4.17112">
        <ele>1487.158416</ele>
        <time>2026-08-23T12:39:32.175Z</time>
      </trkpt>
      <trkpt lat="44.90325" lon="4.171">
        <ele>1486.537045</ele>
        <time>2026-08-23T12:39:33.172Z</time>
      </trkpt>
      <trkpt lat="44.90328" lon="4.17087">
        <ele>1485.900649</ele>
        <time>2026-08-23T12:39:34.161Z</time>
      </trkpt>
      <trkpt lat="44.90332" lon="4.17074">
        <ele>1485.248162</ele>
        <time>2026-08-23T12:39:35.177Z</time>
      </trkpt>
      <trkpt lat="44.90335" lon="4.17062">
        <ele>1484.598239</ele>
        <time>2026-08-23T12:39:36.181Z</time>
      </trkpt>
      <trkpt lat="44.90338" lon="4.17048">
        <ele>1483.848316</ele>
        <time>2026-08-23T12:39:37.171Z</time>
      </trkpt>
      <trkpt lat="44.90342" lon="4.17035">
        <ele>1483.024508</ele>
        <time>2026-08-23T12:39:38.174Z</time>
      </trkpt>
      <trkpt lat="44.90346" lon="4.17022">
        <ele>1482.160929</ele>
        <time>2026-08-23T12:39:39.175Z</time>
      </trkpt>
      <trkpt lat="44.9035" lon="4.17008">
        <ele>1481.257103</ele>
        <time>2026-08-23T12:39:40.178Z</time>
      </trkpt>
      <trkpt lat="44.90354" lon="4.16992">
        <ele>1480.293166</ele>
        <time>2026-08-23T12:39:41.175Z</time>
      </trkpt>
      <trkpt lat="44.90358" lon="4.16978">
        <ele>1479.362581</ele>
        <time>2026-08-23T12:39:42.171Z</time>
      </trkpt>
      <trkpt lat="44.90361" lon="4.16963">
        <ele>1478.457553</ele>
        <time>2026-08-23T12:39:43.175Z</time>
      </trkpt>
      <trkpt lat="44.90365" lon="4.1695">
        <ele>1477.577378</ele>
        <time>2026-08-23T12:39:44.180Z</time>
      </trkpt>
      <trkpt lat="44.90369" lon="4.16935">
        <ele>1476.655465</ele>
        <time>2026-08-23T12:39:45.179Z</time>
      </trkpt>
      <trkpt lat="44.90373" lon="4.1692">
        <ele>1475.687993</ele>
        <time>2026-08-23T12:39:46.177Z</time>
      </trkpt>
      <trkpt lat="44.90377" lon="4.16904">
        <ele>1474.667678</ele>
        <time>2026-08-23T12:39:47.172Z</time>
      </trkpt>
      <trkpt lat="44.90382" lon="4.16888">
        <ele>1473.649819</ele>
        <time>2026-08-23T12:39:48.176Z</time>
      </trkpt>
      <trkpt lat="44.90386" lon="4.16873">
        <ele>1472.694033</ele>
        <time>2026-08-23T12:39:49.172Z</time>
      </trkpt>
      <trkpt lat="44.9039" lon="4.16858">
        <ele>1471.718587</ele>
        <time>2026-08-23T12:39:50.181Z</time>
      </trkpt>
      <trkpt lat="44.90395" lon="4.16842">
        <ele>1470.695207</ele>
        <time>2026-08-23T12:39:51.176Z</time>
      </trkpt>
      <trkpt lat="44.904" lon="4.16825">
        <ele>1469.632486</ele>
        <time>2026-08-23T12:39:52.178Z</time>
      </trkpt>
      <trkpt lat="44.90405" lon="4.16809">
        <ele>1468.621673</ele>
        <time>2026-08-23T12:39:53.180Z</time>
      </trkpt>
      <trkpt lat="44.9041" lon="4.16793">
        <ele>1467.649867</ele>
        <time>2026-08-23T12:39:54.178Z</time>
      </trkpt>
      <trkpt lat="44.90414" lon="4.16776">
        <ele>1466.699734</ele>
        <time>2026-08-23T12:39:55.175Z</time>
      </trkpt>
      <trkpt lat="44.90418" lon="4.16759">
        <ele>1465.720708</ele>
        <time>2026-08-23T12:39:56.173Z</time>
      </trkpt>
      <trkpt lat="44.90423" lon="4.16742">
        <ele>1464.724155</ele>
        <time>2026-08-23T12:39:57.176Z</time>
      </trkpt>
      <trkpt lat="44.90427" lon="4.16725">
        <ele>1463.735413</ele>
        <time>2026-08-23T12:39:58.171Z</time>
      </trkpt>
      <trkpt lat="44.90432" lon="4.16708">
        <ele>1462.697237</ele>
        <time>2026-08-23T12:39:59.178Z</time>
      </trkpt>
      <trkpt lat="44.90437" lon="4.16691">
        <ele>1461.726617</ele>
        <time>2026-08-23T12:40:00.151Z</time>
      </trkpt>
      <trkpt lat="44.90441" lon="4.16674">
        <ele>1460.750676</ele>
        <time>2026-08-23T12:40:01.173Z</time>
      </trkpt>
      <trkpt lat="44.90445" lon="4.16656">
        <ele>1459.723353</ele>
        <time>2026-08-23T12:40:02.175Z</time>
      </trkpt>
      <trkpt lat="44.90449" lon="4.16638">
        <ele>1458.688424</ele>
        <time>2026-08-23T12:40:03.176Z</time>
      </trkpt>
      <trkpt lat="44.90453" lon="4.16621">
        <ele>1457.699833</ele>
        <time>2026-08-23T12:40:04.177Z</time>
      </trkpt>
      <trkpt lat="44.90457" lon="4.16604">
        <ele>1456.724861</ele>
        <time>2026-08-23T12:40:05.170Z</time>
      </trkpt>
      <trkpt lat="44.90461" lon="4.16587">
        <ele>1455.75595</ele>
        <time>2026-08-23T12:40:06.172Z</time>
      </trkpt>
      <trkpt lat="44.90464" lon="4.1657">
        <ele>1454.840904</ele>
        <time>2026-08-23T12:40:07.174Z</time>
      </trkpt>
      <trkpt lat="44.90468" lon="4.16554">
        <ele>1453.99111</ele>
        <time>2026-08-23T12:40:08.173Z</time>
      </trkpt>
      <trkpt lat="44.90471" lon="4.16539">
        <ele>1453.216473</ele>
        <time>2026-08-23T12:40:09.180Z</time>
      </trkpt>
      <trkpt lat="44.90474" lon="4.16523">
        <ele>1452.38728</ele>
        <time>2026-08-23T12:40:10.170Z</time>
      </trkpt>
      <trkpt lat="44.90477" lon="4.16508">
        <ele>1451.607179</ele>
        <time>2026-08-23T12:40:11.175Z</time>
      </trkpt>
      <trkpt lat="44.90481" lon="4.16492">
        <ele>1450.780688</ele>
        <time>2026-08-23T12:40:12.174Z</time>
      </trkpt>
      <trkpt lat="44.90484" lon="4.16477">
        <ele>1449.970593</ele>
        <time>2026-08-23T12:40:13.169Z</time>
      </trkpt>
      <trkpt lat="44.90487" lon="4.16462">
        <ele>1449.19615</ele>
        <time>2026-08-23T12:40:14.181Z</time>
      </trkpt>
      <trkpt lat="44.9049" lon="4.16446">
        <ele>1448.379488</ele>
        <time>2026-08-23T12:40:15.172Z</time>
      </trkpt>
      <trkpt lat="44.90493" lon="4.1643">
        <ele>1447.554261</ele>
        <time>2026-08-23T12:40:16.176Z</time>
      </trkpt>
      <trkpt lat="44.90497" lon="4.16413">
        <ele>1446.694354</ele>
        <time>2026-08-23T12:40:17.178Z</time>
      </trkpt>
      <trkpt lat="44.905" lon="4.16398">
        <ele>1445.89215</ele>
        <time>2026-08-23T12:40:18.173Z</time>
      </trkpt>
      <trkpt lat="44.90503" lon="4.16382">
        <ele>1445.075489</ele>
        <time>2026-08-23T12:40:19.171Z</time>
      </trkpt>
      <trkpt lat="44.90506" lon="4.16366">
        <ele>1444.261785</ele>
        <time>2026-08-23T12:40:20.152Z</time>
      </trkpt>
      <trkpt lat="44.9051" lon="4.16351">
        <ele>1443.414195</ele>
        <time>2026-08-23T12:40:21.181Z</time>
      </trkpt>
      <trkpt lat="44.90514" lon="4.16335">
        <ele>1442.596594</ele>
        <time>2026-08-23T12:40:22.174Z</time>
      </trkpt>
      <trkpt lat="44.90517" lon="4.16318">
        <ele>1441.656147</ele>
        <time>2026-08-23T12:40:23.171Z</time>
      </trkpt>
      <trkpt lat="44.9052" lon="4.16301">
        <ele>1440.708084</ele>
        <time>2026-08-23T12:40:24.178Z</time>
      </trkpt>
      <trkpt lat="44.90523" lon="4.16285">
        <ele>1439.786439</ele>
        <time>2026-08-23T12:40:25.177Z</time>
      </trkpt>
      <trkpt lat="44.90524" lon="4.16268">
        <ele>1438.860651</ele>
        <time>2026-08-23T12:40:26.173Z</time>
      </trkpt>
      <trkpt lat="44.90524" lon="4.16251">
        <ele>1437.969988</ele>
        <time>2026-08-23T12:40:27.174Z</time>
      </trkpt>
      <trkpt lat="44.90524" lon="4.16235">
        <ele>1437.073109</ele>
        <time>2026-08-23T12:40:28.176Z</time>
      </trkpt>
      <trkpt lat="44.90524" lon="4.16218">
        <ele>1436.160724</ele>
        <time>2026-08-23T12:40:29.172Z</time>
      </trkpt>
      <trkpt lat="44.90525" lon="4.162">
        <ele>1435.182934</ele>
        <time>2026-08-23T12:40:30.178Z</time>
      </trkpt>
      <trkpt lat="44.90525" lon="4.16182">
        <ele>1434.215516</ele>
        <time>2026-08-23T12:40:31.173Z</time>
      </trkpt>
      <trkpt lat="44.90524" lon="4.16166">
        <ele>1433.349864</ele>
        <time>2026-08-23T12:40:32.171Z</time>
      </trkpt>
      <trkpt lat="44.90524" lon="4.16149">
        <ele>1432.426141</ele>
        <time>2026-08-23T12:40:33.173Z</time>
      </trkpt>
      <trkpt lat="44.90524" lon="4.16133">
        <ele>1431.540113</ele>
        <time>2026-08-23T12:40:34.178Z</time>
      </trkpt>
      <trkpt lat="44.90525" lon="4.16118">
        <ele>1430.697801</ele>
        <time>2026-08-23T12:40:35.181Z</time>
      </trkpt>
      <trkpt lat="44.90525" lon="4.16103">
        <ele>1429.893149</ele>
        <time>2026-08-23T12:40:36.183Z</time>
      </trkpt>
      <trkpt lat="44.90526" lon="4.16088">
        <ele>1429.077251</ele>
        <time>2026-08-23T12:40:37.176Z</time>
      </trkpt>
      <trkpt lat="44.90527" lon="4.16073">
        <ele>1428.380053</ele>
        <time>2026-08-23T12:40:38.179Z</time>
      </trkpt>
      <trkpt lat="44.90528" lon="4.16059">
        <ele>1427.775131</ele>
        <time>2026-08-23T12:40:39.180Z</time>
      </trkpt>
      <trkpt lat="44.9053" lon="4.16044">
        <ele>1427.150031</ele>
        <time>2026-08-23T12:40:40.175Z</time>
      </trkpt>
      <trkpt lat="44.9053" lon="4.16031">
        <ele>1426.593548</ele>
        <time>2026-08-23T12:40:41.178Z</time>
      </trkpt>
      <trkpt lat="44.90531" lon="4.16019">
        <ele>1426.052494</ele>
        <time>2026-08-23T12:40:42.175Z</time>
      </trkpt>
      <trkpt lat="44.90533" lon="4.15994">
        <ele>1425.001594</ele>
        <time>2026-08-23T12:40:44.180Z</time>
      </trkpt>
      <trkpt lat="44.90532" lon="4.15972">
        <ele>1424.064446</ele>
        <time>2026-08-23T12:40:46.176Z</time>
      </trkpt>
      <trkpt lat="44.90529" lon="4.15952">
        <ele>1423.22139</ele>
        <time>2026-08-23T12:40:48.174Z</time>
      </trkpt>
      <trkpt lat="44.90521" lon="4.15936">
        <ele>1422.345996</ele>
        <time>2026-08-23T12:40:50.178Z</time>
      </trkpt>
      <trkpt lat="44.90508" lon="4.15927">
        <ele>1421.492039</ele>
        <time>2026-08-23T12:40:52.178Z</time>
      </trkpt>
      <trkpt lat="44.90494" lon="4.15924">
        <ele>1420.680013</ele>
        <time>2026-08-23T12:40:54.175Z</time>
      </trkpt>
      <trkpt lat="44.90482" lon="4.15924">
        <ele>1419.913907</ele>
        <time>2026-08-23T12:40:56.175Z</time>
      </trkpt>
      <trkpt lat="44.90469" lon="4.15934">
        <ele>1419.025754</ele>
        <time>2026-08-23T12:40:58.180Z</time>
      </trkpt>
      <trkpt lat="44.90459" lon="4.15949">
        <ele>1418.197717</ele>
        <time>2026-08-23T12:41:00.180Z</time>
      </trkpt>
      <trkpt lat="44.90451" lon="4.15963">
        <ele>1417.473789</ele>
        <time>2026-08-23T12:41:02.173Z</time>
      </trkpt>
      <trkpt lat="44.90444" lon="4.15979">
        <ele>1416.749342</ele>
        <time>2026-08-23T12:41:04.174Z</time>
      </trkpt>
      <trkpt lat="44.90436" lon="4.15994">
        <ele>1416.01965</ele>
        <time>2026-08-23T12:41:06.178Z</time>
      </trkpt>
      <trkpt lat="44.90424" lon="4.16005">
        <ele>1415.244891</ele>
        <time>2026-08-23T12:41:08.176Z</time>
      </trkpt>
      <trkpt lat="44.90411" lon="4.16011">
        <ele>1414.509709</ele>
        <time>2026-08-23T12:41:10.182Z</time>
      </trkpt>
      <trkpt lat="44.90398" lon="4.16009">
        <ele>1413.786269</ele>
        <time>2026-08-23T12:41:12.176Z</time>
      </trkpt>
      <trkpt lat="44.90385" lon="4.15999">
        <ele>1412.984284</ele>
        <time>2026-08-23T12:41:14.181Z</time>
      </trkpt>
      <trkpt lat="44.90376" lon="4.15983">
        <ele>1412.200317</ele>
        <time>2026-08-23T12:41:16.176Z</time>
      </trkpt>
      <trkpt lat="44.90372" lon="4.15963">
        <ele>1411.4243</ele>
        <time>2026-08-23T12:41:18.178Z</time>
      </trkpt>
      <trkpt lat="44.90373" lon="4.15943">
        <ele>1410.65459</ele>
        <time>2026-08-23T12:41:20.177Z</time>
      </trkpt>
      <trkpt lat="44.90375" lon="4.15923">
        <ele>1409.853547</ele>
        <time>2026-08-23T12:41:22.175Z</time>
      </trkpt>
      <trkpt lat="44.90378" lon="4.15902">
        <ele>1409.047825</ele>
        <time>2026-08-23T12:41:24.172Z</time>
      </trkpt>
      <trkpt lat="44.90379" lon="4.15884">
        <ele>1408.340325</ele>
        <time>2026-08-23T12:41:26.170Z</time>
      </trkpt>
      <trkpt lat="44.90381" lon="4.15868">
        <ele>1408.14741</ele>
        <time>2026-08-23T12:41:28.176Z</time>
      </trkpt>
      <trkpt lat="44.90382" lon="4.15855">
        <ele>1408.053503</ele>
        <time>2026-08-23T12:41:30.172Z</time>
      </trkpt>
      <trkpt lat="44.90385" lon="4.15841">
        <ele>1407.948779</ele>
        <time>2026-08-23T12:41:32.177Z</time>
      </trkpt>
      <trkpt lat="44.90386" lon="4.15828">
        <ele>1407.854527</ele>
        <time>2026-08-23T12:41:34.172Z</time>
      </trkpt>
      <trkpt lat="44.90387" lon="4.15815">
        <ele>1407.760138</ele>
        <time>2026-08-23T12:41:36.176Z</time>
      </trkpt>
      <trkpt lat="44.90389" lon="4.15802">
        <ele>1407.664046</ele>
        <time>2026-08-23T12:41:38.175Z</time>
      </trkpt>
      <trkpt lat="44.9039" lon="4.15784">
        <ele>1407.537107</ele>
        <time>2026-08-23T12:41:41.171Z</time>
      </trkpt>
      <trkpt lat="44.90387" lon="4.15767">
        <ele>1407.410645</ele>
        <time>2026-08-23T12:41:44.178Z</time>
      </trkpt>
      <trkpt lat="44.90382" lon="4.15754">
        <ele>1407.301558</ele>
        <time>2026-08-23T12:41:47.147Z</time>
      </trkpt>
      <trkpt lat="44.90376" lon="4.15742">
        <ele>1407.20116</ele>
        <time>2026-08-23T12:41:50.177Z</time>
      </trkpt>
      <trkpt lat="44.9037" lon="4.15725">
        <ele>1407.058459</ele>
        <time>2026-08-23T12:41:53.172Z</time>
      </trkpt>
      <trkpt lat="44.90367" lon="4.15711">
        <ele>1406.955101</ele>
        <time>2026-08-23T12:41:55.173Z</time>
      </trkpt>
      <trkpt lat="44.90365" lon="4.15697">
        <ele>1406.854807</ele>
        <time>2026-08-23T12:41:57.169Z</time>
      </trkpt>
      <trkpt lat="44.90364" lon="4.15683">
        <ele>1406.751037</ele>
        <time>2026-08-23T12:41:59.169Z</time>
      </trkpt>
      <trkpt lat="44.90365" lon="4.15666">
        <ele>1406.632199</ele>
        <time>2026-08-23T12:42:01.174Z</time>
      </trkpt>
      <trkpt lat="44.90366" lon="4.15652">
        <ele>1406.526744</ele>
        <time>2026-08-23T12:42:03.171Z</time>
      </trkpt>
      <trkpt lat="44.90367" lon="4.15639">
        <ele>1406.433205</ele>
        <time>2026-08-23T12:42:05.177Z</time>
      </trkpt>
      <trkpt lat="44.90369" lon="4.15626">
        <ele>1405.979735</ele>
        <time>2026-08-23T12:42:07.176Z</time>
      </trkpt>
      <trkpt lat="44.90371" lon="4.15614">
        <ele>1405.460597</ele>
        <time>2026-08-23T12:42:09.174Z</time>
      </trkpt>
      <trkpt lat="44.90372" lon="4.15597">
        <ele>1404.80694</ele>
        <time>2026-08-23T12:42:13.172Z</time>
      </trkpt>
      <trkpt lat="44.90366" lon="4.15586">
        <ele>1404.235177</ele>
        <time>2026-08-23T12:42:16.141Z</time>
      </trkpt>
      <trkpt lat="44.90356" lon="4.1558">
        <ele>1403.620099</ele>
        <time>2026-08-23T12:42:19.173Z</time>
      </trkpt>
      <trkpt lat="44.90343" lon="4.1558">
        <ele>1402.887606</ele>
        <time>2026-08-23T12:42:22.179Z</time>
      </trkpt>
      <trkpt lat="44.90334" lon="4.15579">
        <ele>1402.3699</ele>
        <time>2026-08-23T12:42:24.176Z</time>
      </trkpt>
      <trkpt lat="44.90321" lon="4.15572">
        <ele>1401.617832</ele>
        <time>2026-08-23T12:42:27.176Z</time>
      </trkpt>
      <trkpt lat="44.90311" lon="4.15562">
        <ele>1400.885268</ele>
        <time>2026-08-23T12:42:30.175Z</time>
      </trkpt>
      <trkpt lat="44.90303" lon="4.15551">
        <ele>1400.243335</ele>
        <time>2026-08-23T12:42:33.179Z</time>
      </trkpt>
      <trkpt lat="44.90294" lon="4.15541">
        <ele>1399.615416</ele>
        <time>2026-08-23T12:42:37.181Z</time>
      </trkpt>
      <trkpt lat="44.90287" lon="4.15531">
        <ele>1399.072502</ele>
        <time>2026-08-23T12:42:43.172Z</time>
      </trkpt>
      <trkpt lat="44.90286" lon="4.15517">
        <ele>1398.497565</ele>
        <time>2026-08-23T12:42:48.176Z</time>
      </trkpt>
      <trkpt lat="44.90281" lon="4.15529">
        <ele>1397.943592</ele>
        <time>2026-08-23T12:43:10.174Z</time>
      </trkpt>
      <trkpt lat="44.90277" lon="4.15541">
        <ele>1397.432203</ele>
        <time>2026-08-23T12:43:13.175Z</time>
      </trkpt>
      <trkpt lat="44.90274" lon="4.15559">
        <ele>1396.696471</ele>
        <time>2026-08-23T12:43:16.173Z</time>
      </trkpt>
      <trkpt lat="44.9027" lon="4.15575">
        <ele>1396.148997</ele>
        <time>2026-08-23T12:43:19.172Z</time>
      </trkpt>
      <trkpt lat="44.90266" lon="4.15592">
        <ele>1395.949398</ele>
        <time>2026-08-23T12:43:22.174Z</time>
      </trkpt>
      <trkpt lat="44.90264" lon="4.15609">
        <ele>1395.749059</ele>
        <time>2026-08-23T12:43:25.179Z</time>
      </trkpt>
      <trkpt lat="44.90259" lon="4.15625">
        <ele>1395.552716</ele>
        <time>2026-08-23T12:43:28.175Z</time>
      </trkpt>
      <trkpt lat="44.90256" lon="4.15637">
        <ele>1395.40788</ele>
        <time>2026-08-23T12:43:30.176Z</time>
      </trkpt>
      <trkpt lat="44.90254" lon="4.1565">
        <ele>1395.262237</ele>
        <time>2026-08-23T12:43:32.172Z</time>
      </trkpt>
      <trkpt lat="44.90251" lon="4.15662">
        <ele>1395.116275</ele>
        <time>2026-08-23T12:43:34.170Z</time>
      </trkpt>
      <trkpt lat="44.90247" lon="4.15673">
        <ele>1394.970457</ele>
        <time>2026-08-23T12:43:36.179Z</time>
      </trkpt>
      <trkpt lat="44.90241" lon="4.1569">
        <ele>1394.754669</ele>
        <time>2026-08-23T12:43:39.179Z</time>
      </trkpt>
      <trkpt lat="44.90237" lon="4.15703">
        <ele>1394.596818</ele>
        <time>2026-08-23T12:43:41.183Z</time>
      </trkpt>
      <trkpt lat="44.90232" lon="4.15716">
        <ele>1394.425443</ele>
        <time>2026-08-23T12:43:43.181Z</time>
      </trkpt>
      <trkpt lat="44.90228" lon="4.15731">
        <ele>1394.243375</ele>
        <time>2026-08-23T12:43:45.176Z</time>
      </trkpt>
      <trkpt lat="44.90223" lon="4.15747">
        <ele>1394.04016</ele>
        <time>2026-08-23T12:43:47.180Z</time>
      </trkpt>
      <trkpt lat="44.90217" lon="4.15764">
        <ele>1393.830841</ele>
        <time>2026-08-23T12:43:49.175Z</time>
      </trkpt>
      <trkpt lat="44.9021" lon="4.15782">
        <ele>1393.600891</ele>
        <time>2026-08-23T12:43:51.171Z</time>
      </trkpt>
      <trkpt lat="44.90201" lon="4.158">
        <ele>1393.342657</ele>
        <time>2026-08-23T12:43:53.178Z</time>
      </trkpt>
      <trkpt lat="44.90189" lon="4.15816">
        <ele>1393.755441</ele>
        <time>2026-08-23T12:43:55.176Z</time>
      </trkpt>
      <trkpt lat="44.90177" lon="4.15827">
        <ele>1394.20327</ele>
        <time>2026-08-23T12:43:57.175Z</time>
      </trkpt>
      <trkpt lat="44.90162" lon="4.15837">
        <ele>1394.682155</ele>
        <time>2026-08-23T12:43:59.177Z</time>
      </trkpt>
      <trkpt lat="44.90148" lon="4.15842">
        <ele>1395.122469</ele>
        <time>2026-08-23T12:44:01.175Z</time>
      </trkpt>
      <trkpt lat="44.90136" lon="4.15848">
        <ele>1395.498798</ele>
        <time>2026-08-23T12:44:03.172Z</time>
      </trkpt>
      <trkpt lat="44.90125" lon="4.15851">
        <ele>1395.817849</ele>
        <time>2026-08-23T12:44:05.170Z</time>
      </trkpt>
      <trkpt lat="44.90116" lon="4.15855">
        <ele>1396.098855</ele>
        <time>2026-08-23T12:44:08.177Z</time>
      </trkpt>
      <trkpt lat="44.90107" lon="4.1586">
        <ele>1396.405084</ele>
        <time>2026-08-23T12:44:14.173Z</time>
      </trkpt>
      <trkpt lat="44.90097" lon="4.15868">
        <ele>1396.72665</ele>
        <time>2026-08-23T12:44:19.180Z</time>
      </trkpt>
      <trkpt lat="44.90088" lon="4.15874">
        <ele>1397.049119</ele>
        <time>2026-08-23T12:44:24.175Z</time>
      </trkpt>
      <trkpt lat="44.90079" lon="4.1588">
        <ele>1397.338355</ele>
        <time>2026-08-23T12:44:28.175Z</time>
      </trkpt>
      <trkpt lat="44.90071" lon="4.15887">
        <ele>1397.610864</ele>
        <time>2026-08-23T12:44:33.175Z</time>
      </trkpt>
      <trkpt lat="44.90061" lon="4.15891">
        <ele>1397.925039</ele>
        <time>2026-08-23T12:44:37.173Z</time>
      </trkpt>
      <trkpt lat="44.90051" lon="4.15896">
        <ele>1398.253736</ele>
        <time>2026-08-23T12:44:41.171Z</time>
      </trkpt>
      <trkpt lat="44.9004" lon="4.15899">
        <ele>1398.565865</ele>
        <time>2026-08-23T12:44:45.187Z</time>
      </trkpt>
      <trkpt lat="44.90023" lon="4.15913">
        <ele>1399.35587</ele>
        <time>2026-08-23T12:46:34.160Z</time>
      </trkpt>
      <trkpt lat="44.90016" lon="4.15922">
        <ele>1399.758171</ele>
        <time>2026-08-23T12:46:40.156Z</time>
      </trkpt>
      <trkpt lat="44.90008" lon="4.15933">
        <ele>1400.212976</ele>
        <time>2026-08-23T12:46:46.188Z</time>
      </trkpt>
      <trkpt lat="44.90001" lon="4.15942">
        <ele>1400.62417</ele>
        <time>2026-08-23T12:46:51.187Z</time>
      </trkpt>
      <trkpt lat="44.89992" lon="4.15954">
        <ele>1401.120799</ele>
        <time>2026-08-23T12:46:56.170Z</time>
      </trkpt>
      <trkpt lat="44.89985" lon="4.15962">
        <ele>1401.517263</ele>
        <time>2026-08-23T12:47:00.174Z</time>
      </trkpt>
      <trkpt lat="44.89977" lon="4.15973">
        <ele>1401.971333</ele>
        <time>2026-08-23T12:47:05.173Z</time>
      </trkpt>
      <trkpt lat="44.89972" lon="4.15985">
        <ele>1402.393665</ele>
        <time>2026-08-23T12:47:10.175Z</time>
      </trkpt>
      <trkpt lat="44.89965" lon="4.15995">
        <ele>1402.822198</ele>
        <time>2026-08-23T12:47:14.173Z</time>
      </trkpt>
      <trkpt lat="44.8996" lon="4.16006">
        <ele>1403.198612</ele>
        <time>2026-08-23T12:47:18.176Z</time>
      </trkpt>
      <trkpt lat="44.89955" lon="4.16018">
        <ele>1403.605699</ele>
        <time>2026-08-23T12:47:22.179Z</time>
      </trkpt>
      <trkpt lat="44.8995" lon="4.1603">
        <ele>1404.005547</ele>
        <time>2026-08-23T12:47:26.174Z</time>
      </trkpt>
      <trkpt lat="44.89944" lon="4.16042">
        <ele>1404.45319</ele>
        <time>2026-08-23T12:47:30.156Z</time>
      </trkpt>
      <trkpt lat="44.89938" lon="4.16054">
        <ele>1404.898298</ele>
        <time>2026-08-23T12:47:34.168Z</time>
      </trkpt>
      <trkpt lat="44.89931" lon="4.16066">
        <ele>1405.366182</ele>
        <time>2026-08-23T12:47:38.181Z</time>
      </trkpt>
      <trkpt lat="44.89927" lon="4.16079">
        <ele>1405.77615</ele>
        <time>2026-08-23T12:47:42.177Z</time>
      </trkpt>
      <trkpt lat="44.89919" lon="4.1609">
        <ele>1406.242815</ele>
        <time>2026-08-23T12:47:46.170Z</time>
      </trkpt>
      <trkpt lat="44.89914" lon="4.161">
        <ele>1406.930852</ele>
        <time>2026-08-23T12:47:50.173Z</time>
      </trkpt>
      <trkpt lat="44.8991" lon="4.16113">
        <ele>1407.619052</ele>
        <time>2026-08-23T12:47:55.179Z</time>
      </trkpt>
      <trkpt lat="44.89907" lon="4.16125">
        <ele>1408.289958</ele>
        <time>2026-08-23T12:48:00.153Z</time>
      </trkpt>
      <trkpt lat="44.89904" lon="4.16139">
        <ele>1409.066249</ele>
        <time>2026-08-23T12:48:06.175Z</time>
      </trkpt>
      <trkpt lat="44.899" lon="4.16152">
        <ele>1409.853329</ele>
        <time>2026-08-23T12:48:12.174Z</time>
      </trkpt>
      <trkpt lat="44.89894" lon="4.16164">
        <ele>1410.579997</ele>
        <time>2026-08-23T12:48:17.172Z</time>
      </trkpt>
      <trkpt lat="44.89889" lon="4.16176">
        <ele>1411.304739</ele>
        <time>2026-08-23T12:48:22.172Z</time>
      </trkpt>
      <trkpt lat="44.89883" lon="4.16188">
        <ele>1412.077575</ele>
        <time>2026-08-23T12:48:27.168Z</time>
      </trkpt>
      <trkpt lat="44.89877" lon="4.16199">
        <ele>1412.792827</ele>
        <time>2026-08-23T12:48:33.175Z</time>
      </trkpt>
      <trkpt lat="44.8987" lon="4.16208">
        <ele>1413.510079</ele>
        <time>2026-08-23T12:48:38.174Z</time>
      </trkpt>
      <trkpt lat="44.89861" lon="4.16216">
        <ele>1414.309134</ele>
        <time>2026-08-23T12:48:43.172Z</time>
      </trkpt>
      <trkpt lat="44.89852" lon="4.16225">
        <ele>1415.078698</ele>
        <time>2026-08-23T12:48:49.181Z</time>
      </trkpt>
      <trkpt lat="44.89844" lon="4.16231">
        <ele>1415.785426</ele>
        <time>2026-08-23T12:48:55.168Z</time>
      </trkpt>
      <trkpt lat="44.89836" lon="4.16237">
        <ele>1416.449736</ele>
        <time>2026-08-23T12:49:01.176Z</time>
      </trkpt>
      <trkpt lat="44.89827" lon="4.1624">
        <ele>1417.110864</ele>
        <time>2026-08-23T12:49:06.177Z</time>
      </trkpt>
      <trkpt lat="44.89818" lon="4.16243">
        <ele>1417.84668</ele>
        <time>2026-08-23T12:49:12.175Z</time>
      </trkpt>
      <trkpt lat="44.89808" lon="4.16244">
        <ele>1418.563669</ele>
        <time>2026-08-23T12:49:17.179Z</time>
      </trkpt>
      <trkpt lat="44.89797" lon="4.16241">
        <ele>1419.376731</ele>
        <time>2026-08-23T12:49:22.184Z</time>
      </trkpt>
      <trkpt lat="44.89788" lon="4.1624">
        <ele>1420.131311</ele>
        <time>2026-08-23T12:49:27.171Z</time>
      </trkpt>
      <trkpt lat="44.89779" lon="4.16239">
        <ele>1420.872179</ele>
        <time>2026-08-23T12:49:33.173Z</time>
      </trkpt>
      <trkpt lat="44.89768" lon="4.16238">
        <ele>1421.774213</ele>
        <time>2026-08-23T12:49:40.179Z</time>
      </trkpt>
      <trkpt lat="44.89759" lon="4.16234">
        <ele>1422.513728</ele>
        <time>2026-08-23T12:49:46.173Z</time>
      </trkpt>
      <trkpt lat="44.89749" lon="4.16228">
        <ele>1423.390993</ele>
        <time>2026-08-23T12:49:52.153Z</time>
      </trkpt>
      <trkpt lat="44.89741" lon="4.16222">
        <ele>1424.185291</ele>
        <time>2026-08-23T12:49:57.178Z</time>
      </trkpt>
      <trkpt lat="44.89732" lon="4.16215">
        <ele>1425.059155</ele>
        <time>2026-08-23T12:50:03.173Z</time>
      </trkpt>
      <trkpt lat="44.89724" lon="4.16205">
        <ele>1425.918049</ele>
        <time>2026-08-23T12:50:08.175Z</time>
      </trkpt>
      <trkpt lat="44.89716" lon="4.16194">
        <ele>1426.77695</ele>
        <time>2026-08-23T12:50:13.169Z</time>
      </trkpt>
      <trkpt lat="44.8971" lon="4.16183">
        <ele>1427.611614</ele>
        <time>2026-08-23T12:50:19.183Z</time>
      </trkpt>
      <trkpt lat="44.89704" lon="4.16174">
        <ele>1428.371762</ele>
        <time>2026-08-23T12:50:24.175Z</time>
      </trkpt>
      <trkpt lat="44.89697" lon="4.16163">
        <ele>1429.210791</ele>
        <time>2026-08-23T12:50:30.172Z</time>
      </trkpt>
      <trkpt lat="44.89692" lon="4.1615">
        <ele>1430.080531</ele>
        <time>2026-08-23T12:50:36.173Z</time>
      </trkpt>
      <trkpt lat="44.89685" lon="4.16138">
        <ele>1430.94186</ele>
        <time>2026-08-23T12:50:42.176Z</time>
      </trkpt>
      <trkpt lat="44.89679" lon="4.16126">
        <ele>1431.850271</ele>
        <time>2026-08-23T12:50:47.141Z</time>
      </trkpt>
      <trkpt lat="44.89671" lon="4.16118">
        <ele>1432.666915</ele>
        <time>2026-08-23T12:50:52.175Z</time>
      </trkpt>
      <trkpt lat="44.89664" lon="4.16108">
        <ele>1433.418244</ele>
        <time>2026-08-23T12:50:56.172Z</time>
      </trkpt>
      <trkpt lat="44.89657" lon="4.161">
        <ele>1434.198044</ele>
        <time>2026-08-23T12:51:01.168Z</time>
      </trkpt>
      <trkpt lat="44.89647" lon="4.16093">
        <ele>1435.077157</ele>
        <time>2026-08-23T12:51:07.172Z</time>
      </trkpt>
      <trkpt lat="44.89638" lon="4.16089">
        <ele>1435.864492</ele>
        <time>2026-08-23T12:51:12.171Z</time>
      </trkpt>
      <trkpt lat="44.8963" lon="4.16083">
        <ele>1436.594355</ele>
        <time>2026-08-23T12:51:16.174Z</time>
      </trkpt>
      <trkpt lat="44.8962" lon="4.1608">
        <ele>1437.425372</ele>
        <time>2026-08-23T12:51:22.183Z</time>
      </trkpt>
      <trkpt lat="44.89611" lon="4.16076">
        <ele>1438.180628</ele>
        <time>2026-08-23T12:51:30.174Z</time>
      </trkpt>
      <trkpt lat="44.89601" lon="4.16072">
        <ele>1438.995881</ele>
        <time>2026-08-23T12:51:36.175Z</time>
      </trkpt>
      <trkpt lat="44.8959" lon="4.16069">
        <ele>1439.856967</ele>
        <time>2026-08-23T12:51:42.174Z</time>
      </trkpt>
      <trkpt lat="44.8958" lon="4.16064">
        <ele>1440.714252</ele>
        <time>2026-08-23T12:51:47.172Z</time>
      </trkpt>
      <trkpt lat="44.8957" lon="4.16061">
        <ele>1441.591058</ele>
        <time>2026-08-23T12:51:52.172Z</time>
      </trkpt>
      <trkpt lat="44.8956" lon="4.16061">
        <ele>1442.394095</ele>
        <time>2026-08-23T12:51:56.177Z</time>
      </trkpt>
      <trkpt lat="44.8955" lon="4.16061">
        <ele>1443.196829</ele>
        <time>2026-08-23T12:52:01.173Z</time>
      </trkpt>
      <trkpt lat="44.89541" lon="4.16062">
        <ele>1443.921974</ele>
        <time>2026-08-23T12:52:06.175Z</time>
      </trkpt>
      <trkpt lat="44.89531" lon="4.16065">
        <ele>1444.726918</ele>
        <time>2026-08-23T12:52:11.180Z</time>
      </trkpt>
      <trkpt lat="44.89522" lon="4.16069">
        <ele>1445.471671</ele>
        <time>2026-08-23T12:52:16.176Z</time>
      </trkpt>
      <trkpt lat="44.89512" lon="4.16073">
        <ele>1446.34059</ele>
        <time>2026-08-23T12:52:22.177Z</time>
      </trkpt>
      <trkpt lat="44.89501" lon="4.16076">
        <ele>1447.195344</ele>
        <time>2026-08-23T12:52:27.143Z</time>
      </trkpt>
      <trkpt lat="44.89491" lon="4.16079">
        <ele>1448.000438</ele>
        <time>2026-08-23T12:52:33.165Z</time>
      </trkpt>
      <trkpt lat="44.89481" lon="4.16081">
        <ele>1448.776885</ele>
        <time>2026-08-23T12:52:38.139Z</time>
      </trkpt>
      <trkpt lat="44.89472" lon="4.16083">
        <ele>1449.252356</ele>
        <time>2026-08-23T12:52:43.174Z</time>
      </trkpt>
      <trkpt lat="44.89462" lon="4.16082">
        <ele>1449.702775</ele>
        <time>2026-08-23T12:52:47.174Z</time>
      </trkpt>
      <trkpt lat="44.89452" lon="4.16083">
        <ele>1450.211683</ele>
        <time>2026-08-23T12:52:51.174Z</time>
      </trkpt>
      <trkpt lat="44.89442" lon="4.16083">
        <ele>1450.690924</ele>
        <time>2026-08-23T12:52:55.184Z</time>
      </trkpt>
      <trkpt lat="44.89432" lon="4.16084">
        <ele>1451.179782</ele>
        <time>2026-08-23T12:53:00.175Z</time>
      </trkpt>
      <trkpt lat="44.89423" lon="4.16087">
        <ele>1451.639185</ele>
        <time>2026-08-23T12:53:05.183Z</time>
      </trkpt>
      <trkpt lat="44.89413" lon="4.16088">
        <ele>1452.092205</ele>
        <time>2026-08-23T12:53:10.175Z</time>
      </trkpt>
      <trkpt lat="44.89402" lon="4.16089">
        <ele>1452.620846</ele>
        <time>2026-08-23T12:53:15.179Z</time>
      </trkpt>
      <trkpt lat="44.89392" lon="4.16091">
        <ele>1453.13161</ele>
        <time>2026-08-23T12:53:20.172Z</time>
      </trkpt>
      <trkpt lat="44.89383" lon="4.16092">
        <ele>1453.570209</ele>
        <time>2026-08-23T12:53:24.170Z</time>
      </trkpt>
      <trkpt lat="44.89372" lon="4.16095">
        <ele>1454.085555</ele>
        <time>2026-08-23T12:53:29.176Z</time>
      </trkpt>
      <trkpt lat="44.89363" lon="4.16091">
        <ele>1454.568088</ele>
        <time>2026-08-23T12:53:34.180Z</time>
      </trkpt>
      <trkpt lat="44.89353" lon="4.16093">
        <ele>1455.065167</ele>
        <time>2026-08-23T12:53:39.176Z</time>
      </trkpt>
      <trkpt lat="44.89342" lon="4.16092">
        <ele>1455.573902</ele>
        <time>2026-08-23T12:53:44.176Z</time>
      </trkpt>
      <trkpt lat="44.89333" lon="4.16092">
        <ele>1456.033788</ele>
        <time>2026-08-23T12:53:48.180Z</time>
      </trkpt>
      <trkpt lat="44.89323" lon="4.16095">
        <ele>1456.51404</ele>
        <time>2026-08-23T12:53:52.185Z</time>
      </trkpt>
      <trkpt lat="44.89314" lon="4.16098">
        <ele>1456.977011</ele>
        <time>2026-08-23T12:53:57.172Z</time>
      </trkpt>
      <trkpt lat="44.89304" lon="4.16101">
        <ele>1457.440713</ele>
        <time>2026-08-23T12:54:02.179Z</time>
      </trkpt>
      <trkpt lat="44.89296" lon="4.16106">
        <ele>1458.220048</ele>
        <time>2026-08-23T12:54:08.183Z</time>
      </trkpt>
      <trkpt lat="44.89287" lon="4.16112">
        <ele>1459.113589</ele>
        <time>2026-08-23T12:54:13.172Z</time>
      </trkpt>
      <trkpt lat="44.89276" lon="4.16118">
        <ele>1460.072885</ele>
        <time>2026-08-23T12:54:18.177Z</time>
      </trkpt>
      <trkpt lat="44.89267" lon="4.16124">
        <ele>1460.922011</ele>
        <time>2026-08-23T12:54:23.177Z</time>
      </trkpt>
      <trkpt lat="44.89259" lon="4.16132">
        <ele>1461.812095</ele>
        <time>2026-08-23T12:54:29.176Z</time>
      </trkpt>
      <trkpt lat="44.89251" lon="4.16139">
        <ele>1462.605546</ele>
        <time>2026-08-23T12:54:34.177Z</time>
      </trkpt>
      <trkpt lat="44.89243" lon="4.16145">
        <ele>1463.379821</ele>
        <time>2026-08-23T12:54:38.175Z</time>
      </trkpt>
      <trkpt lat="44.89235" lon="4.16151">
        <ele>1464.182645</ele>
        <time>2026-08-23T12:54:42.174Z</time>
      </trkpt>
      <trkpt lat="44.89226" lon="4.16158">
        <ele>1465.057124</ele>
        <time>2026-08-23T12:54:47.172Z</time>
      </trkpt>
      <trkpt lat="44.89216" lon="4.16163">
        <ele>1465.96535</ele>
        <time>2026-08-23T12:54:52.176Z</time>
      </trkpt>
      <trkpt lat="44.89207" lon="4.16167">
        <ele>1466.740678</ele>
        <time>2026-08-23T12:54:57.176Z</time>
      </trkpt>
      <trkpt lat="44.89199" lon="4.16172">
        <ele>1467.556462</ele>
        <time>2026-08-23T12:55:02.176Z</time>
      </trkpt>
      <trkpt lat="44.89189" lon="4.16179">
        <ele>1468.450531</ele>
        <time>2026-08-23T12:55:09.175Z</time>
      </trkpt>
      <trkpt lat="44.8918" lon="4.16184">
        <ele>1469.292459</ele>
        <time>2026-08-23T12:55:14.174Z</time>
      </trkpt>
      <trkpt lat="44.89172" lon="4.16189">
        <ele>1470.111445</ele>
        <time>2026-08-23T12:55:19.176Z</time>
      </trkpt>
      <trkpt lat="44.89164" lon="4.16197">
        <ele>1470.938255</ele>
        <time>2026-08-23T12:55:24.176Z</time>
      </trkpt>
      <trkpt lat="44.89154" lon="4.16204">
        <ele>1471.875367</ele>
        <time>2026-08-23T12:55:29.175Z</time>
      </trkpt>
      <trkpt lat="44.89144" lon="4.1621">
        <ele>1472.826713</ele>
        <time>2026-08-23T12:55:34.178Z</time>
      </trkpt>
      <trkpt lat="44.89136" lon="4.16217">
        <ele>1473.514357</ele>
        <time>2026-08-23T12:55:38.173Z</time>
      </trkpt>
      <trkpt lat="44.89129" lon="4.16226">
        <ele>1474.208779</ele>
        <time>2026-08-23T12:55:43.188Z</time>
      </trkpt>
      <trkpt lat="44.89121" lon="4.16235">
        <ele>1474.973329</ele>
        <time>2026-08-23T12:55:49.175Z</time>
      </trkpt>
      <trkpt lat="44.89114" lon="4.16246">
        <ele>1475.7268</ele>
        <time>2026-08-23T12:55:55.173Z</time>
      </trkpt>
      <trkpt lat="44.89108" lon="4.16257">
        <ele>1476.454295</ele>
        <time>2026-08-23T12:56:01.176Z</time>
      </trkpt>
      <trkpt lat="44.891" lon="4.16268">
        <ele>1477.232017</ele>
        <time>2026-08-23T12:56:07.174Z</time>
      </trkpt>
      <trkpt lat="44.89093" lon="4.16279">
        <ele>1477.998084</ele>
        <time>2026-08-23T12:56:13.186Z</time>
      </trkpt>
      <trkpt lat="44.89086" lon="4.1629">
        <ele>1478.764151</ele>
        <time>2026-08-23T12:56:19.173Z</time>
      </trkpt>
      <trkpt lat="44.89081" lon="4.163">
        <ele>1479.449501</ele>
        <time>2026-08-23T12:56:24.177Z</time>
      </trkpt>
      <trkpt lat="44.89073" lon="4.16311">
        <ele>1480.214755</ele>
        <time>2026-08-23T12:56:30.180Z</time>
      </trkpt>
      <trkpt lat="44.89066" lon="4.16321">
        <ele>1480.927853</ele>
        <time>2026-08-23T12:56:36.174Z</time>
      </trkpt>
      <trkpt lat="44.89061" lon="4.16331">
        <ele>1481.600314</ele>
        <time>2026-08-23T12:56:42.177Z</time>
      </trkpt>
      <trkpt lat="44.89055" lon="4.16342">
        <ele>1482.307323</ele>
        <time>2026-08-23T12:56:48.179Z</time>
      </trkpt>
      <trkpt lat="44.89047" lon="4.16351">
        <ele>1483.063174</ele>
        <time>2026-08-23T12:56:54.178Z</time>
      </trkpt>
      <trkpt lat="44.8904" lon="4.16359">
        <ele>1483.744015</ele>
        <time>2026-08-23T12:56:59.180Z</time>
      </trkpt>
      <trkpt lat="44.89031" lon="4.16367">
        <ele>1484.499879</ele>
        <time>2026-08-23T12:57:04.175Z</time>
      </trkpt>
      <trkpt lat="44.89023" lon="4.16375">
        <ele>1485.208002</ele>
        <time>2026-08-23T12:57:09.177Z</time>
      </trkpt>
      <trkpt lat="44.89014" lon="4.16378">
        <ele>1485.923478</ele>
        <time>2026-08-23T12:57:14.172Z</time>
      </trkpt>
      <trkpt lat="44.89004" lon="4.16383">
        <ele>1486.478444</ele>
        <time>2026-08-23T12:57:18.179Z</time>
      </trkpt>
      <trkpt lat="44.88994" lon="4.16386">
        <ele>1486.977084</ele>
        <time>2026-08-23T12:57:23.188Z</time>
      </trkpt>
      <trkpt lat="44.88985" lon="4.16387">
        <ele>1487.45079</ele>
        <time>2026-08-23T12:57:26.177Z</time>
      </trkpt>
      <trkpt lat="44.88973" lon="4.16387">
        <ele>1488.022678</ele>
        <time>2026-08-23T12:57:30.181Z</time>
      </trkpt>
      <trkpt lat="44.88963" lon="4.16387">
        <ele>1488.514975</ele>
        <time>2026-08-23T12:57:34.172Z</time>
      </trkpt>
      <trkpt lat="44.88954" lon="4.16389">
        <ele>1488.996166</ele>
        <time>2026-08-23T12:57:39.176Z</time>
      </trkpt>
      <trkpt lat="44.88945" lon="4.16392">
        <ele>1489.44552</ele>
        <time>2026-08-23T12:57:43.177Z</time>
      </trkpt>
      <trkpt lat="44.88935" lon="4.16395">
        <ele>1489.973889</ele>
        <time>2026-08-23T12:57:48.173Z</time>
      </trkpt>
      <trkpt lat="44.88926" lon="4.16397">
        <ele>1490.426932</ele>
        <time>2026-08-23T12:57:52.173Z</time>
      </trkpt>
      <trkpt lat="44.88915" lon="4.16399">
        <ele>1490.979883</ele>
        <time>2026-08-23T12:57:57.190Z</time>
      </trkpt>
      <trkpt lat="44.88905" lon="4.16403">
        <ele>1491.46762</ele>
        <time>2026-08-23T12:58:02.183Z</time>
      </trkpt>
      <trkpt lat="44.88894" lon="4.16407">
        <ele>1492.032462</ele>
        <time>2026-08-23T12:58:07.169Z</time>
      </trkpt>
      <trkpt lat="44.88884" lon="4.1641">
        <ele>1492.572353</ele>
        <time>2026-08-23T12:58:11.183Z</time>
      </trkpt>
      <trkpt lat="44.88875" lon="4.16413">
        <ele>1493.024228</ele>
        <time>2026-08-23T12:58:15.191Z</time>
      </trkpt>
      <trkpt lat="44.88865" lon="4.16418">
        <ele>1493.530899</ele>
        <time>2026-08-23T12:58:19.176Z</time>
      </trkpt>
      <trkpt lat="44.88856" lon="4.16423">
        <ele>1494.029184</ele>
        <time>2026-08-23T12:58:23.175Z</time>
      </trkpt>
      <trkpt lat="44.88846" lon="4.16428">
        <ele>1494.53714</ele>
        <time>2026-08-23T12:58:27.189Z</time>
      </trkpt>
      <trkpt lat="44.88836" lon="4.16433">
        <ele>1495.007296</ele>
        <time>2026-08-23T12:58:32.188Z</time>
      </trkpt>
      <trkpt lat="44.88826" lon="4.16438">
        <ele>1495.001219</ele>
        <time>2026-08-23T12:58:36.181Z</time>
      </trkpt>
      <trkpt lat="44.88816" lon="4.16443">
        <ele>1494.994913</ele>
        <time>2026-08-23T12:58:40.179Z</time>
      </trkpt>
      <trkpt lat="44.88807" lon="4.16449">
        <ele>1494.989253</ele>
        <time>2026-08-23T12:58:44.176Z</time>
      </trkpt>
      <trkpt lat="44.88798" lon="4.16453">
        <ele>1494.983478</ele>
        <time>2026-08-23T12:58:48.184Z</time>
      </trkpt>
      <trkpt lat="44.88789" lon="4.16458">
        <ele>1494.977813</ele>
        <time>2026-08-23T12:58:52.179Z</time>
      </trkpt>
      <trkpt lat="44.88778" lon="4.16463">
        <ele>1494.970939</ele>
        <time>2026-08-23T12:58:56.175Z</time>
      </trkpt>
      <trkpt lat="44.88769" lon="4.16467">
        <ele>1494.965609</ele>
        <time>2026-08-23T12:58:59.179Z</time>
      </trkpt>
      <trkpt lat="44.88759" lon="4.16471">
        <ele>1494.959531</ele>
        <time>2026-08-23T12:59:02.185Z</time>
      </trkpt>
      <trkpt lat="44.8875" lon="4.16475">
        <ele>1494.954173</ele>
        <time>2026-08-23T12:59:05.179Z</time>
      </trkpt>
      <trkpt lat="44.88742" lon="4.1648">
        <ele>1494.94879</ele>
        <time>2026-08-23T12:59:08.173Z</time>
      </trkpt>
      <trkpt lat="44.88731" lon="4.16485">
        <ele>1494.941992</ele>
        <time>2026-08-23T12:59:12.183Z</time>
      </trkpt>
      <trkpt lat="44.88721" lon="4.1649">
        <ele>1494.936141</ele>
        <time>2026-08-23T12:59:15.183Z</time>
      </trkpt>
      <trkpt lat="44.88711" lon="4.16496">
        <ele>1494.929543</ele>
        <time>2026-08-23T12:59:19.176Z</time>
      </trkpt>
      <trkpt lat="44.887" lon="4.165">
        <ele>1494.922882</ele>
        <time>2026-08-23T12:59:23.172Z</time>
      </trkpt>
      <trkpt lat="44.8869" lon="4.16505">
        <ele>1494.917085</ele>
        <time>2026-08-23T12:59:26.178Z</time>
      </trkpt>
      <trkpt lat="44.88681" lon="4.16509">
        <ele>1494.911389</ele>
        <time>2026-08-23T12:59:29.173Z</time>
      </trkpt>
      <trkpt lat="44.88669" lon="4.16514">
        <ele>1494.904355</ele>
        <time>2026-08-23T12:59:32.187Z</time>
      </trkpt>
      <trkpt lat="44.88658" lon="4.1652">
        <ele>1494.68638</ele>
        <time>2026-08-23T12:59:35.175Z</time>
      </trkpt>
      <trkpt lat="44.88647" lon="4.16527">
        <ele>1494.416398</ele>
        <time>2026-08-23T12:59:38.175Z</time>
      </trkpt>
      <trkpt lat="44.88636" lon="4.16532">
        <ele>1494.156312</ele>
        <time>2026-08-23T12:59:41.175Z</time>
      </trkpt>
      <trkpt lat="44.88624" lon="4.16537">
        <ele>1493.875906</ele>
        <time>2026-08-23T12:59:44.174Z</time>
      </trkpt>
      <trkpt lat="44.88612" lon="4.16544">
        <ele>1493.583312</ele>
        <time>2026-08-23T12:59:47.179Z</time>
      </trkpt>
      <trkpt lat="44.88602" lon="4.16551">
        <ele>1493.321399</ele>
        <time>2026-08-23T12:59:50.177Z</time>
      </trkpt>
      <trkpt lat="44.88592" lon="4.16556">
        <ele>1493.092836</ele>
        <time>2026-08-23T12:59:53.174Z</time>
      </trkpt>
      <trkpt lat="44.88584" lon="4.16563">
        <ele>1492.890965</ele>
        <time>2026-08-23T12:59:56.180Z</time>
      </trkpt>
      <trkpt lat="44.88576" lon="4.16571">
        <ele>1492.661489</ele>
        <time>2026-08-23T13:00:00.145Z</time>
      </trkpt>
      <trkpt lat="44.88566" lon="4.16581">
        <ele>1492.396192</ele>
        <time>2026-08-23T13:01:28.244Z</time>
      </trkpt>
      <trkpt lat="44.88559" lon="4.16595">
        <ele>1492.122846</ele>
        <time>2026-08-23T13:01:32.170Z</time>
      </trkpt>
      <trkpt lat="44.88551" lon="4.16608">
        <ele>1491.858485</ele>
        <time>2026-08-23T13:01:35.165Z</time>
      </trkpt>
      <trkpt lat="44.88545" lon="4.16622">
        <ele>1491.586778</ele>
        <time>2026-08-23T13:01:38.147Z</time>
      </trkpt>
      <trkpt lat="44.8854" lon="4.16634">
        <ele>1491.365068</ele>
        <time>2026-08-23T13:01:40.181Z</time>
      </trkpt>
      <trkpt lat="44.88535" lon="4.16648">
        <ele>1491.109092</ele>
        <time>2026-08-23T13:01:42.178Z</time>
      </trkpt>
      <trkpt lat="44.88527" lon="4.16665">
        <ele>1490.653858</ele>
        <time>2026-08-23T13:01:44.197Z</time>
      </trkpt>
      <trkpt lat="44.88521" lon="4.16683">
        <ele>1489.701841</ele>
        <time>2026-08-23T13:01:46.203Z</time>
      </trkpt>
      <trkpt lat="44.88514" lon="4.16703">
        <ele>1488.637238</ele>
        <time>2026-08-23T13:01:48.181Z</time>
      </trkpt>
      <trkpt lat="44.88507" lon="4.16725">
        <ele>1487.494317</ele>
        <time>2026-08-23T13:01:50.189Z</time>
      </trkpt>
      <trkpt lat="44.88501" lon="4.16748">
        <ele>1486.329609</ele>
        <time>2026-08-23T13:01:52.162Z</time>
      </trkpt>
      <trkpt lat="44.88497" lon="4.1676">
        <ele>1485.711731</ele>
        <time>2026-08-23T13:01:53.200Z</time>
      </trkpt>
      <trkpt lat="44.88494" lon="4.16773">
        <ele>1485.072762</ele>
        <time>2026-08-23T13:01:54.194Z</time>
      </trkpt>
      <trkpt lat="44.88491" lon="4.16785">
        <ele>1484.464664</ele>
        <time>2026-08-23T13:01:55.201Z</time>
      </trkpt>
      <trkpt lat="44.88489" lon="4.16798">
        <ele>1483.85964</ele>
        <time>2026-08-23T13:01:56.189Z</time>
      </trkpt>
      <trkpt lat="44.88487" lon="4.16811">
        <ele>1483.222337</ele>
        <time>2026-08-23T13:01:57.195Z</time>
      </trkpt>
      <trkpt lat="44.88485" lon="4.16825">
        <ele>1482.571176</ele>
        <time>2026-08-23T13:01:58.157Z</time>
      </trkpt>
      <trkpt lat="44.88485" lon="4.16839">
        <ele>1481.900717</ele>
        <time>2026-08-23T13:01:59.217Z</time>
      </trkpt>
      <trkpt lat="44.88486" lon="4.16853">
        <ele>1481.238526</ele>
        <time>2026-08-23T13:02:00.186Z</time>
      </trkpt>
      <trkpt lat="44.88486" lon="4.16866">
        <ele>1480.610026</ele>
        <time>2026-08-23T13:02:01.190Z</time>
      </trkpt>
      <trkpt lat="44.88487" lon="4.1688">
        <ele>1479.938773</ele>
        <time>2026-08-23T13:02:02.195Z</time>
      </trkpt>
      <trkpt lat="44.88487" lon="4.16894">
        <ele>1479.272235</ele>
        <time>2026-08-23T13:02:03.195Z</time>
      </trkpt>
      <trkpt lat="44.88488" lon="4.16909">
        <ele>1478.67945</ele>
        <time>2026-08-23T13:02:04.198Z</time>
      </trkpt>
      <trkpt lat="44.88488" lon="4.16923">
        <ele>1478.209552</ele>
        <time>2026-08-23T13:02:05.193Z</time>
      </trkpt>
      <trkpt lat="44.88488" lon="4.16936">
        <ele>1477.77354</ele>
        <time>2026-08-23T13:02:06.194Z</time>
      </trkpt>
      <trkpt lat="44.88489" lon="4.16949">
        <ele>1477.337657</ele>
        <time>2026-08-23T13:02:07.205Z</time>
      </trkpt>
      <trkpt lat="44.88489" lon="4.16962">
        <ele>1476.884498</ele>
        <time>2026-08-23T13:02:08.200Z</time>
      </trkpt>
      <trkpt lat="44.88489" lon="4.16976">
        <ele>1476.431956</ele>
        <time>2026-08-23T13:02:09.211Z</time>
      </trkpt>
      <trkpt lat="44.88488" lon="4.16989">
        <ele>1475.991857</ele>
        <time>2026-08-23T13:02:10.201Z</time>
      </trkpt>
      <trkpt lat="44.8848" lon="4.17011">
        <ele>1475.147979</ele>
        <time>2026-08-23T13:02:12.219Z</time>
      </trkpt>
      <trkpt lat="44.88466" lon="4.17026">
        <ele>1474.330214</ele>
        <time>2026-08-23T13:02:14.204Z</time>
      </trkpt>
      <trkpt lat="44.88448" lon="4.17031">
        <ele>1473.483411</ele>
        <time>2026-08-23T13:02:16.232Z</time>
      </trkpt>
      <trkpt lat="44.88438" lon="4.17033">
        <ele>1473.000883</ele>
        <time>2026-08-23T13:02:17.187Z</time>
      </trkpt>
      <trkpt lat="44.88428" lon="4.17035">
        <ele>1472.526726</ele>
        <time>2026-08-23T13:02:18.194Z</time>
      </trkpt>
      <trkpt lat="44.88419" lon="4.1704">
        <ele>1472.033706</ele>
        <time>2026-08-23T13:02:19.188Z</time>
      </trkpt>
      <trkpt lat="44.88408" lon="4.17047">
        <ele>1471.485185</ele>
        <time>2026-08-23T13:02:20.200Z</time>
      </trkpt>
      <trkpt lat="44.884" lon="4.17056">
        <ele>1471.002096</ele>
        <time>2026-08-23T13:02:21.185Z</time>
      </trkpt>
      <trkpt lat="44.88392" lon="4.17064">
        <ele>1470.53237</ele>
        <time>2026-08-23T13:02:22.241Z</time>
      </trkpt>
      <trkpt lat="44.88384" lon="4.17073">
        <ele>1469.871985</ele>
        <time>2026-08-23T13:02:23.188Z</time>
      </trkpt>
      <trkpt lat="44.88376" lon="4.17082">
        <ele>1469.140642</ele>
        <time>2026-08-23T13:02:24.190Z</time>
      </trkpt>
      <trkpt lat="44.88369" lon="4.17091">
        <ele>1468.414745</ele>
        <time>2026-08-23T13:02:25.196Z</time>
      </trkpt>
      <trkpt lat="44.88361" lon="4.171">
        <ele>1467.641522</ele>
        <time>2026-08-23T13:02:26.198Z</time>
      </trkpt>
      <trkpt lat="44.8835" lon="4.1712">
        <ele>1466.31385</ele>
        <time>2026-08-23T13:02:28.200Z</time>
      </trkpt>
      <trkpt lat="44.88345" lon="4.17131">
        <ele>1465.643853</ele>
        <time>2026-08-23T13:02:29.185Z</time>
      </trkpt>
      <trkpt lat="44.88334" lon="4.1715">
        <ele>1464.362578</ele>
        <time>2026-08-23T13:02:31.194Z</time>
      </trkpt>
      <trkpt lat="44.88328" lon="4.17159">
        <ele>1463.690446</ele>
        <time>2026-08-23T13:02:32.192Z</time>
      </trkpt>
      <trkpt lat="44.88313" lon="4.17173">
        <ele>1462.374946</ele>
        <time>2026-08-23T13:02:34.190Z</time>
      </trkpt>
      <trkpt lat="44.88302" lon="4.17179">
        <ele>1461.527986</ele>
        <time>2026-08-23T13:02:35.204Z</time>
      </trkpt>
      <trkpt lat="44.88293" lon="4.17185">
        <ele>1460.744129</ele>
        <time>2026-08-23T13:02:36.196Z</time>
      </trkpt>
      <trkpt lat="44.88282" lon="4.1719">
        <ele>1459.93564</ele>
        <time>2026-08-23T13:02:37.195Z</time>
      </trkpt>
      <trkpt lat="44.88273" lon="4.17194">
        <ele>1459.215195</ele>
        <time>2026-08-23T13:02:38.197Z</time>
      </trkpt>
      <trkpt lat="44.88264" lon="4.17198">
        <ele>1458.497555</ele>
        <time>2026-08-23T13:02:39.220Z</time>
      </trkpt>
      <trkpt lat="44.88246" lon="4.17202">
        <ele>1457.180373</ele>
        <time>2026-08-23T13:02:41.200Z</time>
      </trkpt>
      <trkpt lat="44.88236" lon="4.17199">
        <ele>1456.614235</ele>
        <time>2026-08-23T13:02:42.165Z</time>
      </trkpt>
      <trkpt lat="44.88227" lon="4.17194">
        <ele>1456.041991</ele>
        <time>2026-08-23T13:02:43.178Z</time>
      </trkpt>
      <trkpt lat="44.88218" lon="4.17188">
        <ele>1455.505115</ele>
        <time>2026-08-23T13:02:44.184Z</time>
      </trkpt>
      <trkpt lat="44.8821" lon="4.17181">
        <ele>1454.964838</ele>
        <time>2026-08-23T13:02:45.186Z</time>
      </trkpt>
      <trkpt lat="44.88202" lon="4.17174">
        <ele>1454.417654</ele>
        <time>2026-08-23T13:02:46.191Z</time>
      </trkpt>
      <trkpt lat="44.88194" lon="4.17167">
        <ele>1453.906412</ele>
        <time>2026-08-23T13:02:47.185Z</time>
      </trkpt>
      <trkpt lat="44.88186" lon="4.17161">
        <ele>1453.385419</ele>
        <time>2026-08-23T13:02:48.192Z</time>
      </trkpt>
      <trkpt lat="44.8817" lon="4.17148">
        <ele>1452.332243</ele>
        <time>2026-08-23T13:02:50.184Z</time>
      </trkpt>
      <trkpt lat="44.88154" lon="4.17137">
        <ele>1451.314113</ele>
        <time>2026-08-23T13:02:52.211Z</time>
      </trkpt>
      <trkpt lat="44.88145" lon="4.17131">
        <ele>1450.765955</ele>
        <time>2026-08-23T13:02:53.201Z</time>
      </trkpt>
      <trkpt lat="44.88136" lon="4.17125">
        <ele>1450.190552</ele>
        <time>2026-08-23T13:02:54.188Z</time>
      </trkpt>
      <trkpt lat="44.88127" lon="4.17119">
        <ele>1449.654156</ele>
        <time>2026-08-23T13:02:55.185Z</time>
      </trkpt>
      <trkpt lat="44.88118" lon="4.17113">
        <ele>1449.073482</ele>
        <time>2026-08-23T13:02:56.187Z</time>
      </trkpt>
      <trkpt lat="44.88109" lon="4.17106">
        <ele>1448.488547</ele>
        <time>2026-08-23T13:02:57.201Z</time>
      </trkpt>
      <trkpt lat="44.881" lon="4.17098">
        <ele>1447.882813</ele>
        <time>2026-08-23T13:02:58.191Z</time>
      </trkpt>
      <trkpt lat="44.8809" lon="4.17089">
        <ele>1447.238402</ele>
        <time>2026-08-23T13:02:59.192Z</time>
      </trkpt>
      <trkpt lat="44.88082" lon="4.1708">
        <ele>1446.927166</ele>
        <time>2026-08-23T13:03:00.192Z</time>
      </trkpt>
      <trkpt lat="44.88075" lon="4.17069">
        <ele>1446.871072</ele>
        <time>2026-08-23T13:03:01.201Z</time>
      </trkpt>
      <trkpt lat="44.88068" lon="4.17058">
        <ele>1446.816003</ele>
        <time>2026-08-23T13:03:02.207Z</time>
      </trkpt>
      <trkpt lat="44.8806" lon="4.17049">
        <ele>1446.764781</ele>
        <time>2026-08-23T13:03:03.187Z</time>
      </trkpt>
      <trkpt lat="44.88053" lon="4.17042">
        <ele>1446.715103</ele>
        <time>2026-08-23T13:03:04.186Z</time>
      </trkpt>
      <trkpt lat="44.88045" lon="4.17036">
        <ele>1446.666821</ele>
        <time>2026-08-23T13:03:05.177Z</time>
      </trkpt>
      <trkpt lat="44.88029" lon="4.17024">
        <ele>1446.571549</ele>
        <time>2026-08-23T13:03:07.180Z</time>
      </trkpt>
      <trkpt lat="44.88013" lon="4.17012">
        <ele>1446.478323</ele>
        <time>2026-08-23T13:03:09.190Z</time>
      </trkpt>
      <trkpt lat="44.87998" lon="4.17002">
        <ele>1446.386873</ele>
        <time>2026-08-23T13:03:11.194Z</time>
      </trkpt>
      <trkpt lat="44.87983" lon="4.16992">
        <ele>1446.297826</ele>
        <time>2026-08-23T13:03:13.186Z</time>
      </trkpt>
      <trkpt lat="44.87966" lon="4.16984">
        <ele>1446.206693</ele>
        <time>2026-08-23T13:03:15.186Z</time>
      </trkpt>
      <trkpt lat="44.87949" lon="4.16978">
        <ele>1446.1121</ele>
        <time>2026-08-23T13:03:17.189Z</time>
      </trkpt>
      <trkpt lat="44.87931" lon="4.16976">
        <ele>1446.017344</ele>
        <time>2026-08-23T13:03:19.189Z</time>
      </trkpt>
      <trkpt lat="44.87914" lon="4.16976">
        <ele>1445.889021</ele>
        <time>2026-08-23T13:03:21.200Z</time>
      </trkpt>
      <trkpt lat="44.87899" lon="4.16979">
        <ele>1445.759717</ele>
        <time>2026-08-23T13:03:23.209Z</time>
      </trkpt>
      <trkpt lat="44.87883" lon="4.16981">
        <ele>1445.631277</ele>
        <time>2026-08-23T13:03:25.200Z</time>
      </trkpt>
      <trkpt lat="44.8787" lon="4.16984">
        <ele>1445.522342</ele>
        <time>2026-08-23T13:03:27.187Z</time>
      </trkpt>
      <trkpt lat="44.87857" lon="4.16989">
        <ele>1445.418988</ele>
        <time>2026-08-23T13:03:29.192Z</time>
      </trkpt>
      <trkpt lat="44.87845" lon="4.16991">
        <ele>1445.32132</ele>
        <time>2026-08-23T13:03:31.198Z</time>
      </trkpt>
      <trkpt lat="44.87833" lon="4.16994">
        <ele>1445.216081</ele>
        <time>2026-08-23T13:03:33.212Z</time>
      </trkpt>
      <trkpt lat="44.87821" lon="4.16999">
        <ele>1445.117377</ele>
        <time>2026-08-23T13:03:35.189Z</time>
      </trkpt>
      <trkpt lat="44.87807" lon="4.17001">
        <ele>1445.00393</ele>
        <time>2026-08-23T13:03:37.190Z</time>
      </trkpt>
      <trkpt lat="44.87794" lon="4.17006">
        <ele>1444.891839</ele>
        <time>2026-08-23T13:03:39.177Z</time>
      </trkpt>
      <trkpt lat="44.87781" lon="4.17011">
        <ele>1444.787697</ele>
        <time>2026-08-23T13:03:41.204Z</time>
      </trkpt>
      <trkpt lat="44.8777" lon="4.17017">
        <ele>1444.690531</ele>
        <time>2026-08-23T13:03:43.192Z</time>
      </trkpt>
      <trkpt lat="44.87759" lon="4.17024">
        <ele>1444.588951</ele>
        <time>2026-08-23T13:03:45.194Z</time>
      </trkpt>
      <trkpt lat="44.87749" lon="4.17033">
        <ele>1444.394535</ele>
        <time>2026-08-23T13:03:47.207Z</time>
      </trkpt>
      <trkpt lat="44.8774" lon="4.17042">
        <ele>1444.107394</ele>
        <time>2026-08-23T13:03:49.192Z</time>
      </trkpt>
      <trkpt lat="44.87729" lon="4.17051">
        <ele>1443.802168</ele>
        <time>2026-08-23T13:03:51.195Z</time>
      </trkpt>
      <trkpt lat="44.87718" lon="4.1706">
        <ele>1443.475561</ele>
        <time>2026-08-23T13:03:53.192Z</time>
      </trkpt>
      <trkpt lat="44.87706" lon="4.17071">
        <ele>1443.108225</ele>
        <time>2026-08-23T13:03:55.193Z</time>
      </trkpt>
      <trkpt lat="44.87693" lon="4.17082">
        <ele>1442.72155</ele>
        <time>2026-08-23T13:03:57.194Z</time>
      </trkpt>
      <trkpt lat="44.8768" lon="4.17092">
        <ele>1442.345894</ele>
        <time>2026-08-23T13:03:59.184Z</time>
      </trkpt>
      <trkpt lat="44.87667" lon="4.17104">
        <ele>1441.952289</ele>
        <time>2026-08-23T13:04:01.191Z</time>
      </trkpt>
      <trkpt lat="44.87657" lon="4.17118">
        <ele>1441.58591</ele>
        <time>2026-08-23T13:04:03.191Z</time>
      </trkpt>
      <trkpt lat="44.87649" lon="4.17135">
        <ele>1441.226447</ele>
        <time>2026-08-23T13:04:05.177Z</time>
      </trkpt>
      <trkpt lat="44.87641" lon="4.17152">
        <ele>1440.859529</ele>
        <time>2026-08-23T13:04:07.185Z</time>
      </trkpt>
      <trkpt lat="44.87633" lon="4.17168">
        <ele>1440.49858</ele>
        <time>2026-08-23T13:04:09.190Z</time>
      </trkpt>
      <trkpt lat="44.87625" lon="4.17183">
        <ele>1440.164058</ele>
        <time>2026-08-23T13:04:11.190Z</time>
      </trkpt>
      <trkpt lat="44.87617" lon="4.17199">
        <ele>1439.596534</ele>
        <time>2026-08-23T13:04:13.148Z</time>
      </trkpt>
      <trkpt lat="44.87608" lon="4.17216">
        <ele>1438.669838</ele>
        <time>2026-08-23T13:04:15.210Z</time>
      </trkpt>
      <trkpt lat="44.87599" lon="4.17233">
        <ele>1437.785958</ele>
        <time>2026-08-23T13:04:17.197Z</time>
      </trkpt>
      <trkpt lat="44.8759" lon="4.17249">
        <ele>1436.887825</ele>
        <time>2026-08-23T13:04:19.191Z</time>
      </trkpt>
      <trkpt lat="44.87582" lon="4.17265">
        <ele>1436.022048</ele>
        <time>2026-08-23T13:04:21.199Z</time>
      </trkpt>
      <trkpt lat="44.87573" lon="4.1728">
        <ele>1435.195923</ele>
        <time>2026-08-23T13:04:23.202Z</time>
      </trkpt>
      <trkpt lat="44.87565" lon="4.17296">
        <ele>1434.351115</ele>
        <time>2026-08-23T13:04:25.189Z</time>
      </trkpt>
      <trkpt lat="44.87557" lon="4.17313">
        <ele>1433.460511</ele>
        <time>2026-08-23T13:04:27.201Z</time>
      </trkpt>
      <trkpt lat="44.8755" lon="4.17331">
        <ele>1432.595714</ele>
        <time>2026-08-23T13:04:29.185Z</time>
      </trkpt>
      <trkpt lat="44.87543" lon="4.17349">
        <ele>1431.724299</ele>
        <time>2026-08-23T13:04:31.208Z</time>
      </trkpt>
      <trkpt lat="44.87537" lon="4.17368">
        <ele>1430.808881</ele>
        <time>2026-08-23T13:04:33.209Z</time>
      </trkpt>
      <trkpt lat="44.87528" lon="4.17386">
        <ele>1429.853451</ele>
        <time>2026-08-23T13:04:35.187Z</time>
      </trkpt>
      <trkpt lat="44.87519" lon="4.17405">
        <ele>1428.905143</ele>
        <time>2026-08-23T13:04:37.198Z</time>
      </trkpt>
      <trkpt lat="44.87513" lon="4.17422">
        <ele>1428.307478</ele>
        <time>2026-08-23T13:04:39.217Z</time>
      </trkpt>
      <trkpt lat="44.87505" lon="4.17441">
        <ele>1427.644805</ele>
        <time>2026-08-23T13:04:41.201Z</time>
      </trkpt>
      <trkpt lat="44.87499" lon="4.17458">
        <ele>1427.053467</ele>
        <time>2026-08-23T13:04:43.200Z</time>
      </trkpt>
      <trkpt lat="44.87492" lon="4.17474">
        <ele>1426.446206</ele>
        <time>2026-08-23T13:04:45.170Z</time>
      </trkpt>
      <trkpt lat="44.87486" lon="4.17489">
        <ele>1425.908471</ele>
        <time>2026-08-23T13:04:47.185Z</time>
      </trkpt>
      <trkpt lat="44.87479" lon="4.17505">
        <ele>1425.334666</ele>
        <time>2026-08-23T13:04:49.201Z</time>
      </trkpt>
      <trkpt lat="44.87473" lon="4.17521">
        <ele>1424.769534</ele>
        <time>2026-08-23T13:04:51.185Z</time>
      </trkpt>
      <trkpt lat="44.87467" lon="4.17536">
        <ele>1424.209914</ele>
        <time>2026-08-23T13:04:53.159Z</time>
      </trkpt>
      <trkpt lat="44.87457" lon="4.17552">
        <ele>1423.54623</ele>
        <time>2026-08-23T13:04:55.214Z</time>
      </trkpt>
      <trkpt lat="44.87446" lon="4.17564">
        <ele>1422.935263</ele>
        <time>2026-08-23T13:04:57.202Z</time>
      </trkpt>
      <trkpt lat="44.87433" lon="4.17574">
        <ele>1422.299578</ele>
        <time>2026-08-23T13:04:59.194Z</time>
      </trkpt>
      <trkpt lat="44.8742" lon="4.17582">
        <ele>1421.650848</ele>
        <time>2026-08-23T13:05:01.209Z</time>
      </trkpt>
      <trkpt lat="44.87405" lon="4.1759">
        <ele>1421.041394</ele>
        <time>2026-08-23T13:05:03.195Z</time>
      </trkpt>
      <trkpt lat="44.87392" lon="4.17601">
        <ele>1420.742169</ele>
        <time>2026-08-23T13:05:05.194Z</time>
      </trkpt>
      <trkpt lat="44.87381" lon="4.17612">
        <ele>1420.456074</ele>
        <time>2026-08-23T13:05:07.179Z</time>
      </trkpt>
      <trkpt lat="44.87369" lon="4.17622">
        <ele>1420.175386</ele>
        <time>2026-08-23T13:05:09.203Z</time>
      </trkpt>
      <trkpt lat="44.87357" lon="4.17633">
        <ele>1419.888569</ele>
        <time>2026-08-23T13:05:11.183Z</time>
      </trkpt>
      <trkpt lat="44.87346" lon="4.17647">
        <ele>1419.587189</ele>
        <time>2026-08-23T13:05:13.185Z</time>
      </trkpt>
      <trkpt lat="44.87335" lon="4.17662">
        <ele>1419.285088</ele>
        <time>2026-08-23T13:05:15.203Z</time>
      </trkpt>
      <trkpt lat="44.87325" lon="4.17677">
        <ele>1418.984587</ele>
        <time>2026-08-23T13:05:17.197Z</time>
      </trkpt>
      <trkpt lat="44.87314" lon="4.17692">
        <ele>1418.667783</ele>
        <time>2026-08-23T13:05:19.193Z</time>
      </trkpt>
      <trkpt lat="44.87302" lon="4.17708">
        <ele>1418.341654</ele>
        <time>2026-08-23T13:05:21.199Z</time>
      </trkpt>
      <trkpt lat="44.87292" lon="4.17722">
        <ele>1418.062738</ele>
        <time>2026-08-23T13:05:23.187Z</time>
      </trkpt>
      <trkpt lat="44.87283" lon="4.17737">
        <ele>1417.783373</ele>
        <time>2026-08-23T13:05:25.170Z</time>
      </trkpt>
      <trkpt lat="44.87279" lon="4.17755">
        <ele>1417.515666</ele>
        <time>2026-08-23T13:05:27.192Z</time>
      </trkpt>
      <trkpt lat="44.87279" lon="4.17772">
        <ele>1417.274948</ele>
        <time>2026-08-23T13:05:29.184Z</time>
      </trkpt>
      <trkpt lat="44.87282" lon="4.1779">
        <ele>1417.027683</ele>
        <time>2026-08-23T13:05:31.196Z</time>
      </trkpt>
      <trkpt lat="44.87288" lon="4.17808">
        <ele>1416.755082</ele>
        <time>2026-08-23T13:05:33.195Z</time>
      </trkpt>
      <trkpt lat="44.87293" lon="4.17826">
        <ele>1416.492963</ele>
        <time>2026-08-23T13:05:35.191Z</time>
      </trkpt>
      <trkpt lat="44.873" lon="4.17842">
        <ele>1416.232933</ele>
        <time>2026-08-23T13:05:37.192Z</time>
      </trkpt>
      <trkpt lat="44.87309" lon="4.17856">
        <ele>1415.971315</ele>
        <time>2026-08-23T13:05:39.199Z</time>
      </trkpt>
      <trkpt lat="44.87317" lon="4.17869">
        <ele>1415.740045</ele>
        <time>2026-08-23T13:05:41.189Z</time>
      </trkpt>
      <trkpt lat="44.87328" lon="4.17881">
        <ele>1415.470357</ele>
        <time>2026-08-23T13:05:43.201Z</time>
      </trkpt>
      <trkpt lat="44.8734" lon="4.17894">
        <ele>1415.186115</ele>
        <time>2026-08-23T13:05:45.203Z</time>
      </trkpt>
      <trkpt lat="44.8735" lon="4.17901">
        <ele>1414.969066</ele>
        <time>2026-08-23T13:05:47.189Z</time>
      </trkpt>
      <trkpt lat="44.87359" lon="4.17911">
        <ele>1414.743883</ele>
        <time>2026-08-23T13:05:49.193Z</time>
      </trkpt>
      <trkpt lat="44.87368" lon="4.17922">
        <ele>1414.516069</ele>
        <time>2026-08-23T13:05:51.201Z</time>
      </trkpt>
      <trkpt lat="44.87377" lon="4.17934">
        <ele>1414.284911</ele>
        <time>2026-08-23T13:05:53.201Z</time>
      </trkpt>
      <trkpt lat="44.87387" lon="4.17944">
        <ele>1414.04973</ele>
        <time>2026-08-23T13:05:55.192Z</time>
      </trkpt>
      <trkpt lat="44.87398" lon="4.17949">
        <ele>1414.109749</ele>
        <time>2026-08-23T13:05:57.199Z</time>
      </trkpt>
      <trkpt lat="44.87406" lon="4.17959">
        <ele>1414.212169</ele>
        <time>2026-08-23T13:05:59.207Z</time>
      </trkpt>
      <trkpt lat="44.87413" lon="4.17967">
        <ele>1414.298276</ele>
        <time>2026-08-23T13:06:01.232Z</time>
      </trkpt>
      <trkpt lat="44.8742" lon="4.17977">
        <ele>1414.391203</ele>
        <time>2026-08-23T13:06:03.201Z</time>
      </trkpt>
      <trkpt lat="44.8743" lon="4.17992">
        <ele>1414.532107</ele>
        <time>2026-08-23T13:06:05.185Z</time>
      </trkpt>
      <trkpt lat="44.87439" lon="4.18006">
        <ele>1414.658002</ele>
        <time>2026-08-23T13:06:07.192Z</time>
      </trkpt>
      <trkpt lat="44.87445" lon="4.18019">
        <ele>1414.764441</ele>
        <time>2026-08-23T13:06:09.190Z</time>
      </trkpt>
      <trkpt lat="44.87452" lon="4.18032">
        <ele>1414.877415</ele>
        <time>2026-08-23T13:06:11.185Z</time>
      </trkpt>
      <trkpt lat="44.87458" lon="4.18047">
        <ele>1414.99089</ele>
        <time>2026-08-23T13:06:14.193Z</time>
      </trkpt>
      <trkpt lat="44.87447" lon="4.1804">
        <ele>1415.105371</ele>
        <time>2026-08-23T13:06:21.192Z</time>
      </trkpt>
      <trkpt lat="44.87439" lon="4.18032">
        <ele>1415.198509</ele>
        <time>2026-08-23T13:06:23.185Z</time>
      </trkpt>
      <trkpt lat="44.87429" lon="4.18023">
        <ele>1415.313978</ele>
        <time>2026-08-23T13:06:25.169Z</time>
      </trkpt>
      <trkpt lat="44.87415" lon="4.18013">
        <ele>1415.462633</ele>
        <time>2026-08-23T13:06:27.176Z</time>
      </trkpt>
      <trkpt lat="44.87399" lon="4.18005">
        <ele>1415.62011</ele>
        <time>2026-08-23T13:06:29.177Z</time>
      </trkpt>
      <trkpt lat="44.87385" lon="4.17996">
        <ele>1415.415455</ele>
        <time>2026-08-23T13:06:31.175Z</time>
      </trkpt>
      <trkpt lat="44.8737" lon="4.17991">
        <ele>1414.122367</ele>
        <time>2026-08-23T13:06:33.179Z</time>
      </trkpt>
      <trkpt lat="44.87354" lon="4.17982">
        <ele>1412.672149</ele>
        <time>2026-08-23T13:06:35.194Z</time>
      </trkpt>
      <trkpt lat="44.87338" lon="4.17974">
        <ele>1411.21577</ele>
        <time>2026-08-23T13:06:37.191Z</time>
      </trkpt>
      <trkpt lat="44.87329" lon="4.17967">
        <ele>1410.347766</ele>
        <time>2026-08-23T13:06:38.196Z</time>
      </trkpt>
      <trkpt lat="44.87319" lon="4.17961">
        <ele>1409.428394</ele>
        <time>2026-08-23T13:06:39.186Z</time>
      </trkpt>
      <trkpt lat="44.87302" lon="4.17949">
        <ele>1407.847982</ele>
        <time>2026-08-23T13:06:41.187Z</time>
      </trkpt>
      <trkpt lat="44.87293" lon="4.17941">
        <ele>1406.976227</ele>
        <time>2026-08-23T13:06:42.184Z</time>
      </trkpt>
      <trkpt lat="44.87284" lon="4.17934">
        <ele>1406.048689</ele>
        <time>2026-08-23T13:06:43.187Z</time>
      </trkpt>
      <trkpt lat="44.87276" lon="4.17926">
        <ele>1405.231474</ele>
        <time>2026-08-23T13:06:44.185Z</time>
      </trkpt>
      <trkpt lat="44.87261" lon="4.17914">
        <ele>1403.787994</ele>
        <time>2026-08-23T13:06:46.205Z</time>
      </trkpt>
      <trkpt lat="44.87246" lon="4.179">
        <ele>1402.308682</ele>
        <time>2026-08-23T13:06:48.167Z</time>
      </trkpt>
      <trkpt lat="44.87239" lon="4.1789">
        <ele>1401.437902</ele>
        <time>2026-08-23T13:06:49.185Z</time>
      </trkpt>
      <trkpt lat="44.87233" lon="4.17881">
        <ele>1400.677086</ele>
        <time>2026-08-23T13:06:50.165Z</time>
      </trkpt>
      <trkpt lat="44.87227" lon="4.17872">
        <ele>1400.089962</ele>
        <time>2026-08-23T13:06:51.180Z</time>
      </trkpt>
      <trkpt lat="44.8722" lon="4.17861">
        <ele>1399.510223</ele>
        <time>2026-08-23T13:06:52.177Z</time>
      </trkpt>
      <trkpt lat="44.87214" lon="4.17851">
        <ele>1398.940915</ele>
        <time>2026-08-23T13:06:53.164Z</time>
      </trkpt>
      <trkpt lat="44.87207" lon="4.17831">
        <ele>1397.960582</ele>
        <time>2026-08-23T13:06:55.190Z</time>
      </trkpt>
      <trkpt lat="44.87204" lon="4.17812">
        <ele>1397.152462</ele>
        <time>2026-08-23T13:06:57.198Z</time>
      </trkpt>
      <trkpt lat="44.87204" lon="4.17794">
        <ele>1396.34656</ele>
        <time>2026-08-23T13:06:59.178Z</time>
      </trkpt>
      <trkpt lat="44.87204" lon="4.17771">
        <ele>1395.369163</ele>
        <time>2026-08-23T13:07:01.186Z</time>
      </trkpt>
      <trkpt lat="44.87202" lon="4.17756">
        <ele>1394.711663</ele>
        <time>2026-08-23T13:07:03.189Z</time>
      </trkpt>
      <trkpt lat="44.87195" lon="4.17739">
        <ele>1393.887675</ele>
        <time>2026-08-23T13:07:05.182Z</time>
      </trkpt>
      <trkpt lat="44.87186" lon="4.1772">
        <ele>1392.918417</ele>
        <time>2026-08-23T13:07:07.196Z</time>
      </trkpt>
      <trkpt lat="44.87178" lon="4.17698">
        <ele>1391.830517</ele>
        <time>2026-08-23T13:07:09.192Z</time>
      </trkpt>
      <trkpt lat="44.87175" lon="4.17686">
        <ele>1391.278986</ele>
        <time>2026-08-23T13:07:10.188Z</time>
      </trkpt>
      <trkpt lat="44.87169" lon="4.17663">
        <ele>1390.259194</ele>
        <time>2026-08-23T13:07:12.185Z</time>
      </trkpt>
      <trkpt lat="44.87164" lon="4.1764">
        <ele>1388.690063</ele>
        <time>2026-08-23T13:07:14.185Z</time>
      </trkpt>
      <trkpt lat="44.87164" lon="4.17627">
        <ele>1387.444207</ele>
        <time>2026-08-23T13:07:15.191Z</time>
      </trkpt>
      <trkpt lat="44.87162" lon="4.17604">
        <ele>1385.243611</ele>
        <time>2026-08-23T13:07:17.184Z</time>
      </trkpt>
      <trkpt lat="44.87162" lon="4.1759">
        <ele>1383.912401</ele>
        <time>2026-08-23T13:07:18.196Z</time>
      </trkpt>
      <trkpt lat="44.87162" lon="4.17567">
        <ele>1381.709029</ele>
        <time>2026-08-23T13:07:20.190Z</time>
      </trkpt>
      <trkpt lat="44.87164" lon="4.17545">
        <ele>1379.585468</ele>
        <time>2026-08-23T13:07:22.185Z</time>
      </trkpt>
      <trkpt lat="44.87165" lon="4.17525">
        <ele>1377.694431</ele>
        <time>2026-08-23T13:07:24.197Z</time>
      </trkpt>
      <trkpt lat="44.87166" lon="4.17512">
        <ele>1376.410642</ele>
        <time>2026-08-23T13:07:26.187Z</time>
      </trkpt>
      <trkpt lat="44.87166" lon="4.17496">
        <ele>1374.966913</ele>
        <time>2026-08-23T13:07:29.175Z</time>
      </trkpt>
      <trkpt lat="44.87156" lon="4.17492">
        <ele>1373.604456</ele>
        <time>2026-08-23T13:07:33.159Z</time>
      </trkpt>
      <trkpt lat="44.87147" lon="4.17505">
        <ele>1371.901676</ele>
        <time>2026-08-23T13:07:36.176Z</time>
      </trkpt>
      <trkpt lat="44.87144" lon="4.17519">
        <ele>1370.554359</ele>
        <time>2026-08-23T13:07:38.181Z</time>
      </trkpt>
      <trkpt lat="44.87143" lon="4.17534">
        <ele>1369.098351</ele>
        <time>2026-08-23T13:07:40.171Z</time>
      </trkpt>
      <trkpt lat="44.87142" lon="4.1755">
        <ele>1367.570406</ele>
        <time>2026-08-23T13:07:42.173Z</time>
      </trkpt>
      <trkpt lat="44.8714" lon="4.17567">
        <ele>1365.940993</ele>
        <time>2026-08-23T13:07:44.183Z</time>
      </trkpt>
      <trkpt lat="44.87137" lon="4.17584">
        <ele>1365.349373</ele>
        <time>2026-08-23T13:07:46.177Z</time>
      </trkpt>
      <trkpt lat="44.87135" lon="4.17603">
        <ele>1365.043431</ele>
        <time>2026-08-23T13:07:48.176Z</time>
      </trkpt>
      <trkpt lat="44.87135" lon="4.17623">
        <ele>1364.729434</ele>
        <time>2026-08-23T13:07:50.171Z</time>
      </trkpt>
      <trkpt lat="44.87135" lon="4.17643">
        <ele>1364.410637</ele>
        <time>2026-08-23T13:07:52.177Z</time>
      </trkpt>
      <trkpt lat="44.87136" lon="4.17661">
        <ele>1364.116603</ele>
        <time>2026-08-23T13:07:54.175Z</time>
      </trkpt>
      <trkpt lat="44.87139" lon="4.17676">
        <ele>1363.866661</ele>
        <time>2026-08-23T13:07:56.170Z</time>
      </trkpt>
      <trkpt lat="44.87142" lon="4.17689">
        <ele>1363.651484</ele>
        <time>2026-08-23T13:07:58.172Z</time>
      </trkpt>
      <trkpt lat="44.87145" lon="4.17702">
        <ele>1363.435829</ele>
        <time>2026-08-23T13:08:01.159Z</time>
      </trkpt>
      <trkpt lat="44.87144" lon="4.17716">
        <ele>1363.211588</ele>
        <time>2026-08-23T13:08:04.172Z</time>
      </trkpt>
      <trkpt lat="44.8714" lon="4.17734">
        <ele>1362.911286</ele>
        <time>2026-08-23T13:08:07.170Z</time>
      </trkpt>
      <trkpt lat="44.87137" lon="4.17746">
        <ele>1362.704541</ele>
        <time>2026-08-23T13:08:09.177Z</time>
      </trkpt>
      <trkpt lat="44.87131" lon="4.17761">
        <ele>1362.430436</ele>
        <time>2026-08-23T13:08:12.175Z</time>
      </trkpt>
      <trkpt lat="44.87123" lon="4.17768">
        <ele>1362.219699</ele>
        <time>2026-08-23T13:08:14.179Z</time>
      </trkpt>
      <trkpt lat="44.87112" lon="4.17772">
        <ele>1361.972708</ele>
        <time>2026-08-23T13:08:16.177Z</time>
      </trkpt>
      <trkpt lat="44.871" lon="4.17774">
        <ele>1361.700256</ele>
        <time>2026-08-23T13:08:18.178Z</time>
      </trkpt>
      <trkpt lat="44.87087" lon="4.17775">
        <ele>1361.757099</ele>
        <time>2026-08-23T13:08:20.176Z</time>
      </trkpt>
      <trkpt lat="44.87072" lon="4.17777">
        <ele>1362.510334</ele>
        <time>2026-08-23T13:08:22.168Z</time>
      </trkpt>
      <trkpt lat="44.87057" lon="4.17779">
        <ele>1363.24433</ele>
        <time>2026-08-23T13:08:24.172Z</time>
      </trkpt>
      <trkpt lat="44.87043" lon="4.17781">
        <ele>1363.963628</ele>
        <time>2026-08-23T13:08:26.178Z</time>
      </trkpt>
      <trkpt lat="44.87029" lon="4.17783">
        <ele>1364.62136</ele>
        <time>2026-08-23T13:08:28.181Z</time>
      </trkpt>
      <trkpt lat="44.87017" lon="4.17782">
        <ele>1365.213286</ele>
        <time>2026-08-23T13:08:30.172Z</time>
      </trkpt>
      <trkpt lat="44.87006" lon="4.17783">
        <ele>1365.756905</ele>
        <time>2026-08-23T13:08:32.178Z</time>
      </trkpt>
      <trkpt lat="44.86993" lon="4.17786">
        <ele>1366.412139</ele>
        <time>2026-08-23T13:08:35.145Z</time>
      </trkpt>
      <trkpt lat="44.86984" lon="4.1779">
        <ele>1366.90396</ele>
        <time>2026-08-23T13:08:39.172Z</time>
      </trkpt>
      <trkpt lat="44.86975" lon="4.17797">
        <ele>1367.406547</ele>
        <time>2026-08-23T13:08:47.183Z</time>
      </trkpt>
      <trkpt lat="44.86965" lon="4.17803">
        <ele>1367.934377</ele>
        <time>2026-08-23T13:08:54.172Z</time>
      </trkpt>
      <trkpt lat="44.86956" lon="4.17807">
        <ele>1368.395794</ele>
        <time>2026-08-23T13:09:01.170Z</time>
      </trkpt>
      <trkpt lat="44.86947" lon="4.17813">
        <ele>1368.877593</ele>
        <time>2026-08-23T13:09:08.173Z</time>
      </trkpt>
      <trkpt lat="44.86938" lon="4.17817">
        <ele>1369.362502</ele>
        <time>2026-08-23T13:09:14.179Z</time>
      </trkpt>
      <trkpt lat="44.86929" lon="4.17821">
        <ele>1369.808829</ele>
        <time>2026-08-23T13:09:19.175Z</time>
      </trkpt>
      <trkpt lat="44.8692" lon="4.17829">
        <ele>1370.329503</ele>
        <time>2026-08-23T13:09:29.182Z</time>
      </trkpt>
      <trkpt lat="44.86912" lon="4.17836">
        <ele>1371.501979</ele>
        <time>2026-08-23T13:09:35.183Z</time>
      </trkpt>
      <trkpt lat="44.86905" lon="4.17844">
        <ele>1372.789111</ele>
        <time>2026-08-23T13:09:42.171Z</time>
      </trkpt>
      <trkpt lat="44.86897" lon="4.17853">
        <ele>1374.196572</ele>
        <time>2026-08-23T13:09:48.181Z</time>
      </trkpt>
      <trkpt lat="44.86889" lon="4.17861">
        <ele>1375.48419</ele>
        <time>2026-08-23T13:09:54.177Z</time>
      </trkpt>
      <trkpt lat="44.86878" lon="4.17864">
        <ele>1376.92816</ele>
        <time>2026-08-23T13:10:00.177Z</time>
      </trkpt>
      <trkpt lat="44.86868" lon="4.17867">
        <ele>1378.378262</ele>
        <time>2026-08-23T13:10:04.173Z</time>
      </trkpt>
      <trkpt lat="44.86858" lon="4.17868">
        <ele>1379.724625</ele>
        <time>2026-08-23T13:10:08.174Z</time>
      </trkpt>
      <trkpt lat="44.86847" lon="4.17867">
        <ele>1381.166455</ele>
        <time>2026-08-23T13:10:13.171Z</time>
      </trkpt>
      <trkpt lat="44.86838" lon="4.1787">
        <ele>1382.454974</ele>
        <time>2026-08-23T13:10:20.167Z</time>
      </trkpt>
      <trkpt lat="44.86827" lon="4.17868">
        <ele>1383.838651</ele>
        <time>2026-08-23T13:10:27.178Z</time>
      </trkpt>
      <trkpt lat="44.8682" lon="4.17861">
        <ele>1385.054167</ele>
        <time>2026-08-23T13:10:33.179Z</time>
      </trkpt>
      <trkpt lat="44.86811" lon="4.17854">
        <ele>1386.386794</ele>
        <time>2026-08-23T13:10:40.177Z</time>
      </trkpt>
      <trkpt lat="44.86801" lon="4.17851">
        <ele>1387.855237</ele>
        <time>2026-08-23T13:10:46.172Z</time>
      </trkpt>
      <trkpt lat="44.86791" lon="4.17849">
        <ele>1389.149591</ele>
        <time>2026-08-23T13:10:51.176Z</time>
      </trkpt>
      <trkpt lat="44.86781" lon="4.17853">
        <ele>1390.49968</ele>
        <time>2026-08-23T13:10:58.172Z</time>
      </trkpt>
      <trkpt lat="44.86772" lon="4.17858">
        <ele>1391.791448</ele>
        <time>2026-08-23T13:11:04.174Z</time>
      </trkpt>
      <trkpt lat="44.86764" lon="4.17864">
        <ele>1393.095782</ele>
        <time>2026-08-23T13:11:11.171Z</time>
      </trkpt>
      <trkpt lat="44.86756" lon="4.17872">
        <ele>1394.384721</ele>
        <time>2026-08-23T13:11:19.176Z</time>
      </trkpt>
      <trkpt lat="44.86746" lon="4.17877">
        <ele>1395.639296</ele>
        <time>2026-08-23T13:11:25.175Z</time>
      </trkpt>
      <trkpt lat="44.86735" lon="4.1788">
        <ele>1396.927876</ele>
        <time>2026-08-23T13:11:31.176Z</time>
      </trkpt>
      <trkpt lat="44.86726" lon="4.17882">
        <ele>1398.024331</ele>
        <time>2026-08-23T13:11:35.182Z</time>
      </trkpt>
      <trkpt lat="44.86717" lon="4.17885">
        <ele>1399.055195</ele>
        <time>2026-08-23T13:11:40.172Z</time>
      </trkpt>
      <trkpt lat="44.86706" lon="4.17888">
        <ele>1400.306796</ele>
        <time>2026-08-23T13:11:48.174Z</time>
      </trkpt>
      <trkpt lat="44.86697" lon="4.17893">
        <ele>1401.371363</ele>
        <time>2026-08-23T13:11:54.175Z</time>
      </trkpt>
      <trkpt lat="44.8669" lon="4.17883">
        <ele>1402.521289</ele>
        <time>2026-08-23T13:12:08.176Z</time>
      </trkpt>
      <trkpt lat="44.86687" lon="4.17869">
        <ele>1403.758196</ele>
        <time>2026-08-23T13:12:11.177Z</time>
      </trkpt>
      <trkpt lat="44.86682" lon="4.17857">
        <ele>1404.837113</ele>
        <time>2026-08-23T13:12:16.171Z</time>
      </trkpt>
      <trkpt lat="44.86675" lon="4.17846">
        <ele>1406.062583</ele>
        <time>2026-08-23T13:12:21.174Z</time>
      </trkpt>
      <trkpt lat="44.86671" lon="4.17832">
        <ele>1407.228325</ele>
        <time>2026-08-23T13:12:27.171Z</time>
      </trkpt>
      <trkpt lat="44.8667" lon="4.17819">
        <ele>1408.279349</ele>
        <time>2026-08-23T13:12:32.175Z</time>
      </trkpt>
      <trkpt lat="44.86669" lon="4.17805">
        <ele>1409.487196</ele>
        <time>2026-08-23T13:12:38.172Z</time>
      </trkpt>
      <trkpt lat="44.8667" lon="4.17785">
        <ele>1411.063812</ele>
        <time>2026-08-23T13:12:44.178Z</time>
      </trkpt>
      <trkpt lat="44.86673" lon="4.17765">
        <ele>1412.738649</ele>
        <time>2026-08-23T13:12:52.180Z</time>
      </trkpt>
      <trkpt lat="44.86682" lon="4.17745">
        <ele>1414.695354</ele>
        <time>2026-08-23T13:13:02.171Z</time>
      </trkpt>
      <trkpt lat="44.8669" lon="4.17738">
        <ele>1415.211303</ele>
        <time>2026-08-23T13:15:07.176Z</time>
      </trkpt>
      <trkpt lat="44.86687" lon="4.17724">
        <ele>1415.33105</ele>
        <time>2026-08-23T13:15:12.179Z</time>
      </trkpt>
      <trkpt lat="44.86688" lon="4.17712">
        <ele>1415.439518</ele>
        <time>2026-08-23T13:15:16.180Z</time>
      </trkpt>
      <trkpt lat="44.86691" lon="4.17699">
        <ele>1415.550495</ele>
        <time>2026-08-23T13:15:20.178Z</time>
      </trkpt>
      <trkpt lat="44.86696" lon="4.17688">
        <ele>1415.667278</ele>
        <time>2026-08-23T13:15:25.172Z</time>
      </trkpt>
      <trkpt lat="44.86704" lon="4.17677">
        <ele>1415.800943</ele>
        <time>2026-08-23T13:15:29.174Z</time>
      </trkpt>
      <trkpt lat="44.86709" lon="4.17663">
        <ele>1415.936572</ele>
        <time>2026-08-23T13:15:33.186Z</time>
      </trkpt>
      <trkpt lat="44.86714" lon="4.17652">
        <ele>1416.047084</ele>
        <time>2026-08-23T13:15:36.180Z</time>
      </trkpt>
      <trkpt lat="44.86722" lon="4.17636">
        <ele>1416.21462</ele>
        <time>2026-08-23T13:15:40.177Z</time>
      </trkpt>
      <trkpt lat="44.86728" lon="4.17626">
        <ele>1416.329451</ele>
        <time>2026-08-23T13:15:43.181Z</time>
      </trkpt>
      <trkpt lat="44.86734" lon="4.17616">
        <ele>1416.439237</ele>
        <time>2026-08-23T13:15:46.168Z</time>
      </trkpt>
      <trkpt lat="44.86738" lon="4.176">
        <ele>1416.583162</ele>
        <time>2026-08-23T13:15:51.175Z</time>
      </trkpt>
      <trkpt lat="44.86738" lon="4.17587">
        <ele>1416.701222</ele>
        <time>2026-08-23T13:15:55.178Z</time>
      </trkpt>
      <trkpt lat="44.86732" lon="4.17574">
        <ele>1416.831058</ele>
        <time>2026-08-23T13:15:59.175Z</time>
      </trkpt>
      <trkpt lat="44.86725" lon="4.17565">
        <ele>1416.945652</ele>
        <time>2026-08-23T13:16:05.179Z</time>
      </trkpt>
      <trkpt lat="44.8672" lon="4.17553">
        <ele>1417.07062</ele>
        <time>2026-08-23T13:16:12.181Z</time>
      </trkpt>
      <trkpt lat="44.86715" lon="4.17541">
        <ele>1417.186653</ele>
        <time>2026-08-23T13:16:17.175Z</time>
      </trkpt>
      <trkpt lat="44.86716" lon="4.17524">
        <ele>1417.50446</ele>
        <time>2026-08-23T13:16:22.175Z</time>
      </trkpt>
      <trkpt lat="44.86718" lon="4.1751">
        <ele>1419.158319</ele>
        <time>2026-08-23T13:16:27.173Z</time>
      </trkpt>
      <trkpt lat="44.86717" lon="4.17495">
        <ele>1420.848609</ele>
        <time>2026-08-23T13:16:33.173Z</time>
      </trkpt>
      <trkpt lat="44.86711" lon="4.17484">
        <ele>1422.480182</ele>
        <time>2026-08-23T13:16:38.179Z</time>
      </trkpt>
      <trkpt lat="44.86704" lon="4.17473">
        <ele>1424.173117</ele>
        <time>2026-08-23T13:16:44.179Z</time>
      </trkpt>
      <trkpt lat="44.86698" lon="4.17464">
        <ele>1425.681831</ele>
        <time>2026-08-23T13:16:49.175Z</time>
      </trkpt>
      <trkpt lat="44.86692" lon="4.17453">
        <ele>1427.217982</ele>
        <time>2026-08-23T13:16:57.178Z</time>
      </trkpt>
      <trkpt lat="44.86684" lon="4.17446">
        <ele>1428.76231</ele>
        <time>2026-08-23T13:17:01.181Z</time>
      </trkpt>
      <trkpt lat="44.86676" lon="4.17437">
        <ele>1430.404948</ele>
        <time>2026-08-23T13:17:08.177Z</time>
      </trkpt>
      <trkpt lat="44.86671" lon="4.17426">
        <ele>1431.893953</ele>
        <time>2026-08-23T13:17:14.187Z</time>
      </trkpt>
      <trkpt lat="44.86669" lon="4.17412">
        <ele>1433.53749</ele>
        <time>2026-08-23T13:17:21.173Z</time>
      </trkpt>
      <trkpt lat="44.86676" lon="4.17399">
        <ele>1435.337568</ele>
        <time>2026-08-23T13:17:25.173Z</time>
      </trkpt>
      <trkpt lat="44.86679" lon="4.17386">
        <ele>1436.955754</ele>
        <time>2026-08-23T13:17:30.178Z</time>
      </trkpt>
      <trkpt lat="44.86686" lon="4.17375">
        <ele>1438.607396</ele>
        <time>2026-08-23T13:17:33.175Z</time>
      </trkpt>
      <trkpt lat="44.86692" lon="4.17363">
        <ele>1440.409284</ele>
        <time>2026-08-23T13:17:37.177Z</time>
      </trkpt>
      <trkpt lat="44.86697" lon="4.17351">
        <ele>1441.977465</ele>
        <time>2026-08-23T13:17:41.171Z</time>
      </trkpt>
      <trkpt lat="44.86699" lon="4.17337">
        <ele>1443.667551</ele>
        <time>2026-08-23T13:17:46.171Z</time>
      </trkpt>
      <trkpt lat="44.867" lon="4.17323">
        <ele>1445.229059</ele>
        <time>2026-08-23T13:17:52.179Z</time>
      </trkpt>
      <trkpt lat="44.86699" lon="4.1731">
        <ele>1446.678734</ele>
        <time>2026-08-23T13:17:56.178Z</time>
      </trkpt>
      <trkpt lat="44.86697" lon="4.17295">
        <ele>1447.294706</ele>
        <time>2026-08-23T13:18:01.172Z</time>
      </trkpt>
      <trkpt lat="44.86694" lon="4.17283">
        <ele>1447.848318</ele>
        <time>2026-08-23T13:18:06.176Z</time>
      </trkpt>
      <trkpt lat="44.86693" lon="4.17268">
        <ele>1448.451897</ele>
        <time>2026-08-23T13:18:11.171Z</time>
      </trkpt>
      <trkpt lat="44.8669" lon="4.17256">
        <ele>1448.990181</ele>
        <time>2026-08-23T13:18:15.137Z</time>
      </trkpt>
      <trkpt lat="44.86688" lon="4.17243">
        <ele>1449.549503</ele>
        <time>2026-08-23T13:18:19.143Z</time>
      </trkpt>
      <trkpt lat="44.86682" lon="4.17232">
        <ele>1450.111798</ele>
        <time>2026-08-23T13:18:24.176Z</time>
      </trkpt>
      <trkpt lat="44.86679" lon="4.17218">
        <ele>1450.747418</ele>
        <time>2026-08-23T13:18:28.179Z</time>
      </trkpt>
      <trkpt lat="44.86679" lon="4.17202">
        <ele>1451.403056</ele>
        <time>2026-08-23T13:18:33.175Z</time>
      </trkpt>
      <trkpt lat="44.86677" lon="4.17189">
        <ele>1451.95712</ele>
        <time>2026-08-23T13:18:38.175Z</time>
      </trkpt>
      <trkpt lat="44.86672" lon="4.17176">
        <ele>1452.553551</ele>
        <time>2026-08-23T13:18:42.130Z</time>
      </trkpt>
      <trkpt lat="44.8667" lon="4.17163">
        <ele>1453.133283</ele>
        <time>2026-08-23T13:18:47.178Z</time>
      </trkpt>
      <trkpt lat="44.86666" lon="4.1715">
        <ele>1453.714339</ele>
        <time>2026-08-23T13:18:53.182Z</time>
      </trkpt>
      <trkpt lat="44.8666" lon="4.17141">
        <ele>1454.257982</ele>
        <time>2026-08-23T13:18:59.161Z</time>
      </trkpt>
      <trkpt lat="44.86652" lon="4.17133">
        <ele>1454.823829</ele>
        <time>2026-08-23T13:19:05.174Z</time>
      </trkpt>
      <trkpt lat="44.86644" lon="4.17125">
        <ele>1455.411307</ele>
        <time>2026-08-23T13:19:09.175Z</time>
      </trkpt>
      <trkpt lat="44.86637" lon="4.17114">
        <ele>1455.999103</ele>
        <time>2026-08-23T13:19:13.172Z</time>
      </trkpt>
      <trkpt lat="44.86631" lon="4.17104">
        <ele>1456.55648</ele>
        <time>2026-08-23T13:19:17.174Z</time>
      </trkpt>
      <trkpt lat="44.86623" lon="4.17096">
        <ele>1457.137092</ele>
        <time>2026-08-23T13:19:21.172Z</time>
      </trkpt>
      <trkpt lat="44.86616" lon="4.17086">
        <ele>1458.059387</ele>
        <time>2026-08-23T13:19:25.174Z</time>
      </trkpt>
      <trkpt lat="44.86608" lon="4.17077">
        <ele>1459.082149</ele>
        <time>2026-08-23T13:19:29.131Z</time>
      </trkpt>
      <trkpt lat="44.86604" lon="4.17063">
        <ele>1460.1087</ele>
        <time>2026-08-23T13:19:34.173Z</time>
      </trkpt>
      <trkpt lat="44.86597" lon="4.17052">
        <ele>1461.118579</ele>
        <time>2026-08-23T13:19:38.169Z</time>
      </trkpt>
      <trkpt lat="44.86592" lon="4.1704">
        <ele>1462.063862</ele>
        <time>2026-08-23T13:19:43.171Z</time>
      </trkpt>
      <trkpt lat="44.86591" lon="4.17025">
        <ele>1463.112897</ele>
        <time>2026-08-23T13:19:48.175Z</time>
      </trkpt>
      <trkpt lat="44.86587" lon="4.17011">
        <ele>1464.202312</ele>
        <time>2026-08-23T13:19:52.183Z</time>
      </trkpt>
      <trkpt lat="44.8658" lon="4.17002">
        <ele>1465.118748</ele>
        <time>2026-08-23T13:19:55.171Z</time>
      </trkpt>
      <trkpt lat="44.86574" lon="4.16992">
        <ele>1466.055555</ele>
        <time>2026-08-23T13:19:59.175Z</time>
      </trkpt>
      <trkpt lat="44.86569" lon="4.16979">
        <ele>1467.06302</ele>
        <time>2026-08-23T13:20:06.180Z</time>
      </trkpt>
      <trkpt lat="44.86564" lon="4.16968">
        <ele>1468.00034</ele>
        <time>2026-08-23T13:20:12.171Z</time>
      </trkpt>
      <trkpt lat="44.86556" lon="4.16959">
        <ele>1468.95419</ele>
        <time>2026-08-23T13:20:20.172Z</time>
      </trkpt>
      <trkpt lat="44.86547" lon="4.16953">
        <ele>1470.006467</ele>
        <time>2026-08-23T13:20:25.171Z</time>
      </trkpt>
      <trkpt lat="44.86538" lon="4.16946">
        <ele>1470.995506</ele>
        <time>2026-08-23T13:20:30.171Z</time>
      </trkpt>
      <trkpt lat="44.86532" lon="4.16935">
        <ele>1471.978616</ele>
        <time>2026-08-23T13:20:34.175Z</time>
      </trkpt>
      <trkpt lat="44.86525" lon="4.16926">
        <ele>1472.873153</ele>
        <time>2026-08-23T13:20:40.176Z</time>
      </trkpt>
      <trkpt lat="44.86518" lon="4.16914">
        <ele>1473.974265</ele>
        <time>2026-08-23T13:20:46.181Z</time>
      </trkpt>
      <trkpt lat="44.86512" lon="4.16903">
        <ele>1474.896643</ele>
        <time>2026-08-23T13:20:51.173Z</time>
      </trkpt>
      <trkpt lat="44.86505" lon="4.16892">
        <ele>1474.941266</ele>
        <time>2026-08-23T13:20:56.179Z</time>
      </trkpt>
      <trkpt lat="44.86499" lon="4.16878">
        <ele>1474.989584</ele>
        <time>2026-08-23T13:21:00.173Z</time>
      </trkpt>
      <trkpt lat="44.86498" lon="4.16864">
        <ele>1475.033817</ele>
        <time>2026-08-23T13:21:04.171Z</time>
      </trkpt>
      <trkpt lat="44.86493" lon="4.16847">
        <ele>1475.086185</ele>
        <time>2026-08-23T13:21:08.179Z</time>
      </trkpt>
      <trkpt lat="44.86488" lon="4.16834">
        <ele>1475.131037</ele>
        <time>2026-08-23T13:21:12.177Z</time>
      </trkpt>
      <trkpt lat="44.86486" lon="4.1682">
        <ele>1475.176866</ele>
        <time>2026-08-23T13:21:17.174Z</time>
      </trkpt>
      <trkpt lat="44.86484" lon="4.16807">
        <ele>1475.217021</ele>
        <time>2026-08-23T13:21:23.172Z</time>
      </trkpt>
      <trkpt lat="44.86484" lon="4.16792">
        <ele>1475.260221</ele>
        <time>2026-08-23T13:21:28.176Z</time>
      </trkpt>
      <trkpt lat="44.86483" lon="4.16779">
        <ele>1475.302066</ele>
        <time>2026-08-23T13:21:33.173Z</time>
      </trkpt>
      <trkpt lat="44.86486" lon="4.16763">
        <ele>1475.352611</ele>
        <time>2026-08-23T13:21:39.174Z</time>
      </trkpt>
      <trkpt lat="44.86488" lon="4.16749">
        <ele>1475.394967</ele>
        <time>2026-08-23T13:21:44.192Z</time>
      </trkpt>
      <trkpt lat="44.8649" lon="4.16736">
        <ele>1475.435998</ele>
        <time>2026-08-23T13:21:49.175Z</time>
      </trkpt>
      <trkpt lat="44.86489" lon="4.16721">
        <ele>1475.481614</ele>
        <time>2026-08-23T13:21:56.173Z</time>
      </trkpt>
      <trkpt lat="44.86487" lon="4.16708">
        <ele>1475.520117</ele>
        <time>2026-08-23T13:22:01.168Z</time>
      </trkpt>
      <trkpt lat="44.86486" lon="4.16694">
        <ele>1475.563284</ele>
        <time>2026-08-23T13:22:08.176Z</time>
      </trkpt>
      <trkpt lat="44.86485" lon="4.1668">
        <ele>1475.60565</ele>
        <time>2026-08-23T13:22:12.175Z</time>
      </trkpt>
      <trkpt lat="44.86481" lon="4.16668">
        <ele>1475.647243</ele>
        <time>2026-08-23T13:22:16.184Z</time>
      </trkpt>
      <trkpt lat="44.86476" lon="4.16656">
        <ele>1475.934698</ele>
        <time>2026-08-23T13:22:20.176Z</time>
      </trkpt>
      <trkpt lat="44.8647" lon="4.16644">
        <ele>1476.370992</ele>
        <time>2026-08-23T13:22:26.173Z</time>
      </trkpt>
      <trkpt lat="44.86467" lon="4.1663">
        <ele>1476.797378</ele>
        <time>2026-08-23T13:22:32.176Z</time>
      </trkpt>
      <trkpt lat="44.86463" lon="4.16617">
        <ele>1477.22396</ele>
        <time>2026-08-23T13:22:38.180Z</time>
      </trkpt>
      <trkpt lat="44.86458" lon="4.16605">
        <ele>1477.639587</ele>
        <time>2026-08-23T13:22:44.170Z</time>
      </trkpt>
      <trkpt lat="44.86452" lon="4.16595">
        <ele>1478.039137</ele>
        <time>2026-08-23T13:22:50.172Z</time>
      </trkpt>
      <trkpt lat="44.86451" lon="4.16582">
        <ele>1478.425849</ele>
        <time>2026-08-23T13:22:54.168Z</time>
      </trkpt>
      <trkpt lat="44.86454" lon="4.16567">
        <ele>1478.888871</ele>
        <time>2026-08-23T13:22:58.177Z</time>
      </trkpt>
      <trkpt lat="44.86455" lon="4.1655">
        <ele>1479.402504</ele>
        <time>2026-08-23T13:23:02.173Z</time>
      </trkpt>
      <trkpt lat="44.86456" lon="4.16534">
        <ele>1479.885067</ele>
        <time>2026-08-23T13:23:06.180Z</time>
      </trkpt>
      <trkpt lat="44.86454" lon="4.16516">
        <ele>1480.412473</ele>
        <time>2026-08-23T13:23:10.172Z</time>
      </trkpt>
      <trkpt lat="44.86454" lon="4.16502">
        <ele>1480.836463</ele>
        <time>2026-08-23T13:23:13.180Z</time>
      </trkpt>
      <trkpt lat="44.86459" lon="4.16487">
        <ele>1481.339517</ele>
        <time>2026-08-23T13:23:17.176Z</time>
      </trkpt>
      <trkpt lat="44.86468" lon="4.16473">
        <ele>1481.890723</ele>
        <time>2026-08-23T13:23:20.180Z</time>
      </trkpt>
      <trkpt lat="44.86475" lon="4.16463">
        <ele>1482.342178</ele>
        <time>2026-08-23T13:23:23.169Z</time>
      </trkpt>
      <trkpt lat="44.86485" lon="4.1645">
        <ele>1482.893499</ele>
        <time>2026-08-23T13:23:26.176Z</time>
      </trkpt>
      <trkpt lat="44.86492" lon="4.1644">
        <ele>1483.06202</ele>
        <time>2026-08-23T13:23:28.175Z</time>
      </trkpt>
      <trkpt lat="44.865" lon="4.16429">
        <ele>1481.988056</ele>
        <time>2026-08-23T13:23:31.178Z</time>
      </trkpt>
      <trkpt lat="44.86508" lon="4.16419">
        <ele>1481.067004</ele>
        <time>2026-08-23T13:23:34.171Z</time>
      </trkpt>
      <trkpt lat="44.86515" lon="4.16408">
        <ele>1480.097823</ele>
        <time>2026-08-23T13:23:37.177Z</time>
      </trkpt>
      <trkpt lat="44.86522" lon="4.16398">
        <ele>1479.182651</ele>
        <time>2026-08-23T13:23:40.179Z</time>
      </trkpt>
      <trkpt lat="44.86528" lon="4.16388">
        <ele>1478.292899</ele>
        <time>2026-08-23T13:23:43.181Z</time>
      </trkpt>
      <trkpt lat="44.86534" lon="4.16377">
        <ele>1477.388592</ele>
        <time>2026-08-23T13:23:46.172Z</time>
      </trkpt>
      <trkpt lat="44.8654" lon="4.16365">
        <ele>1476.37695</ele>
        <time>2026-08-23T13:23:50.166Z</time>
      </trkpt>
      <trkpt lat="44.86544" lon="4.1635">
        <ele>1475.349741</ele>
        <time>2026-08-23T13:23:53.169Z</time>
      </trkpt>
      <trkpt lat="44.86546" lon="4.16336">
        <ele>1474.426087</ele>
        <time>2026-08-23T13:23:55.203Z</time>
      </trkpt>
      <trkpt lat="44.86548" lon="4.16321">
        <ele>1473.412324</ele>
        <time>2026-08-23T13:23:57.165Z</time>
      </trkpt>
      <trkpt lat="44.86547" lon="4.16307">
        <ele>1472.48963</ele>
        <time>2026-08-23T13:23:59.179Z</time>
      </trkpt>
      <trkpt lat="44.86542" lon="4.1629">
        <ele>1471.321454</ele>
        <time>2026-08-23T13:24:02.172Z</time>
      </trkpt>
      <trkpt lat="44.86536" lon="4.16272">
        <ele>1469.985042</ele>
        <time>2026-08-23T13:24:05.172Z</time>
      </trkpt>
      <trkpt lat="44.86529" lon="4.16259">
        <ele>1468.984206</ele>
        <time>2026-08-23T13:24:07.173Z</time>
      </trkpt>
      <trkpt lat="44.86522" lon="4.16248">
        <ele>1468.000079</ele>
        <time>2026-08-23T13:24:09.179Z</time>
      </trkpt>
      <trkpt lat="44.86516" lon="4.16236">
        <ele>1467.019516</ele>
        <time>2026-08-23T13:24:11.182Z</time>
      </trkpt>
      <trkpt lat="44.86509" lon="4.16224">
        <ele>1465.880148</ele>
        <time>2026-08-23T13:24:13.176Z</time>
      </trkpt>
      <trkpt lat="44.86502" lon="4.1621">
        <ele>1464.572979</ele>
        <time>2026-08-23T13:24:15.170Z</time>
      </trkpt>
      <trkpt lat="44.86494" lon="4.16195">
        <ele>1463.083825</ele>
        <time>2026-08-23T13:24:17.173Z</time>
      </trkpt>
      <trkpt lat="44.86483" lon="4.16179">
        <ele>1461.320183</ele>
        <time>2026-08-23T13:24:19.170Z</time>
      </trkpt>
      <trkpt lat="44.86471" lon="4.16159">
        <ele>1459.321638</ele>
        <time>2026-08-23T13:24:21.175Z</time>
      </trkpt>
      <trkpt lat="44.86465" lon="4.16148">
        <ele>1458.190003</ele>
        <time>2026-08-23T13:24:22.172Z</time>
      </trkpt>
      <trkpt lat="44.86457" lon="4.16136">
        <ele>1457.001105</ele>
        <time>2026-08-23T13:24:23.193Z</time>
      </trkpt>
      <trkpt lat="44.8645" lon="4.16124">
        <ele>1455.730837</ele>
        <time>2026-08-23T13:24:24.173Z</time>
      </trkpt>
      <trkpt lat="44.86442" lon="4.16112">
        <ele>1454.447462</ele>
        <time>2026-08-23T13:24:25.173Z</time>
      </trkpt>
      <trkpt lat="44.86434" lon="4.16098">
        <ele>1453.055955</ele>
        <time>2026-08-23T13:24:26.176Z</time>
      </trkpt>
      <trkpt lat="44.86426" lon="4.16083">
        <ele>1451.615808</ele>
        <time>2026-08-23T13:24:27.169Z</time>
      </trkpt>
      <trkpt lat="44.86416" lon="4.16069">
        <ele>1450.07291</ele>
        <time>2026-08-23T13:24:28.169Z</time>
      </trkpt>
      <trkpt lat="44.86407" lon="4.16057">
        <ele>1448.70899</ele>
        <time>2026-08-23T13:24:29.171Z</time>
      </trkpt>
      <trkpt lat="44.86399" lon="4.16044">
        <ele>1447.34846</ele>
        <time>2026-08-23T13:24:30.178Z</time>
      </trkpt>
      <trkpt lat="44.8639" lon="4.16032">
        <ele>1446.75809</ele>
        <time>2026-08-23T13:24:31.175Z</time>
      </trkpt>
      <trkpt lat="44.86382" lon="4.16019">
        <ele>1446.592904</ele>
        <time>2026-08-23T13:24:32.173Z</time>
      </trkpt>
      <trkpt lat="44.86374" lon="4.16007">
        <ele>1446.428921</ele>
        <time>2026-08-23T13:24:33.172Z</time>
      </trkpt>
      <trkpt lat="44.86366" lon="4.15995">
        <ele>1446.272263</ele>
        <time>2026-08-23T13:24:34.165Z</time>
      </trkpt>
      <trkpt lat="44.86359" lon="4.15984">
        <ele>1446.124065</ele>
        <time>2026-08-23T13:24:35.173Z</time>
      </trkpt>
      <trkpt lat="44.86352" lon="4.15974">
        <ele>1445.986986</ele>
        <time>2026-08-23T13:24:36.167Z</time>
      </trkpt>
      <trkpt lat="44.86345" lon="4.15965">
        <ele>1445.848291</ele>
        <time>2026-08-23T13:24:37.173Z</time>
      </trkpt>
      <trkpt lat="44.86336" lon="4.15946">
        <ele>1445.630989</ele>
        <time>2026-08-23T13:24:39.176Z</time>
      </trkpt>
      <trkpt lat="44.86328" lon="4.15927">
        <ele>1445.421428</ele>
        <time>2026-08-23T13:24:41.178Z</time>
      </trkpt>
      <trkpt lat="44.86326" lon="4.15911">
        <ele>1445.257426</ele>
        <time>2026-08-23T13:24:43.170Z</time>
      </trkpt>
      <trkpt lat="44.86327" lon="4.15897">
        <ele>1445.125728</ele>
        <time>2026-08-23T13:24:45.179Z</time>
      </trkpt>
      <trkpt lat="44.86335" lon="4.15881">
        <ele>1444.931553</ele>
        <time>2026-08-23T13:24:48.181Z</time>
      </trkpt>
      <trkpt lat="44.86342" lon="4.15868">
        <ele>1444.765431</ele>
        <time>2026-08-23T13:24:51.163Z</time>
      </trkpt>
      <trkpt lat="44.86348" lon="4.15858">
        <ele>1444.640023</ele>
        <time>2026-08-23T13:24:53.171Z</time>
      </trkpt>
      <trkpt lat="44.86354" lon="4.15849">
        <ele>1444.515919</ele>
        <time>2026-08-23T13:24:56.179Z</time>
      </trkpt>
      <trkpt lat="44.86364" lon="4.15846">
        <ele>1444.450484</ele>
        <time>2026-08-23T13:24:59.154Z</time>
      </trkpt>
      <trkpt lat="44.86371" lon="4.15837">
        <ele>1445.244332</ele>
        <time>2026-08-23T13:25:02.174Z</time>
      </trkpt>
      <trkpt lat="44.86381" lon="4.15828">
        <ele>1446.246115</ele>
        <time>2026-08-23T13:25:06.175Z</time>
      </trkpt>
      <trkpt lat="44.86387" lon="4.15818">
        <ele>1447.05188</ele>
        <time>2026-08-23T13:25:10.179Z</time>
      </trkpt>
      <trkpt lat="44.86391" lon="4.15805">
        <ele>1447.903863</ele>
        <time>2026-08-23T13:25:15.181Z</time>
      </trkpt>
      <trkpt lat="44.86393" lon="4.15789">
        <ele>1448.941988</ele>
        <time>2026-08-23T13:25:19.178Z</time>
      </trkpt>
      <trkpt lat="44.86398" lon="4.15775">
        <ele>1449.890153</ele>
        <time>2026-08-23T13:25:22.173Z</time>
      </trkpt>
      <trkpt lat="44.86403" lon="4.15762">
        <ele>1450.782527</ele>
        <time>2026-08-23T13:25:25.175Z</time>
      </trkpt>
      <trkpt lat="44.86408" lon="4.15748">
        <ele>1451.70258</ele>
        <time>2026-08-23T13:25:28.170Z</time>
      </trkpt>
      <trkpt lat="44.86415" lon="4.15735">
        <ele>1452.711621</ele>
        <time>2026-08-23T13:25:31.183Z</time>
      </trkpt>
      <trkpt lat="44.86419" lon="4.1572">
        <ele>1453.669212</ele>
        <time>2026-08-23T13:25:34.168Z</time>
      </trkpt>
      <trkpt lat="44.86423" lon="4.15708">
        <ele>1454.526684</ele>
        <time>2026-08-23T13:25:37.171Z</time>
      </trkpt>
      <trkpt lat="44.86429" lon="4.15692">
        <ele>1455.613355</ele>
        <time>2026-08-23T13:25:40.172Z</time>
      </trkpt>
      <trkpt lat="44.86433" lon="4.15676">
        <ele>1456.615399</ele>
        <time>2026-08-23T13:25:43.176Z</time>
      </trkpt>
      <trkpt lat="44.86438" lon="4.15664">
        <ele>1457.497633</ele>
        <time>2026-08-23T13:25:46.173Z</time>
      </trkpt>
      <trkpt lat="44.86442" lon="4.15651">
        <ele>1458.309496</ele>
        <time>2026-08-23T13:25:49.181Z</time>
      </trkpt>
      <trkpt lat="44.86446" lon="4.15638">
        <ele>1459.207699</ele>
        <time>2026-08-23T13:25:52.175Z</time>
      </trkpt>
      <trkpt lat="44.86448" lon="4.15623">
        <ele>1459.967099</ele>
        <time>2026-08-23T13:25:55.171Z</time>
      </trkpt>
      <trkpt lat="44.86443" lon="4.1561">
        <ele>1460.391781</ele>
        <time>2026-08-23T13:25:58.173Z</time>
      </trkpt>
      <trkpt lat="44.86435" lon="4.15601">
        <ele>1460.813706</ele>
        <time>2026-08-23T13:26:01.145Z</time>
      </trkpt>
      <trkpt lat="44.86425" lon="4.15593">
        <ele>1461.257278</ele>
        <time>2026-08-23T13:26:04.172Z</time>
      </trkpt>
      <trkpt lat="44.86414" lon="4.15587">
        <ele>1461.691121</ele>
        <time>2026-08-23T13:26:07.175Z</time>
      </trkpt>
      <trkpt lat="44.86404" lon="4.15582">
        <ele>1462.100548</ele>
        <time>2026-08-23T13:26:10.171Z</time>
      </trkpt>
      <trkpt lat="44.86394" lon="4.1558">
        <ele>1462.487376</ele>
        <time>2026-08-23T13:26:13.175Z</time>
      </trkpt>
      <trkpt lat="44.86384" lon="4.15578">
        <ele>1462.902173</ele>
        <time>2026-08-23T13:26:16.171Z</time>
      </trkpt>
      <trkpt lat="44.86375" lon="4.15586">
        <ele>1463.28372</ele>
        <time>2026-08-23T13:26:20.173Z</time>
      </trkpt>
      <trkpt lat="44.86364" lon="4.1559">
        <ele>1463.724692</ele>
        <time>2026-08-23T13:26:23.169Z</time>
      </trkpt>
      <trkpt lat="44.86355" lon="4.15594">
        <ele>1464.117392</ele>
        <time>2026-08-23T13:26:26.147Z</time>
      </trkpt>
      <trkpt lat="44.86345" lon="4.15602">
        <ele>1464.549723</ele>
        <time>2026-08-23T13:26:31.176Z</time>
      </trkpt>
      <trkpt lat="44.86337" lon="4.15609">
        <ele>1464.922452</ele>
        <time>2026-08-23T13:26:34.172Z</time>
      </trkpt>
      <trkpt lat="44.86327" lon="4.15612">
        <ele>1465.311123</ele>
        <time>2026-08-23T13:26:39.177Z</time>
      </trkpt>
      <trkpt lat="44.86317" lon="4.15613">
        <ele>1465.692192</ele>
        <time>2026-08-23T13:26:42.176Z</time>
      </trkpt>
      <trkpt lat="44.86305" lon="4.15615">
        <ele>1466.157096</ele>
        <time>2026-08-23T13:26:45.177Z</time>
      </trkpt>
      <trkpt lat="44.86295" lon="4.1561">
        <ele>1466.579945</ele>
        <time>2026-08-23T13:26:48.173Z</time>
      </trkpt>
      <trkpt lat="44.86286" lon="4.15601">
        <ele>1466.439905</ele>
        <time>2026-08-23T13:26:51.178Z</time>
      </trkpt>
      <trkpt lat="44.86279" lon="4.15592">
        <ele>1465.557861</ele>
        <time>2026-08-23T13:26:53.175Z</time>
      </trkpt>
      <trkpt lat="44.8627" lon="4.15578">
        <ele>1464.367128</ele>
        <time>2026-08-23T13:26:56.187Z</time>
      </trkpt>
      <trkpt lat="44.86261" lon="4.15562">
        <ele>1463.062922</ele>
        <time>2026-08-23T13:26:59.177Z</time>
      </trkpt>
      <trkpt lat="44.86255" lon="4.15549">
        <ele>1462.053979</ele>
        <time>2026-08-23T13:27:01.171Z</time>
      </trkpt>
      <trkpt lat="44.86248" lon="4.15534">
        <ele>1460.966852</ele>
        <time>2026-08-23T13:27:03.172Z</time>
      </trkpt>
      <trkpt lat="44.86239" lon="4.15518">
        <ele>1459.644745</ele>
        <time>2026-08-23T13:27:05.173Z</time>
      </trkpt>
      <trkpt lat="44.86226" lon="4.15504">
        <ele>1458.216733</ele>
        <time>2026-08-23T13:27:07.174Z</time>
      </trkpt>
      <trkpt lat="44.86211" lon="4.15497">
        <ele>1456.767494</ele>
        <time>2026-08-23T13:27:09.177Z</time>
      </trkpt>
      <trkpt lat="44.86195" lon="4.15489">
        <ele>1455.299145</ele>
        <time>2026-08-23T13:27:11.177Z</time>
      </trkpt>
      <trkpt lat="44.86184" lon="4.15476">
        <ele>1453.986429</ele>
        <time>2026-08-23T13:27:13.180Z</time>
      </trkpt>
      <trkpt lat="44.86173" lon="4.15462">
        <ele>1452.713144</ele>
        <time>2026-08-23T13:27:15.177Z</time>
      </trkpt>
      <trkpt lat="44.86163" lon="4.15447">
        <ele>1451.339214</ele>
        <time>2026-08-23T13:27:17.171Z</time>
      </trkpt>
      <trkpt lat="44.86152" lon="4.1543">
        <ele>1450.081674</ele>
        <time>2026-08-23T13:27:19.178Z</time>
      </trkpt>
      <trkpt lat="44.86142" lon="4.15415">
        <ele>1449.022978</ele>
        <time>2026-08-23T13:27:21.174Z</time>
      </trkpt>
      <trkpt lat="44.86132" lon="4.15398">
        <ele>1447.931174</ele>
        <time>2026-08-23T13:27:23.176Z</time>
      </trkpt>
      <trkpt lat="44.86127" lon="4.15388">
        <ele>1447.273073</ele>
        <time>2026-08-23T13:27:24.176Z</time>
      </trkpt>
      <trkpt lat="44.86121" lon="4.15378">
        <ele>1446.594045</ele>
        <time>2026-08-23T13:27:25.176Z</time>
      </trkpt>
      <trkpt lat="44.86108" lon="4.15359">
        <ele>1445.262499</ele>
        <time>2026-08-23T13:27:27.140Z</time>
      </trkpt>
      <trkpt lat="44.86101" lon="4.15349">
        <ele>1444.564565</ele>
        <time>2026-08-23T13:27:28.167Z</time>
      </trkpt>
      <trkpt lat="44.86094" lon="4.15338">
        <ele>1443.821174</ele>
        <time>2026-08-23T13:27:29.166Z</time>
      </trkpt>
      <trkpt lat="44.86087" lon="4.15328">
        <ele>1443.090713</ele>
        <time>2026-08-23T13:27:30.146Z</time>
      </trkpt>
      <trkpt lat="44.86081" lon="4.15318">
        <ele>1442.386157</ele>
        <time>2026-08-23T13:27:31.133Z</time>
      </trkpt>
      <trkpt lat="44.86074" lon="4.15308">
        <ele>1441.698506</ele>
        <time>2026-08-23T13:27:32.186Z</time>
      </trkpt>
      <trkpt lat="44.86066" lon="4.15298">
        <ele>1440.916827</ele>
        <time>2026-08-23T13:27:33.149Z</time>
      </trkpt>
      <trkpt lat="44.86057" lon="4.15287">
        <ele>1440.082826</ele>
        <time>2026-08-23T13:27:34.156Z</time>
      </trkpt>
      <trkpt lat="44.8605" lon="4.15274">
        <ele>1439.234615</ele>
        <time>2026-08-23T13:27:35.157Z</time>
      </trkpt>
      <trkpt lat="44.86042" lon="4.15263">
        <ele>1438.434905</ele>
        <time>2026-08-23T13:27:36.134Z</time>
      </trkpt>
      <trkpt lat="44.86033" lon="4.15252">
        <ele>1437.805164</ele>
        <time>2026-08-23T13:27:37.169Z</time>
      </trkpt>
      <trkpt lat="44.86025" lon="4.15241">
        <ele>1437.769287</ele>
        <time>2026-08-23T13:27:38.183Z</time>
      </trkpt>
      <trkpt lat="44.86017" lon="4.15229">
        <ele>1437.733494</ele>
        <time>2026-08-23T13:27:39.129Z</time>
      </trkpt>
      <trkpt lat="44.86008" lon="4.15219">
        <ele>1437.69768</ele>
        <time>2026-08-23T13:27:40.171Z</time>
      </trkpt>
      <trkpt lat="44.86001" lon="4.15209">
        <ele>1437.66522</ele>
        <time>2026-08-23T13:27:41.179Z</time>
      </trkpt>
      <trkpt lat="44.85993" lon="4.15198">
        <ele>1437.630676</ele>
        <time>2026-08-23T13:27:42.177Z</time>
      </trkpt>
      <trkpt lat="44.85985" lon="4.15188">
        <ele>1437.598491</ele>
        <time>2026-08-23T13:27:43.178Z</time>
      </trkpt>
      <trkpt lat="44.85978" lon="4.15179">
        <ele>1437.566396</ele>
        <time>2026-08-23T13:27:44.155Z</time>
      </trkpt>
      <trkpt lat="44.85971" lon="4.1517">
        <ele>1437.537424</ele>
        <time>2026-08-23T13:27:45.175Z</time>
      </trkpt>
      <trkpt lat="44.85965" lon="4.1516">
        <ele>1437.508958</ele>
        <time>2026-08-23T13:27:46.174Z</time>
      </trkpt>
      <trkpt lat="44.85954" lon="4.15143">
        <ele>1437.456548</ele>
        <time>2026-08-23T13:27:48.175Z</time>
      </trkpt>
      <trkpt lat="44.85944" lon="4.15124">
        <ele>1437.405039</ele>
        <time>2026-08-23T13:27:50.180Z</time>
      </trkpt>
      <trkpt lat="44.85934" lon="4.15107">
        <ele>1437.357334</ele>
        <time>2026-08-23T13:27:52.180Z</time>
      </trkpt>
      <trkpt lat="44.85925" lon="4.15088">
        <ele>1437.307475</ele>
        <time>2026-08-23T13:27:54.163Z</time>
      </trkpt>
      <trkpt lat="44.85917" lon="4.1507">
        <ele>1437.260458</ele>
        <time>2026-08-23T13:27:56.175Z</time>
      </trkpt>
      <trkpt lat="44.85908" lon="4.15056">
        <ele>1437.650534</ele>
        <time>2026-08-23T13:27:58.173Z</time>
      </trkpt>
      <trkpt lat="44.85901" lon="4.15041">
        <ele>1438.111732</ele>
        <time>2026-08-23T13:28:00.173Z</time>
      </trkpt>
      <trkpt lat="44.85894" lon="4.15027">
        <ele>1438.572956</ele>
        <time>2026-08-23T13:28:02.186Z</time>
      </trkpt>
      <trkpt lat="44.85887" lon="4.15013">
        <ele>1439.017054</ele>
        <time>2026-08-23T13:28:04.140Z</time>
      </trkpt>
      <trkpt lat="44.85882" lon="4.15">
        <ele>1439.397231</ele>
        <time>2026-08-23T13:28:06.175Z</time>
      </trkpt>
      <trkpt lat="44.85877" lon="4.14989">
        <ele>1439.738141</ele>
        <time>2026-08-23T13:28:08.175Z</time>
      </trkpt>
      <trkpt lat="44.85872" lon="4.14976">
        <ele>1440.107656</ele>
        <time>2026-08-23T13:28:10.187Z</time>
      </trkpt>
      <trkpt lat="44.85865" lon="4.14961">
        <ele>1440.566565</ele>
        <time>2026-08-23T13:28:13.175Z</time>
      </trkpt>
      <trkpt lat="44.85858" lon="4.14946">
        <ele>1441.036148</ele>
        <time>2026-08-23T13:28:16.175Z</time>
      </trkpt>
      <trkpt lat="44.85852" lon="4.14932">
        <ele>1441.459634</ele>
        <time>2026-08-23T13:28:19.175Z</time>
      </trkpt>
      <trkpt lat="44.85846" lon="4.14916">
        <ele>1441.924266</ele>
        <time>2026-08-23T13:28:22.175Z</time>
      </trkpt>
      <trkpt lat="44.85842" lon="4.14901">
        <ele>1442.344552</ele>
        <time>2026-08-23T13:28:25.181Z</time>
      </trkpt>
      <trkpt lat="44.85837" lon="4.14887">
        <ele>1442.749283</ele>
        <time>2026-08-23T13:28:28.193Z</time>
      </trkpt>
      <trkpt lat="44.85833" lon="4.14876">
        <ele>1443.082964</ele>
        <time>2026-08-23T13:28:31.175Z</time>
      </trkpt>
      <trkpt lat="44.85828" lon="4.14865">
        <ele>1443.417339</ele>
        <time>2026-08-23T13:28:35.172Z</time>
      </trkpt>
      <trkpt lat="44.85822" lon="4.14852">
        <ele>1443.814946</ele>
        <time>2026-08-23T13:28:40.176Z</time>
      </trkpt>
      <trkpt lat="44.85816" lon="4.14841">
        <ele>1443.954247</ele>
        <time>2026-08-23T13:28:44.172Z</time>
      </trkpt>
      <trkpt lat="44.85809" lon="4.14831">
        <ele>1444.088157</ele>
        <time>2026-08-23T13:28:48.186Z</time>
      </trkpt>
      <trkpt lat="44.85803" lon="4.14818">
        <ele>1444.233726</ele>
        <time>2026-08-23T13:28:53.175Z</time>
      </trkpt>
      <trkpt lat="44.85793" lon="4.14803">
        <ele>1444.42238</ele>
        <time>2026-08-23T13:29:57.176Z</time>
      </trkpt>
      <trkpt lat="44.85787" lon="4.14793">
        <ele>1444.545566</ele>
        <time>2026-08-23T13:30:02.177Z</time>
      </trkpt>
      <trkpt lat="44.85782" lon="4.1478">
        <ele>1444.680078</ele>
        <time>2026-08-23T13:30:07.176Z</time>
      </trkpt>
      <trkpt lat="44.85777" lon="4.14767">
        <ele>1444.818813</ele>
        <time>2026-08-23T13:30:11.175Z</time>
      </trkpt>
      <trkpt lat="44.85773" lon="4.14754">
        <ele>1444.952483</ele>
        <time>2026-08-23T13:30:14.188Z</time>
      </trkpt>
      <trkpt lat="44.85769" lon="4.14742">
        <ele>1445.077147</ele>
        <time>2026-08-23T13:30:17.174Z</time>
      </trkpt>
      <trkpt lat="44.85765" lon="4.1473">
        <ele>1445.202264</ele>
        <time>2026-08-23T13:30:20.175Z</time>
      </trkpt>
      <trkpt lat="44.85762" lon="4.14714">
        <ele>1445.357636</ele>
        <time>2026-08-23T13:30:23.175Z</time>
      </trkpt>
      <trkpt lat="44.85758" lon="4.14702">
        <ele>1445.477351</ele>
        <time>2026-08-23T13:30:25.174Z</time>
      </trkpt>
      <trkpt lat="44.85754" lon="4.14684">
        <ele>1445.653379</ele>
        <time>2026-08-23T13:30:28.180Z</time>
      </trkpt>
      <trkpt lat="44.85751" lon="4.14672">
        <ele>1445.780113</ele>
        <time>2026-08-23T13:30:30.175Z</time>
      </trkpt>
      <trkpt lat="44.85747" lon="4.14659">
        <ele>1445.90729</ele>
        <time>2026-08-23T13:30:32.177Z</time>
      </trkpt>
      <trkpt lat="44.85743" lon="4.14646">
        <ele>1446.040821</ele>
        <time>2026-08-23T13:30:34.171Z</time>
      </trkpt>
      <trkpt lat="44.85741" lon="4.14632">
        <ele>1446.175009</ele>
        <time>2026-08-23T13:30:36.174Z</time>
      </trkpt>
      <trkpt lat="44.85737" lon="4.14619">
        <ele>1445.679012</ele>
        <time>2026-08-23T13:30:38.173Z</time>
      </trkpt>
      <trkpt lat="44.85731" lon="4.14605">
        <ele>1444.965409</ele>
        <time>2026-08-23T13:30:40.177Z</time>
      </trkpt>
      <trkpt lat="44.85726" lon="4.14591">
        <ele>1444.270318</ele>
        <time>2026-08-23T13:30:42.172Z</time>
      </trkpt>
      <trkpt lat="44.85721" lon="4.14576">
        <ele>1443.528287</ele>
        <time>2026-08-23T13:30:44.174Z</time>
      </trkpt>
      <trkpt lat="44.85716" lon="4.14561">
        <ele>1442.789001</ele>
        <time>2026-08-23T13:30:46.174Z</time>
      </trkpt>
      <trkpt lat="44.85711" lon="4.14544">
        <ele>1441.985816</ele>
        <time>2026-08-23T13:30:48.174Z</time>
      </trkpt>
      <trkpt lat="44.85705" lon="4.14527">
        <ele>1441.127472</ele>
        <time>2026-08-23T13:30:50.177Z</time>
      </trkpt>
      <trkpt lat="44.85697" lon="4.14511">
        <ele>1440.278955</ele>
        <time>2026-08-23T13:30:52.178Z</time>
      </trkpt>
      <trkpt lat="44.85689" lon="4.14496">
        <ele>1439.444203</ele>
        <time>2026-08-23T13:30:54.180Z</time>
      </trkpt>
      <trkpt lat="44.8568" lon="4.14483">
        <ele>1438.610838</ele>
        <time>2026-08-23T13:30:56.180Z</time>
      </trkpt>
      <trkpt lat="44.8567" lon="4.14475">
        <ele>1437.889758</ele>
        <time>2026-08-23T13:30:58.176Z</time>
      </trkpt>
      <trkpt lat="44.85657" lon="4.14473">
        <ele>1437.118147</ele>
        <time>2026-08-23T13:31:00.175Z</time>
      </trkpt>
      <trkpt lat="44.85645" lon="4.1447">
        <ele>1436.304723</ele>
        <time>2026-08-23T13:31:02.173Z</time>
      </trkpt>
      <trkpt lat="44.8563" lon="4.1447">
        <ele>1435.38292</ele>
        <time>2026-08-23T13:31:04.178Z</time>
      </trkpt>
      <trkpt lat="44.85615" lon="4.14467">
        <ele>1434.480865</ele>
        <time>2026-08-23T13:31:06.170Z</time>
      </trkpt>
      <trkpt lat="44.85598" lon="4.14465">
        <ele>1433.525968</ele>
        <time>2026-08-23T13:31:08.175Z</time>
      </trkpt>
      <trkpt lat="44.85589" lon="4.14464">
        <ele>1433.003297</ele>
        <time>2026-08-23T13:31:09.151Z</time>
      </trkpt>
      <trkpt lat="44.85579" lon="4.14465">
        <ele>1432.441293</ele>
        <time>2026-08-23T13:31:10.174Z</time>
      </trkpt>
      <trkpt lat="44.85569" lon="4.14464">
        <ele>1431.877937</ele>
        <time>2026-08-23T13:31:11.176Z</time>
      </trkpt>
      <trkpt lat="44.85559" lon="4.14463">
        <ele>1431.327099</ele>
        <time>2026-08-23T13:31:12.172Z</time>
      </trkpt>
      <trkpt lat="44.85548" lon="4.14463">
        <ele>1430.74201</ele>
        <time>2026-08-23T13:31:13.175Z</time>
      </trkpt>
      <trkpt lat="44.85538" lon="4.14461">
        <ele>1430.159257</ele>
        <time>2026-08-23T13:31:14.179Z</time>
      </trkpt>
      <trkpt lat="44.85522" lon="4.14459">
        <ele>1429.266666</ele>
        <time>2026-08-23T13:31:16.173Z</time>
      </trkpt>
      <trkpt lat="44.8551" lon="4.14455">
        <ele>1428.55604</ele>
        <time>2026-08-23T13:31:18.172Z</time>
      </trkpt>
      <trkpt lat="44.85499" lon="4.14446">
        <ele>1427.816822</ele>
        <time>2026-08-23T13:31:20.174Z</time>
      </trkpt>
      <trkpt lat="44.85487" lon="4.14431">
        <ele>1426.929525</ele>
        <time>2026-08-23T13:31:22.171Z</time>
      </trkpt>
      <trkpt lat="44.85475" lon="4.14413">
        <ele>1425.959606</ele>
        <time>2026-08-23T13:31:24.168Z</time>
      </trkpt>
      <trkpt lat="44.85464" lon="4.14394">
        <ele>1425.005376</ele>
        <time>2026-08-23T13:31:26.174Z</time>
      </trkpt>
      <trkpt lat="44.85454" lon="4.14375">
        <ele>1424.074281</ele>
        <time>2026-08-23T13:31:28.173Z</time>
      </trkpt>
      <trkpt lat="44.85444" lon="4.14357">
        <ele>1423.19173</ele>
        <time>2026-08-23T13:31:30.180Z</time>
      </trkpt>
      <trkpt lat="44.85434" lon="4.14339">
        <ele>1422.298889</ele>
        <time>2026-08-23T13:31:32.180Z</time>
      </trkpt>
      <trkpt lat="44.85422" lon="4.14324">
        <ele>1421.451821</ele>
        <time>2026-08-23T13:31:34.173Z</time>
      </trkpt>
      <trkpt lat="44.85409" lon="4.14311">
        <ele>1420.609879</ele>
        <time>2026-08-23T13:31:36.180Z</time>
      </trkpt>
      <trkpt lat="44.85396" lon="4.14302">
        <ele>1419.806708</ele>
        <time>2026-08-23T13:31:38.183Z</time>
      </trkpt>
      <trkpt lat="44.85382" lon="4.14292">
        <ele>1418.963165</ele>
        <time>2026-08-23T13:31:40.174Z</time>
      </trkpt>
      <trkpt lat="44.85368" lon="4.14285">
        <ele>1418.145797</ele>
        <time>2026-08-23T13:31:42.172Z</time>
      </trkpt>
      <trkpt lat="44.85352" lon="4.14279">
        <ele>1417.279515</ele>
        <time>2026-08-23T13:31:44.178Z</time>
      </trkpt>
      <trkpt lat="44.85337" lon="4.14272">
        <ele>1416.403528</ele>
        <time>2026-08-23T13:31:46.175Z</time>
      </trkpt>
      <trkpt lat="44.85321" lon="4.14264">
        <ele>1415.491697</ele>
        <time>2026-08-23T13:31:48.169Z</time>
      </trkpt>
      <trkpt lat="44.85305" lon="4.14255">
        <ele>1414.436089</ele>
        <time>2026-08-23T13:31:50.173Z</time>
      </trkpt>
      <trkpt lat="44.85289" lon="4.14248">
        <ele>1413.324753</ele>
        <time>2026-08-23T13:31:52.170Z</time>
      </trkpt>
      <trkpt lat="44.85274" lon="4.14241">
        <ele>1412.280954</ele>
        <time>2026-08-23T13:31:54.172Z</time>
      </trkpt>
      <trkpt lat="44.85261" lon="4.14231">
        <ele>1411.339044</ele>
        <time>2026-08-23T13:31:56.179Z</time>
      </trkpt>
      <trkpt lat="44.85253" lon="4.1422">
        <ele>1410.582957</ele>
        <time>2026-08-23T13:31:58.173Z</time>
      </trkpt>
      <trkpt lat="44.85246" lon="4.14206">
        <ele>1409.786899</ele>
        <time>2026-08-23T13:32:00.169Z</time>
      </trkpt>
      <trkpt lat="44.85238" lon="4.1419">
        <ele>1408.892283</ele>
        <time>2026-08-23T13:32:02.174Z</time>
      </trkpt>
      <trkpt lat="44.8523" lon="4.14172">
        <ele>1407.900082</ele>
        <time>2026-08-23T13:32:04.174Z</time>
      </trkpt>
      <trkpt lat="44.85221" lon="4.14153">
        <ele>1406.857625</ele>
        <time>2026-08-23T13:32:06.186Z</time>
      </trkpt>
      <trkpt lat="44.8521" lon="4.14137">
        <ele>1405.827337</ele>
        <time>2026-08-23T13:32:08.173Z</time>
      </trkpt>
      <trkpt lat="44.852" lon="4.1412">
        <ele>1404.766623</ele>
        <time>2026-08-23T13:32:10.177Z</time>
      </trkpt>
      <trkpt lat="44.85187" lon="4.14104">
        <ele>1403.663379</ele>
        <time>2026-08-23T13:32:12.173Z</time>
      </trkpt>
      <trkpt lat="44.85174" lon="4.14088">
        <ele>1402.539588</ele>
        <time>2026-08-23T13:32:14.178Z</time>
      </trkpt>
      <trkpt lat="44.85168" lon="4.14076">
        <ele>1401.927538</ele>
        <time>2026-08-23T13:32:15.175Z</time>
      </trkpt>
      <trkpt lat="44.85163" lon="4.14066">
        <ele>1401.355067</ele>
        <time>2026-08-23T13:32:16.175Z</time>
      </trkpt>
      <trkpt lat="44.85157" lon="4.14056">
        <ele>1400.763112</ele>
        <time>2026-08-23T13:32:17.174Z</time>
      </trkpt>
      <trkpt lat="44.8515" lon="4.14046">
        <ele>1400.157909</ele>
        <time>2026-08-23T13:32:18.177Z</time>
      </trkpt>
      <trkpt lat="44.85143" lon="4.14037">
        <ele>1399.5376</ele>
        <time>2026-08-23T13:32:19.177Z</time>
      </trkpt>
      <trkpt lat="44.85135" lon="4.1403">
        <ele>1398.924821</ele>
        <time>2026-08-23T13:32:20.175Z</time>
      </trkpt>
      <trkpt lat="44.85125" lon="4.14026">
        <ele>1398.289805</ele>
        <time>2026-08-23T13:32:21.173Z</time>
      </trkpt>
      <trkpt lat="44.85116" lon="4.14023">
        <ele>1397.662414</ele>
        <time>2026-08-23T13:32:22.172Z</time>
      </trkpt>
      <trkpt lat="44.85106" lon="4.14021">
        <ele>1397.055609</ele>
        <time>2026-08-23T13:32:23.196Z</time>
      </trkpt>
      <trkpt lat="44.85097" lon="4.14017">
        <ele>1396.472929</ele>
        <time>2026-08-23T13:32:24.178Z</time>
      </trkpt>
      <trkpt lat="44.85089" lon="4.14012">
        <ele>1395.878237</ele>
        <time>2026-08-23T13:32:25.176Z</time>
      </trkpt>
      <trkpt lat="44.85081" lon="4.14004">
        <ele>1395.27482</ele>
        <time>2026-08-23T13:32:26.175Z</time>
      </trkpt>
      <trkpt lat="44.85073" lon="4.13998">
        <ele>1394.695084</ele>
        <time>2026-08-23T13:32:27.139Z</time>
      </trkpt>
      <trkpt lat="44.85065" lon="4.13991">
        <ele>1394.0946</ele>
        <time>2026-08-23T13:32:28.145Z</time>
      </trkpt>
      <trkpt lat="44.85057" lon="4.13983">
        <ele>1393.485934</ele>
        <time>2026-08-23T13:32:29.160Z</time>
      </trkpt>
      <trkpt lat="44.85048" lon="4.13976">
        <ele>1392.858994</ele>
        <time>2026-08-23T13:32:30.171Z</time>
      </trkpt>
      <trkpt lat="44.85039" lon="4.13971">
        <ele>1392.203029</ele>
        <time>2026-08-23T13:32:31.171Z</time>
      </trkpt>
      <trkpt lat="44.85029" lon="4.13965">
        <ele>1391.423113</ele>
        <time>2026-08-23T13:32:32.170Z</time>
      </trkpt>
      <trkpt lat="44.85019" lon="4.13959">
        <ele>1390.565545</ele>
        <time>2026-08-23T13:32:33.177Z</time>
      </trkpt>
      <trkpt lat="44.85009" lon="4.13953">
        <ele>1389.694857</ele>
        <time>2026-08-23T13:32:34.153Z</time>
      </trkpt>
      <trkpt lat="44.85" lon="4.13945">
        <ele>1388.816056</ele>
        <time>2026-08-23T13:32:35.170Z</time>
      </trkpt>
      <trkpt lat="44.8499" lon="4.13938">
        <ele>1387.926435</ele>
        <time>2026-08-23T13:32:36.177Z</time>
      </trkpt>
      <trkpt lat="44.84981" lon="4.13932">
        <ele>1387.066319</ele>
        <time>2026-08-23T13:32:37.169Z</time>
      </trkpt>
      <trkpt lat="44.84971" lon="4.13925">
        <ele>1386.198431</ele>
        <time>2026-08-23T13:32:38.172Z</time>
      </trkpt>
      <trkpt lat="44.84962" lon="4.13918">
        <ele>1385.35482</ele>
        <time>2026-08-23T13:32:39.171Z</time>
      </trkpt>
      <trkpt lat="44.84953" lon="4.13912">
        <ele>1384.538763</ele>
        <time>2026-08-23T13:32:40.181Z</time>
      </trkpt>
      <trkpt lat="44.84944" lon="4.13905">
        <ele>1383.677106</ele>
        <time>2026-08-23T13:32:41.171Z</time>
      </trkpt>
      <trkpt lat="44.84934" lon="4.13898">
        <ele>1382.809752</ele>
        <time>2026-08-23T13:32:42.180Z</time>
      </trkpt>
      <trkpt lat="44.84924" lon="4.13892">
        <ele>1381.925213</ele>
        <time>2026-08-23T13:32:43.171Z</time>
      </trkpt>
      <trkpt lat="44.84915" lon="4.13887">
        <ele>1381.101083</ele>
        <time>2026-08-23T13:32:44.171Z</time>
      </trkpt>
      <trkpt lat="44.84905" lon="4.13882">
        <ele>1380.23741</ele>
        <time>2026-08-23T13:32:45.167Z</time>
      </trkpt>
      <trkpt lat="44.84895" lon="4.13878">
        <ele>1379.381295</ele>
        <time>2026-08-23T13:32:46.173Z</time>
      </trkpt>
      <trkpt lat="44.84886" lon="4.13875">
        <ele>1378.638404</ele>
        <time>2026-08-23T13:32:47.176Z</time>
      </trkpt>
      <trkpt lat="44.8487" lon="4.13867">
        <ele>1377.25458</ele>
        <time>2026-08-23T13:32:49.183Z</time>
      </trkpt>
      <trkpt lat="44.84854" lon="4.13857">
        <ele>1375.836412</ele>
        <time>2026-08-23T13:32:51.172Z</time>
      </trkpt>
      <trkpt lat="44.8484" lon="4.13845">
        <ele>1374.463717</ele>
        <time>2026-08-23T13:32:53.178Z</time>
      </trkpt>
      <trkpt lat="44.84827" lon="4.13832">
        <ele>1373.089494</ele>
        <time>2026-08-23T13:32:55.172Z</time>
      </trkpt>
      <trkpt lat="44.84814" lon="4.13819">
        <ele>1371.774646</ele>
        <time>2026-08-23T13:32:57.177Z</time>
      </trkpt>
      <trkpt lat="44.84801" lon="4.13806">
        <ele>1370.46334</ele>
        <time>2026-08-23T13:32:59.173Z</time>
      </trkpt>
      <trkpt lat="44.84789" lon="4.13792">
        <ele>1369.146482</ele>
        <time>2026-08-23T13:33:01.175Z</time>
      </trkpt>
      <trkpt lat="44.8478" lon="4.13772">
        <ele>1367.755576</ele>
        <time>2026-08-23T13:33:03.175Z</time>
      </trkpt>
      <trkpt lat="44.84771" lon="4.13755">
        <ele>1366.466311</ele>
        <time>2026-08-23T13:33:05.170Z</time>
      </trkpt>
      <trkpt lat="44.84762" lon="4.13736">
        <ele>1365.103899</ele>
        <time>2026-08-23T13:33:07.178Z</time>
      </trkpt>
      <trkpt lat="44.84754" lon="4.13714">
        <ele>1363.659063</ele>
        <time>2026-08-23T13:33:09.177Z</time>
      </trkpt>
      <trkpt lat="44.8475" lon="4.13702">
        <ele>1362.89057</ele>
        <time>2026-08-23T13:33:10.177Z</time>
      </trkpt>
      <trkpt lat="44.84746" lon="4.1369">
        <ele>1362.083535</ele>
        <time>2026-08-23T13:33:11.180Z</time>
      </trkpt>
      <trkpt lat="44.84742" lon="4.13677">
        <ele>1361.222535</ele>
        <time>2026-08-23T13:33:12.171Z</time>
      </trkpt>
      <trkpt lat="44.84738" lon="4.13663">
        <ele>1360.31431</ele>
        <time>2026-08-23T13:33:13.180Z</time>
      </trkpt>
      <trkpt lat="44.84736" lon="4.13649">
        <ele>1359.418882</ele>
        <time>2026-08-23T13:33:14.163Z</time>
      </trkpt>
      <trkpt lat="44.84733" lon="4.13636">
        <ele>1358.585148</ele>
        <time>2026-08-23T13:33:15.176Z</time>
      </trkpt>
      <trkpt lat="44.8473" lon="4.13623">
        <ele>1357.768309</ele>
        <time>2026-08-23T13:33:16.170Z</time>
      </trkpt>
      <trkpt lat="44.84726" lon="4.13611">
        <ele>1356.986024</ele>
        <time>2026-08-23T13:33:17.180Z</time>
      </trkpt>
      <trkpt lat="44.84715" lon="4.13591">
        <ele>1355.442544</ele>
        <time>2026-08-23T13:33:19.172Z</time>
      </trkpt>
      <trkpt lat="44.84708" lon="4.13582">
        <ele>1354.609667</ele>
        <time>2026-08-23T13:33:20.171Z</time>
      </trkpt>
      <trkpt lat="44.84701" lon="4.13573">
        <ele>1353.784763</ele>
        <time>2026-08-23T13:33:21.174Z</time>
      </trkpt>
      <trkpt lat="44.84692" lon="4.13564">
        <ele>1352.868304</ele>
        <time>2026-08-23T13:33:22.171Z</time>
      </trkpt>
      <trkpt lat="44.84683" lon="4.13555">
        <ele>1351.89762</ele>
        <time>2026-08-23T13:33:23.172Z</time>
      </trkpt>
      <trkpt lat="44.84675" lon="4.13546">
        <ele>1351.028372</ele>
        <time>2026-08-23T13:33:24.171Z</time>
      </trkpt>
      <trkpt lat="44.84667" lon="4.13539">
        <ele>1350.200218</ele>
        <time>2026-08-23T13:33:25.176Z</time>
      </trkpt>
      <trkpt lat="44.84659" lon="4.13531">
        <ele>1349.380259</ele>
        <time>2026-08-23T13:33:26.172Z</time>
      </trkpt>
      <trkpt lat="44.84651" lon="4.13524">
        <ele>1348.573086</ele>
        <time>2026-08-23T13:33:27.170Z</time>
      </trkpt>
      <trkpt lat="44.84643" lon="4.13517">
        <ele>1347.772255</ele>
        <time>2026-08-23T13:33:28.173Z</time>
      </trkpt>
      <trkpt lat="44.84628" lon="4.13502">
        <ele>1346.464014</ele>
        <time>2026-08-23T13:33:30.178Z</time>
      </trkpt>
      <trkpt lat="44.84613" lon="4.1349">
        <ele>1345.584345</ele>
        <time>2026-08-23T13:33:32.173Z</time>
      </trkpt>
      <trkpt lat="44.846" lon="4.13477">
        <ele>1344.761084</ele>
        <time>2026-08-23T13:33:34.173Z</time>
      </trkpt>
      <trkpt lat="44.84585" lon="4.13463">
        <ele>1343.849372</ele>
        <time>2026-08-23T13:33:36.172Z</time>
      </trkpt>
      <trkpt lat="44.84578" lon="4.13455">
        <ele>1343.380027</ele>
        <time>2026-08-23T13:33:37.172Z</time>
      </trkpt>
      <trkpt lat="44.84563" lon="4.1344">
        <ele>1342.488953</ele>
        <time>2026-08-23T13:33:39.172Z</time>
      </trkpt>
      <trkpt lat="44.84556" lon="4.13433">
        <ele>1342.02155</ele>
        <time>2026-08-23T13:33:40.155Z</time>
      </trkpt>
      <trkpt lat="44.84542" lon="4.13419">
        <ele>1341.1635</ele>
        <time>2026-08-23T13:33:42.175Z</time>
      </trkpt>
      <trkpt lat="44.84529" lon="4.13405">
        <ele>1340.351435</ele>
        <time>2026-08-23T13:33:44.173Z</time>
      </trkpt>
      <trkpt lat="44.84518" lon="4.13389">
        <ele>1339.549376</ele>
        <time>2026-08-23T13:33:46.176Z</time>
      </trkpt>
      <trkpt lat="44.8451" lon="4.13369">
        <ele>1338.698897</ele>
        <time>2026-08-23T13:33:48.177Z</time>
      </trkpt>
      <trkpt lat="44.84507" lon="4.13356">
        <ele>1338.218697</ele>
        <time>2026-08-23T13:33:49.156Z</time>
      </trkpt>
      <trkpt lat="44.845" lon="4.13333">
        <ele>1337.122712</ele>
        <time>2026-08-23T13:33:51.180Z</time>
      </trkpt>
      <trkpt lat="44.84497" lon="4.1332">
        <ele>1336.315168</ele>
        <time>2026-08-23T13:33:52.149Z</time>
      </trkpt>
      <trkpt lat="44.84493" lon="4.13296">
        <ele>1334.842196</ele>
        <time>2026-08-23T13:33:54.174Z</time>
      </trkpt>
      <trkpt lat="44.8449" lon="4.13283">
        <ele>1334.012457</ele>
        <time>2026-08-23T13:33:55.158Z</time>
      </trkpt>
      <trkpt lat="44.84488" lon="4.13269">
        <ele>1333.168874</ele>
        <time>2026-08-23T13:33:56.175Z</time>
      </trkpt>
      <trkpt lat="44.84486" lon="4.13255">
        <ele>1332.354222</ele>
        <time>2026-08-23T13:33:57.185Z</time>
      </trkpt>
      <trkpt lat="44.84485" lon="4.1324">
        <ele>1331.475738</ele>
        <time>2026-08-23T13:33:58.176Z</time>
      </trkpt>
      <trkpt lat="44.84483" lon="4.13227">
        <ele>1330.669823</ele>
        <time>2026-08-23T13:33:59.167Z</time>
      </trkpt>
      <trkpt lat="44.84483" lon="4.13214">
        <ele>1329.901882</ele>
        <time>2026-08-23T13:34:00.176Z</time>
      </trkpt>
      <trkpt lat="44.84484" lon="4.13201">
        <ele>1329.115868</ele>
        <time>2026-08-23T13:34:01.172Z</time>
      </trkpt>
      <trkpt lat="44.84483" lon="4.13188">
        <ele>1328.362738</ele>
        <time>2026-08-23T13:34:02.176Z</time>
      </trkpt>
      <trkpt lat="44.84481" lon="4.13175">
        <ele>1327.610916</ele>
        <time>2026-08-23T13:34:03.177Z</time>
      </trkpt>
      <trkpt lat="44.84473" lon="4.13153">
        <ele>1326.125791</ele>
        <time>2026-08-23T13:34:05.172Z</time>
      </trkpt>
      <trkpt lat="44.84467" lon="4.13143">
        <ele>1325.344649</ele>
        <time>2026-08-23T13:34:06.173Z</time>
      </trkpt>
      <trkpt lat="44.84461" lon="4.13132">
        <ele>1324.5244</ele>
        <time>2026-08-23T13:34:07.172Z</time>
      </trkpt>
      <trkpt lat="44.84455" lon="4.13121">
        <ele>1323.72449</ele>
        <time>2026-08-23T13:34:08.166Z</time>
      </trkpt>
      <trkpt lat="44.84445" lon="4.131">
        <ele>1322.454629</ele>
        <time>2026-08-23T13:34:10.178Z</time>
      </trkpt>
      <trkpt lat="44.84437" lon="4.13078">
        <ele>1321.709409</ele>
        <time>2026-08-23T13:34:12.176Z</time>
      </trkpt>
      <trkpt lat="44.84427" lon="4.13063">
        <ele>1321.07775</ele>
        <time>2026-08-23T13:34:14.188Z</time>
      </trkpt>
      <trkpt lat="44.84419" lon="4.13046">
        <ele>1320.43837</ele>
        <time>2026-08-23T13:34:16.181Z</time>
      </trkpt>
      <trkpt lat="44.8441" lon="4.13033">
        <ele>1319.889744</ele>
        <time>2026-08-23T13:34:18.172Z</time>
      </trkpt>
      <trkpt lat="44.84402" lon="4.1302">
        <ele>1319.348216</ele>
        <time>2026-08-23T13:34:20.177Z</time>
      </trkpt>
      <trkpt lat="44.84395" lon="4.13011">
        <ele>1318.94658</ele>
        <time>2026-08-23T13:34:22.177Z</time>
      </trkpt>
      <trkpt lat="44.8439" lon="4.12999">
        <ele>1318.494915</ele>
        <time>2026-08-23T13:34:25.179Z</time>
      </trkpt>
      <trkpt lat="44.84391" lon="4.12986">
        <ele>1318.09262</ele>
        <time>2026-08-23T13:34:28.185Z</time>
      </trkpt>
      <trkpt lat="44.84399" lon="4.12978">
        <ele>1317.64674</ele>
        <time>2026-08-23T13:34:31.175Z</time>
      </trkpt>
      <trkpt lat="44.8441" lon="4.12978">
        <ele>1317.180424</ele>
        <time>2026-08-23T13:34:33.184Z</time>
      </trkpt>
      <trkpt lat="44.84422" lon="4.12977">
        <ele>1316.678995</ele>
        <time>2026-08-23T13:34:35.172Z</time>
      </trkpt>
      <trkpt lat="44.84433" lon="4.12975">
        <ele>1316.175444</ele>
        <time>2026-08-23T13:34:37.172Z</time>
      </trkpt>
      <trkpt lat="44.84446" lon="4.12974">
        <ele>1315.60085</ele>
        <time>2026-08-23T13:34:39.180Z</time>
      </trkpt>
      <trkpt lat="44.8446" lon="4.12975">
        <ele>1315.021904</ele>
        <time>2026-08-23T13:34:41.176Z</time>
      </trkpt>
      <trkpt lat="44.84473" lon="4.12973">
        <ele>1314.497595</ele>
        <time>2026-08-23T13:34:43.190Z</time>
      </trkpt>
      <trkpt lat="44.84487" lon="4.12971">
        <ele>1313.954368</ele>
        <time>2026-08-23T13:34:45.184Z</time>
      </trkpt>
      <trkpt lat="44.84502" lon="4.12966">
        <ele>1313.374066</ele>
        <time>2026-08-23T13:34:47.160Z</time>
      </trkpt>
      <trkpt lat="44.84516" lon="4.12955">
        <ele>1312.7471</ele>
        <time>2026-08-23T13:34:49.178Z</time>
      </trkpt>
      <trkpt lat="44.84529" lon="4.12941">
        <ele>1312.139804</ele>
        <time>2026-08-23T13:34:51.181Z</time>
      </trkpt>
      <trkpt lat="44.84542" lon="4.12926">
        <ele>1311.502888</ele>
        <time>2026-08-23T13:34:53.180Z</time>
      </trkpt>
      <trkpt lat="44.84556" lon="4.12911">
        <ele>1310.841882</ele>
        <time>2026-08-23T13:34:55.177Z</time>
      </trkpt>
      <trkpt lat="44.84569" lon="4.12895">
        <ele>1310.173655</ele>
        <time>2026-08-23T13:34:57.180Z</time>
      </trkpt>
      <trkpt lat="44.8458" lon="4.12877">
        <ele>1309.520043</ele>
        <time>2026-08-23T13:34:59.180Z</time>
      </trkpt>
      <trkpt lat="44.8459" lon="4.12858">
        <ele>1308.892851</ele>
        <time>2026-08-23T13:35:01.185Z</time>
      </trkpt>
      <trkpt lat="44.84599" lon="4.12835">
        <ele>1308.196439</ele>
        <time>2026-08-23T13:35:03.172Z</time>
      </trkpt>
      <trkpt lat="44.84604" lon="4.12825">
        <ele>1307.796944</ele>
        <time>2026-08-23T13:35:04.176Z</time>
      </trkpt>
      <trkpt lat="44.84609" lon="4.12814">
        <ele>1307.35806</ele>
        <time>2026-08-23T13:35:05.171Z</time>
      </trkpt>
      <trkpt lat="44.84618" lon="4.12792">
        <ele>1306.50634</ele>
        <time>2026-08-23T13:35:07.178Z</time>
      </trkpt>
      <trkpt lat="44.84621" lon="4.1278">
        <ele>1306.067119</ele>
        <time>2026-08-23T13:35:08.173Z</time>
      </trkpt>
      <trkpt lat="44.84625" lon="4.12769">
        <ele>1305.619118</ele>
        <time>2026-08-23T13:35:09.175Z</time>
      </trkpt>
      <trkpt lat="44.8463" lon="4.12756">
        <ele>1305.156753</ele>
        <time>2026-08-23T13:35:10.179Z</time>
      </trkpt>
      <trkpt lat="44.84633" lon="4.12744">
        <ele>1304.705579</ele>
        <time>2026-08-23T13:35:11.174Z</time>
      </trkpt>
      <trkpt lat="44.84636" lon="4.12732">
        <ele>1304.257492</ele>
        <time>2026-08-23T13:35:12.170Z</time>
      </trkpt>
      <trkpt lat="44.84639" lon="4.12718">
        <ele>1303.77066</ele>
        <time>2026-08-23T13:35:13.170Z</time>
      </trkpt>
      <trkpt lat="44.84641" lon="4.12705">
        <ele>1303.32163</ele>
        <time>2026-08-23T13:35:14.179Z</time>
      </trkpt>
      <trkpt lat="44.84641" lon="4.12692">
        <ele>1302.871381</ele>
        <time>2026-08-23T13:35:15.174Z</time>
      </trkpt>
      <trkpt lat="44.8464" lon="4.12678">
        <ele>1302.400024</ele>
        <time>2026-08-23T13:35:16.172Z</time>
      </trkpt>
      <trkpt lat="44.84639" lon="4.12664">
        <ele>1301.930492</ele>
        <time>2026-08-23T13:35:17.179Z</time>
      </trkpt>
      <trkpt lat="44.84638" lon="4.12651">
        <ele>1301.484692</ele>
        <time>2026-08-23T13:35:18.174Z</time>
      </trkpt>
      <trkpt lat="44.84637" lon="4.12629">
        <ele>1300.72972</ele>
        <time>2026-08-23T13:35:20.175Z</time>
      </trkpt>
      <trkpt lat="44.84637" lon="4.12611">
        <ele>1300.098555</ele>
        <time>2026-08-23T13:35:22.130Z</time>
      </trkpt>
      <trkpt lat="44.84637" lon="4.1259">
        <ele>1299.392033</ele>
        <time>2026-08-23T13:35:24.134Z</time>
      </trkpt>
      <trkpt lat="44.84636" lon="4.12569">
        <ele>1298.446289</ele>
        <time>2026-08-23T13:35:26.183Z</time>
      </trkpt>
      <trkpt lat="44.84636" lon="4.12548">
        <ele>1297.522016</ele>
        <time>2026-08-23T13:35:28.179Z</time>
      </trkpt>
      <trkpt lat="44.84638" lon="4.12528">
        <ele>1296.634025</ele>
        <time>2026-08-23T13:35:30.174Z</time>
      </trkpt>
      <trkpt lat="44.84645" lon="4.12509">
        <ele>1295.702241</ele>
        <time>2026-08-23T13:35:32.159Z</time>
      </trkpt>
      <trkpt lat="44.84654" lon="4.12496">
        <ele>1294.916649</ele>
        <time>2026-08-23T13:35:34.152Z</time>
      </trkpt>
      <trkpt lat="44.8466" lon="4.1248">
        <ele>1294.113545</ele>
        <time>2026-08-23T13:35:36.180Z</time>
      </trkpt>
      <trkpt lat="44.84666" lon="4.12463">
        <ele>1293.279999</ele>
        <time>2026-08-23T13:35:38.168Z</time>
      </trkpt>
      <trkpt lat="44.84674" lon="4.12443">
        <ele>1292.289518</ele>
        <time>2026-08-23T13:35:40.171Z</time>
      </trkpt>
      <trkpt lat="44.84682" lon="4.12423">
        <ele>1291.274473</ele>
        <time>2026-08-23T13:35:42.169Z</time>
      </trkpt>
      <trkpt lat="44.8469" lon="4.12405">
        <ele>1290.343767</ele>
        <time>2026-08-23T13:35:44.178Z</time>
      </trkpt>
      <trkpt lat="44.84697" lon="4.12387">
        <ele>1289.415049</ele>
        <time>2026-08-23T13:35:46.176Z</time>
      </trkpt>
      <trkpt lat="44.84703" lon="4.12368">
        <ele>1288.515429</ele>
        <time>2026-08-23T13:35:48.171Z</time>
      </trkpt>
      <trkpt lat="44.8471" lon="4.12351">
        <ele>1287.749466</ele>
        <time>2026-08-23T13:35:50.176Z</time>
      </trkpt>
      <trkpt lat="44.84718" lon="4.12334">
        <ele>1287.054553</ele>
        <time>2026-08-23T13:35:52.164Z</time>
      </trkpt>
      <trkpt lat="44.84726" lon="4.12318">
        <ele>1286.351879</ele>
        <time>2026-08-23T13:35:54.171Z</time>
      </trkpt>
      <trkpt lat="44.84735" lon="4.123">
        <ele>1285.583307</ele>
        <time>2026-08-23T13:35:56.172Z</time>
      </trkpt>
      <trkpt lat="44.84744" lon="4.12283">
        <ele>1284.848712</ele>
        <time>2026-08-23T13:35:58.192Z</time>
      </trkpt>
      <trkpt lat="44.84754" lon="4.12268">
        <ele>1284.112027</ele>
        <time>2026-08-23T13:36:00.174Z</time>
      </trkpt>
      <trkpt lat="44.84763" lon="4.12251">
        <ele>1283.370701</ele>
        <time>2026-08-23T13:36:02.176Z</time>
      </trkpt>
      <trkpt lat="44.84773" lon="4.12235">
        <ele>1282.596408</ele>
        <time>2026-08-23T13:36:04.176Z</time>
      </trkpt>
      <trkpt lat="44.84784" lon="4.12217">
        <ele>1281.808167</ele>
        <time>2026-08-23T13:36:06.177Z</time>
      </trkpt>
      <trkpt lat="44.84792" lon="4.12203">
        <ele>1281.144831</ele>
        <time>2026-08-23T13:36:08.177Z</time>
      </trkpt>
      <trkpt lat="44.84803" lon="4.12191">
        <ele>1280.467051</ele>
        <time>2026-08-23T13:36:10.176Z</time>
      </trkpt>
      <trkpt lat="44.84815" lon="4.12179">
        <ele>1279.732809</ele>
        <time>2026-08-23T13:36:12.176Z</time>
      </trkpt>
      <trkpt lat="44.84829" lon="4.12171">
        <ele>1279.011812</ele>
        <time>2026-08-23T13:36:14.172Z</time>
      </trkpt>
      <trkpt lat="44.84843" lon="4.12163">
        <ele>1278.336321</ele>
        <time>2026-08-23T13:36:16.174Z</time>
      </trkpt>
      <trkpt lat="44.84856" lon="4.12152">
        <ele>1277.674598</ele>
        <time>2026-08-23T13:36:18.174Z</time>
      </trkpt>
      <trkpt lat="44.84866" lon="4.12139">
        <ele>1277.05542</ele>
        <time>2026-08-23T13:36:20.173Z</time>
      </trkpt>
      <trkpt lat="44.84877" lon="4.1213">
        <ele>1276.503303</ele>
        <time>2026-08-23T13:36:22.168Z</time>
      </trkpt>
      <trkpt lat="44.84887" lon="4.1212">
        <ele>1275.97272</ele>
        <time>2026-08-23T13:36:24.174Z</time>
      </trkpt>
      <trkpt lat="44.84896" lon="4.12113">
        <ele>1275.504779</ele>
        <time>2026-08-23T13:36:26.178Z</time>
      </trkpt>
      <trkpt lat="44.84905" lon="4.12105">
        <ele>1275.035751</ele>
        <time>2026-08-23T13:36:29.177Z</time>
      </trkpt>
      <trkpt lat="44.84905" lon="4.12092">
        <ele>1274.627075</ele>
        <time>2026-08-23T13:36:34.173Z</time>
      </trkpt>
      <trkpt lat="44.84895" lon="4.1209">
        <ele>1274.165856</ele>
        <time>2026-08-23T13:36:38.185Z</time>
      </trkpt>
      <trkpt lat="44.84886" lon="4.12093">
        <ele>1273.76231</ele>
        <time>2026-08-23T13:36:40.172Z</time>
      </trkpt>
      <trkpt lat="44.84877" lon="4.12097">
        <ele>1273.337463</ele>
        <time>2026-08-23T13:36:42.177Z</time>
      </trkpt>
      <trkpt lat="44.84866" lon="4.121">
        <ele>1272.829535</ele>
        <time>2026-08-23T13:36:44.177Z</time>
      </trkpt>
      <trkpt lat="44.84853" lon="4.12098">
        <ele>1272.274279</ele>
        <time>2026-08-23T13:36:46.180Z</time>
      </trkpt>
      <trkpt lat="44.8484" lon="4.12096">
        <ele>1271.69677</ele>
        <time>2026-08-23T13:36:48.177Z</time>
      </trkpt>
      <trkpt lat="44.84828" lon="4.12091">
        <ele>1271.190638</ele>
        <time>2026-08-23T13:36:50.172Z</time>
      </trkpt>
      <trkpt lat="44.84815" lon="4.12088">
        <ele>1270.815171</ele>
        <time>2026-08-23T13:36:52.172Z</time>
      </trkpt>
      <trkpt lat="44.84804" lon="4.12085">
        <ele>1270.462371</ele>
        <time>2026-08-23T13:36:54.171Z</time>
      </trkpt>
      <trkpt lat="44.84792" lon="4.12085">
        <ele>1270.117482</ele>
        <time>2026-08-23T13:36:56.173Z</time>
      </trkpt>
      <trkpt lat="44.8478" lon="4.12084">
        <ele>1269.756722</ele>
        <time>2026-08-23T13:36:58.181Z</time>
      </trkpt>
      <trkpt lat="44.84769" lon="4.12084">
        <ele>1269.420425</ele>
        <time>2026-08-23T13:37:00.167Z</time>
      </trkpt>
      <trkpt lat="44.8476" lon="4.12087">
        <ele>1269.137729</ele>
        <time>2026-08-23T13:37:02.173Z</time>
      </trkpt>
      <trkpt lat="44.84751" lon="4.12093">
        <ele>1268.845258</ele>
        <time>2026-08-23T13:37:04.181Z</time>
      </trkpt>
      <trkpt lat="44.84742" lon="4.12101">
        <ele>1268.52028</ele>
        <time>2026-08-23T13:37:06.178Z</time>
      </trkpt>
      <trkpt lat="44.84735" lon="4.12112">
        <ele>1268.213563</ele>
        <time>2026-08-23T13:37:08.172Z</time>
      </trkpt>
      <trkpt lat="44.84727" lon="4.12123">
        <ele>1267.877258</ele>
        <time>2026-08-23T13:37:11.179Z</time>
      </trkpt>
      <trkpt lat="44.84718" lon="4.12117">
        <ele>1267.563352</ele>
        <time>2026-08-23T13:37:15.135Z</time>
      </trkpt>
      <trkpt lat="44.84703" lon="4.12119">
        <ele>1267.111526</ele>
        <time>2026-08-23T13:37:31.189Z</time>
      </trkpt>
      <trkpt lat="44.84695" lon="4.12127">
        <ele>1266.829666</ele>
        <time>2026-08-23T13:37:34.177Z</time>
      </trkpt>
      <trkpt lat="44.84688" lon="4.12137">
        <ele>1266.520168</ele>
        <time>2026-08-23T13:37:38.173Z</time>
      </trkpt>
      <trkpt lat="44.84679" lon="4.12147">
        <ele>1266.189595</ele>
        <time>2026-08-23T13:37:42.176Z</time>
      </trkpt>
      <trkpt lat="44.8467" lon="4.12152">
        <ele>1265.906223</ele>
        <time>2026-08-23T13:37:46.175Z</time>
      </trkpt>
      <trkpt lat="44.84662" lon="4.12161">
        <ele>1265.674342</ele>
        <time>2026-08-23T13:37:51.179Z</time>
      </trkpt>
      <trkpt lat="44.84653" lon="4.1217">
        <ele>1265.423147</ele>
        <time>2026-08-23T13:37:55.180Z</time>
      </trkpt>
      <trkpt lat="44.84645" lon="4.12178">
        <ele>1265.195028</ele>
        <time>2026-08-23T13:37:58.179Z</time>
      </trkpt>
      <trkpt lat="44.84639" lon="4.12189">
        <ele>1264.975361</ele>
        <time>2026-08-23T13:38:01.176Z</time>
      </trkpt>
      <trkpt lat="44.84632" lon="4.12198">
        <ele>1264.74561</ele>
        <time>2026-08-23T13:38:04.170Z</time>
      </trkpt>
      <trkpt lat="44.84624" lon="4.12209">
        <ele>1264.497799</ele>
        <time>2026-08-23T13:38:08.183Z</time>
      </trkpt>
      <trkpt lat="44.84618" lon="4.12219">
        <ele>1264.279208</ele>
        <time>2026-08-23T13:38:11.175Z</time>
      </trkpt>
      <trkpt lat="44.84609" lon="4.1223">
        <ele>1264.019169</ele>
        <time>2026-08-23T13:38:14.178Z</time>
      </trkpt>
      <trkpt lat="44.84602" lon="4.12241">
        <ele>1263.769802</ele>
        <time>2026-08-23T13:38:17.175Z</time>
      </trkpt>
      <trkpt lat="44.84594" lon="4.12254">
        <ele>1263.490022</ele>
        <time>2026-08-23T13:38:20.175Z</time>
      </trkpt>
      <trkpt lat="44.84585" lon="4.12266">
        <ele>1263.197118</ele>
        <time>2026-08-23T13:38:23.183Z</time>
      </trkpt>
      <trkpt lat="44.84577" lon="4.12281">
        <ele>1262.899353</ele>
        <time>2026-08-23T13:38:26.177Z</time>
      </trkpt>
      <trkpt lat="44.84573" lon="4.12299">
        <ele>1262.590668</ele>
        <time>2026-08-23T13:38:29.173Z</time>
      </trkpt>
      <trkpt lat="44.8457" lon="4.12312">
        <ele>1262.370837</ele>
        <time>2026-08-23T13:38:31.178Z</time>
      </trkpt>
      <trkpt lat="44.84569" lon="4.12325">
        <ele>1262.157293</ele>
        <time>2026-08-23T13:38:33.172Z</time>
      </trkpt>
      <trkpt lat="44.84569" lon="4.12338">
        <ele>1261.945536</ele>
        <time>2026-08-23T13:38:35.171Z</time>
      </trkpt>
      <trkpt lat="44.84569" lon="4.12352">
        <ele>1261.628924</ele>
        <time>2026-08-23T13:38:37.175Z</time>
      </trkpt>
      <trkpt lat="44.84571" lon="4.12367">
        <ele>1261.186476</ele>
        <time>2026-08-23T13:38:39.180Z</time>
      </trkpt>
      <trkpt lat="44.84572" lon="4.12382">
        <ele>1260.758887</ele>
        <time>2026-08-23T13:38:41.186Z</time>
      </trkpt>
      <trkpt lat="44.84572" lon="4.12398">
        <ele>1260.315602</ele>
        <time>2026-08-23T13:38:43.172Z</time>
      </trkpt>
      <trkpt lat="44.84571" lon="4.12412">
        <ele>1259.894131</ele>
        <time>2026-08-23T13:38:45.176Z</time>
      </trkpt>
      <trkpt lat="44.84568" lon="4.12427">
        <ele>1259.451994</ele>
        <time>2026-08-23T13:38:47.172Z</time>
      </trkpt>
      <trkpt lat="44.84565" lon="4.12442">
        <ele>1259.006023</ele>
        <time>2026-08-23T13:38:49.172Z</time>
      </trkpt>
      <trkpt lat="44.84561" lon="4.12458">
        <ele>1258.535446</ele>
        <time>2026-08-23T13:38:51.180Z</time>
      </trkpt>
      <trkpt lat="44.84557" lon="4.12475">
        <ele>1258.011662</ele>
        <time>2026-08-23T13:38:53.174Z</time>
      </trkpt>
      <trkpt lat="44.84554" lon="4.12493">
        <ele>1257.48149</ele>
        <time>2026-08-23T13:38:55.174Z</time>
      </trkpt>
      <trkpt lat="44.84551" lon="4.1251">
        <ele>1256.999021</ele>
        <time>2026-08-23T13:38:57.175Z</time>
      </trkpt>
      <trkpt lat="44.8455" lon="4.12527">
        <ele>1256.510778</ele>
        <time>2026-08-23T13:38:59.183Z</time>
      </trkpt>
      <trkpt lat="44.84547" lon="4.12542">
        <ele>1256.056361</ele>
        <time>2026-08-23T13:39:01.173Z</time>
      </trkpt>
      <trkpt lat="44.84545" lon="4.12557">
        <ele>1255.621497</ele>
        <time>2026-08-23T13:39:03.179Z</time>
      </trkpt>
      <trkpt lat="44.84541" lon="4.12571">
        <ele>1255.21083</ele>
        <time>2026-08-23T13:39:05.176Z</time>
      </trkpt>
      <trkpt lat="44.84538" lon="4.12585">
        <ele>1254.773221</ele>
        <time>2026-08-23T13:39:07.178Z</time>
      </trkpt>
      <trkpt lat="44.84533" lon="4.12596">
        <ele>1254.618485</ele>
        <time>2026-08-23T13:39:09.181Z</time>
      </trkpt>
      <trkpt lat="44.84526" lon="4.12605">
        <ele>1254.698877</ele>
        <time>2026-08-23T13:39:11.180Z</time>
      </trkpt>
      <trkpt lat="44.84517" lon="4.12613">
        <ele>1254.785373</ele>
        <time>2026-08-23T13:39:13.171Z</time>
      </trkpt>
      <trkpt lat="44.84509" lon="4.1262">
        <ele>1254.870767</ele>
        <time>2026-08-23T13:39:15.177Z</time>
      </trkpt>
      <trkpt lat="44.84498" lon="4.12626">
        <ele>1254.973133</ele>
        <time>2026-08-23T13:39:17.172Z</time>
      </trkpt>
      <trkpt lat="44.84483" lon="4.12632">
        <ele>1255.103042</ele>
        <time>2026-08-23T13:39:19.173Z</time>
      </trkpt>
      <trkpt lat="44.8447" lon="4.12634">
        <ele>1255.21522</ele>
        <time>2026-08-23T13:39:21.175Z</time>
      </trkpt>
      <trkpt lat="44.84457" lon="4.12635">
        <ele>1255.324896</ele>
        <time>2026-08-23T13:39:23.176Z</time>
      </trkpt>
      <trkpt lat="44.84446" lon="4.12631">
        <ele>1255.422159</ele>
        <time>2026-08-23T13:39:25.175Z</time>
      </trkpt>
      <trkpt lat="44.84436" lon="4.12624">
        <ele>1255.517744</ele>
        <time>2026-08-23T13:39:27.172Z</time>
      </trkpt>
      <trkpt lat="44.84427" lon="4.12613">
        <ele>1255.614999</ele>
        <time>2026-08-23T13:39:29.173Z</time>
      </trkpt>
      <trkpt lat="44.84421" lon="4.126">
        <ele>1255.715035</ele>
        <time>2026-08-23T13:39:31.176Z</time>
      </trkpt>
      <trkpt lat="44.84413" lon="4.12586">
        <ele>1255.818587</ele>
        <time>2026-08-23T13:39:33.179Z</time>
      </trkpt>
      <trkpt lat="44.84406" lon="4.12571">
        <ele>1255.93052</ele>
        <time>2026-08-23T13:39:35.177Z</time>
      </trkpt>
      <trkpt lat="44.84399" lon="4.12556">
        <ele>1256.038999</ele>
        <time>2026-08-23T13:39:37.180Z</time>
      </trkpt>
      <trkpt lat="44.84392" lon="4.12541">
        <ele>1256.069255</ele>
        <time>2026-08-23T13:39:39.173Z</time>
      </trkpt>
      <trkpt lat="44.84385" lon="4.12527">
        <ele>1255.881365</ele>
        <time>2026-08-23T13:39:41.182Z</time>
      </trkpt>
      <trkpt lat="44.84378" lon="4.12513">
        <ele>1255.693427</ele>
        <time>2026-08-23T13:39:43.174Z</time>
      </trkpt>
      <trkpt lat="44.84371" lon="4.125">
        <ele>1255.511544</ele>
        <time>2026-08-23T13:39:45.152Z</time>
      </trkpt>
      <trkpt lat="44.84362" lon="4.12487">
        <ele>1255.313829</ele>
        <time>2026-08-23T13:39:47.176Z</time>
      </trkpt>
      <trkpt lat="44.84353" lon="4.12474">
        <ele>1255.111647</ele>
        <time>2026-08-23T13:39:49.173Z</time>
      </trkpt>
      <trkpt lat="44.84344" lon="4.12458">
        <ele>1254.894715</ele>
        <time>2026-08-23T13:39:51.184Z</time>
      </trkpt>
      <trkpt lat="44.84335" lon="4.12445">
        <ele>1254.689067</ele>
        <time>2026-08-23T13:39:53.183Z</time>
      </trkpt>
      <trkpt lat="44.84326" lon="4.12432">
        <ele>1254.492596</ele>
        <time>2026-08-23T13:39:55.176Z</time>
      </trkpt>
      <trkpt lat="44.84315" lon="4.12421">
        <ele>1254.283335</ele>
        <time>2026-08-23T13:39:57.173Z</time>
      </trkpt>
      <trkpt lat="44.84304" lon="4.12412">
        <ele>1254.082591</ele>
        <time>2026-08-23T13:39:59.174Z</time>
      </trkpt>
      <trkpt lat="44.84291" lon="4.12405">
        <ele>1253.877418</ele>
        <time>2026-08-23T13:40:01.170Z</time>
      </trkpt>
      <trkpt lat="44.84277" lon="4.124">
        <ele>1253.65261</ele>
        <time>2026-08-23T13:40:03.177Z</time>
      </trkpt>
      <trkpt lat="44.84264" lon="4.12395">
        <ele>1253.434245</ele>
        <time>2026-08-23T13:40:05.185Z</time>
      </trkpt>
      <trkpt lat="44.8425" lon="4.1239">
        <ele>1253.420023</ele>
        <time>2026-08-23T13:40:07.175Z</time>
      </trkpt>
      <trkpt lat="44.84238" lon="4.1238">
        <ele>1253.570106</ele>
        <time>2026-08-23T13:40:09.176Z</time>
      </trkpt>
      <trkpt lat="44.84231" lon="4.12363">
        <ele>1253.718592</ele>
        <time>2026-08-23T13:40:11.175Z</time>
      </trkpt>
      <trkpt lat="44.84229" lon="4.12345">
        <ele>1253.861398</ele>
        <time>2026-08-23T13:40:13.175Z</time>
      </trkpt>
      <trkpt lat="44.8423" lon="4.12326">
        <ele>1254.006524</ele>
        <time>2026-08-23T13:40:15.179Z</time>
      </trkpt>
      <trkpt lat="44.84231" lon="4.12306">
        <ele>1254.157176</ele>
        <time>2026-08-23T13:40:17.179Z</time>
      </trkpt>
      <trkpt lat="44.84233" lon="4.12287">
        <ele>1254.303096</ele>
        <time>2026-08-23T13:40:19.172Z</time>
      </trkpt>
      <trkpt lat="44.84235" lon="4.1227">
        <ele>1254.43843</ele>
        <time>2026-08-23T13:40:21.175Z</time>
      </trkpt>
      <trkpt lat="44.84238" lon="4.12251">
        <ele>1254.586376</ele>
        <time>2026-08-23T13:40:23.137Z</time>
      </trkpt>
      <trkpt lat="44.8424" lon="4.12232">
        <ele>1254.7297</ele>
        <time>2026-08-23T13:40:25.167Z</time>
      </trkpt>
      <trkpt lat="44.8424" lon="4.12213">
        <ele>1254.876387</ele>
        <time>2026-08-23T13:40:27.173Z</time>
      </trkpt>
      <trkpt lat="44.84242" lon="4.12195">
        <ele>1255.0167</ele>
        <time>2026-08-23T13:40:29.172Z</time>
      </trkpt>
      <trkpt lat="44.84242" lon="4.12176">
        <ele>1255.161014</ele>
        <time>2026-08-23T13:40:31.175Z</time>
      </trkpt>
      <trkpt lat="44.84241" lon="4.12157">
        <ele>1255.242568</ele>
        <time>2026-08-23T13:40:33.175Z</time>
      </trkpt>
      <trkpt lat="44.8424" lon="4.12139">
        <ele>1255.084628</ele>
        <time>2026-08-23T13:40:35.164Z</time>
      </trkpt>
      <trkpt lat="44.84241" lon="4.12117">
        <ele>1254.902002</ele>
        <time>2026-08-23T13:40:37.172Z</time>
      </trkpt>
      <trkpt lat="44.84241" lon="4.12098">
        <ele>1254.739178</ele>
        <time>2026-08-23T13:40:39.177Z</time>
      </trkpt>
      <trkpt lat="44.84239" lon="4.12079">
        <ele>1254.577608</ele>
        <time>2026-08-23T13:40:41.174Z</time>
      </trkpt>
      <trkpt lat="44.84235" lon="4.12063">
        <ele>1254.434005</ele>
        <time>2026-08-23T13:40:43.182Z</time>
      </trkpt>
      <trkpt lat="44.84231" lon="4.12047">
        <ele>1254.28805</ele>
        <time>2026-08-23T13:40:45.177Z</time>
      </trkpt>
      <trkpt lat="44.84226" lon="4.12031">
        <ele>1254.134451</ele>
        <time>2026-08-23T13:40:47.171Z</time>
      </trkpt>
      <trkpt lat="44.8422" lon="4.12013">
        <ele>1253.973091</ele>
        <time>2026-08-23T13:40:49.182Z</time>
      </trkpt>
      <trkpt lat="44.84216" lon="4.11996">
        <ele>1253.818793</ele>
        <time>2026-08-23T13:40:51.173Z</time>
      </trkpt>
      <trkpt lat="44.84214" lon="4.11979">
        <ele>1253.670591</ele>
        <time>2026-08-23T13:40:53.173Z</time>
      </trkpt>
      <trkpt lat="44.84213" lon="4.11963">
        <ele>1253.53542</ele>
        <time>2026-08-23T13:40:55.173Z</time>
      </trkpt>
      <trkpt lat="44.84212" lon="4.11948">
        <ele>1253.406481</ele>
        <time>2026-08-23T13:40:57.173Z</time>
      </trkpt>
      <trkpt lat="44.84214" lon="4.11935">
        <ele>1253.297308</ele>
        <time>2026-08-23T13:40:59.175Z</time>
      </trkpt>
      <trkpt lat="44.84215" lon="4.11922">
        <ele>1253.18459</ele>
        <time>2026-08-23T13:41:01.175Z</time>
      </trkpt>
      <trkpt lat="44.8422" lon="4.11907">
        <ele>1253.040218</ele>
        <time>2026-08-23T13:41:03.179Z</time>
      </trkpt>
      <trkpt lat="44.84225" lon="4.11892">
        <ele>1252.888182</ele>
        <time>2026-08-23T13:41:05.168Z</time>
      </trkpt>
      <trkpt lat="44.84232" lon="4.11877">
        <ele>1252.720572</ele>
        <time>2026-08-23T13:41:07.174Z</time>
      </trkpt>
      <trkpt lat="44.84244" lon="4.11863">
        <ele>1252.527009</ele>
        <time>2026-08-23T13:41:09.173Z</time>
      </trkpt>
      <trkpt lat="44.84259" lon="4.11851">
        <ele>1252.302545</ele>
        <time>2026-08-23T13:41:11.177Z</time>
      </trkpt>
      <trkpt lat="44.84272" lon="4.11839">
        <ele>1252.096213</ele>
        <time>2026-08-23T13:41:13.177Z</time>
      </trkpt>
      <trkpt lat="44.84284" lon="4.11828">
        <ele>1251.910564</ele>
        <time>2026-08-23T13:41:15.174Z</time>
      </trkpt>
      <trkpt lat="44.84294" lon="4.11815">
        <ele>1251.744369</ele>
        <time>2026-08-23T13:41:17.175Z</time>
      </trkpt>
      <trkpt lat="44.84304" lon="4.11803">
        <ele>1251.566613</ele>
        <time>2026-08-23T13:41:19.178Z</time>
      </trkpt>
      <trkpt lat="44.84314" lon="4.1179">
        <ele>1251.394442</ele>
        <time>2026-08-23T13:41:21.175Z</time>
      </trkpt>
      <trkpt lat="44.84323" lon="4.11777">
        <ele>1251.219979</ele>
        <time>2026-08-23T13:41:23.172Z</time>
      </trkpt>
      <trkpt lat="44.84332" lon="4.11763">
        <ele>1251.05001</ele>
        <time>2026-08-23T13:41:25.180Z</time>
      </trkpt>
      <trkpt lat="44.8434" lon="4.11748">
        <ele>1250.881654</ele>
        <time>2026-08-23T13:41:27.175Z</time>
      </trkpt>
      <trkpt lat="44.84347" lon="4.11733">
        <ele>1250.538963</ele>
        <time>2026-08-23T13:41:29.180Z</time>
      </trkpt>
      <trkpt lat="44.84353" lon="4.11719">
        <ele>1250.067394</ele>
        <time>2026-08-23T13:41:31.175Z</time>
      </trkpt>
      <trkpt lat="44.84359" lon="4.11705">
        <ele>1249.584936</ele>
        <time>2026-08-23T13:41:33.182Z</time>
      </trkpt>
      <trkpt lat="44.84364" lon="4.11689">
        <ele>1249.061406</ele>
        <time>2026-08-23T13:41:35.180Z</time>
      </trkpt>
      <trkpt lat="44.84365" lon="4.1167">
        <ele>1248.51281</ele>
        <time>2026-08-23T13:41:37.176Z</time>
      </trkpt>
      <trkpt lat="44.84363" lon="4.11653">
        <ele>1247.994785</ele>
        <time>2026-08-23T13:41:39.184Z</time>
      </trkpt>
      <trkpt lat="44.84355" lon="4.11639">
        <ele>1247.481726</ele>
        <time>2026-08-23T13:41:41.176Z</time>
      </trkpt>
      <trkpt lat="44.84344" lon="4.11632">
        <ele>1246.951875</ele>
        <time>2026-08-23T13:41:43.184Z</time>
      </trkpt>
      <trkpt lat="44.84331" lon="4.11629">
        <ele>1246.425392</ele>
        <time>2026-08-23T13:41:45.186Z</time>
      </trkpt>
      <trkpt lat="44.84319" lon="4.1163">
        <ele>1245.905695</ele>
        <time>2026-08-23T13:41:47.179Z</time>
      </trkpt>
      <trkpt lat="44.84306" lon="4.1163">
        <ele>1245.365624</ele>
        <time>2026-08-23T13:41:49.176Z</time>
      </trkpt>
      <trkpt lat="44.84293" lon="4.11632">
        <ele>1244.837116</ele>
        <time>2026-08-23T13:41:51.185Z</time>
      </trkpt>
      <trkpt lat="44.8428" lon="4.11632">
        <ele>1244.29682</ele>
        <time>2026-08-23T13:41:53.176Z</time>
      </trkpt>
      <trkpt lat="44.84268" lon="4.11631">
        <ele>1243.783361</ele>
        <time>2026-08-23T13:41:55.172Z</time>
      </trkpt>
      <trkpt lat="44.84256" lon="4.11624">
        <ele>1243.305457</ele>
        <time>2026-08-23T13:41:57.177Z</time>
      </trkpt>
      <trkpt lat="44.84244" lon="4.11615">
        <ele>1243.130503</ele>
        <time>2026-08-23T13:41:59.173Z</time>
      </trkpt>
      <trkpt lat="44.84234" lon="4.11607">
        <ele>1242.971762</ele>
        <time>2026-08-23T13:42:01.175Z</time>
      </trkpt>
      <trkpt lat="44.84224" lon="4.11598">
        <ele>1242.820092</ele>
        <time>2026-08-23T13:42:03.176Z</time>
      </trkpt>
      <trkpt lat="44.84214" lon="4.11591">
        <ele>1242.670258</ele>
        <time>2026-08-23T13:42:05.173Z</time>
      </trkpt>
      <trkpt lat="44.84205" lon="4.11578">
        <ele>1242.507524</ele>
        <time>2026-08-23T13:42:07.169Z</time>
      </trkpt>
      <trkpt lat="44.84199" lon="4.11561">
        <ele>1242.332131</ele>
        <time>2026-08-23T13:42:09.176Z</time>
      </trkpt>
      <trkpt lat="44.84196" lon="4.11542">
        <ele>1242.151065</ele>
        <time>2026-08-23T13:42:11.178Z</time>
      </trkpt>
      <trkpt lat="44.84197" lon="4.11527">
        <ele>1242.009453</ele>
        <time>2026-08-23T13:42:13.172Z</time>
      </trkpt>
      <trkpt lat="44.842" lon="4.11512">
        <ele>1241.865603</ele>
        <time>2026-08-23T13:42:15.172Z</time>
      </trkpt>
      <trkpt lat="44.84203" lon="4.11494">
        <ele>1241.691585</ele>
        <time>2026-08-23T13:42:17.184Z</time>
      </trkpt>
      <trkpt lat="44.84206" lon="4.11478">
        <ele>1241.534723</ele>
        <time>2026-08-23T13:42:19.174Z</time>
      </trkpt>
      <trkpt lat="44.84208" lon="4.11462">
        <ele>1241.382403</ele>
        <time>2026-08-23T13:42:21.179Z</time>
      </trkpt>
      <trkpt lat="44.84211" lon="4.11444">
        <ele>1241.214865</ele>
        <time>2026-08-23T13:42:23.175Z</time>
      </trkpt>
      <trkpt lat="44.84213" lon="4.11426">
        <ele>1241.050466</ele>
        <time>2026-08-23T13:42:25.177Z</time>
      </trkpt>
      <trkpt lat="44.84213" lon="4.11408">
        <ele>1240.922769</ele>
        <time>2026-08-23T13:42:27.152Z</time>
      </trkpt>
      <trkpt lat="44.84209" lon="4.1139">
        <ele>1240.837243</ele>
        <time>2026-08-23T13:42:29.172Z</time>
      </trkpt>
      <trkpt lat="44.84203" lon="4.11374">
        <ele>1240.746107</ele>
        <time>2026-08-23T13:42:31.175Z</time>
      </trkpt>
      <trkpt lat="44.84194" lon="4.11359">
        <ele>1240.65722</ele>
        <time>2026-08-23T13:42:33.174Z</time>
      </trkpt>
      <trkpt lat="44.84185" lon="4.11346">
        <ele>1240.569856</ele>
        <time>2026-08-23T13:42:35.175Z</time>
      </trkpt>
      <trkpt lat="44.84174" lon="4.11333">
        <ele>1240.477026</ele>
        <time>2026-08-23T13:42:37.142Z</time>
      </trkpt>
      <trkpt lat="44.84164" lon="4.11322">
        <ele>1240.389403</ele>
        <time>2026-08-23T13:42:39.180Z</time>
      </trkpt>
      <trkpt lat="44.84152" lon="4.11312">
        <ele>1240.298167</ele>
        <time>2026-08-23T13:42:41.177Z</time>
      </trkpt>
      <trkpt lat="44.84139" lon="4.11303">
        <ele>1240.202934</ele>
        <time>2026-08-23T13:42:43.191Z</time>
      </trkpt>
      <trkpt lat="44.84127" lon="4.11296">
        <ele>1240.112197</ele>
        <time>2026-08-23T13:42:45.180Z</time>
      </trkpt>
      <trkpt lat="44.84115" lon="4.11286">
        <ele>1240.022594</ele>
        <time>2026-08-23T13:42:47.175Z</time>
      </trkpt>
      <trkpt lat="44.84108" lon="4.11276">
        <ele>1239.95393</ele>
        <time>2026-08-23T13:42:49.174Z</time>
      </trkpt>
      <trkpt lat="44.84107" lon="4.11259">
        <ele>1239.874144</ele>
        <time>2026-08-23T13:42:51.179Z</time>
      </trkpt>
      <trkpt lat="44.84112" lon="4.11245">
        <ele>1239.799697</ele>
        <time>2026-08-23T13:42:53.178Z</time>
      </trkpt>
      <trkpt lat="44.84122" lon="4.11229">
        <ele>1239.934096</ele>
        <time>2026-08-23T13:42:55.176Z</time>
      </trkpt>
      <trkpt lat="44.84133" lon="4.11213">
        <ele>1240.168042</ele>
        <time>2026-08-23T13:42:57.171Z</time>
      </trkpt>
      <trkpt lat="44.8414" lon="4.11197">
        <ele>1240.370365</ele>
        <time>2026-08-23T13:42:59.172Z</time>
      </trkpt>
      <trkpt lat="44.84144" lon="4.1118">
        <ele>1240.565096</ele>
        <time>2026-08-23T13:43:01.186Z</time>
      </trkpt>
      <trkpt lat="44.84145" lon="4.11164">
        <ele>1240.738223</ele>
        <time>2026-08-23T13:43:03.184Z</time>
      </trkpt>
      <trkpt lat="44.84144" lon="4.11149">
        <ele>1240.901579</ele>
        <time>2026-08-23T13:43:05.175Z</time>
      </trkpt>
      <trkpt lat="44.84139" lon="4.11136">
        <ele>1241.070112</ele>
        <time>2026-08-23T13:43:07.160Z</time>
      </trkpt>
      <trkpt lat="44.84134" lon="4.11122">
        <ele>1241.24125</ele>
        <time>2026-08-23T13:43:09.177Z</time>
      </trkpt>
      <trkpt lat="44.84129" lon="4.11107">
        <ele>1241.417928</ele>
        <time>2026-08-23T13:43:11.157Z</time>
      </trkpt>
      <trkpt lat="44.84122" lon="4.11092">
        <ele>1241.618893</ele>
        <time>2026-08-23T13:43:13.178Z</time>
      </trkpt>
      <trkpt lat="44.84116" lon="4.11079">
        <ele>1241.782098</ele>
        <time>2026-08-23T13:43:15.181Z</time>
      </trkpt>
      <trkpt lat="44.84108" lon="4.11065">
        <ele>1241.979072</ele>
        <time>2026-08-23T13:43:18.175Z</time>
      </trkpt>
      <trkpt lat="44.84103" lon="4.11051">
        <ele>1242.150488</ele>
        <time>2026-08-23T13:43:20.173Z</time>
      </trkpt>
      <trkpt lat="44.84098" lon="4.11032">
        <ele>1242.36212</ele>
        <time>2026-08-23T13:43:22.178Z</time>
      </trkpt>
      <trkpt lat="44.84094" lon="4.11016">
        <ele>1242.389153</ele>
        <time>2026-08-23T13:43:24.173Z</time>
      </trkpt>
      <trkpt lat="44.8409" lon="4.11">
        <ele>1241.52449</ele>
        <time>2026-08-23T13:43:26.176Z</time>
      </trkpt>
      <trkpt lat="44.84086" lon="4.10983">
        <ele>1240.558443</ele>
        <time>2026-08-23T13:43:28.191Z</time>
      </trkpt>
      <trkpt lat="44.84083" lon="4.10965">
        <ele>1239.596573</ele>
        <time>2026-08-23T13:43:30.174Z</time>
      </trkpt>
      <trkpt lat="44.8408" lon="4.10941">
        <ele>1238.314058</ele>
        <time>2026-08-23T13:43:32.175Z</time>
      </trkpt>
      <trkpt lat="44.84079" lon="4.10916">
        <ele>1237.000882</ele>
        <time>2026-08-23T13:43:34.174Z</time>
      </trkpt>
      <trkpt lat="44.84082" lon="4.109">
        <ele>1236.140668</ele>
        <time>2026-08-23T13:43:35.171Z</time>
      </trkpt>
      <trkpt lat="44.84084" lon="4.10886">
        <ele>1235.389858</ele>
        <time>2026-08-23T13:43:36.173Z</time>
      </trkpt>
      <trkpt lat="44.84088" lon="4.10865">
        <ele>1234.252254</ele>
        <time>2026-08-23T13:43:38.174Z</time>
      </trkpt>
      <trkpt lat="44.84093" lon="4.10844">
        <ele>1233.08884</ele>
        <time>2026-08-23T13:43:40.173Z</time>
      </trkpt>
      <trkpt lat="44.84097" lon="4.10825">
        <ele>1232.03173</ele>
        <time>2026-08-23T13:43:42.175Z</time>
      </trkpt>
      <trkpt lat="44.84099" lon="4.10805">
        <ele>1230.975443</ele>
        <time>2026-08-23T13:43:44.179Z</time>
      </trkpt>
      <trkpt lat="44.84103" lon="4.10785">
        <ele>1229.85764</ele>
        <time>2026-08-23T13:43:46.178Z</time>
      </trkpt>
      <trkpt lat="44.84108" lon="4.10766">
        <ele>1229.168225</ele>
        <time>2026-08-23T13:43:48.173Z</time>
      </trkpt>
      <trkpt lat="44.84112" lon="4.10746">
        <ele>1229.096534</ele>
        <time>2026-08-23T13:43:50.181Z</time>
      </trkpt>
      <trkpt lat="44.84115" lon="4.10725">
        <ele>1229.023816</ele>
        <time>2026-08-23T13:43:52.175Z</time>
      </trkpt>
      <trkpt lat="44.84118" lon="4.10705">
        <ele>1228.951338</ele>
        <time>2026-08-23T13:43:54.177Z</time>
      </trkpt>
      <trkpt lat="44.84119" lon="4.10685">
        <ele>1228.885361</ele>
        <time>2026-08-23T13:43:56.176Z</time>
      </trkpt>
      <trkpt lat="44.84118" lon="4.10666">
        <ele>1228.818041</ele>
        <time>2026-08-23T13:43:58.175Z</time>
      </trkpt>
      <trkpt lat="44.84117" lon="4.10644">
        <ele>1228.74423</ele>
        <time>2026-08-23T13:44:00.171Z</time>
      </trkpt>
      <trkpt lat="44.84117" lon="4.10622">
        <ele>1228.667022</ele>
        <time>2026-08-23T13:44:02.170Z</time>
      </trkpt>
      <trkpt lat="44.84119" lon="4.10601">
        <ele>1228.594677</ele>
        <time>2026-08-23T13:44:04.176Z</time>
      </trkpt>
      <trkpt lat="44.84127" lon="4.10586">
        <ele>1228.530785</ele>
        <time>2026-08-23T13:44:06.183Z</time>
      </trkpt>
      <trkpt lat="44.84138" lon="4.10573">
        <ele>1228.4598</ele>
        <time>2026-08-23T13:44:08.173Z</time>
      </trkpt>
      <trkpt lat="44.84151" lon="4.10557">
        <ele>1228.377413</ele>
        <time>2026-08-23T13:44:10.171Z</time>
      </trkpt>
      <trkpt lat="44.84163" lon="4.10543">
        <ele>1228.200521</ele>
        <time>2026-08-23T13:44:12.178Z</time>
      </trkpt>
      <trkpt lat="44.84176" lon="4.10528">
        <ele>1227.759934</ele>
        <time>2026-08-23T13:44:14.179Z</time>
      </trkpt>
      <trkpt lat="44.84188" lon="4.10514">
        <ele>1227.336516</ele>
        <time>2026-08-23T13:44:16.183Z</time>
      </trkpt>
      <trkpt lat="44.84198" lon="4.10497">
        <ele>1226.895792</ele>
        <time>2026-08-23T13:44:18.176Z</time>
      </trkpt>
      <trkpt lat="44.84206" lon="4.1048">
        <ele>1226.509855</ele>
        <time>2026-08-23T13:44:20.180Z</time>
      </trkpt>
      <trkpt lat="44.84213" lon="4.10461">
        <ele>1226.10813</ele>
        <time>2026-08-23T13:44:22.173Z</time>
      </trkpt>
      <trkpt lat="44.84217" lon="4.10441">
        <ele>1225.694205</ele>
        <time>2026-08-23T13:44:24.173Z</time>
      </trkpt>
      <trkpt lat="44.84221" lon="4.1042">
        <ele>1225.282061</ele>
        <time>2026-08-23T13:44:26.175Z</time>
      </trkpt>
      <trkpt lat="44.84222" lon="4.10398">
        <ele>1224.859881</ele>
        <time>2026-08-23T13:44:28.179Z</time>
      </trkpt>
      <trkpt lat="44.84222" lon="4.10377">
        <ele>1224.45124</ele>
        <time>2026-08-23T13:44:30.179Z</time>
      </trkpt>
      <trkpt lat="44.84219" lon="4.10357">
        <ele>1224.048545</ele>
        <time>2026-08-23T13:44:32.180Z</time>
      </trkpt>
      <trkpt lat="44.84217" lon="4.10337">
        <ele>1223.667418</ele>
        <time>2026-08-23T13:44:34.186Z</time>
      </trkpt>
      <trkpt lat="44.84216" lon="4.10317">
        <ele>1223.284803</ele>
        <time>2026-08-23T13:44:36.172Z</time>
      </trkpt>
      <trkpt lat="44.84213" lon="4.10299">
        <ele>1222.922301</ele>
        <time>2026-08-23T13:44:38.172Z</time>
      </trkpt>
      <trkpt lat="44.84211" lon="4.10281">
        <ele>1222.557041</ele>
        <time>2026-08-23T13:44:40.176Z</time>
      </trkpt>
      <trkpt lat="44.8421" lon="4.10263">
        <ele>1222.220592</ele>
        <time>2026-08-23T13:44:42.171Z</time>
      </trkpt>
      <trkpt lat="44.84208" lon="4.10246">
        <ele>1221.870438</ele>
        <time>2026-08-23T13:44:44.173Z</time>
      </trkpt>
      <trkpt lat="44.84206" lon="4.10229">
        <ele>1221.53196</ele>
        <time>2026-08-23T13:44:46.176Z</time>
      </trkpt>
      <trkpt lat="44.84206" lon="4.10208">
        <ele>1221.122322</ele>
        <time>2026-08-23T13:44:48.172Z</time>
      </trkpt>
      <trkpt lat="44.84207" lon="4.10188">
        <ele>1220.745807</ele>
        <time>2026-08-23T13:44:50.179Z</time>
      </trkpt>
      <trkpt lat="44.84206" lon="4.10168">
        <ele>1220.357757</ele>
        <time>2026-08-23T13:44:52.175Z</time>
      </trkpt>
      <trkpt lat="44.84205" lon="4.10151">
        <ele>1220.007602</ele>
        <time>2026-08-23T13:44:54.189Z</time>
      </trkpt>
      <trkpt lat="44.84205" lon="4.10132">
        <ele>1219.637187</ele>
        <time>2026-08-23T13:44:56.155Z</time>
      </trkpt>
      <trkpt lat="44.84205" lon="4.10113">
        <ele>1219.266771</ele>
        <time>2026-08-23T13:44:58.183Z</time>
      </trkpt>
      <trkpt lat="44.84201" lon="4.10097">
        <ele>1218.941913</ele>
        <time>2026-08-23T13:45:00.176Z</time>
      </trkpt>
      <trkpt lat="44.84196" lon="4.10079">
        <ele>1218.561143</ele>
        <time>2026-08-23T13:45:02.170Z</time>
      </trkpt>
      <trkpt lat="44.84188" lon="4.10063">
        <ele>1218.446937</ele>
        <time>2026-08-23T13:45:04.174Z</time>
      </trkpt>
      <trkpt lat="44.84179" lon="4.10049">
        <ele>1218.396669</ele>
        <time>2026-08-23T13:45:06.181Z</time>
      </trkpt>
      <trkpt lat="44.84168" lon="4.1004">
        <ele>1218.348375</ele>
        <time>2026-08-23T13:45:08.173Z</time>
      </trkpt>
      <trkpt lat="44.84157" lon="4.10032">
        <ele>1218.302965</ele>
        <time>2026-08-23T13:45:10.176Z</time>
      </trkpt>
      <trkpt lat="44.84144" lon="4.10026">
        <ele>1218.251751</ele>
        <time>2026-08-23T13:45:12.172Z</time>
      </trkpt>
      <trkpt lat="44.84132" lon="4.10021">
        <ele>1218.203967</ele>
        <time>2026-08-23T13:45:14.172Z</time>
      </trkpt>
      <trkpt lat="44.84119" lon="4.10017">
        <ele>1218.15391</ele>
        <time>2026-08-23T13:45:16.171Z</time>
      </trkpt>
      <trkpt lat="44.84106" lon="4.10013">
        <ele>1218.103101</ele>
        <time>2026-08-23T13:45:18.172Z</time>
      </trkpt>
      <trkpt lat="44.84093" lon="4.10007">
        <ele>1218.051887</ele>
        <time>2026-08-23T13:45:20.171Z</time>
      </trkpt>
      <trkpt lat="44.8408" lon="4.10002">
        <ele>1218.001572</ele>
        <time>2026-08-23T13:45:22.173Z</time>
      </trkpt>
      <trkpt lat="44.84067" lon="4.09998">
        <ele>1217.951637</ele>
        <time>2026-08-23T13:45:24.174Z</time>
      </trkpt>
      <trkpt lat="44.84055" lon="4.09996">
        <ele>1217.908343</ele>
        <time>2026-08-23T13:45:26.181Z</time>
      </trkpt>
      <trkpt lat="44.84044" lon="4.09998">
        <ele>1217.865125</ele>
        <time>2026-08-23T13:45:28.169Z</time>
      </trkpt>
      <trkpt lat="44.8403" lon="4.1">
        <ele>1217.814145</ele>
        <time>2026-08-23T13:45:30.173Z</time>
      </trkpt>
      <trkpt lat="44.84017" lon="4.10004">
        <ele>1217.634365</ele>
        <time>2026-08-23T13:45:32.177Z</time>
      </trkpt>
      <trkpt lat="44.84004" lon="4.1001">
        <ele>1217.447016</ele>
        <time>2026-08-23T13:45:34.175Z</time>
      </trkpt>
      <trkpt lat="44.83992" lon="4.10015">
        <ele>1217.277398</ele>
        <time>2026-08-23T13:45:36.174Z</time>
      </trkpt>
      <trkpt lat="44.83982" lon="4.10018">
        <ele>1217.134388</ele>
        <time>2026-08-23T13:45:38.169Z</time>
      </trkpt>
      <trkpt lat="44.8397" lon="4.10018">
        <ele>1216.978424</ele>
        <time>2026-08-23T13:45:40.172Z</time>
      </trkpt>
      <trkpt lat="44.83957" lon="4.10014">
        <ele>1216.80111</ele>
        <time>2026-08-23T13:45:42.173Z</time>
      </trkpt>
      <trkpt lat="44.83943" lon="4.10008">
        <ele>1216.594191</ele>
        <time>2026-08-23T13:45:44.175Z</time>
      </trkpt>
      <trkpt lat="44.83927" lon="4.09999">
        <ele>1216.370722</ele>
        <time>2026-08-23T13:45:46.171Z</time>
      </trkpt>
      <trkpt lat="44.83913" lon="4.09986">
        <ele>1216.137175</ele>
        <time>2026-08-23T13:45:48.168Z</time>
      </trkpt>
      <trkpt lat="44.83898" lon="4.09974">
        <ele>1215.904103</ele>
        <time>2026-08-23T13:45:50.172Z</time>
      </trkpt>
      <trkpt lat="44.83884" lon="4.09961">
        <ele>1215.678066</ele>
        <time>2026-08-23T13:45:52.154Z</time>
      </trkpt>
      <trkpt lat="44.8387" lon="4.09949">
        <ele>1215.45161</ele>
        <time>2026-08-23T13:45:54.177Z</time>
      </trkpt>
      <trkpt lat="44.83854" lon="4.09937">
        <ele>1214.668626</ele>
        <time>2026-08-23T13:45:56.175Z</time>
      </trkpt>
      <trkpt lat="44.83839" lon="4.09925">
        <ele>1213.636162</ele>
        <time>2026-08-23T13:45:58.171Z</time>
      </trkpt>
      <trkpt lat="44.83824" lon="4.09914">
        <ele>1212.614585</ele>
        <time>2026-08-23T13:46:00.180Z</time>
      </trkpt>
      <trkpt lat="44.83811" lon="4.09899">
        <ele>1211.601172</ele>
        <time>2026-08-23T13:46:02.174Z</time>
      </trkpt>
      <trkpt lat="44.83798" lon="4.09886">
        <ele>1210.664011</ele>
        <time>2026-08-23T13:46:04.177Z</time>
      </trkpt>
      <trkpt lat="44.83784" lon="4.09877">
        <ele>1209.732972</ele>
        <time>2026-08-23T13:46:06.175Z</time>
      </trkpt>
      <trkpt lat="44.83769" lon="4.09868">
        <ele>1208.792647</ele>
        <time>2026-08-23T13:46:08.173Z</time>
      </trkpt>
      <trkpt lat="44.83752" lon="4.0986">
        <ele>1207.722392</ele>
        <time>2026-08-23T13:46:10.181Z</time>
      </trkpt>
      <trkpt lat="44.83737" lon="4.0985">
        <ele>1206.726127</ele>
        <time>2026-08-23T13:46:12.180Z</time>
      </trkpt>
      <trkpt lat="44.83724" lon="4.09839">
        <ele>1205.815759</ele>
        <time>2026-08-23T13:46:14.176Z</time>
      </trkpt>
      <trkpt lat="44.83714" lon="4.09822">
        <ele>1204.904803</ele>
        <time>2026-08-23T13:46:16.170Z</time>
      </trkpt>
      <trkpt lat="44.8371" lon="4.09801">
        <ele>1204.148147</ele>
        <time>2026-08-23T13:46:18.174Z</time>
      </trkpt>
      <trkpt lat="44.83707" lon="4.09782">
        <ele>1203.519434</ele>
        <time>2026-08-23T13:46:20.179Z</time>
      </trkpt>
      <trkpt lat="44.83704" lon="4.0976">
        <ele>1202.794065</ele>
        <time>2026-08-23T13:46:22.165Z</time>
      </trkpt>
      <trkpt lat="44.83702" lon="4.09738">
        <ele>1202.091065</ele>
        <time>2026-08-23T13:46:24.174Z</time>
      </trkpt>
      <trkpt lat="44.83705" lon="4.09714">
        <ele>1201.322871</ele>
        <time>2026-08-23T13:46:26.167Z</time>
      </trkpt>
      <trkpt lat="44.83707" lon="4.09692">
        <ele>1200.611921</ele>
        <time>2026-08-23T13:46:28.176Z</time>
      </trkpt>
      <trkpt lat="44.83712" lon="4.09681">
        <ele>1200.192808</ele>
        <time>2026-08-23T13:46:29.176Z</time>
      </trkpt>
      <trkpt lat="44.83714" lon="4.09667">
        <ele>1199.728657</ele>
        <time>2026-08-23T13:46:30.173Z</time>
      </trkpt>
      <trkpt lat="44.83717" lon="4.09655">
        <ele>1199.321592</ele>
        <time>2026-08-23T13:46:31.173Z</time>
      </trkpt>
      <trkpt lat="44.83719" lon="4.09642">
        <ele>1198.905479</ele>
        <time>2026-08-23T13:46:32.167Z</time>
      </trkpt>
      <trkpt lat="44.8372" lon="4.09629">
        <ele>1198.497803</ele>
        <time>2026-08-23T13:46:33.181Z</time>
      </trkpt>
      <trkpt lat="44.83722" lon="4.09607">
        <ele>1197.776691</ele>
        <time>2026-08-23T13:46:35.173Z</time>
      </trkpt>
      <trkpt lat="44.83722" lon="4.09586">
        <ele>1197.106472</ele>
        <time>2026-08-23T13:46:37.180Z</time>
      </trkpt>
      <trkpt lat="44.83718" lon="4.09565">
        <ele>1196.446753</ele>
        <time>2026-08-23T13:46:39.185Z</time>
      </trkpt>
      <trkpt lat="44.83711" lon="4.09542">
        <ele>1195.793026</ele>
        <time>2026-08-23T13:46:41.171Z</time>
      </trkpt>
      <trkpt lat="44.83707" lon="4.0953">
        <ele>1195.456025</ele>
        <time>2026-08-23T13:46:42.178Z</time>
      </trkpt>
      <trkpt lat="44.83699" lon="4.09509">
        <ele>1194.837521</ele>
        <time>2026-08-23T13:46:44.174Z</time>
      </trkpt>
      <trkpt lat="44.8369" lon="4.09491">
        <ele>1194.257586</ele>
        <time>2026-08-23T13:46:46.172Z</time>
      </trkpt>
      <trkpt lat="44.83678" lon="4.09477">
        <ele>1193.697539</ele>
        <time>2026-08-23T13:46:48.176Z</time>
      </trkpt>
      <trkpt lat="44.83665" lon="4.09472">
        <ele>1193.193187</ele>
        <time>2026-08-23T13:46:50.172Z</time>
      </trkpt>
      <trkpt lat="44.83649" lon="4.09472">
        <ele>1192.636986</ele>
        <time>2026-08-23T13:46:52.176Z</time>
      </trkpt>
      <trkpt lat="44.83631" lon="4.09478">
        <ele>1191.963108</ele>
        <time>2026-08-23T13:46:54.176Z</time>
      </trkpt>
      <trkpt lat="44.83615" lon="4.09484">
        <ele>1191.332757</ele>
        <time>2026-08-23T13:46:56.171Z</time>
      </trkpt>
      <trkpt lat="44.836" lon="4.09491">
        <ele>1190.762529</ele>
        <time>2026-08-23T13:46:58.179Z</time>
      </trkpt>
      <trkpt lat="44.83585" lon="4.095">
        <ele>1190.156966</ele>
        <time>2026-08-23T13:47:00.174Z</time>
      </trkpt>
      <trkpt lat="44.8357" lon="4.09506">
        <ele>1189.712891</ele>
        <time>2026-08-23T13:47:02.175Z</time>
      </trkpt>
      <trkpt lat="44.83557" lon="4.09514">
        <ele>1189.349885</ele>
        <time>2026-08-23T13:47:04.181Z</time>
      </trkpt>
      <trkpt lat="44.83543" lon="4.0952">
        <ele>1188.962373</ele>
        <time>2026-08-23T13:47:06.138Z</time>
      </trkpt>
      <trkpt lat="44.83527" lon="4.09519">
        <ele>1188.56408</ele>
        <time>2026-08-23T13:47:08.172Z</time>
      </trkpt>
      <trkpt lat="44.83513" lon="4.0951">
        <ele>1188.174182</ele>
        <time>2026-08-23T13:47:10.179Z</time>
      </trkpt>
      <trkpt lat="44.835" lon="4.09497">
        <ele>1187.752748</ele>
        <time>2026-08-23T13:47:12.162Z</time>
      </trkpt>
      <trkpt lat="44.83486" lon="4.09482">
        <ele>1187.308148</ele>
        <time>2026-08-23T13:47:14.178Z</time>
      </trkpt>
      <trkpt lat="44.83474" lon="4.09468">
        <ele>1186.911894</ele>
        <time>2026-08-23T13:47:16.176Z</time>
      </trkpt>
      <trkpt lat="44.83461" lon="4.09453">
        <ele>1186.487861</ele>
        <time>2026-08-23T13:47:18.174Z</time>
      </trkpt>
      <trkpt lat="44.83449" lon="4.0944">
        <ele>1186.091627</ele>
        <time>2026-08-23T13:47:20.172Z</time>
      </trkpt>
      <trkpt lat="44.83435" lon="4.0943">
        <ele>1185.682307</ele>
        <time>2026-08-23T13:47:22.171Z</time>
      </trkpt>
      <trkpt lat="44.83419" lon="4.0942">
        <ele>1184.948386</ele>
        <time>2026-08-23T13:47:24.175Z</time>
      </trkpt>
      <trkpt lat="44.83411" lon="4.09414">
        <ele>1184.164446</ele>
        <time>2026-08-23T13:47:25.174Z</time>
      </trkpt>
      <trkpt lat="44.83403" lon="4.09406">
        <ele>1183.352094</ele>
        <time>2026-08-23T13:47:26.172Z</time>
      </trkpt>
      <trkpt lat="44.83397" lon="4.09397">
        <ele>1182.577693</ele>
        <time>2026-08-23T13:47:27.179Z</time>
      </trkpt>
      <trkpt lat="44.83389" lon="4.09375">
        <ele>1181.081206</ele>
        <time>2026-08-23T13:47:29.174Z</time>
      </trkpt>
      <trkpt lat="44.83384" lon="4.09363">
        <ele>1180.287739</ele>
        <time>2026-08-23T13:47:30.175Z</time>
      </trkpt>
      <trkpt lat="44.83375" lon="4.09342">
        <ele>1178.775765</ele>
        <time>2026-08-23T13:47:32.176Z</time>
      </trkpt>
      <trkpt lat="44.83363" lon="4.09329">
        <ele>1177.493143</ele>
        <time>2026-08-23T13:47:34.175Z</time>
      </trkpt>
      <trkpt lat="44.8335" lon="4.09319">
        <ele>1176.242948</ele>
        <time>2026-08-23T13:47:36.175Z</time>
      </trkpt>
      <trkpt lat="44.83336" lon="4.09324">
        <ele>1175.049937</ele>
        <time>2026-08-23T13:47:38.179Z</time>
      </trkpt>
      <trkpt lat="44.83324" lon="4.09338">
        <ele>1173.728596</ele>
        <time>2026-08-23T13:47:40.169Z</time>
      </trkpt>
      <trkpt lat="44.83316" lon="4.09357">
        <ele>1172.351589</ele>
        <time>2026-08-23T13:47:42.177Z</time>
      </trkpt>
      <trkpt lat="44.83311" lon="4.09378">
        <ele>1171.008796</ele>
        <time>2026-08-23T13:47:44.180Z</time>
      </trkpt>
      <trkpt lat="44.83305" lon="4.09396">
        <ele>1170.140512</ele>
        <time>2026-08-23T13:47:46.174Z</time>
      </trkpt>
      <trkpt lat="44.83298" lon="4.09408">
        <ele>1170.266069</ele>
        <time>2026-08-23T13:47:48.188Z</time>
      </trkpt>
      <trkpt lat="44.83288" lon="4.09412">
        <ele>1170.382982</ele>
        <time>2026-08-23T13:47:50.171Z</time>
      </trkpt>
      <trkpt lat="44.83279" lon="4.0941">
        <ele>1170.486972</ele>
        <time>2026-08-23T13:47:51.173Z</time>
      </trkpt>
      <trkpt lat="44.8327" lon="4.09405">
        <ele>1170.597458</ele>
        <time>2026-08-23T13:47:52.182Z</time>
      </trkpt>
      <trkpt lat="44.83261" lon="4.09399">
        <ele>1170.705245</ele>
        <time>2026-08-23T13:47:53.176Z</time>
      </trkpt>
      <trkpt lat="44.83246" lon="4.09387">
        <ele>1170.902433</ele>
        <time>2026-08-23T13:47:55.172Z</time>
      </trkpt>
      <trkpt lat="44.83231" lon="4.09376">
        <ele>1171.09213</ele>
        <time>2026-08-23T13:47:57.169Z</time>
      </trkpt>
      <trkpt lat="44.83215" lon="4.09367">
        <ele>1171.282169</ele>
        <time>2026-08-23T13:47:59.171Z</time>
      </trkpt>
      <trkpt lat="44.83203" lon="4.09358">
        <ele>1171.44226</ele>
        <time>2026-08-23T13:48:01.182Z</time>
      </trkpt>
      <trkpt lat="44.83195" lon="4.09343">
        <ele>1171.589632</ele>
        <time>2026-08-23T13:48:03.171Z</time>
      </trkpt>
      <trkpt lat="44.83187" lon="4.09326">
        <ele>1171.749552</ele>
        <time>2026-08-23T13:48:05.153Z</time>
      </trkpt>
      <trkpt lat="44.83185" lon="4.09309">
        <ele>1171.89093</ele>
        <time>2026-08-23T13:48:07.184Z</time>
      </trkpt>
      <trkpt lat="44.83189" lon="4.0929">
        <ele>1172.048613</ele>
        <time>2026-08-23T13:48:09.175Z</time>
      </trkpt>
      <trkpt lat="44.83187" lon="4.09268">
        <ele>1170.846543</ele>
        <time>2026-08-23T13:48:11.179Z</time>
      </trkpt>
      <trkpt lat="44.83182" lon="4.09246">
        <ele>1168.481096</ele>
        <time>2026-08-23T13:48:13.166Z</time>
      </trkpt>
      <trkpt lat="44.83175" lon="4.09227">
        <ele>1166.200719</ele>
        <time>2026-08-23T13:48:15.172Z</time>
      </trkpt>
      <trkpt lat="44.83164" lon="4.09212">
        <ele>1163.92997</ele>
        <time>2026-08-23T13:48:17.174Z</time>
      </trkpt>
      <trkpt lat="44.83153" lon="4.09193">
        <ele>1161.387659</ele>
        <time>2026-08-23T13:48:19.175Z</time>
      </trkpt>
      <trkpt lat="44.83146" lon="4.09181">
        <ele>1159.797214</ele>
        <time>2026-08-23T13:48:20.175Z</time>
      </trkpt>
      <trkpt lat="44.8314" lon="4.09169">
        <ele>1158.238627</ele>
        <time>2026-08-23T13:48:21.175Z</time>
      </trkpt>
      <trkpt lat="44.83135" lon="4.09158">
        <ele>1156.850062</ele>
        <time>2026-08-23T13:48:22.175Z</time>
      </trkpt>
      <trkpt lat="44.83131" lon="4.09145">
        <ele>1155.401334</ele>
        <time>2026-08-23T13:48:23.171Z</time>
      </trkpt>
      <trkpt lat="44.83125" lon="4.09123">
        <ele>1152.949229</ele>
        <time>2026-08-23T13:48:25.174Z</time>
      </trkpt>
      <trkpt lat="44.83119" lon="4.09102">
        <ele>1150.535043</ele>
        <time>2026-08-23T13:48:27.166Z</time>
      </trkpt>
      <trkpt lat="44.83111" lon="4.09082">
        <ele>1148.183239</ele>
        <time>2026-08-23T13:48:29.175Z</time>
      </trkpt>
      <trkpt lat="44.831" lon="4.0907">
        <ele>1146.116151</ele>
        <time>2026-08-23T13:48:31.190Z</time>
      </trkpt>
      <trkpt lat="44.83084" lon="4.09068">
        <ele>1145.563968</ele>
        <time>2026-08-23T13:48:33.179Z</time>
      </trkpt>
      <trkpt lat="44.83068" lon="4.0907">
        <ele>1145.406943</ele>
        <time>2026-08-23T13:48:35.175Z</time>
      </trkpt>
      <trkpt lat="44.83055" lon="4.0906">
        <ele>1145.268014</ele>
        <time>2026-08-23T13:48:37.176Z</time>
      </trkpt>
      <trkpt lat="44.83048" lon="4.09044">
        <ele>1145.143154</ele>
        <time>2026-08-23T13:48:39.132Z</time>
      </trkpt>
      <trkpt lat="44.83046" lon="4.09027">
        <ele>1145.025375</ele>
        <time>2026-08-23T13:48:41.173Z</time>
      </trkpt>
      <trkpt lat="44.83056" lon="4.09012">
        <ele>1144.883552</ele>
        <time>2026-08-23T13:48:43.172Z</time>
      </trkpt>
      <trkpt lat="44.83063" lon="4.08994">
        <ele>1144.745127</ele>
        <time>2026-08-23T13:48:45.169Z</time>
      </trkpt>
      <trkpt lat="44.83072" lon="4.08975">
        <ele>1144.595757</ele>
        <time>2026-08-23T13:48:47.174Z</time>
      </trkpt>
      <trkpt lat="44.83072" lon="4.08956">
        <ele>1144.465665</ele>
        <time>2026-08-23T13:48:49.164Z</time>
      </trkpt>
      <trkpt lat="44.83071" lon="4.08938">
        <ele>1144.340367</ele>
        <time>2026-08-23T13:48:51.167Z</time>
      </trkpt>
      <trkpt lat="44.83058" lon="4.08921">
        <ele>1144.178123</ele>
        <time>2026-08-23T13:48:53.174Z</time>
      </trkpt>
      <trkpt lat="44.83043" lon="4.08913">
        <ele>1144.020566</ele>
        <time>2026-08-23T13:48:55.175Z</time>
      </trkpt>
      <trkpt lat="44.83025" lon="4.0891">
        <ele>1143.514937</ele>
        <time>2026-08-23T13:48:57.172Z</time>
      </trkpt>
      <trkpt lat="44.83016" lon="4.08908">
        <ele>1143.200316</ele>
        <time>2026-08-23T13:48:58.172Z</time>
      </trkpt>
      <trkpt lat="44.83" lon="4.08905">
        <ele>1142.670174</ele>
        <time>2026-08-23T13:49:00.174Z</time>
      </trkpt>
      <trkpt lat="44.82988" lon="4.089">
        <ele>1142.224014</ele>
        <time>2026-08-23T13:49:02.171Z</time>
      </trkpt>
      <trkpt lat="44.82982" lon="4.08887">
        <ele>1141.854676</ele>
        <time>2026-08-23T13:49:04.175Z</time>
      </trkpt>
      <trkpt lat="44.82978" lon="4.08872">
        <ele>1141.474123</ele>
        <time>2026-08-23T13:49:06.173Z</time>
      </trkpt>
      <trkpt lat="44.82978" lon="4.08856">
        <ele>1141.10404</ele>
        <time>2026-08-23T13:49:08.166Z</time>
      </trkpt>
      <trkpt lat="44.82983" lon="4.08836">
        <ele>1140.576253</ele>
        <time>2026-08-23T13:49:10.164Z</time>
      </trkpt>
      <trkpt lat="44.82988" lon="4.08815">
        <ele>1140.042826</ele>
        <time>2026-08-23T13:49:12.164Z</time>
      </trkpt>
      <trkpt lat="44.82995" lon="4.08793">
        <ele>1139.474069</ele>
        <time>2026-08-23T13:49:14.166Z</time>
      </trkpt>
      <trkpt lat="44.82997" lon="4.0877">
        <ele>1138.928249</ele>
        <time>2026-08-23T13:49:16.172Z</time>
      </trkpt>
      <trkpt lat="44.82994" lon="4.08759">
        <ele>1138.622169</ele>
        <time>2026-08-23T13:49:17.164Z</time>
      </trkpt>
      <trkpt lat="44.82991" lon="4.08746">
        <ele>1138.311863</ele>
        <time>2026-08-23T13:49:18.167Z</time>
      </trkpt>
      <trkpt lat="44.82987" lon="4.08734">
        <ele>1138.000052</ele>
        <time>2026-08-23T13:49:19.169Z</time>
      </trkpt>
      <trkpt lat="44.82985" lon="4.08721">
        <ele>1137.131025</ele>
        <time>2026-08-23T13:49:20.170Z</time>
      </trkpt>
      <trkpt lat="44.82981" lon="4.08709">
        <ele>1136.017004</ele>
        <time>2026-08-23T13:49:21.171Z</time>
      </trkpt>
      <trkpt lat="44.82976" lon="4.08689">
        <ele>1134.141437</ele>
        <time>2026-08-23T13:49:23.166Z</time>
      </trkpt>
      <trkpt lat="44.82966" lon="4.08673">
        <ele>1132.418556</ele>
        <time>2026-08-23T13:49:25.175Z</time>
      </trkpt>
      <trkpt lat="44.82958" lon="4.08651">
        <ele>1130.295274</ele>
        <time>2026-08-23T13:49:27.175Z</time>
      </trkpt>
      <trkpt lat="44.82948" lon="4.08633">
        <ele>1128.310045</ele>
        <time>2026-08-23T13:49:29.177Z</time>
      </trkpt>
      <trkpt lat="44.82937" lon="4.08619">
        <ele>1126.565246</ele>
        <time>2026-08-23T13:49:31.174Z</time>
      </trkpt>
      <trkpt lat="44.82923" lon="4.08612">
        <ele>1124.707303</ele>
        <time>2026-08-23T13:49:33.171Z</time>
      </trkpt>
      <trkpt lat="44.82907" lon="4.08607">
        <ele>1122.830152</ele>
        <time>2026-08-23T13:49:35.173Z</time>
      </trkpt>
      <trkpt lat="44.82893" lon="4.086">
        <ele>1121.017749</ele>
        <time>2026-08-23T13:49:37.167Z</time>
      </trkpt>
      <trkpt lat="44.8288" lon="4.08589">
        <ele>1119.136495</ele>
        <time>2026-08-23T13:49:39.163Z</time>
      </trkpt>
      <trkpt lat="44.82871" lon="4.08584">
        <ele>1118.014441</ele>
        <time>2026-08-23T13:49:40.175Z</time>
      </trkpt>
      <trkpt lat="44.82863" lon="4.08578">
        <ele>1116.882309</ele>
        <time>2026-08-23T13:49:41.170Z</time>
      </trkpt>
      <trkpt lat="44.82848" lon="4.08567">
        <ele>1115.436531</ele>
        <time>2026-08-23T13:49:43.174Z</time>
      </trkpt>
      <trkpt lat="44.82839" lon="4.08562">
        <ele>1114.724162</ele>
        <time>2026-08-23T13:49:44.171Z</time>
      </trkpt>
      <trkpt lat="44.82825" lon="4.08548">
        <ele>1113.474711</ele>
        <time>2026-08-23T13:49:46.173Z</time>
      </trkpt>
      <trkpt lat="44.82808" lon="4.08544">
        <ele>1112.212907</ele>
        <time>2026-08-23T13:49:48.171Z</time>
      </trkpt>
      <trkpt lat="44.82799" lon="4.08541">
        <ele>1111.546674</ele>
        <time>2026-08-23T13:49:49.176Z</time>
      </trkpt>
      <trkpt lat="44.8279" lon="4.08537">
        <ele>1110.843884</ele>
        <time>2026-08-23T13:49:50.174Z</time>
      </trkpt>
      <trkpt lat="44.82773" lon="4.08534">
        <ele>1109.601097</ele>
        <time>2026-08-23T13:49:52.174Z</time>
      </trkpt>
      <trkpt lat="44.82756" lon="4.08537">
        <ele>1108.35831</ele>
        <time>2026-08-23T13:49:54.179Z</time>
      </trkpt>
      <trkpt lat="44.82741" lon="4.08549">
        <ele>1107.06841</ele>
        <time>2026-08-23T13:49:56.175Z</time>
      </trkpt>
      <trkpt lat="44.82734" lon="4.08558">
        <ele>1106.380888</ele>
        <time>2026-08-23T13:49:57.173Z</time>
      </trkpt>
      <trkpt lat="44.82726" lon="4.08565">
        <ele>1105.700753</ele>
        <time>2026-08-23T13:49:58.185Z</time>
      </trkpt>
      <trkpt lat="44.82717" lon="4.08582">
        <ele>1104.581765</ele>
        <time>2026-08-23T13:50:00.179Z</time>
      </trkpt>
      <trkpt lat="44.82702" lon="4.08596">
        <ele>1103.248501</ele>
        <time>2026-08-23T13:50:02.178Z</time>
      </trkpt>
      <trkpt lat="44.82691" lon="4.08609">
        <ele>1102.73415</ele>
        <time>2026-08-23T13:50:04.173Z</time>
      </trkpt>
      <trkpt lat="44.8268" lon="4.08619">
        <ele>1102.313477</ele>
        <time>2026-08-23T13:50:06.180Z</time>
      </trkpt>
      <trkpt lat="44.82668" lon="4.08631">
        <ele>1101.887476</ele>
        <time>2026-08-23T13:50:08.154Z</time>
      </trkpt>
      <trkpt lat="44.82656" lon="4.08643">
        <ele>1101.427582</ele>
        <time>2026-08-23T13:50:10.173Z</time>
      </trkpt>
      <trkpt lat="44.82643" lon="4.08645">
        <ele>1101.019614</ele>
        <time>2026-08-23T13:50:12.179Z</time>
      </trkpt>
      <trkpt lat="44.82631" lon="4.08641">
        <ele>1100.649304</ele>
        <time>2026-08-23T13:50:14.179Z</time>
      </trkpt>
      <trkpt lat="44.82622" lon="4.08631">
        <ele>1100.296983</ele>
        <time>2026-08-23T13:50:16.177Z</time>
      </trkpt>
      <trkpt lat="44.82614" lon="4.08618">
        <ele>1099.911676</ele>
        <time>2026-08-23T13:50:18.175Z</time>
      </trkpt>
      <trkpt lat="44.82608" lon="4.08605">
        <ele>1099.570145</ele>
        <time>2026-08-23T13:50:20.175Z</time>
      </trkpt>
      <trkpt lat="44.8261" lon="4.08581">
        <ele>1099.046194</ele>
        <time>2026-08-23T13:50:22.164Z</time>
      </trkpt>
      <trkpt lat="44.82615" lon="4.08559">
        <ele>1098.532924</ele>
        <time>2026-08-23T13:50:24.169Z</time>
      </trkpt>
      <trkpt lat="44.82617" lon="4.08546">
        <ele>1098.243045</ele>
        <time>2026-08-23T13:50:25.166Z</time>
      </trkpt>
      <trkpt lat="44.8262" lon="4.08528">
        <ele>1097.832619</ele>
        <time>2026-08-23T13:50:26.167Z</time>
      </trkpt>
      <trkpt lat="44.82625" lon="4.0851">
        <ele>1097.179399</ele>
        <time>2026-08-23T13:50:27.171Z</time>
      </trkpt>
      <trkpt lat="44.82628" lon="4.08496">
        <ele>1096.224999</ele>
        <time>2026-08-23T13:50:28.164Z</time>
      </trkpt>
      <trkpt lat="44.82631" lon="4.08481">
        <ele>1095.249734</ele>
        <time>2026-08-23T13:50:29.173Z</time>
      </trkpt>
      <trkpt lat="44.82634" lon="4.08468">
        <ele>1094.412244</ele>
        <time>2026-08-23T13:50:30.177Z</time>
      </trkpt>
      <trkpt lat="44.82641" lon="4.08447">
        <ele>1092.926497</ele>
        <time>2026-08-23T13:50:32.175Z</time>
      </trkpt>
      <trkpt lat="44.82652" lon="4.08428">
        <ele>1091.367782</ele>
        <time>2026-08-23T13:50:34.178Z</time>
      </trkpt>
      <trkpt lat="44.82665" lon="4.0841">
        <ele>1089.727311</ele>
        <time>2026-08-23T13:50:36.167Z</time>
      </trkpt>
      <trkpt lat="44.82672" lon="4.08401">
        <ele>1088.919842</ele>
        <time>2026-08-23T13:50:37.175Z</time>
      </trkpt>
      <trkpt lat="44.82683" lon="4.08385">
        <ele>1087.503139</ele>
        <time>2026-08-23T13:50:39.173Z</time>
      </trkpt>
      <trkpt lat="44.82695" lon="4.08366">
        <ele>1085.929034</ele>
        <time>2026-08-23T13:50:41.176Z</time>
      </trkpt>
      <trkpt lat="44.82705" lon="4.08346">
        <ele>1084.345499</ele>
        <time>2026-08-23T13:50:43.172Z</time>
      </trkpt>
      <trkpt lat="44.82713" lon="4.08327">
        <ele>1082.971242</ele>
        <time>2026-08-23T13:50:45.175Z</time>
      </trkpt>
      <trkpt lat="44.82716" lon="4.08304">
        <ele>1081.547145</ele>
        <time>2026-08-23T13:50:47.172Z</time>
      </trkpt>
      <trkpt lat="44.82719" lon="4.08291">
        <ele>1081.204426</ele>
        <time>2026-08-23T13:50:48.175Z</time>
      </trkpt>
      <trkpt lat="44.82722" lon="4.0828">
        <ele>1080.866219</ele>
        <time>2026-08-23T13:50:49.170Z</time>
      </trkpt>
      <trkpt lat="44.82725" lon="4.08268">
        <ele>1080.52696</ele>
        <time>2026-08-23T13:50:50.175Z</time>
      </trkpt>
      <trkpt lat="44.82727" lon="4.08245">
        <ele>1079.928524</ele>
        <time>2026-08-23T13:50:52.174Z</time>
      </trkpt>
      <trkpt lat="44.82727" lon="4.08225">
        <ele>1079.38992</ele>
        <time>2026-08-23T13:50:54.171Z</time>
      </trkpt>
      <trkpt lat="44.82728" lon="4.08203">
        <ele>1078.802347</ele>
        <time>2026-08-23T13:50:56.164Z</time>
      </trkpt>
      <trkpt lat="44.82727" lon="4.08183">
        <ele>1078.263533</ele>
        <time>2026-08-23T13:50:58.166Z</time>
      </trkpt>
      <trkpt lat="44.82723" lon="4.08169">
        <ele>1077.866033</ele>
        <time>2026-08-23T13:51:00.173Z</time>
      </trkpt>
      <trkpt lat="44.82715" lon="4.0816">
        <ele>1077.466405</ele>
        <time>2026-08-23T13:51:02.164Z</time>
      </trkpt>
      <trkpt lat="44.82706" lon="4.0815">
        <ele>1077.035916</ele>
        <time>2026-08-23T13:51:04.164Z</time>
      </trkpt>
      <trkpt lat="44.82695" lon="4.0814">
        <ele>1076.536516</ele>
        <time>2026-08-23T13:51:06.169Z</time>
      </trkpt>
      <trkpt lat="44.82684" lon="4.08127">
        <ele>1076.001157</ele>
        <time>2026-08-23T13:51:08.164Z</time>
      </trkpt>
      <trkpt lat="44.82672" lon="4.08115">
        <ele>1075.449284</ele>
        <time>2026-08-23T13:51:10.171Z</time>
      </trkpt>
      <trkpt lat="44.82666" lon="4.08094">
        <ele>1074.861044</ele>
        <time>2026-08-23T13:51:12.165Z</time>
      </trkpt>
      <trkpt lat="44.82664" lon="4.08081">
        <ele>1074.740148</ele>
        <time>2026-08-23T13:51:13.169Z</time>
      </trkpt>
      <trkpt lat="44.8266" lon="4.0806">
        <ele>1074.587398</ele>
        <time>2026-08-23T13:51:15.166Z</time>
      </trkpt>
      <trkpt lat="44.82658" lon="4.08035">
        <ele>1074.412825</ele>
        <time>2026-08-23T13:51:17.172Z</time>
      </trkpt>
      <trkpt lat="44.82658" lon="4.0802">
        <ele>1074.309088</ele>
        <time>2026-08-23T13:51:18.164Z</time>
      </trkpt>
      <trkpt lat="44.82657" lon="4.08006">
        <ele>1074.215492</ele>
        <time>2026-08-23T13:51:19.166Z</time>
      </trkpt>
      <trkpt lat="44.82653" lon="4.07984">
        <ele>1074.055033</ele>
        <time>2026-08-23T13:51:21.174Z</time>
      </trkpt>
      <trkpt lat="44.82649" lon="4.07962">
        <ele>1073.898467</ele>
        <time>2026-08-23T13:51:23.166Z</time>
      </trkpt>
      <trkpt lat="44.82645" lon="4.07941">
        <ele>1073.747448</ele>
        <time>2026-08-23T13:51:25.170Z</time>
      </trkpt>
      <trkpt lat="44.82643" lon="4.0792">
        <ele>1073.60336</ele>
        <time>2026-08-23T13:51:27.167Z</time>
      </trkpt>
      <trkpt lat="44.82641" lon="4.07906">
        <ele>1073.507191</ele>
        <time>2026-08-23T13:51:28.175Z</time>
      </trkpt>
      <trkpt lat="44.82638" lon="4.07883">
        <ele>1073.34433</ele>
        <time>2026-08-23T13:51:30.166Z</time>
      </trkpt>
      <trkpt lat="44.82635" lon="4.07871">
        <ele>1073.254119</ele>
        <time>2026-08-23T13:51:31.171Z</time>
      </trkpt>
      <trkpt lat="44.8263" lon="4.07851">
        <ele>1073.109014</ele>
        <time>2026-08-23T13:51:33.164Z</time>
      </trkpt>
      <trkpt lat="44.82626" lon="4.0784">
        <ele>1072.874391</ele>
        <time>2026-08-23T13:51:35.169Z</time>
      </trkpt>
      <trkpt lat="44.82622" lon="4.0782">
        <ele>1072.321177</ele>
        <time>2026-08-23T13:51:38.173Z</time>
      </trkpt>
      <trkpt lat="44.82623" lon="4.07798">
        <ele>1071.74291</ele>
        <time>2026-08-23T13:51:40.169Z</time>
      </trkpt>
      <trkpt lat="44.82623" lon="4.0778">
        <ele>1071.278705</ele>
        <time>2026-08-23T13:51:42.164Z</time>
      </trkpt>
      <trkpt lat="44.82622" lon="4.07757">
        <ele>1070.646571</ele>
        <time>2026-08-23T13:51:44.163Z</time>
      </trkpt>
      <trkpt lat="44.82622" lon="4.07736">
        <ele>1070.108046</ele>
        <time>2026-08-23T13:51:46.167Z</time>
      </trkpt>
      <trkpt lat="44.82622" lon="4.07713">
        <ele>1069.492677</ele>
        <time>2026-08-23T13:51:48.174Z</time>
      </trkpt>
      <trkpt lat="44.82618" lon="4.07693">
        <ele>1068.948644</ele>
        <time>2026-08-23T13:51:50.169Z</time>
      </trkpt>
      <trkpt lat="44.82613" lon="4.07677">
        <ele>1068.467869</ele>
        <time>2026-08-23T13:51:52.172Z</time>
      </trkpt>
      <trkpt lat="44.82608" lon="4.07666">
        <ele>1068.126055</ele>
        <time>2026-08-23T13:51:54.169Z</time>
      </trkpt>
      <trkpt lat="44.82597" lon="4.0766">
        <ele>1067.690384</ele>
        <time>2026-08-23T13:51:57.170Z</time>
      </trkpt>
      <trkpt lat="44.82584" lon="4.07672">
        <ele>1067.127651</ele>
        <time>2026-08-23T13:51:59.170Z</time>
      </trkpt>
      <trkpt lat="44.82578" lon="4.07683">
        <ele>1066.734973</ele>
        <time>2026-08-23T13:52:00.172Z</time>
      </trkpt>
      <trkpt lat="44.82564" lon="4.0769">
        <ele>1065.989749</ele>
        <time>2026-08-23T13:52:01.163Z</time>
      </trkpt>
      <trkpt lat="44.82553" lon="4.07695">
        <ele>1065.089439</ele>
        <time>2026-08-23T13:52:02.167Z</time>
      </trkpt>
      <trkpt lat="44.8254" lon="4.077">
        <ele>1064.034024</ele>
        <time>2026-08-23T13:52:04.164Z</time>
      </trkpt>
      <trkpt lat="44.82531" lon="4.07696">
        <ele>1063.251554</ele>
        <time>2026-08-23T13:52:06.167Z</time>
      </trkpt>
      <trkpt lat="44.82526" lon="4.07685">
        <ele>1062.481525</ele>
        <time>2026-08-23T13:52:09.146Z</time>
      </trkpt>
      <trkpt lat="44.82525" lon="4.07668">
        <ele>1061.502798</ele>
        <time>2026-08-23T13:52:12.179Z</time>
      </trkpt>
      <trkpt lat="44.82524" lon="4.07652">
        <ele>1060.586512</ele>
        <time>2026-08-23T13:52:14.187Z</time>
      </trkpt>
      <trkpt lat="44.82531" lon="4.07633">
        <ele>1059.402506</ele>
        <time>2026-08-23T13:52:16.166Z</time>
      </trkpt>
      <trkpt lat="44.82533" lon="4.0761">
        <ele>1058.07166</ele>
        <time>2026-08-23T13:52:18.173Z</time>
      </trkpt>
      <trkpt lat="44.82537" lon="4.07586">
        <ele>1056.665367</ele>
        <time>2026-08-23T13:52:20.166Z</time>
      </trkpt>
      <trkpt lat="44.82541" lon="4.07573">
        <ele>1055.819053</ele>
        <time>2026-08-23T13:52:21.170Z</time>
      </trkpt>
      <trkpt lat="44.82544" lon="4.0756">
        <ele>1055.069804</ele>
        <time>2026-08-23T13:52:22.170Z</time>
      </trkpt>
      <trkpt lat="44.82546" lon="4.07536">
        <ele>1053.682177</ele>
        <time>2026-08-23T13:52:24.170Z</time>
      </trkpt>
      <trkpt lat="44.82545" lon="4.07514">
        <ele>1052.415702</ele>
        <time>2026-08-23T13:52:26.173Z</time>
      </trkpt>
      <trkpt lat="44.8254" lon="4.07493">
        <ele>1050.680562</ele>
        <time>2026-08-23T13:52:28.170Z</time>
      </trkpt>
      <trkpt lat="44.82532" lon="4.07473">
        <ele>1048.425627</ele>
        <time>2026-08-23T13:52:30.174Z</time>
      </trkpt>
      <trkpt lat="44.82523" lon="4.07453">
        <ele>1046.151137</ele>
        <time>2026-08-23T13:52:32.172Z</time>
      </trkpt>
      <trkpt lat="44.82518" lon="4.07431">
        <ele>1043.910127</ele>
        <time>2026-08-23T13:52:34.169Z</time>
      </trkpt>
      <trkpt lat="44.82518" lon="4.07407">
        <ele>1041.658435</ele>
        <time>2026-08-23T13:52:36.167Z</time>
      </trkpt>
      <trkpt lat="44.82521" lon="4.07385">
        <ele>1039.46919</ele>
        <time>2026-08-23T13:52:38.169Z</time>
      </trkpt>
      <trkpt lat="44.82524" lon="4.07362">
        <ele>1037.237522</ele>
        <time>2026-08-23T13:52:40.176Z</time>
      </trkpt>
      <trkpt lat="44.82525" lon="4.0734">
        <ele>1035.069337</ele>
        <time>2026-08-23T13:52:42.173Z</time>
      </trkpt>
      <trkpt lat="44.82531" lon="4.0732">
        <ele>1032.956546</ele>
        <time>2026-08-23T13:52:44.179Z</time>
      </trkpt>
      <trkpt lat="44.82537" lon="4.07298">
        <ele>1030.692621</ele>
        <time>2026-08-23T13:52:46.170Z</time>
      </trkpt>
      <trkpt lat="44.82543" lon="4.07276">
        <ele>1028.44255</ele>
        <time>2026-08-23T13:52:48.179Z</time>
      </trkpt>
      <trkpt lat="44.82544" lon="4.07253">
        <ele>1026.956308</ele>
        <time>2026-08-23T13:52:50.178Z</time>
      </trkpt>
      <trkpt lat="44.82545" lon="4.07229">
        <ele>1026.213315</ele>
        <time>2026-08-23T13:52:52.182Z</time>
      </trkpt>
      <trkpt lat="44.82545" lon="4.07208">
        <ele>1025.534411</ele>
        <time>2026-08-23T13:52:54.175Z</time>
      </trkpt>
      <trkpt lat="44.82542" lon="4.07186">
        <ele>1024.831237</ele>
        <time>2026-08-23T13:52:56.178Z</time>
      </trkpt>
      <trkpt lat="44.8254" lon="4.07165">
        <ele>1024.178165</ele>
        <time>2026-08-23T13:52:58.176Z</time>
      </trkpt>
      <trkpt lat="44.8254" lon="4.07143">
        <ele>1023.461256</ele>
        <time>2026-08-23T13:53:00.178Z</time>
      </trkpt>
      <trkpt lat="44.82542" lon="4.07118">
        <ele>1022.670064</ele>
        <time>2026-08-23T13:53:02.178Z</time>
      </trkpt>
      <trkpt lat="44.82546" lon="4.07092">
        <ele>1021.855893</ele>
        <time>2026-08-23T13:53:04.176Z</time>
      </trkpt>
      <trkpt lat="44.82548" lon="4.0708">
        <ele>1021.446365</ele>
        <time>2026-08-23T13:53:05.171Z</time>
      </trkpt>
      <trkpt lat="44.82551" lon="4.07055">
        <ele>1020.666288</ele>
        <time>2026-08-23T13:53:07.167Z</time>
      </trkpt>
      <trkpt lat="44.82551" lon="4.07043">
        <ele>1020.260756</ele>
        <time>2026-08-23T13:53:08.155Z</time>
      </trkpt>
      <trkpt lat="44.8255" lon="4.07019">
        <ele>1019.524064</ele>
        <time>2026-08-23T13:53:10.166Z</time>
      </trkpt>
      <trkpt lat="44.82545" lon="4.07008">
        <ele>1019.170656</ele>
        <time>2026-08-23T13:53:11.167Z</time>
      </trkpt>
      <trkpt lat="44.8254" lon="4.06985">
        <ele>1018.620506</ele>
        <time>2026-08-23T13:53:13.172Z</time>
      </trkpt>
      <trkpt lat="44.82536" lon="4.06973">
        <ele>1018.332215</ele>
        <time>2026-08-23T13:53:14.176Z</time>
      </trkpt>
      <trkpt lat="44.82527" lon="4.06957">
        <ele>1017.868396</ele>
        <time>2026-08-23T13:53:16.176Z</time>
      </trkpt>
      <trkpt lat="44.82517" lon="4.06945">
        <ele>1017.460036</ele>
        <time>2026-08-23T13:53:18.170Z</time>
      </trkpt>
      <trkpt lat="44.82512" lon="4.06928">
        <ele>1017.053122</ele>
        <time>2026-08-23T13:53:20.166Z</time>
      </trkpt>
      <trkpt lat="44.82511" lon="4.06909">
        <ele>1016.628287</ele>
        <time>2026-08-23T13:53:22.164Z</time>
      </trkpt>
      <trkpt lat="44.82511" lon="4.06888">
        <ele>1016.148251</ele>
        <time>2026-08-23T13:53:24.164Z</time>
      </trkpt>
      <trkpt lat="44.82511" lon="4.06866">
        <ele>1015.652928</ele>
        <time>2026-08-23T13:53:26.166Z</time>
      </trkpt>
      <trkpt lat="44.8251" lon="4.06852">
        <ele>1015.358285</ele>
        <time>2026-08-23T13:53:27.164Z</time>
      </trkpt>
      <trkpt lat="44.8251" lon="4.0684">
        <ele>1015.076317</ele>
        <time>2026-08-23T13:53:28.161Z</time>
      </trkpt>
      <trkpt lat="44.82508" lon="4.06817">
        <ele>1014.570415</ele>
        <time>2026-08-23T13:53:30.157Z</time>
      </trkpt>
      <trkpt lat="44.82508" lon="4.06795">
        <ele>1014.075042</ele>
        <time>2026-08-23T13:53:32.165Z</time>
      </trkpt>
      <trkpt lat="44.82508" lon="4.06774">
        <ele>1013.616344</ele>
        <time>2026-08-23T13:53:34.157Z</time>
      </trkpt>
      <trkpt lat="44.82506" lon="4.06751">
        <ele>1013.245105</ele>
        <time>2026-08-23T13:53:36.169Z</time>
      </trkpt>
      <trkpt lat="44.82505" lon="4.06727">
        <ele>1012.861053</ele>
        <time>2026-08-23T13:53:38.164Z</time>
      </trkpt>
      <trkpt lat="44.82506" lon="4.06705">
        <ele>1012.496763</ele>
        <time>2026-08-23T13:53:40.171Z</time>
      </trkpt>
      <trkpt lat="44.82509" lon="4.06685">
        <ele>1012.164579</ele>
        <time>2026-08-23T13:53:42.175Z</time>
      </trkpt>
      <trkpt lat="44.82511" lon="4.06662">
        <ele>1011.798735</ele>
        <time>2026-08-23T13:53:44.174Z</time>
      </trkpt>
      <trkpt lat="44.82505" lon="4.06644">
        <ele>1011.465453</ele>
        <time>2026-08-23T13:53:46.173Z</time>
      </trkpt>
      <trkpt lat="44.82495" lon="4.0663">
        <ele>1011.143238</ele>
        <time>2026-08-23T13:53:48.170Z</time>
      </trkpt>
      <trkpt lat="44.82482" lon="4.0662">
        <ele>1010.803076</ele>
        <time>2026-08-23T13:53:50.177Z</time>
      </trkpt>
      <trkpt lat="44.82469" lon="4.0661">
        <ele>1010.470818</ele>
        <time>2026-08-23T13:53:52.179Z</time>
      </trkpt>
      <trkpt lat="44.82457" lon="4.06595">
        <ele>1010.11465</ele>
        <time>2026-08-23T13:53:54.175Z</time>
      </trkpt>
      <trkpt lat="44.8245" lon="4.06575">
        <ele>1009.741293</ele>
        <time>2026-08-23T13:53:56.175Z</time>
      </trkpt>
      <trkpt lat="44.82445" lon="4.06554">
        <ele>1009.298014</ele>
        <time>2026-08-23T13:53:58.172Z</time>
      </trkpt>
      <trkpt lat="44.8244" lon="4.06533">
        <ele>1008.774273</ele>
        <time>2026-08-23T13:54:00.173Z</time>
      </trkpt>
      <trkpt lat="44.82435" lon="4.06516">
        <ele>1008.319069</ele>
        <time>2026-08-23T13:54:02.165Z</time>
      </trkpt>
      <trkpt lat="44.82437" lon="4.06499">
        <ele>1007.915398</ele>
        <time>2026-08-23T13:54:04.175Z</time>
      </trkpt>
      <trkpt lat="44.8244" lon="4.06487">
        <ele>1007.601297</ele>
        <time>2026-08-23T13:54:06.172Z</time>
      </trkpt>
      <trkpt lat="44.82444" lon="4.06469">
        <ele>1007.141175</ele>
        <time>2026-08-23T13:54:08.176Z</time>
      </trkpt>
      <trkpt lat="44.82448" lon="4.06455">
        <ele>1006.796349</ele>
        <time>2026-08-23T13:54:10.171Z</time>
      </trkpt>
      <trkpt lat="44.8245" lon="4.06441">
        <ele>1006.452978</ele>
        <time>2026-08-23T13:54:13.179Z</time>
      </trkpt>
      <trkpt lat="44.82453" lon="4.06429">
        <ele>1006.130919</ele>
        <time>2026-08-23T13:54:16.173Z</time>
      </trkpt>
      <trkpt lat="44.82457" lon="4.06416">
        <ele>1005.794052</ele>
        <time>2026-08-23T13:54:19.172Z</time>
      </trkpt>
      <trkpt lat="44.82454" lon="4.06402">
        <ele>1005.463467</ele>
        <time>2026-08-23T13:54:22.176Z</time>
      </trkpt>
      <trkpt lat="44.82448" lon="4.0639">
        <ele>1005.081244</ele>
        <time>2026-08-23T13:54:26.175Z</time>
      </trkpt>
      <trkpt lat="44.82443" lon="4.06377">
        <ele>1004.731919</ele>
        <time>2026-08-23T13:54:31.171Z</time>
      </trkpt>
      <trkpt lat="44.82441" lon="4.06364">
        <ele>1004.424741</ele>
        <time>2026-08-23T13:54:36.171Z</time>
      </trkpt>
      <trkpt lat="44.82435" lon="4.06353">
        <ele>1004.091853</ele>
        <time>2026-08-23T13:54:42.175Z</time>
      </trkpt>
      <trkpt lat="44.8243" lon="4.06342">
        <ele>1003.773777</ele>
        <time>2026-08-23T13:54:46.179Z</time>
      </trkpt>
      <trkpt lat="44.82426" lon="4.06329">
        <ele>1003.480363</ele>
        <time>2026-08-23T13:54:52.181Z</time>
      </trkpt>
      <trkpt lat="44.82421" lon="4.06316">
        <ele>1004.507611</ele>
        <time>2026-08-23T13:54:58.184Z</time>
      </trkpt>
      <trkpt lat="44.82417" lon="4.06303">
        <ele>1005.535808</ele>
        <time>2026-08-23T13:55:03.173Z</time>
      </trkpt>
      <trkpt lat="44.82411" lon="4.06291">
        <ele>1006.57263</ele>
        <time>2026-08-23T13:55:08.174Z</time>
      </trkpt>
      <trkpt lat="44.82404" lon="4.0628">
        <ele>1007.58759</ele>
        <time>2026-08-23T13:55:13.172Z</time>
      </trkpt>
      <trkpt lat="44.82396" lon="4.06273">
        <ele>1008.547348</ele>
        <time>2026-08-23T13:55:18.175Z</time>
      </trkpt>
      <trkpt lat="44.82388" lon="4.06265">
        <ele>1009.48895</ele>
        <time>2026-08-23T13:55:23.172Z</time>
      </trkpt>
      <trkpt lat="44.82381" lon="4.06255">
        <ele>1010.465826</ele>
        <time>2026-08-23T13:55:29.175Z</time>
      </trkpt>
      <trkpt lat="44.82379" lon="4.06242">
        <ele>1011.431079</ele>
        <time>2026-08-23T13:55:33.174Z</time>
      </trkpt>
      <trkpt lat="44.82377" lon="4.06229">
        <ele>1012.406558</ele>
        <time>2026-08-23T13:55:38.174Z</time>
      </trkpt>
      <trkpt lat="44.82376" lon="4.06214">
        <ele>1013.42914</ele>
        <time>2026-08-23T13:55:43.180Z</time>
      </trkpt>
      <trkpt lat="44.82374" lon="4.06201">
        <ele>1014.408517</ele>
        <time>2026-08-23T13:55:47.173Z</time>
      </trkpt>
      <trkpt lat="44.82374" lon="4.06188">
        <ele>1015.332186</ele>
        <time>2026-08-23T13:55:51.179Z</time>
      </trkpt>
      <trkpt lat="44.82376" lon="4.06174">
        <ele>1016.335596</ele>
        <time>2026-08-23T13:55:55.176Z</time>
      </trkpt>
      <trkpt lat="44.82376" lon="4.06158">
        <ele>1017.458732</ele>
        <time>2026-08-23T13:55:59.173Z</time>
      </trkpt>
      <trkpt lat="44.82376" lon="4.06145">
        <ele>1018.403694</ele>
        <time>2026-08-23T13:56:03.180Z</time>
      </trkpt>
      <trkpt lat="44.82373" lon="4.06132">
        <ele>1019.353353</ele>
        <time>2026-08-23T13:56:08.171Z</time>
      </trkpt>
      <trkpt lat="44.82372" lon="4.06118">
        <ele>1020.375935</ele>
        <time>2026-08-23T13:56:13.175Z</time>
      </trkpt>
      <trkpt lat="44.8237" lon="4.06105">
        <ele>1021.292993</ele>
        <time>2026-08-23T13:56:18.172Z</time>
      </trkpt>
      <trkpt lat="44.82372" lon="4.06092">
        <ele>1021.856134</ele>
        <time>2026-08-23T13:56:22.164Z</time>
      </trkpt>
      <trkpt lat="44.82373" lon="4.06079">
        <ele>1022.351987</ele>
        <time>2026-08-23T13:56:26.174Z</time>
      </trkpt>
      <trkpt lat="44.82371" lon="4.06064">
        <ele>1022.882962</ele>
        <time>2026-08-23T13:56:32.179Z</time>
      </trkpt>
      <trkpt lat="44.82365" lon="4.06052">
        <ele>1023.423064</ele>
        <time>2026-08-23T13:56:38.177Z</time>
      </trkpt>
      <trkpt lat="44.82359" lon="4.06039">
        <ele>1023.983279</ele>
        <time>2026-08-23T13:56:44.171Z</time>
      </trkpt>
      <trkpt lat="44.82351" lon="4.06032">
        <ele>1024.490283</ele>
        <time>2026-08-23T13:56:49.175Z</time>
      </trkpt>
      <trkpt lat="44.82341" lon="4.06029">
        <ele>1025.00784</ele>
        <time>2026-08-23T13:56:54.177Z</time>
      </trkpt>
      <trkpt lat="44.82331" lon="4.06028">
        <ele>1025.538389</ele>
        <time>2026-08-23T13:57:00.178Z</time>
      </trkpt>
      <trkpt lat="44.82322" lon="4.06031">
        <ele>1026.010843</ele>
        <time>2026-08-23T13:57:06.175Z</time>
      </trkpt>
      <trkpt lat="44.82312" lon="4.06036">
        <ele>1026.530271</ele>
        <time>2026-08-23T13:57:12.175Z</time>
      </trkpt>
      <trkpt lat="44.82304" lon="4.06046">
        <ele>1027.097042</ele>
        <time>2026-08-23T13:57:18.180Z</time>
      </trkpt>
      <trkpt lat="44.82301" lon="4.06059">
        <ele>1027.610872</ele>
        <time>2026-08-23T13:57:23.177Z</time>
      </trkpt>
      <trkpt lat="44.82296" lon="4.06072">
        <ele>1028.118055</ele>
        <time>2026-08-23T13:57:28.176Z</time>
      </trkpt>
      <trkpt lat="44.82296" lon="4.06086">
        <ele>1028.65517</ele>
        <time>2026-08-23T13:57:33.133Z</time>
      </trkpt>
      <trkpt lat="44.82296" lon="4.06101">
        <ele>1029.19704</ele>
        <time>2026-08-23T13:57:40.177Z</time>
      </trkpt>
      <trkpt lat="44.82295" lon="4.06115">
        <ele>1029.71834</ele>
        <time>2026-08-23T13:57:46.177Z</time>
      </trkpt>
      <trkpt lat="44.82295" lon="4.06129">
        <ele>1030.215838</ele>
        <time>2026-08-23T13:57:51.176Z</time>
      </trkpt>
      <trkpt lat="44.82296" lon="4.06142">
        <ele>1030.693535</ele>
        <time>2026-08-23T13:57:56.180Z</time>
      </trkpt>
      <trkpt lat="44.82295" lon="4.06156">
        <ele>1031.70502</ele>
        <time>2026-08-23T13:58:01.174Z</time>
      </trkpt>
      <trkpt lat="44.82291" lon="4.0617">
        <ele>1032.749659</ele>
        <time>2026-08-23T13:58:06.192Z</time>
      </trkpt>
      <trkpt lat="44.82285" lon="4.06179">
        <ele>1033.663329</ele>
        <time>2026-08-23T13:58:11.178Z</time>
      </trkpt>
      <trkpt lat="44.82276" lon="4.06186">
        <ele>1034.690497</ele>
        <time>2026-08-23T13:58:17.174Z</time>
      </trkpt>
      <trkpt lat="44.82266" lon="4.06191">
        <ele>1035.68436</ele>
        <time>2026-08-23T13:58:23.193Z</time>
      </trkpt>
      <trkpt lat="44.82258" lon="4.06197">
        <ele>1036.629344</ele>
        <time>2026-08-23T13:58:28.174Z</time>
      </trkpt>
      <trkpt lat="44.82247" lon="4.06201">
        <ele>1037.723919</ele>
        <time>2026-08-23T13:58:34.171Z</time>
      </trkpt>
      <trkpt lat="44.82237" lon="4.06205">
        <ele>1038.805164</ele>
        <time>2026-08-23T13:58:39.172Z</time>
      </trkpt>
      <trkpt lat="44.82227" lon="4.06208">
        <ele>1039.760252</ele>
        <time>2026-08-23T13:58:44.176Z</time>
      </trkpt>
      <trkpt lat="44.82217" lon="4.06211">
        <ele>1040.810287</ele>
        <time>2026-08-23T13:58:50.184Z</time>
      </trkpt>
      <trkpt lat="44.82208" lon="4.06212">
        <ele>1041.736981</ele>
        <time>2026-08-23T13:58:55.173Z</time>
      </trkpt>
      <trkpt lat="44.82197" lon="4.06215">
        <ele>1042.785771</ele>
        <time>2026-08-23T13:59:00.172Z</time>
      </trkpt>
      <trkpt lat="44.82188" lon="4.06213">
        <ele>1043.736076</ele>
        <time>2026-08-23T13:59:05.173Z</time>
      </trkpt>
      <trkpt lat="44.82177" lon="4.06209">
        <ele>1044.831234</ele>
        <time>2026-08-23T13:59:10.173Z</time>
      </trkpt>
      <trkpt lat="44.82168" lon="4.06207">
        <ele>1045.742032</ele>
        <time>2026-08-23T13:59:16.173Z</time>
      </trkpt>
      <trkpt lat="44.82158" lon="4.06204">
        <ele>1046.744442</ele>
        <time>2026-08-23T13:59:22.172Z</time>
      </trkpt>
      <trkpt lat="44.8215" lon="4.06196">
        <ele>1047.761015</ele>
        <time>2026-08-23T13:59:27.176Z</time>
      </trkpt>
      <trkpt lat="44.82141" lon="4.06191">
        <ele>1048.684613</ele>
        <time>2026-08-23T13:59:34.175Z</time>
      </trkpt>
      <trkpt lat="44.82132" lon="4.06192">
        <ele>1049.422133</ele>
        <time>2026-08-23T13:59:41.173Z</time>
      </trkpt>
      <trkpt lat="44.82124" lon="4.062">
        <ele>1050.18568</ele>
        <time>2026-08-23T13:59:50.175Z</time>
      </trkpt>
      <trkpt lat="44.82115" lon="4.06205">
        <ele>1050.934284</ele>
        <time>2026-08-23T14:01:34.174Z</time>
      </trkpt>
      <trkpt lat="44.82107" lon="4.062">
        <ele>1051.645913</ele>
        <time>2026-08-23T14:01:41.183Z</time>
      </trkpt>
      <trkpt lat="44.82098" lon="4.06207">
        <ele>1052.473062</ele>
        <time>2026-08-23T14:01:48.172Z</time>
      </trkpt>
      <trkpt lat="44.82089" lon="4.06215">
        <ele>1053.323768</ele>
        <time>2026-08-23T14:01:52.180Z</time>
      </trkpt>
      <trkpt lat="44.8208" lon="4.06223">
        <ele>1054.083611</ele>
        <time>2026-08-23T14:01:57.175Z</time>
      </trkpt>
      <trkpt lat="44.8207" lon="4.06227">
        <ele>1054.946761</ele>
        <time>2026-08-23T14:02:02.180Z</time>
      </trkpt>
      <trkpt lat="44.8206" lon="4.06234">
        <ele>1055.811872</ele>
        <time>2026-08-23T14:02:07.175Z</time>
      </trkpt>
      <trkpt lat="44.8205" lon="4.06239">
        <ele>1056.616518</ele>
        <time>2026-08-23T14:02:11.176Z</time>
      </trkpt>
      <trkpt lat="44.8204" lon="4.06245">
        <ele>1057.468028</ele>
        <time>2026-08-23T14:02:17.140Z</time>
      </trkpt>
      <trkpt lat="44.8203" lon="4.06249">
        <ele>1058.279104</ele>
        <time>2026-08-23T14:02:21.176Z</time>
      </trkpt>
      <trkpt lat="44.8202" lon="4.06251">
        <ele>1059.076847</ele>
        <time>2026-08-23T14:02:25.174Z</time>
      </trkpt>
      <trkpt lat="44.82011" lon="4.06256">
        <ele>1059.867535</ele>
        <time>2026-08-23T14:02:30.173Z</time>
      </trkpt>
      <trkpt lat="44.82002" lon="4.06262">
        <ele>1060.647818</ele>
        <time>2026-08-23T14:02:34.175Z</time>
      </trkpt>
      <trkpt lat="44.81992" lon="4.06263">
        <ele>1061.456738</ele>
        <time>2026-08-23T14:02:38.166Z</time>
      </trkpt>
      <trkpt lat="44.81981" lon="4.06266">
        <ele>1062.288453</ele>
        <time>2026-08-23T14:02:42.173Z</time>
      </trkpt>
      <trkpt lat="44.81971" lon="4.06267">
        <ele>1062.497134</ele>
        <time>2026-08-23T14:02:46.172Z</time>
      </trkpt>
      <trkpt lat="44.8196" lon="4.0627">
        <ele>1062.106857</ele>
        <time>2026-08-23T14:02:51.172Z</time>
      </trkpt>
      <trkpt lat="44.81951" lon="4.06276">
        <ele>1061.756033</ele>
        <time>2026-08-23T14:02:55.176Z</time>
      </trkpt>
      <trkpt lat="44.8194" lon="4.06281">
        <ele>1061.356779</ele>
        <time>2026-08-23T14:02:59.168Z</time>
      </trkpt>
      <trkpt lat="44.81929" lon="4.06282">
        <ele>1060.982484</ele>
        <time>2026-08-23T14:03:03.177Z</time>
      </trkpt>
      <trkpt lat="44.81911" lon="4.06288">
        <ele>1060.343966</ele>
        <time>2026-08-23T14:03:44.186Z</time>
      </trkpt>
      <trkpt lat="44.8189" lon="4.06292">
        <ele>1059.608957</ele>
        <time>2026-08-23T14:45:10.173Z</time>
      </trkpt>
      <trkpt lat="44.81881" lon="4.06295">
        <ele>1059.278515</ele>
        <time>2026-08-23T14:45:13.183Z</time>
      </trkpt>
      <trkpt lat="44.81871" lon="4.06299">
        <ele>1058.949352</ele>
        <time>2026-08-23T14:45:16.171Z</time>
      </trkpt>
      <trkpt lat="44.81861" lon="4.06303">
        <ele>1058.578939</ele>
        <time>2026-08-23T14:45:20.170Z</time>
      </trkpt>
      <trkpt lat="44.8185" lon="4.06305">
        <ele>1058.188219</ele>
        <time>2026-08-23T14:45:24.175Z</time>
      </trkpt>
      <trkpt lat="44.81841" lon="4.06313">
        <ele>1057.834506</ele>
        <time>2026-08-23T14:45:28.175Z</time>
      </trkpt>
      <trkpt lat="44.81831" lon="4.0632">
        <ele>1057.428229</ele>
        <time>2026-08-23T14:45:32.172Z</time>
      </trkpt>
      <trkpt lat="44.81821" lon="4.06322">
        <ele>1057.085163</ele>
        <time>2026-08-23T14:45:35.176Z</time>
      </trkpt>
      <trkpt lat="44.8181" lon="4.06323">
        <ele>1056.711183</ele>
        <time>2026-08-23T14:45:38.173Z</time>
      </trkpt>
      <trkpt lat="44.81799" lon="4.06326">
        <ele>1056.414008</ele>
        <time>2026-08-23T14:45:41.157Z</time>
      </trkpt>
      <trkpt lat="44.81787" lon="4.06331">
        <ele>1056.291997</ele>
        <time>2026-08-23T14:45:44.178Z</time>
      </trkpt>
      <trkpt lat="44.81776" lon="4.06332">
        <ele>1056.17762</ele>
        <time>2026-08-23T14:45:48.170Z</time>
      </trkpt>
      <trkpt lat="44.81764" lon="4.06332">
        <ele>1056.062294</ele>
        <time>2026-08-23T14:45:51.173Z</time>
      </trkpt>
      <trkpt lat="44.81755" lon="4.06331">
        <ele>1055.971855</ele>
        <time>2026-08-23T14:45:54.174Z</time>
      </trkpt>
      <trkpt lat="44.81745" lon="4.06339">
        <ele>1055.858649</ele>
        <time>2026-08-23T14:45:58.178Z</time>
      </trkpt>
      <trkpt lat="44.81737" lon="4.06347">
        <ele>1055.758235</ele>
        <time>2026-08-23T14:46:02.175Z</time>
      </trkpt>
      <trkpt lat="44.81728" lon="4.06344">
        <ele>1055.657715</ele>
        <time>2026-08-23T14:46:08.173Z</time>
      </trkpt>
      <trkpt lat="44.81718" lon="4.06341">
        <ele>1055.560131</ele>
        <time>2026-08-23T14:46:13.173Z</time>
      </trkpt>
      <trkpt lat="44.81708" lon="4.0634">
        <ele>1055.459691</ele>
        <time>2026-08-23T14:46:19.179Z</time>
      </trkpt>
      <trkpt lat="44.81697" lon="4.06342">
        <ele>1055.346104</ele>
        <time>2026-08-23T14:46:27.172Z</time>
      </trkpt>
      <trkpt lat="44.81687" lon="4.06344">
        <ele>1055.250593</ele>
        <time>2026-08-23T14:46:33.170Z</time>
      </trkpt>
      <trkpt lat="44.81697" lon="4.06339">
        <ele>1055.150136</ele>
        <time>2026-08-23T14:49:00.172Z</time>
      </trkpt>
      <trkpt lat="44.81706" lon="4.06344">
        <ele>1055.046532</ele>
        <time>2026-08-23T14:49:05.172Z</time>
      </trkpt>
      <trkpt lat="44.81716" lon="4.06343">
        <ele>1054.952093</ele>
        <time>2026-08-23T14:49:08.173Z</time>
      </trkpt>
      <trkpt lat="44.81726" lon="4.06342">
        <ele>1054.850049</ele>
        <time>2026-08-23T14:49:12.169Z</time>
      </trkpt>
      <trkpt lat="44.81737" lon="4.06341">
        <ele>1054.742561</ele>
        <time>2026-08-23T14:49:19.173Z</time>
      </trkpt>
      <trkpt lat="44.81742" lon="4.06354">
        <ele>1054.57673</ele>
        <time>2026-08-23T14:54:03.174Z</time>
      </trkpt>
      <trkpt lat="44.81742" lon="4.06369">
        <ele>1054.195832</ele>
        <time>2026-08-23T14:54:24.171Z</time>
      </trkpt>
      <trkpt lat="44.8178" lon="4.064">
        <ele>1052.637625</ele>
        <time>2026-08-23T14:55:17.164Z</time>
      </trkpt>
      <trkpt lat="44.81793" lon="4.06414">
        <ele>1052.05097</ele>
        <time>2026-08-23T14:55:33.173Z</time>
      </trkpt>
      <trkpt lat="44.81806" lon="4.06422">
        <ele>1051.558513</ele>
        <time>2026-08-23T14:55:56.177Z</time>
      </trkpt>
      <trkpt lat="44.8184" lon="4.06444">
        <ele>1050.212742</ele>
        <time>2026-08-23T14:56:34.173Z</time>
      </trkpt>
      <trkpt lat="44.81849" lon="4.06441">
        <ele>1049.883364</ele>
        <time>2026-08-23T14:56:40.174Z</time>
      </trkpt>
      <trkpt lat="44.81856" lon="4.06452">
        <ele>1049.506693</ele>
        <time>2026-08-23T14:56:48.167Z</time>
      </trkpt>
      <trkpt lat="44.81862" lon="4.06463">
        <ele>1049.150317</ele>
        <time>2026-08-23T14:56:53.136Z</time>
      </trkpt>
      <trkpt lat="44.81867" lon="4.06474">
        <ele>1048.820798</ele>
        <time>2026-08-23T14:57:01.171Z</time>
      </trkpt>
      <trkpt lat="44.81883" lon="4.06484">
        <ele>1048.235182</ele>
        <time>2026-08-23T14:57:33.168Z</time>
      </trkpt>
      <trkpt lat="44.81891" lon="4.06492">
        <ele>1048.529301</ele>
        <time>2026-08-23T14:57:39.173Z</time>
      </trkpt>
      <trkpt lat="44.81899" lon="4.06498">
        <ele>1048.811778</ele>
        <time>2026-08-23T14:57:45.167Z</time>
      </trkpt>
      <trkpt lat="44.81926" lon="4.06539">
        <ele>1050.047989</ele>
        <time>2026-08-23T14:58:47.173Z</time>
      </trkpt>
      <trkpt lat="44.81932" lon="4.06549">
        <ele>1050.354392</ele>
        <time>2026-08-23T14:58:54.167Z</time>
      </trkpt>
      <trkpt lat="44.81935" lon="4.06561">
        <ele>1050.644381</ele>
        <time>2026-08-23T14:59:00.162Z</time>
      </trkpt>
      <trkpt lat="44.81968" lon="4.06595">
        <ele>1051.910379</ele>
        <time>2026-08-23T14:59:56.169Z</time>
      </trkpt>
      <trkpt lat="44.81976" lon="4.066">
        <ele>1052.196043</ele>
        <time>2026-08-23T15:00:03.145Z</time>
      </trkpt>
      <trkpt lat="44.81987" lon="4.0661">
        <ele>1052.59114</ele>
        <time>2026-08-23T15:00:19.171Z</time>
      </trkpt>
      <trkpt lat="44.81994" lon="4.06619">
        <ele>1052.895138</ele>
        <time>2026-08-23T15:00:27.176Z</time>
      </trkpt>
      <trkpt lat="44.82003" lon="4.06621">
        <ele>1053.186051</ele>
        <time>2026-08-23T15:00:35.166Z</time>
      </trkpt>
      <trkpt lat="44.82021" lon="4.06635">
        <ele>1053.838829</ele>
        <time>2026-08-23T15:00:57.168Z</time>
      </trkpt>
      <trkpt lat="44.8203" lon="4.06638">
        <ele>1053.558509</ele>
        <time>2026-08-23T15:01:07.169Z</time>
      </trkpt>
      <trkpt lat="44.82056" lon="4.06652">
        <ele>1052.688193</ele>
        <time>2026-08-23T15:01:33.173Z</time>
      </trkpt>
      <trkpt lat="44.82065" lon="4.06655">
        <ele>1052.37644</ele>
        <time>2026-08-23T15:01:40.171Z</time>
      </trkpt>
      <trkpt lat="44.82074" lon="4.06656">
        <ele>1052.081345</ele>
        <time>2026-08-23T15:01:46.174Z</time>
      </trkpt>
      <trkpt lat="44.8209" lon="4.06668">
        <ele>1051.523538</ele>
        <time>2026-08-23T15:02:06.173Z</time>
      </trkpt>
      <trkpt lat="44.821" lon="4.06674">
        <ele>1051.175563</ele>
        <time>2026-08-23T15:02:15.175Z</time>
      </trkpt>
      <trkpt lat="44.82109" lon="4.06678">
        <ele>1050.872775</ele>
        <time>2026-08-23T15:02:20.171Z</time>
      </trkpt>
      <trkpt lat="44.82127" lon="4.06689">
        <ele>1050.238893</ele>
        <time>2026-08-23T15:02:42.174Z</time>
      </trkpt>
      <trkpt lat="44.82135" lon="4.06698">
        <ele>1049.923738</ele>
        <time>2026-08-23T15:02:49.170Z</time>
      </trkpt>
      <trkpt lat="44.82144" lon="4.06704">
        <ele>1049.610279</ele>
        <time>2026-08-23T15:02:59.169Z</time>
      </trkpt>
      <trkpt lat="44.82181" lon="4.06742">
        <ele>1048.151694</ele>
        <time>2026-08-23T15:03:40.169Z</time>
      </trkpt>
      <trkpt lat="44.8219" lon="4.06746">
        <ele>1048.177938</ele>
        <time>2026-08-23T15:03:47.173Z</time>
      </trkpt>
      <trkpt lat="44.82198" lon="4.06757">
        <ele>1048.27334</ele>
        <time>2026-08-23T15:03:58.182Z</time>
      </trkpt>
      <trkpt lat="44.82202" lon="4.06769">
        <ele>1048.354437</ele>
        <time>2026-08-23T15:04:08.168Z</time>
      </trkpt>
      <trkpt lat="44.8221" lon="4.0678">
        <ele>1048.444244</ele>
        <time>2026-08-23T15:04:18.168Z</time>
      </trkpt>
      <trkpt lat="44.82218" lon="4.06788">
        <ele>1048.527847</ele>
        <time>2026-08-23T15:04:26.166Z</time>
      </trkpt>
      <trkpt lat="44.82227" lon="4.06792">
        <ele>1048.602749</ele>
        <time>2026-08-23T15:04:31.149Z</time>
      </trkpt>
      <trkpt lat="44.82232" lon="4.06802">
        <ele>1048.678961</ele>
        <time>2026-08-23T15:04:41.167Z</time>
      </trkpt>
      <trkpt lat="44.82239" lon="4.06812">
        <ele>1048.762813</ele>
        <time>2026-08-23T15:04:48.167Z</time>
      </trkpt>
      <trkpt lat="44.82249" lon="4.0682">
        <ele>1048.858969</ele>
        <time>2026-08-23T15:04:56.166Z</time>
      </trkpt>
      <trkpt lat="44.82253" lon="4.06833">
        <ele>1048.937766</ele>
        <time>2026-08-23T15:05:03.177Z</time>
      </trkpt>
      <trkpt lat="44.82258" lon="4.06845">
        <ele>1049.025763</ele>
        <time>2026-08-23T15:05:15.170Z</time>
      </trkpt>
      <trkpt lat="44.82266" lon="4.06857">
        <ele>1049.119592</ele>
        <time>2026-08-23T15:05:24.161Z</time>
      </trkpt>
      <trkpt lat="44.82274" lon="4.06865">
        <ele>1049.199383</ele>
        <time>2026-08-23T15:05:30.170Z</time>
      </trkpt>
      <trkpt lat="44.82279" lon="4.06881">
        <ele>1049.306697</ele>
        <time>2026-08-23T15:05:46.174Z</time>
      </trkpt>
      <trkpt lat="44.82289" lon="4.06888">
        <ele>1049.395796</ele>
        <time>2026-08-23T15:05:53.167Z</time>
      </trkpt>
      <trkpt lat="44.82294" lon="4.06899">
        <ele>1049.476852</ele>
        <time>2026-08-23T15:06:00.169Z</time>
      </trkpt>
      <trkpt lat="44.823" lon="4.0691">
        <ele>1049.55355</ele>
        <time>2026-08-23T15:06:09.170Z</time>
      </trkpt>
      <trkpt lat="44.82305" lon="4.06924">
        <ele>1049.690699</ele>
        <time>2026-08-23T15:06:21.164Z</time>
      </trkpt>
      <trkpt lat="44.81752" lon="4.06331">
        <ele>1060.519312</ele>
        <time>2026-08-23T16:14:47.176Z</time>
      </trkpt>
      <trkpt lat="44.81762" lon="4.06329">
        <ele>1060.60635</ele>
        <time>2026-08-23T16:14:52.168Z</time>
      </trkpt>
      <trkpt lat="44.81773" lon="4.0633">
        <ele>1060.688137</ele>
        <time>2026-08-23T16:14:57.172Z</time>
      </trkpt>
      <trkpt lat="44.81784" lon="4.0633">
        <ele>1060.648433</ele>
        <time>2026-08-23T16:15:01.172Z</time>
      </trkpt>
      <trkpt lat="44.81796" lon="4.06326">
        <ele>1060.602163</ele>
        <time>2026-08-23T16:15:05.176Z</time>
      </trkpt>
      <trkpt lat="44.81806" lon="4.06324">
        <ele>1060.564847</ele>
        <time>2026-08-23T16:15:08.173Z</time>
      </trkpt>
      <trkpt lat="44.81816" lon="4.0632">
        <ele>1060.523486</ele>
        <time>2026-08-23T16:15:12.172Z</time>
      </trkpt>
      <trkpt lat="44.81827" lon="4.06316">
        <ele>1060.481688</ele>
        <time>2026-08-23T16:15:16.163Z</time>
      </trkpt>
      <trkpt lat="44.81836" lon="4.06312">
        <ele>1060.446776</ele>
        <time>2026-08-23T16:15:19.168Z</time>
      </trkpt>
      <trkpt lat="44.81846" lon="4.06308">
        <ele>1060.407074</ele>
        <time>2026-08-23T16:15:22.175Z</time>
      </trkpt>
      <trkpt lat="44.81857" lon="4.06304">
        <ele>1060.363536</ele>
        <time>2026-08-23T16:15:25.169Z</time>
      </trkpt>
      <trkpt lat="44.81868" lon="4.06297">
        <ele>1060.319437</ele>
        <time>2026-08-23T16:15:28.177Z</time>
      </trkpt>
      <trkpt lat="44.81878" lon="4.06293">
        <ele>1060.277498</ele>
        <time>2026-08-23T16:15:31.173Z</time>
      </trkpt>
      <trkpt lat="44.81891" lon="4.06288">
        <ele>1060.228934</ele>
        <time>2026-08-23T16:15:34.177Z</time>
      </trkpt>
      <trkpt lat="44.81903" lon="4.06283">
        <ele>1060.179554</ele>
        <time>2026-08-23T16:15:37.171Z</time>
      </trkpt>
      <trkpt lat="44.81914" lon="4.06281">
        <ele>1060.138312</ele>
        <time>2026-08-23T16:15:39.173Z</time>
      </trkpt>
      <trkpt lat="44.81923" lon="4.06278">
        <ele>1060.103199</ele>
        <time>2026-08-23T16:15:41.169Z</time>
      </trkpt>
      <trkpt lat="44.81933" lon="4.06275">
        <ele>1060.065595</ele>
        <time>2026-08-23T16:15:43.175Z</time>
      </trkpt>
      <trkpt lat="44.81942" lon="4.06273">
        <ele>1060.030267</ele>
        <time>2026-08-23T16:15:45.173Z</time>
      </trkpt>
      <trkpt lat="44.81954" lon="4.06271">
        <ele>1059.461623</ele>
        <time>2026-08-23T16:15:48.172Z</time>
      </trkpt>
      <trkpt lat="44.81967" lon="4.06268">
        <ele>1058.595228</ele>
        <time>2026-08-23T16:15:51.180Z</time>
      </trkpt>
      <trkpt lat="44.81977" lon="4.06267">
        <ele>1057.912859</ele>
        <time>2026-08-23T16:15:53.170Z</time>
      </trkpt>
      <trkpt lat="44.8199" lon="4.06265">
        <ele>1056.997079</ele>
        <time>2026-08-23T16:15:56.173Z</time>
      </trkpt>
      <trkpt lat="44.82004" lon="4.06261">
        <ele>1056.058248</ele>
        <time>2026-08-23T16:15:59.151Z</time>
      </trkpt>
      <trkpt lat="44.82013" lon="4.06259">
        <ele>1055.432361</ele>
        <time>2026-08-23T16:16:01.172Z</time>
      </trkpt>
      <trkpt lat="44.82025" lon="4.06254">
        <ele>1054.57982</ele>
        <time>2026-08-23T16:16:04.168Z</time>
      </trkpt>
      <trkpt lat="44.82036" lon="4.0625">
        <ele>1053.766736</ele>
        <time>2026-08-23T16:16:07.169Z</time>
      </trkpt>
      <trkpt lat="44.82048" lon="4.06245">
        <ele>1052.918245</ele>
        <time>2026-08-23T16:16:10.171Z</time>
      </trkpt>
      <trkpt lat="44.8206" lon="4.06242">
        <ele>1052.091994</ele>
        <time>2026-08-23T16:16:13.177Z</time>
      </trkpt>
      <trkpt lat="44.82072" lon="4.06239">
        <ele>1051.292536</ele>
        <time>2026-08-23T16:16:16.178Z</time>
      </trkpt>
      <trkpt lat="44.82083" lon="4.06233">
        <ele>1050.497096</ele>
        <time>2026-08-23T16:16:19.173Z</time>
      </trkpt>
      <trkpt lat="44.82091" lon="4.06223">
        <ele>1049.728323</ele>
        <time>2026-08-23T16:16:22.174Z</time>
      </trkpt>
      <trkpt lat="44.82103" lon="4.06213">
        <ele>1048.830281</ele>
        <time>2026-08-23T16:16:25.176Z</time>
      </trkpt>
      <trkpt lat="44.82112" lon="4.06206">
        <ele>1048.132337</ele>
        <time>2026-08-23T16:16:27.176Z</time>
      </trkpt>
      <trkpt lat="44.8212" lon="4.06201">
        <ele>1047.328357</ele>
        <time>2026-08-23T16:16:30.169Z</time>
      </trkpt>
      <trkpt lat="44.82131" lon="4.06195">
        <ele>1046.009943</ele>
        <time>2026-08-23T16:16:33.173Z</time>
      </trkpt>
      <trkpt lat="44.82144" lon="4.06193">
        <ele>1044.623724</ele>
        <time>2026-08-23T16:16:36.160Z</time>
      </trkpt>
      <trkpt lat="44.82154" lon="4.06199">
        <ele>1043.393188</ele>
        <time>2026-08-23T16:16:38.173Z</time>
      </trkpt>
      <trkpt lat="44.82164" lon="4.06209">
        <ele>1042.087715</ele>
        <time>2026-08-23T16:16:40.175Z</time>
      </trkpt>
      <trkpt lat="44.82173" lon="4.06216">
        <ele>1040.937756</ele>
        <time>2026-08-23T16:16:42.171Z</time>
      </trkpt>
      <trkpt lat="44.82183" lon="4.06219">
        <ele>1039.85995</ele>
        <time>2026-08-23T16:16:44.177Z</time>
      </trkpt>
      <trkpt lat="44.82193" lon="4.06218">
        <ele>1038.771889</ele>
        <time>2026-08-23T16:16:46.167Z</time>
      </trkpt>
      <trkpt lat="44.82203" lon="4.06216">
        <ele>1037.683816</ele>
        <time>2026-08-23T16:16:48.172Z</time>
      </trkpt>
      <trkpt lat="44.82213" lon="4.06216">
        <ele>1036.586033</ele>
        <time>2026-08-23T16:16:50.173Z</time>
      </trkpt>
      <trkpt lat="44.82223" lon="4.06215">
        <ele>1035.427576</ele>
        <time>2026-08-23T16:16:52.168Z</time>
      </trkpt>
      <trkpt lat="44.82235" lon="4.0621">
        <ele>1034.022438</ele>
        <time>2026-08-23T16:16:54.169Z</time>
      </trkpt>
      <trkpt lat="44.82248" lon="4.06205">
        <ele>1032.553083</ele>
        <time>2026-08-23T16:16:56.175Z</time>
      </trkpt>
      <trkpt lat="44.82263" lon="4.06203">
        <ele>1030.960496</ele>
        <time>2026-08-23T16:16:58.173Z</time>
      </trkpt>
      <trkpt lat="44.82275" lon="4.06196">
        <ele>1029.524845</ele>
        <time>2026-08-23T16:17:00.177Z</time>
      </trkpt>
      <trkpt lat="44.82285" lon="4.06187">
        <ele>1028.260529</ele>
        <time>2026-08-23T16:17:02.189Z</time>
      </trkpt>
      <trkpt lat="44.82293" lon="4.06172">
        <ele>1027.25018</ele>
        <time>2026-08-23T16:17:04.174Z</time>
      </trkpt>
      <trkpt lat="44.82298" lon="4.06154">
        <ele>1026.331026</ele>
        <time>2026-08-23T16:17:06.173Z</time>
      </trkpt>
      <trkpt lat="44.82298" lon="4.06135">
        <ele>1025.379049</ele>
        <time>2026-08-23T16:17:08.175Z</time>
      </trkpt>
      <trkpt lat="44.82297" lon="4.06114">
        <ele>1024.372022</ele>
        <time>2026-08-23T16:17:10.172Z</time>
      </trkpt>
      <trkpt lat="44.82296" lon="4.06092">
        <ele>1023.327054</ele>
        <time>2026-08-23T16:17:12.168Z</time>
      </trkpt>
      <trkpt lat="44.82297" lon="4.06073">
        <ele>1022.405019</ele>
        <time>2026-08-23T16:17:14.174Z</time>
      </trkpt>
      <trkpt lat="44.82303" lon="4.06057">
        <ele>1021.535055</ele>
        <time>2026-08-23T16:17:16.177Z</time>
      </trkpt>
      <trkpt lat="44.82312" lon="4.06044">
        <ele>1020.651824</ele>
        <time>2026-08-23T16:17:18.169Z</time>
      </trkpt>
      <trkpt lat="44.82324" lon="4.06037">
        <ele>1019.764737</ele>
        <time>2026-08-23T16:17:20.172Z</time>
      </trkpt>
      <trkpt lat="44.82338" lon="4.06033">
        <ele>1018.773561</ele>
        <time>2026-08-23T16:17:22.179Z</time>
      </trkpt>
      <trkpt lat="44.82352" lon="4.06035">
        <ele>1017.832149</ele>
        <time>2026-08-23T16:17:24.175Z</time>
      </trkpt>
      <trkpt lat="44.82363" lon="4.06047">
        <ele>1016.902572</ele>
        <time>2026-08-23T16:17:26.167Z</time>
      </trkpt>
      <trkpt lat="44.8237" lon="4.06064">
        <ele>1015.929202</ele>
        <time>2026-08-23T16:17:28.133Z</time>
      </trkpt>
      <trkpt lat="44.82373" lon="4.06086">
        <ele>1014.344178</ele>
        <time>2026-08-23T16:17:30.137Z</time>
      </trkpt>
      <trkpt lat="44.82374" lon="4.06109">
        <ele>1012.554153</ele>
        <time>2026-08-23T16:17:32.138Z</time>
      </trkpt>
      <trkpt lat="44.82374" lon="4.06133">
        <ele>1010.738142</ele>
        <time>2026-08-23T16:17:34.190Z</time>
      </trkpt>
      <trkpt lat="44.82373" lon="4.06158">
        <ele>1008.837144</ele>
        <time>2026-08-23T16:17:36.150Z</time>
      </trkpt>
      <trkpt lat="44.82373" lon="4.06183">
        <ele>1006.951825</ele>
        <time>2026-08-23T16:17:38.145Z</time>
      </trkpt>
      <trkpt lat="44.82372" lon="4.06206">
        <ele>1005.178454</ele>
        <time>2026-08-23T16:17:40.145Z</time>
      </trkpt>
      <trkpt lat="44.82372" lon="4.06228">
        <ele>1003.47688</ele>
        <time>2026-08-23T16:17:42.144Z</time>
      </trkpt>
      <trkpt lat="44.82378" lon="4.06249">
        <ele>1001.784845</ele>
        <time>2026-08-23T16:17:44.146Z</time>
      </trkpt>
      <trkpt lat="44.82389" lon="4.06262">
        <ele>1000.207623</ele>
        <time>2026-08-23T16:17:46.143Z</time>
      </trkpt>
      <trkpt lat="44.82401" lon="4.06275">
        <ele>998.613618</ele>
        <time>2026-08-23T16:17:48.137Z</time>
      </trkpt>
      <trkpt lat="44.82407" lon="4.06284">
        <ele>997.617437</ele>
        <time>2026-08-23T16:17:49.171Z</time>
      </trkpt>
      <trkpt lat="44.82413" lon="4.06294">
        <ele>996.625002</ele>
        <time>2026-08-23T16:17:50.171Z</time>
      </trkpt>
      <trkpt lat="44.82422" lon="4.06314">
        <ele>996.08706</ele>
        <time>2026-08-23T16:17:52.173Z</time>
      </trkpt>
      <trkpt lat="44.82427" lon="4.06336">
        <ele>995.705763</ele>
        <time>2026-08-23T16:17:54.171Z</time>
      </trkpt>
      <trkpt lat="44.82435" lon="4.06357">
        <ele>995.326396</ele>
        <time>2026-08-23T16:17:56.169Z</time>
      </trkpt>
      <trkpt lat="44.82441" lon="4.06375">
        <ele>995.004879</ele>
        <time>2026-08-23T16:17:58.173Z</time>
      </trkpt>
      <trkpt lat="44.82444" lon="4.0639">
        <ele>994.762992</ele>
        <time>2026-08-23T16:18:00.168Z</time>
      </trkpt>
      <trkpt lat="44.82445" lon="4.06408">
        <ele>994.474819</ele>
        <time>2026-08-23T16:18:03.183Z</time>
      </trkpt>
      <trkpt lat="44.82444" lon="4.06423">
        <ele>994.219677</ele>
        <time>2026-08-23T16:18:06.175Z</time>
      </trkpt>
      <trkpt lat="44.82455" lon="4.0642">
        <ele>993.96529</ele>
        <time>2026-08-23T16:18:10.183Z</time>
      </trkpt>
      <trkpt lat="44.82464" lon="4.06406">
        <ele>993.670432</ele>
        <time>2026-08-23T16:18:13.179Z</time>
      </trkpt>
      <trkpt lat="44.8247" lon="4.06392">
        <ele>993.407972</ele>
        <time>2026-08-23T16:18:15.176Z</time>
      </trkpt>
      <trkpt lat="44.82472" lon="4.06376">
        <ele>993.146564</ele>
        <time>2026-08-23T16:18:17.172Z</time>
      </trkpt>
      <trkpt lat="44.82469" lon="4.06358">
        <ele>992.838939</ele>
        <time>2026-08-23T16:18:19.172Z</time>
      </trkpt>
      <trkpt lat="44.82462" lon="4.06342">
        <ele>992.546393</ele>
        <time>2026-08-23T16:18:21.170Z</time>
      </trkpt>
      <trkpt lat="44.82458" lon="4.06328">
        <ele>992.312715</ele>
        <time>2026-08-23T16:18:23.172Z</time>
      </trkpt>
      <trkpt lat="44.82458" lon="4.06314">
        <ele>992.144789</ele>
        <time>2026-08-23T16:18:25.169Z</time>
      </trkpt>
      <trkpt lat="44.82463" lon="4.063">
        <ele>991.962232</ele>
        <time>2026-08-23T16:18:27.178Z</time>
      </trkpt>
      <trkpt lat="44.82473" lon="4.06289">
        <ele>991.761288</ele>
        <time>2026-08-23T16:18:29.178Z</time>
      </trkpt>
      <trkpt lat="44.82484" lon="4.06276">
        <ele>991.524305</ele>
        <time>2026-08-23T16:18:31.174Z</time>
      </trkpt>
      <trkpt lat="44.82492" lon="4.06262">
        <ele>991.314297</ele>
        <time>2026-08-23T16:18:33.177Z</time>
      </trkpt>
      <trkpt lat="44.82496" lon="4.06245">
        <ele>991.111526</ele>
        <time>2026-08-23T16:18:35.171Z</time>
      </trkpt>
      <trkpt lat="44.82496" lon="4.06229">
        <ele>990.921493</ele>
        <time>2026-08-23T16:18:37.173Z</time>
      </trkpt>
      <trkpt lat="44.82497" lon="4.06213">
        <ele>990.73614</ele>
        <time>2026-08-23T16:18:39.177Z</time>
      </trkpt>
      <trkpt lat="44.82497" lon="4.06199">
        <ele>990.570025</ele>
        <time>2026-08-23T16:18:41.175Z</time>
      </trkpt>
      <trkpt lat="44.82501" lon="4.0618">
        <ele>990.344937</ele>
        <time>2026-08-23T16:18:44.176Z</time>
      </trkpt>
      <trkpt lat="44.82504" lon="4.06162">
        <ele>990.137948</ele>
        <time>2026-08-23T16:18:47.178Z</time>
      </trkpt>
      <trkpt lat="44.82508" lon="4.06146">
        <ele>989.936552</ele>
        <time>2026-08-23T16:18:50.171Z</time>
      </trkpt>
      <trkpt lat="44.82512" lon="4.06131">
        <ele>989.751339</ele>
        <time>2026-08-23T16:18:53.177Z</time>
      </trkpt>
      <trkpt lat="44.8252" lon="4.06116">
        <ele>989.540694</ele>
        <time>2026-08-23T16:18:56.176Z</time>
      </trkpt>
      <trkpt lat="44.82524" lon="4.061">
        <ele>989.453128</ele>
        <time>2026-08-23T16:18:59.172Z</time>
      </trkpt>
      <trkpt lat="44.8253" lon="4.06085">
        <ele>989.654289</ele>
        <time>2026-08-23T16:19:02.176Z</time>
      </trkpt>
      <trkpt lat="44.82537" lon="4.0607">
        <ele>989.853198</ele>
        <time>2026-08-23T16:19:05.175Z</time>
      </trkpt>
      <trkpt lat="44.82541" lon="4.06056">
        <ele>990.030489</ele>
        <time>2026-08-23T16:19:08.174Z</time>
      </trkpt>
      <trkpt lat="44.82544" lon="4.06038">
        <ele>990.246912</ele>
        <time>2026-08-23T16:19:11.183Z</time>
      </trkpt>
      <trkpt lat="44.82545" lon="4.06018">
        <ele>990.469374</ele>
        <time>2026-08-23T16:19:14.176Z</time>
      </trkpt>
      <trkpt lat="44.82548" lon="4.06">
        <ele>990.678859</ele>
        <time>2026-08-23T16:19:17.175Z</time>
      </trkpt>
      <trkpt lat="44.8255" lon="4.05988">
        <ele>990.825778</ele>
        <time>2026-08-23T16:19:19.177Z</time>
      </trkpt>
      <trkpt lat="44.82555" lon="4.05972">
        <ele>991.0201</ele>
        <time>2026-08-23T16:19:22.176Z</time>
      </trkpt>
      <trkpt lat="44.82559" lon="4.05955">
        <ele>991.232763</ele>
        <time>2026-08-23T16:19:25.176Z</time>
      </trkpt>
      <trkpt lat="44.82562" lon="4.05939">
        <ele>991.420575</ele>
        <time>2026-08-23T16:19:28.172Z</time>
      </trkpt>
      <trkpt lat="44.82566" lon="4.05925">
        <ele>991.590693</ele>
        <time>2026-08-23T16:19:31.175Z</time>
      </trkpt>
      <trkpt lat="44.8257" lon="4.05908">
        <ele>991.805095</ele>
        <time>2026-08-23T16:19:34.171Z</time>
      </trkpt>
      <trkpt lat="44.82572" lon="4.05891">
        <ele>992.002227</ele>
        <time>2026-08-23T16:19:37.176Z</time>
      </trkpt>
      <trkpt lat="44.82574" lon="4.05873">
        <ele>992.202362</ele>
        <time>2026-08-23T16:19:40.173Z</time>
      </trkpt>
      <trkpt lat="44.82573" lon="4.05856">
        <ele>992.280302</ele>
        <time>2026-08-23T16:19:43.158Z</time>
      </trkpt>
      <trkpt lat="44.82573" lon="4.05843">
        <ele>992.234073</ele>
        <time>2026-08-23T16:19:45.174Z</time>
      </trkpt>
      <trkpt lat="44.82572" lon="4.05823">
        <ele>992.166129</ele>
        <time>2026-08-23T16:19:48.181Z</time>
      </trkpt>
      <trkpt lat="44.82571" lon="4.05808">
        <ele>992.116465</ele>
        <time>2026-08-23T16:19:50.175Z</time>
      </trkpt>
      <trkpt lat="44.82569" lon="4.05793">
        <ele>992.062611</ele>
        <time>2026-08-23T16:19:53.169Z</time>
      </trkpt>
      <trkpt lat="44.82568" lon="4.05777">
        <ele>992.008985</ele>
        <time>2026-08-23T16:19:56.174Z</time>
      </trkpt>
      <trkpt lat="44.82566" lon="4.05759">
        <ele>991.946649</ele>
        <time>2026-08-23T16:19:59.177Z</time>
      </trkpt>
      <trkpt lat="44.82565" lon="4.05747">
        <ele>991.902309</ele>
        <time>2026-08-23T16:20:01.172Z</time>
      </trkpt>
      <trkpt lat="44.82563" lon="4.05733">
        <ele>991.856202</ele>
        <time>2026-08-23T16:20:03.173Z</time>
      </trkpt>
      <trkpt lat="44.82558" lon="4.05718">
        <ele>991.799862</ele>
        <time>2026-08-23T16:20:06.169Z</time>
      </trkpt>
      <trkpt lat="44.82552" lon="4.05704">
        <ele>991.744152</ele>
        <time>2026-08-23T16:20:09.173Z</time>
      </trkpt>
      <trkpt lat="44.82546" lon="4.05694">
        <ele>991.698519</ele>
        <time>2026-08-23T16:20:11.174Z</time>
      </trkpt>
      <trkpt lat="44.8254" lon="4.05685">
        <ele>991.654154</ele>
        <time>2026-08-23T16:20:13.173Z</time>
      </trkpt>
      <trkpt lat="44.82532" lon="4.05672">
        <ele>991.596739</ele>
        <time>2026-08-23T16:20:16.172Z</time>
      </trkpt>
      <trkpt lat="44.82525" lon="4.05664">
        <ele>991.552276</ele>
        <time>2026-08-23T16:20:18.171Z</time>
      </trkpt>
      <trkpt lat="44.82517" lon="4.05656">
        <ele>991.506307</ele>
        <time>2026-08-23T16:20:20.176Z</time>
      </trkpt>
      <trkpt lat="44.82511" lon="4.05645">
        <ele>991.457813</ele>
        <time>2026-08-23T16:20:22.175Z</time>
      </trkpt>
      <trkpt lat="44.82502" lon="4.05632">
        <ele>991.781058</ele>
        <time>2026-08-23T16:20:25.176Z</time>
      </trkpt>
      <trkpt lat="44.82495" lon="4.0562">
        <ele>992.194222</ele>
        <time>2026-08-23T16:20:28.176Z</time>
      </trkpt>
      <trkpt lat="44.8249" lon="4.05607">
        <ele>992.581429</ele>
        <time>2026-08-23T16:20:31.174Z</time>
      </trkpt>
      <trkpt lat="44.82484" lon="4.05596">
        <ele>992.945781</ele>
        <time>2026-08-23T16:20:34.183Z</time>
      </trkpt>
      <trkpt lat="44.82479" lon="4.05583">
        <ele>993.371008</ele>
        <time>2026-08-23T16:20:37.173Z</time>
      </trkpt>
      <trkpt lat="44.8248" lon="4.05566">
        <ele>993.807049</ele>
        <time>2026-08-23T16:20:41.170Z</time>
      </trkpt>
      <trkpt lat="44.82478" lon="4.05552">
        <ele>994.211482</ele>
        <time>2026-08-23T16:20:45.175Z</time>
      </trkpt>
      <trkpt lat="44.82475" lon="4.05538">
        <ele>994.597517</ele>
        <time>2026-08-23T16:20:49.175Z</time>
      </trkpt>
      <trkpt lat="44.82471" lon="4.05525">
        <ele>994.954458</ele>
        <time>2026-08-23T16:20:52.172Z</time>
      </trkpt>
      <trkpt lat="44.82465" lon="4.05512">
        <ele>995.392987</ele>
        <time>2026-08-23T16:20:56.154Z</time>
      </trkpt>
      <trkpt lat="44.82459" lon="4.05501">
        <ele>995.739871</ele>
        <time>2026-08-23T16:21:00.172Z</time>
      </trkpt>
      <trkpt lat="44.82453" lon="4.05488">
        <ele>996.167622</ele>
        <time>2026-08-23T16:21:04.174Z</time>
      </trkpt>
      <trkpt lat="44.8245" lon="4.05473">
        <ele>996.597337</ele>
        <time>2026-08-23T16:21:08.171Z</time>
      </trkpt>
      <trkpt lat="44.82448" lon="4.05457">
        <ele>997.024752</ele>
        <time>2026-08-23T16:21:12.181Z</time>
      </trkpt>
      <trkpt lat="44.8245" lon="4.05443">
        <ele>997.390221</ele>
        <time>2026-08-23T16:21:16.184Z</time>
      </trkpt>
      <trkpt lat="44.82455" lon="4.0543">
        <ele>997.802299</ele>
        <time>2026-08-23T16:21:20.173Z</time>
      </trkpt>
      <trkpt lat="44.8246" lon="4.05417">
        <ele>998.198328</ele>
        <time>2026-08-23T16:21:24.173Z</time>
      </trkpt>
      <trkpt lat="44.82466" lon="4.05407">
        <ele>998.610827</ele>
        <time>2026-08-23T16:21:27.177Z</time>
      </trkpt>
      <trkpt lat="44.82472" lon="4.05395">
        <ele>999.078731</ele>
        <time>2026-08-23T16:21:31.175Z</time>
      </trkpt>
      <trkpt lat="44.82475" lon="4.05382">
        <ele>999.527123</ele>
        <time>2026-08-23T16:21:35.174Z</time>
      </trkpt>
      <trkpt lat="44.82476" lon="4.05367">
        <ele>1000.021395</ele>
        <time>2026-08-23T16:21:40.173Z</time>
      </trkpt>
      <trkpt lat="44.82475" lon="4.05351">
        <ele>1000.539691</ele>
        <time>2026-08-23T16:21:45.174Z</time>
      </trkpt>
      <trkpt lat="44.82476" lon="4.05335">
        <ele>1001.052286</ele>
        <time>2026-08-23T16:21:50.182Z</time>
      </trkpt>
      <trkpt lat="44.82474" lon="4.05322">
        <ele>1001.49437</ele>
        <time>2026-08-23T16:21:54.177Z</time>
      </trkpt>
      <trkpt lat="44.82471" lon="4.05307">
        <ele>1002.002206</ele>
        <time>2026-08-23T16:21:58.174Z</time>
      </trkpt>
      <trkpt lat="44.8247" lon="4.05294">
        <ele>1002.420911</ele>
        <time>2026-08-23T16:22:01.170Z</time>
      </trkpt>
      <trkpt lat="44.8247" lon="4.05279">
        <ele>1002.909881</ele>
        <time>2026-08-23T16:22:05.173Z</time>
      </trkpt>
      <trkpt lat="44.82471" lon="4.05264">
        <ele>1003.406536</ele>
        <time>2026-08-23T16:22:09.178Z</time>
      </trkpt>
      <trkpt lat="44.8247" lon="4.05249">
        <ele>1003.912127</ele>
        <time>2026-08-23T16:22:13.182Z</time>
      </trkpt>
      <trkpt lat="44.8247" lon="4.05234">
        <ele>1004.401442</ele>
        <time>2026-08-23T16:22:17.177Z</time>
      </trkpt>
      <trkpt lat="44.82471" lon="4.05217">
        <ele>1004.943494</ele>
        <time>2026-08-23T16:22:21.176Z</time>
      </trkpt>
      <trkpt lat="44.82472" lon="4.05201">
        <ele>1005.460384</ele>
        <time>2026-08-23T16:22:25.177Z</time>
      </trkpt>
      <trkpt lat="44.82473" lon="4.05189">
        <ele>1005.875462</ele>
        <time>2026-08-23T16:22:28.175Z</time>
      </trkpt>
      <trkpt lat="44.82475" lon="4.05173">
        <ele>1006.37761</ele>
        <time>2026-08-23T16:22:32.179Z</time>
      </trkpt>
      <trkpt lat="44.82478" lon="4.05161">
        <ele>1006.44766</ele>
        <time>2026-08-23T16:22:36.175Z</time>
      </trkpt>
      <trkpt lat="44.82482" lon="4.05149">
        <ele>1006.400582</ele>
        <time>2026-08-23T16:22:39.180Z</time>
      </trkpt>
      <trkpt lat="44.82487" lon="4.05134">
        <ele>1006.338315</ele>
        <time>2026-08-23T16:22:43.179Z</time>
      </trkpt>
      <trkpt lat="44.82491" lon="4.05122">
        <ele>1006.292021</ele>
        <time>2026-08-23T16:22:46.174Z</time>
      </trkpt>
      <trkpt lat="44.82497" lon="4.05109">
        <ele>1006.235629</ele>
        <time>2026-08-23T16:22:50.176Z</time>
      </trkpt>
      <trkpt lat="44.82502" lon="4.05098">
        <ele>1006.188501</ele>
        <time>2026-08-23T16:22:53.173Z</time>
      </trkpt>
      <trkpt lat="44.82507" lon="4.05084">
        <ele>1006.129625</ele>
        <time>2026-08-23T16:22:57.176Z</time>
      </trkpt>
      <trkpt lat="44.82511" lon="4.05071">
        <ele>1006.077063</ele>
        <time>2026-08-23T16:23:00.185Z</time>
      </trkpt>
      <trkpt lat="44.82517" lon="4.05059">
        <ele>1006.025844</ele>
        <time>2026-08-23T16:23:03.175Z</time>
      </trkpt>
      <trkpt lat="44.82522" lon="4.05047">
        <ele>1005.974112</ele>
        <time>2026-08-23T16:23:06.175Z</time>
      </trkpt>
      <trkpt lat="44.82527" lon="4.05035">
        <ele>1005.925421</ele>
        <time>2026-08-23T16:23:09.179Z</time>
      </trkpt>
      <trkpt lat="44.82536" lon="4.05025">
        <ele>1005.863599</ele>
        <time>2026-08-23T16:23:13.173Z</time>
      </trkpt>
      <trkpt lat="44.82547" lon="4.05018">
        <ele>1005.804772</ele>
        <time>2026-08-23T16:23:16.173Z</time>
      </trkpt>
      <trkpt lat="44.82559" lon="4.05014">
        <ele>1005.739395</ele>
        <time>2026-08-23T16:23:19.179Z</time>
      </trkpt>
      <trkpt lat="44.82569" lon="4.05012">
        <ele>1005.686704</ele>
        <time>2026-08-23T16:23:21.175Z</time>
      </trkpt>
      <trkpt lat="44.8258" lon="4.05011">
        <ele>1005.628856</ele>
        <time>2026-08-23T16:23:23.186Z</time>
      </trkpt>
      <trkpt lat="44.82591" lon="4.0501">
        <ele>1005.573263</ele>
        <time>2026-08-23T16:23:25.173Z</time>
      </trkpt>
      <trkpt lat="44.82603" lon="4.05008">
        <ele>1005.071306</ele>
        <time>2026-08-23T16:23:27.177Z</time>
      </trkpt>
      <trkpt lat="44.82616" lon="4.05008">
        <ele>1004.43166</ele>
        <time>2026-08-23T16:23:29.171Z</time>
      </trkpt>
      <trkpt lat="44.82627" lon="4.05008">
        <ele>1003.843183</ele>
        <time>2026-08-23T16:23:31.175Z</time>
      </trkpt>
      <trkpt lat="44.8264" lon="4.05012">
        <ele>1003.152772</ele>
        <time>2026-08-23T16:23:33.175Z</time>
      </trkpt>
      <trkpt lat="44.82652" lon="4.0502">
        <ele>1002.51031</ele>
        <time>2026-08-23T16:23:35.169Z</time>
      </trkpt>
      <trkpt lat="44.82662" lon="4.05033">
        <ele>1001.776547</ele>
        <time>2026-08-23T16:23:37.177Z</time>
      </trkpt>
      <trkpt lat="44.82671" lon="4.05047">
        <ele>1001.09422</ele>
        <time>2026-08-23T16:23:39.173Z</time>
      </trkpt>
      <trkpt lat="44.8268" lon="4.05061">
        <ele>1000.41801</ele>
        <time>2026-08-23T16:23:41.173Z</time>
      </trkpt>
      <trkpt lat="44.82687" lon="4.05074">
        <ele>999.816532</ele>
        <time>2026-08-23T16:23:43.176Z</time>
      </trkpt>
      <trkpt lat="44.82695" lon="4.05085">
        <ele>999.259202</ele>
        <time>2026-08-23T16:23:45.180Z</time>
      </trkpt>
      <trkpt lat="44.82702" lon="4.05096">
        <ele>998.732974</ele>
        <time>2026-08-23T16:23:47.174Z</time>
      </trkpt>
      <trkpt lat="44.82709" lon="4.05107">
        <ele>998.178974</ele>
        <time>2026-08-23T16:23:49.178Z</time>
      </trkpt>
      <trkpt lat="44.82716" lon="4.05121">
        <ele>997.568626</ele>
        <time>2026-08-23T16:23:51.168Z</time>
      </trkpt>
      <trkpt lat="44.82725" lon="4.05135">
        <ele>996.893091</ele>
        <time>2026-08-23T16:23:53.172Z</time>
      </trkpt>
      <trkpt lat="44.82734" lon="4.05149">
        <ele>996.412148</ele>
        <time>2026-08-23T16:23:55.179Z</time>
      </trkpt>
      <trkpt lat="44.82744" lon="4.05161">
        <ele>996.6619</ele>
        <time>2026-08-23T16:23:57.175Z</time>
      </trkpt>
      <trkpt lat="44.82754" lon="4.05174">
        <ele>996.916207</ele>
        <time>2026-08-23T16:23:59.174Z</time>
      </trkpt>
      <trkpt lat="44.82765" lon="4.05183">
        <ele>997.160473</ele>
        <time>2026-08-23T16:24:01.180Z</time>
      </trkpt>
      <trkpt lat="44.82777" lon="4.05189">
        <ele>997.386131</ele>
        <time>2026-08-23T16:24:03.171Z</time>
      </trkpt>
      <trkpt lat="44.82788" lon="4.05191">
        <ele>997.602368</ele>
        <time>2026-08-23T16:24:05.171Z</time>
      </trkpt>
      <trkpt lat="44.828" lon="4.05186">
        <ele>997.839803</ele>
        <time>2026-08-23T16:24:07.158Z</time>
      </trkpt>
      <trkpt lat="44.82811" lon="4.05182">
        <ele>998.051455</ele>
        <time>2026-08-23T16:24:09.180Z</time>
      </trkpt>
      <trkpt lat="44.82823" lon="4.05177">
        <ele>998.273597</ele>
        <time>2026-08-23T16:24:11.177Z</time>
      </trkpt>
      <trkpt lat="44.82833" lon="4.05173">
        <ele>998.472237</ele>
        <time>2026-08-23T16:24:13.174Z</time>
      </trkpt>
      <trkpt lat="44.82843" lon="4.05168">
        <ele>998.671888</ele>
        <time>2026-08-23T16:24:15.171Z</time>
      </trkpt>
      <trkpt lat="44.82852" lon="4.05162">
        <ele>998.857407</ele>
        <time>2026-08-23T16:24:17.172Z</time>
      </trkpt>
      <trkpt lat="44.8286" lon="4.05154">
        <ele>999.039178</ele>
        <time>2026-08-23T16:24:19.172Z</time>
      </trkpt>
      <trkpt lat="44.82867" lon="4.05143">
        <ele>999.245587</ele>
        <time>2026-08-23T16:24:22.169Z</time>
      </trkpt>
      <trkpt lat="44.82872" lon="4.05129">
        <ele>999.452511</ele>
        <time>2026-08-23T16:24:25.175Z</time>
      </trkpt>
      <trkpt lat="44.82875" lon="4.05113">
        <ele>999.665782</ele>
        <time>2026-08-23T16:24:28.171Z</time>
      </trkpt>
      <trkpt lat="44.82877" lon="4.05099">
        <ele>1000.155184</ele>
        <time>2026-08-23T16:24:32.174Z</time>
      </trkpt>
      <trkpt lat="44.82878" lon="4.05086">
        <ele>1000.720343</ele>
        <time>2026-08-23T16:24:36.173Z</time>
      </trkpt>
      <trkpt lat="44.82875" lon="4.05072">
        <ele>1001.353675</ele>
        <time>2026-08-23T16:24:40.172Z</time>
      </trkpt>
      <trkpt lat="44.82875" lon="4.05056">
        <ele>1002.056108</ele>
        <time>2026-08-23T16:24:44.179Z</time>
      </trkpt>
      <trkpt lat="44.82872" lon="4.05043">
        <ele>1002.606756</ele>
        <time>2026-08-23T16:24:47.176Z</time>
      </trkpt>
      <trkpt lat="44.82871" lon="4.05028">
        <ele>1003.27488</ele>
        <time>2026-08-23T16:24:51.170Z</time>
      </trkpt>
      <trkpt lat="44.82868" lon="4.05014">
        <ele>1003.922274</ele>
        <time>2026-08-23T16:24:55.172Z</time>
      </trkpt>
      <trkpt lat="44.82864" lon="4.05">
        <ele>1004.538296</ele>
        <time>2026-08-23T16:24:59.175Z</time>
      </trkpt>
      <trkpt lat="44.82862" lon="4.04987">
        <ele>1005.119674</ele>
        <time>2026-08-23T16:25:03.177Z</time>
      </trkpt>
      <trkpt lat="44.82861" lon="4.04974">
        <ele>1005.681814</ele>
        <time>2026-08-23T16:25:07.176Z</time>
      </trkpt>
      <trkpt lat="44.82862" lon="4.04958">
        <ele>1006.385626</ele>
        <time>2026-08-23T16:25:11.175Z</time>
      </trkpt>
      <trkpt lat="44.82862" lon="4.04945">
        <ele>1006.937179</ele>
        <time>2026-08-23T16:25:14.176Z</time>
      </trkpt>
      <trkpt lat="44.82862" lon="4.04932">
        <ele>1007.514734</ele>
        <time>2026-08-23T16:25:18.175Z</time>
      </trkpt>
      <trkpt lat="44.82862" lon="4.04916">
        <ele>1008.204249</ele>
        <time>2026-08-23T16:25:23.171Z</time>
      </trkpt>
      <trkpt lat="44.82865" lon="4.04902">
        <ele>1008.805322</ele>
        <time>2026-08-23T16:25:26.141Z</time>
      </trkpt>
      <trkpt lat="44.82867" lon="4.04886">
        <ele>1009.540391</ele>
        <time>2026-08-23T16:25:30.176Z</time>
      </trkpt>
      <trkpt lat="44.8287" lon="4.04872">
        <ele>1010.13712</ele>
        <time>2026-08-23T16:25:33.172Z</time>
      </trkpt>
      <trkpt lat="44.82872" lon="4.0486">
        <ele>1010.627989</ele>
        <time>2026-08-23T16:25:36.135Z</time>
      </trkpt>
      <trkpt lat="44.82875" lon="4.04845">
        <ele>1010.442535</ele>
        <time>2026-08-23T16:25:39.185Z</time>
      </trkpt>
      <trkpt lat="44.82878" lon="4.0483">
        <ele>1010.251965</ele>
        <time>2026-08-23T16:25:42.179Z</time>
      </trkpt>
      <trkpt lat="44.82879" lon="4.04816">
        <ele>1010.080366</ele>
        <time>2026-08-23T16:25:45.178Z</time>
      </trkpt>
      <trkpt lat="44.82881" lon="4.04801">
        <ele>1009.906025</ele>
        <time>2026-08-23T16:25:48.182Z</time>
      </trkpt>
      <trkpt lat="44.82884" lon="4.04787">
        <ele>1009.729639</ele>
        <time>2026-08-23T16:25:51.179Z</time>
      </trkpt>
      <trkpt lat="44.82886" lon="4.04773">
        <ele>1009.553584</ele>
        <time>2026-08-23T16:25:54.177Z</time>
      </trkpt>
      <trkpt lat="44.82889" lon="4.04756">
        <ele>1009.339962</ele>
        <time>2026-08-23T16:25:57.176Z</time>
      </trkpt>
      <trkpt lat="44.82893" lon="4.04739">
        <ele>1009.129588</ele>
        <time>2026-08-23T16:26:00.183Z</time>
      </trkpt>
      <trkpt lat="44.82899" lon="4.04723">
        <ele>1008.905324</ele>
        <time>2026-08-23T16:26:03.171Z</time>
      </trkpt>
      <trkpt lat="44.82903" lon="4.04711">
        <ele>1008.74454</ele>
        <time>2026-08-23T16:26:05.172Z</time>
      </trkpt>
      <trkpt lat="44.82908" lon="4.04698">
        <ele>1008.571662</ele>
        <time>2026-08-23T16:26:07.178Z</time>
      </trkpt>
      <trkpt lat="44.82914" lon="4.04687">
        <ele>1008.404366</ele>
        <time>2026-08-23T16:26:09.177Z</time>
      </trkpt>
      <trkpt lat="44.82921" lon="4.04676">
        <ele>1008.229828</ele>
        <time>2026-08-23T16:26:11.177Z</time>
      </trkpt>
      <trkpt lat="44.82927" lon="4.04665">
        <ele>1008.054354</ele>
        <time>2026-08-23T16:26:13.173Z</time>
      </trkpt>
      <trkpt lat="44.82934" lon="4.04655">
        <ele>1007.885754</ele>
        <time>2026-08-23T16:26:15.179Z</time>
      </trkpt>
      <trkpt lat="44.82942" lon="4.04644">
        <ele>1007.697935</ele>
        <time>2026-08-23T16:26:17.172Z</time>
      </trkpt>
      <trkpt lat="44.8295" lon="4.04634">
        <ele>1007.635102</ele>
        <time>2026-08-23T16:26:19.176Z</time>
      </trkpt>
      <trkpt lat="44.82956" lon="4.04622">
        <ele>1007.775166</ele>
        <time>2026-08-23T16:26:21.178Z</time>
      </trkpt>
      <trkpt lat="44.82964" lon="4.04606">
        <ele>1007.955225</ele>
        <time>2026-08-23T16:26:24.178Z</time>
      </trkpt>
      <trkpt lat="44.8297" lon="4.0459">
        <ele>1008.125291</ele>
        <time>2026-08-23T16:26:27.178Z</time>
      </trkpt>
      <trkpt lat="44.82975" lon="4.04576">
        <ele>1008.28016</ele>
        <time>2026-08-23T16:26:30.175Z</time>
      </trkpt>
      <trkpt lat="44.82976" lon="4.0456">
        <ele>1008.431557</ele>
        <time>2026-08-23T16:26:33.175Z</time>
      </trkpt>
      <trkpt lat="44.8298" lon="4.04547">
        <ele>1008.561638</ele>
        <time>2026-08-23T16:26:36.169Z</time>
      </trkpt>
      <trkpt lat="44.82984" lon="4.04535">
        <ele>1008.688532</ele>
        <time>2026-08-23T16:26:39.179Z</time>
      </trkpt>
      <trkpt lat="44.82991" lon="4.04519">
        <ele>1008.864695</ele>
        <time>2026-08-23T16:26:42.170Z</time>
      </trkpt>
      <trkpt lat="44.82995" lon="4.04501">
        <ele>1009.037802</ele>
        <time>2026-08-23T16:26:45.170Z</time>
      </trkpt>
      <trkpt lat="44.82999" lon="4.04485">
        <ele>1009.1963</ele>
        <time>2026-08-23T16:26:48.179Z</time>
      </trkpt>
      <trkpt lat="44.83001" lon="4.04473">
        <ele>1009.317179</ele>
        <time>2026-08-23T16:26:50.178Z</time>
      </trkpt>
      <trkpt lat="44.83008" lon="4.04455">
        <ele>1009.505641</ele>
        <time>2026-08-23T16:26:53.177Z</time>
      </trkpt>
      <trkpt lat="44.83013" lon="4.04443">
        <ele>1009.640802</ele>
        <time>2026-08-23T16:26:55.183Z</time>
      </trkpt>
      <trkpt lat="44.83018" lon="4.0443">
        <ele>1009.782025</ele>
        <time>2026-08-23T16:26:57.174Z</time>
      </trkpt>
      <trkpt lat="44.83023" lon="4.04417">
        <ele>1009.917776</ele>
        <time>2026-08-23T16:26:59.176Z</time>
      </trkpt>
      <trkpt lat="44.83027" lon="4.044">
        <ele>1009.828793</ele>
        <time>2026-08-23T16:27:02.177Z</time>
      </trkpt>
      <trkpt lat="44.83029" lon="4.04387">
        <ele>1009.661503</ele>
        <time>2026-08-23T16:27:04.171Z</time>
      </trkpt>
      <trkpt lat="44.8303" lon="4.04369">
        <ele>1009.430978</ele>
        <time>2026-08-23T16:27:07.178Z</time>
      </trkpt>
      <trkpt lat="44.8303" lon="4.04351">
        <ele>1009.204905</ele>
        <time>2026-08-23T16:27:10.176Z</time>
      </trkpt>
      <trkpt lat="44.83032" lon="4.04333">
        <ele>1008.978681</ele>
        <time>2026-08-23T16:27:13.173Z</time>
      </trkpt>
      <trkpt lat="44.83034" lon="4.04314">
        <ele>1008.746012</ele>
        <time>2026-08-23T16:27:16.181Z</time>
      </trkpt>
      <trkpt lat="44.83037" lon="4.04298">
        <ele>1008.530959</ele>
        <time>2026-08-23T16:27:19.172Z</time>
      </trkpt>
      <trkpt lat="44.8304" lon="4.04279">
        <ele>1008.294596</ele>
        <time>2026-08-23T16:27:22.175Z</time>
      </trkpt>
      <trkpt lat="44.83041" lon="4.04263">
        <ele>1008.088126</ele>
        <time>2026-08-23T16:27:25.174Z</time>
      </trkpt>
      <trkpt lat="44.83043" lon="4.04247">
        <ele>1007.884317</ele>
        <time>2026-08-23T16:27:28.185Z</time>
      </trkpt>
      <trkpt lat="44.83045" lon="4.04231">
        <ele>1007.68395</ele>
        <time>2026-08-23T16:27:31.178Z</time>
      </trkpt>
      <trkpt lat="44.83048" lon="4.04215">
        <ele>1007.476196</ele>
        <time>2026-08-23T16:27:34.168Z</time>
      </trkpt>
      <trkpt lat="44.83055" lon="4.04198">
        <ele>1007.233987</ele>
        <time>2026-08-23T16:27:37.172Z</time>
      </trkpt>
      <trkpt lat="44.83059" lon="4.04186">
        <ele>1007.068454</ele>
        <time>2026-08-23T16:27:39.174Z</time>
      </trkpt>
      <trkpt lat="44.83063" lon="4.04174">
        <ele>1006.896458</ele>
        <time>2026-08-23T16:27:41.178Z</time>
      </trkpt>
      <trkpt lat="44.83069" lon="4.04162">
        <ele>1006.828936</ele>
        <time>2026-08-23T16:27:43.179Z</time>
      </trkpt>
      <trkpt lat="44.83074" lon="4.04151">
        <ele>1006.87066</ele>
        <time>2026-08-23T16:27:45.177Z</time>
      </trkpt>
      <trkpt lat="44.8308" lon="4.04141">
        <ele>1006.911318</ele>
        <time>2026-08-23T16:27:47.179Z</time>
      </trkpt>
      <trkpt lat="44.83088" lon="4.04127">
        <ele>1006.971009</ele>
        <time>2026-08-23T16:27:50.178Z</time>
      </trkpt>
      <trkpt lat="44.83094" lon="4.04117">
        <ele>1007.01185</ele>
        <time>2026-08-23T16:27:52.184Z</time>
      </trkpt>
      <trkpt lat="44.83101" lon="4.04107">
        <ele>1007.056501</ele>
        <time>2026-08-23T16:27:54.176Z</time>
      </trkpt>
      <trkpt lat="44.83108" lon="4.04098">
        <ele>1007.097903</ele>
        <time>2026-08-23T16:27:56.172Z</time>
      </trkpt>
      <trkpt lat="44.83117" lon="4.04086">
        <ele>1007.152887</ele>
        <time>2026-08-23T16:27:59.175Z</time>
      </trkpt>
      <trkpt lat="44.83125" lon="4.04075">
        <ele>1007.20266</ele>
        <time>2026-08-23T16:28:02.180Z</time>
      </trkpt>
      <trkpt lat="44.83132" lon="4.04064">
        <ele>1007.252074</ele>
        <time>2026-08-23T16:28:05.173Z</time>
      </trkpt>
      <trkpt lat="44.83142" lon="4.04051">
        <ele>1007.309678</ele>
        <time>2026-08-23T16:28:08.173Z</time>
      </trkpt>
      <trkpt lat="44.8315" lon="4.04042">
        <ele>1007.356858</ele>
        <time>2026-08-23T16:28:10.181Z</time>
      </trkpt>
      <trkpt lat="44.83158" lon="4.04034">
        <ele>1007.402383</ele>
        <time>2026-08-23T16:28:12.179Z</time>
      </trkpt>
      <trkpt lat="44.83166" lon="4.04026">
        <ele>1007.444254</ele>
        <time>2026-08-23T16:28:14.180Z</time>
      </trkpt>
      <trkpt lat="44.83178" lon="4.04017">
        <ele>1007.503733</ele>
        <time>2026-08-23T16:28:17.176Z</time>
      </trkpt>
      <trkpt lat="44.83187" lon="4.04015">
        <ele>1007.544656</ele>
        <time>2026-08-23T16:28:19.171Z</time>
      </trkpt>
      <trkpt lat="44.83199" lon="4.04015">
        <ele>1007.600591</ele>
        <time>2026-08-23T16:28:22.180Z</time>
      </trkpt>
      <trkpt lat="44.83211" lon="4.04018">
        <ele>1008.105146</ele>
        <time>2026-08-23T16:28:25.171Z</time>
      </trkpt>
      <trkpt lat="44.83221" lon="4.0402">
        <ele>1008.578513</ele>
        <time>2026-08-23T16:28:28.173Z</time>
      </trkpt>
      <trkpt lat="44.83231" lon="4.04022">
        <ele>1009.128709</ele>
        <time>2026-08-23T16:28:31.173Z</time>
      </trkpt>
      <trkpt lat="44.83244" lon="4.04026">
        <ele>1009.765248</ele>
        <time>2026-08-23T16:28:34.175Z</time>
      </trkpt>
      <trkpt lat="44.83254" lon="4.04024">
        <ele>1010.315426</ele>
        <time>2026-08-23T16:28:37.180Z</time>
      </trkpt>
      <trkpt lat="44.83268" lon="4.04022">
        <ele>1010.988898</ele>
        <time>2026-08-23T16:28:40.170Z</time>
      </trkpt>
      <trkpt lat="44.83279" lon="4.04017">
        <ele>1011.58969</ele>
        <time>2026-08-23T16:28:43.176Z</time>
      </trkpt>
      <trkpt lat="44.83287" lon="4.04009">
        <ele>1012.114175</ele>
        <time>2026-08-23T16:28:46.174Z</time>
      </trkpt>
      <trkpt lat="44.83294" lon="4.03997">
        <ele>1012.684032</ele>
        <time>2026-08-23T16:28:50.184Z</time>
      </trkpt>
      <trkpt lat="44.83299" lon="4.03983">
        <ele>1013.234306</ele>
        <time>2026-08-23T16:28:53.153Z</time>
      </trkpt>
      <trkpt lat="44.83303" lon="4.0397">
        <ele>1013.760652</ele>
        <time>2026-08-23T16:28:56.171Z</time>
      </trkpt>
      <trkpt lat="44.83308" lon="4.03954">
        <ele>1014.374418</ele>
        <time>2026-08-23T16:28:59.176Z</time>
      </trkpt>
      <trkpt lat="44.83309" lon="4.03938">
        <ele>1014.949325</ele>
        <time>2026-08-23T16:29:02.176Z</time>
      </trkpt>
      <trkpt lat="44.83312" lon="4.0392">
        <ele>1015.606643</ele>
        <time>2026-08-23T16:29:05.174Z</time>
      </trkpt>
      <trkpt lat="44.83313" lon="4.03904">
        <ele>1016.172986</ele>
        <time>2026-08-23T16:29:08.172Z</time>
      </trkpt>
      <trkpt lat="44.83314" lon="4.03889">
        <ele>1016.728135</ele>
        <time>2026-08-23T16:29:11.172Z</time>
      </trkpt>
      <trkpt lat="44.83317" lon="4.03871">
        <ele>1015.92581</ele>
        <time>2026-08-23T16:29:14.187Z</time>
      </trkpt>
      <trkpt lat="44.83321" lon="4.03857">
        <ele>1015.284042</ele>
        <time>2026-08-23T16:29:16.173Z</time>
      </trkpt>
      <trkpt lat="44.83324" lon="4.03845">
        <ele>1014.71602</ele>
        <time>2026-08-23T16:29:18.174Z</time>
      </trkpt>
      <trkpt lat="44.83329" lon="4.03832">
        <ele>1014.077822</ele>
        <time>2026-08-23T16:29:20.176Z</time>
      </trkpt>
      <trkpt lat="44.83334" lon="4.03818">
        <ele>1013.394401</ele>
        <time>2026-08-23T16:29:22.175Z</time>
      </trkpt>
      <trkpt lat="44.8334" lon="4.03804">
        <ele>1012.672807</ele>
        <time>2026-08-23T16:29:24.171Z</time>
      </trkpt>
      <trkpt lat="44.83348" lon="4.03792">
        <ele>1011.9518</ele>
        <time>2026-08-23T16:29:26.173Z</time>
      </trkpt>
      <trkpt lat="44.83355" lon="4.03781">
        <ele>1011.278326</ele>
        <time>2026-08-23T16:29:28.171Z</time>
      </trkpt>
      <trkpt lat="44.83364" lon="4.03771">
        <ele>1010.600553</ele>
        <time>2026-08-23T16:29:30.173Z</time>
      </trkpt>
      <trkpt lat="44.83374" lon="4.03761">
        <ele>1009.848356</ele>
        <time>2026-08-23T16:29:32.175Z</time>
      </trkpt>
      <trkpt lat="44.83385" lon="4.03754">
        <ele>1009.120214</ele>
        <time>2026-08-23T16:29:34.179Z</time>
      </trkpt>
      <trkpt lat="44.83396" lon="4.03751">
        <ele>1008.424102</ele>
        <time>2026-08-23T16:29:36.179Z</time>
      </trkpt>
      <trkpt lat="44.83407" lon="4.0375">
        <ele>1007.713711</ele>
        <time>2026-08-23T16:29:38.181Z</time>
      </trkpt>
      <trkpt lat="44.83418" lon="4.03753">
        <ele>1007.050275</ele>
        <time>2026-08-23T16:29:40.171Z</time>
      </trkpt>
      <trkpt lat="44.83431" lon="4.03753">
        <ele>1006.266182</ele>
        <time>2026-08-23T16:29:43.174Z</time>
      </trkpt>
      <trkpt lat="44.8344" lon="4.03752">
        <ele>1005.709501</ele>
        <time>2026-08-23T16:29:45.169Z</time>
      </trkpt>
      <trkpt lat="44.83448" lon="4.03748">
        <ele>1005.97208</ele>
        <time>2026-08-23T16:29:47.169Z</time>
      </trkpt>
      <trkpt lat="44.83459" lon="4.03746">
        <ele>1006.412719</ele>
        <time>2026-08-23T16:29:49.171Z</time>
      </trkpt>
      <trkpt lat="44.83468" lon="4.03742">
        <ele>1006.844254</ele>
        <time>2026-08-23T16:29:51.175Z</time>
      </trkpt>
      <trkpt lat="44.83481" lon="4.03736">
        <ele>1007.390773</ele>
        <time>2026-08-23T16:29:54.175Z</time>
      </trkpt>
      <trkpt lat="44.8349" lon="4.03731">
        <ele>1007.817619</ele>
        <time>2026-08-23T16:29:56.136Z</time>
      </trkpt>
      <trkpt lat="44.835" lon="4.03717">
        <ele>1008.40131</ele>
        <time>2026-08-23T16:29:59.174Z</time>
      </trkpt>
      <trkpt lat="44.83508" lon="4.03708">
        <ele>1008.830886</ele>
        <time>2026-08-23T16:30:01.176Z</time>
      </trkpt>
      <trkpt lat="44.83515" lon="4.03698">
        <ele>1009.240011</ele>
        <time>2026-08-23T16:30:03.169Z</time>
      </trkpt>
      <trkpt lat="44.83522" lon="4.03688">
        <ele>1009.682784</ele>
        <time>2026-08-23T16:30:05.177Z</time>
      </trkpt>
      <trkpt lat="44.83531" lon="4.0368">
        <ele>1010.120099</ele>
        <time>2026-08-23T16:30:07.169Z</time>
      </trkpt>
      <trkpt lat="44.83541" lon="4.03674">
        <ele>1010.582156</ele>
        <time>2026-08-23T16:30:09.173Z</time>
      </trkpt>
      <trkpt lat="44.8355" lon="4.03667">
        <ele>1011.036933</ele>
        <time>2026-08-23T16:30:11.172Z</time>
      </trkpt>
      <trkpt lat="44.83562" lon="4.03661">
        <ele>1011.549619</ele>
        <time>2026-08-23T16:30:13.176Z</time>
      </trkpt>
      <trkpt lat="44.83572" lon="4.03654">
        <ele>1012.03244</ele>
        <time>2026-08-23T16:30:16.174Z</time>
      </trkpt>
      <trkpt lat="44.83584" lon="4.03649">
        <ele>1012.564329</ele>
        <time>2026-08-23T16:30:19.176Z</time>
      </trkpt>
      <trkpt lat="44.83593" lon="4.03647">
        <ele>1012.967768</ele>
        <time>2026-08-23T16:30:21.172Z</time>
      </trkpt>
      <trkpt lat="44.83608" lon="4.03647">
        <ele>1013.202332</ele>
        <time>2026-08-23T16:30:24.180Z</time>
      </trkpt>
      <trkpt lat="44.8362" lon="4.03648">
        <ele>1013.144027</ele>
        <time>2026-08-23T16:30:27.178Z</time>
      </trkpt>
      <trkpt lat="44.83633" lon="4.03651">
        <ele>1013.079447</ele>
        <time>2026-08-23T16:30:30.179Z</time>
      </trkpt>
      <trkpt lat="44.83643" lon="4.03655">
        <ele>1013.03095</ele>
        <time>2026-08-23T16:30:32.169Z</time>
      </trkpt>
      <trkpt lat="44.83654" lon="4.03658">
        <ele>1012.977923</ele>
        <time>2026-08-23T16:30:35.147Z</time>
      </trkpt>
      <trkpt lat="44.83664" lon="4.0366">
        <ele>1012.929058</ele>
        <time>2026-08-23T16:30:39.173Z</time>
      </trkpt>
      <trkpt lat="44.83674" lon="4.03658">
        <ele>1012.87859</ele>
        <time>2026-08-23T16:30:42.176Z</time>
      </trkpt>
      <trkpt lat="44.83686" lon="4.0366">
        <ele>1012.820774</ele>
        <time>2026-08-23T16:30:45.178Z</time>
      </trkpt>
      <trkpt lat="44.83698" lon="4.0366">
        <ele>1012.762966</ele>
        <time>2026-08-23T16:30:48.172Z</time>
      </trkpt>
      <trkpt lat="44.83708" lon="4.0366">
        <ele>1012.71475</ele>
        <time>2026-08-23T16:30:50.169Z</time>
      </trkpt>
      <trkpt lat="44.83721" lon="4.03658">
        <ele>1012.648879</ele>
        <time>2026-08-23T16:30:53.180Z</time>
      </trkpt>
      <trkpt lat="44.83732" lon="4.03656">
        <ele>1012.596739</ele>
        <time>2026-08-23T16:30:55.174Z</time>
      </trkpt>
      <trkpt lat="44.83743" lon="4.03654">
        <ele>1012.545698</ele>
        <time>2026-08-23T16:30:57.172Z</time>
      </trkpt>
      <trkpt lat="44.83755" lon="4.03653">
        <ele>1012.487841</ele>
        <time>2026-08-23T16:30:59.169Z</time>
      </trkpt>
      <trkpt lat="44.83767" lon="4.03652">
        <ele>1012.428469</ele>
        <time>2026-08-23T16:31:01.173Z</time>
      </trkpt>
      <trkpt lat="44.8378" lon="4.03652">
        <ele>1012.303724</ele>
        <time>2026-08-23T16:31:03.172Z</time>
      </trkpt>
      <trkpt lat="44.83793" lon="4.03655">
        <ele>1011.823517</ele>
        <time>2026-08-23T16:31:05.177Z</time>
      </trkpt>
      <trkpt lat="44.83805" lon="4.03657">
        <ele>1011.375476</ele>
        <time>2026-08-23T16:31:07.168Z</time>
      </trkpt>
      <trkpt lat="44.83818" lon="4.03662">
        <ele>1010.896889</ele>
        <time>2026-08-23T16:31:09.169Z</time>
      </trkpt>
      <trkpt lat="44.83829" lon="4.03669">
        <ele>1010.441538</ele>
        <time>2026-08-23T16:31:11.176Z</time>
      </trkpt>
      <trkpt lat="44.83839" lon="4.03679">
        <ele>1010.006556</ele>
        <time>2026-08-23T16:31:13.173Z</time>
      </trkpt>
      <trkpt lat="44.83847" lon="4.03693">
        <ele>1009.529153</ele>
        <time>2026-08-23T16:31:15.170Z</time>
      </trkpt>
      <trkpt lat="44.83854" lon="4.03708">
        <ele>1009.079981</ele>
        <time>2026-08-23T16:31:17.177Z</time>
      </trkpt>
      <trkpt lat="44.83861" lon="4.03722">
        <ele>1008.626286</ele>
        <time>2026-08-23T16:31:19.177Z</time>
      </trkpt>
      <trkpt lat="44.83866" lon="4.03735">
        <ele>1008.243993</ele>
        <time>2026-08-23T16:31:21.186Z</time>
      </trkpt>
      <trkpt lat="44.83871" lon="4.03747">
        <ele>1007.892344</ele>
        <time>2026-08-23T16:31:23.176Z</time>
      </trkpt>
      <trkpt lat="44.83875" lon="4.03759">
        <ele>1007.557963</ele>
        <time>2026-08-23T16:31:25.171Z</time>
      </trkpt>
      <trkpt lat="44.83879" lon="4.0377">
        <ele>1007.216671</ele>
        <time>2026-08-23T16:31:27.177Z</time>
      </trkpt>
      <trkpt lat="44.83886" lon="4.03785">
        <ele>1006.758953</ele>
        <time>2026-08-23T16:31:30.182Z</time>
      </trkpt>
      <trkpt lat="44.83893" lon="4.038">
        <ele>1006.298745</ele>
        <time>2026-08-23T16:31:33.175Z</time>
      </trkpt>
      <trkpt lat="44.83901" lon="4.03811">
        <ele>1005.895028</ele>
        <time>2026-08-23T16:31:36.172Z</time>
      </trkpt>
      <trkpt lat="44.83912" lon="4.03819">
        <ele>1005.6518</ele>
        <time>2026-08-23T16:31:39.176Z</time>
      </trkpt>
      <trkpt lat="44.83925" lon="4.03819">
        <ele>1005.443403</ele>
        <time>2026-08-23T16:31:42.177Z</time>
      </trkpt>
      <trkpt lat="44.83934" lon="4.03815">
        <ele>1005.294127</ele>
        <time>2026-08-23T16:31:44.180Z</time>
      </trkpt>
      <trkpt lat="44.83945" lon="4.03803">
        <ele>1005.077219</ele>
        <time>2026-08-23T16:31:47.173Z</time>
      </trkpt>
      <trkpt lat="44.83951" lon="4.03794">
        <ele>1004.930475</ele>
        <time>2026-08-23T16:31:49.175Z</time>
      </trkpt>
      <trkpt lat="44.83958" lon="4.03783">
        <ele>1004.774611</ele>
        <time>2026-08-23T16:31:51.175Z</time>
      </trkpt>
      <trkpt lat="44.83964" lon="4.03773">
        <ele>1004.621055</ele>
        <time>2026-08-23T16:31:53.170Z</time>
      </trkpt>
      <trkpt lat="44.8397" lon="4.03763">
        <ele>1004.46158</ele>
        <time>2026-08-23T16:31:55.173Z</time>
      </trkpt>
      <trkpt lat="44.83978" lon="4.03751">
        <ele>1004.280156</ele>
        <time>2026-08-23T16:31:57.169Z</time>
      </trkpt>
      <trkpt lat="44.83987" lon="4.03737">
        <ele>1004.068582</ele>
        <time>2026-08-23T16:31:59.168Z</time>
      </trkpt>
      <trkpt lat="44.83997" lon="4.0372">
        <ele>1003.821888</ele>
        <time>2026-08-23T16:32:01.171Z</time>
      </trkpt>
      <trkpt lat="44.84008" lon="4.03703">
        <ele>1003.552042</ele>
        <time>2026-08-23T16:32:03.172Z</time>
      </trkpt>
      <trkpt lat="44.84021" lon="4.03692">
        <ele>1003.30491</ele>
        <time>2026-08-23T16:32:05.173Z</time>
      </trkpt>
      <trkpt lat="44.84035" lon="4.03683">
        <ele>1003.061048</ele>
        <time>2026-08-23T16:32:07.170Z</time>
      </trkpt>
      <trkpt lat="44.84049" lon="4.03674">
        <ele>1002.578791</ele>
        <time>2026-08-23T16:32:09.171Z</time>
      </trkpt>
      <trkpt lat="44.84062" lon="4.03665">
        <ele>1001.809808</ele>
        <time>2026-08-23T16:32:11.169Z</time>
      </trkpt>
      <trkpt lat="44.84074" lon="4.03655">
        <ele>1001.107872</ele>
        <time>2026-08-23T16:32:13.172Z</time>
      </trkpt>
      <trkpt lat="44.84086" lon="4.03645">
        <ele>1000.388102</ele>
        <time>2026-08-23T16:32:15.180Z</time>
      </trkpt>
      <trkpt lat="44.84098" lon="4.03638">
        <ele>999.702665</ele>
        <time>2026-08-23T16:32:17.176Z</time>
      </trkpt>
      <trkpt lat="44.84112" lon="4.03632">
        <ele>998.958324</ele>
        <time>2026-08-23T16:32:19.173Z</time>
      </trkpt>
      <trkpt lat="44.84127" lon="4.03629">
        <ele>998.192271</ele>
        <time>2026-08-23T16:32:21.174Z</time>
      </trkpt>
      <trkpt lat="44.84142" lon="4.03628">
        <ele>997.426091</ele>
        <time>2026-08-23T16:32:23.175Z</time>
      </trkpt>
      <trkpt lat="44.84157" lon="4.03628">
        <ele>996.665161</ele>
        <time>2026-08-23T16:32:25.177Z</time>
      </trkpt>
      <trkpt lat="44.84171" lon="4.03627">
        <ele>995.909254</ele>
        <time>2026-08-23T16:32:27.160Z</time>
      </trkpt>
      <trkpt lat="44.84186" lon="4.03624">
        <ele>995.152494</ele>
        <time>2026-08-23T16:32:29.146Z</time>
      </trkpt>
      <trkpt lat="44.84201" lon="4.0362">
        <ele>994.357161</ele>
        <time>2026-08-23T16:32:31.165Z</time>
      </trkpt>
      <trkpt lat="44.84215" lon="4.03613">
        <ele>993.664912</ele>
        <time>2026-08-23T16:32:33.182Z</time>
      </trkpt>
      <trkpt lat="44.84228" lon="4.03604">
        <ele>993.493933</ele>
        <time>2026-08-23T16:32:35.173Z</time>
      </trkpt>
      <trkpt lat="44.84241" lon="4.03595">
        <ele>993.325243</ele>
        <time>2026-08-23T16:32:37.180Z</time>
      </trkpt>
      <trkpt lat="44.84254" lon="4.03587">
        <ele>993.157595</ele>
        <time>2026-08-23T16:32:39.178Z</time>
      </trkpt>
      <trkpt lat="44.84266" lon="4.0358">
        <ele>992.997964</ele>
        <time>2026-08-23T16:32:41.174Z</time>
      </trkpt>
      <trkpt lat="44.84279" lon="4.03575">
        <ele>992.836724</ele>
        <time>2026-08-23T16:32:43.145Z</time>
      </trkpt>
      <trkpt lat="44.84293" lon="4.0357">
        <ele>992.670769</ele>
        <time>2026-08-23T16:32:45.175Z</time>
      </trkpt>
      <trkpt lat="44.84307" lon="4.03565">
        <ele>992.502</ele>
        <time>2026-08-23T16:32:47.152Z</time>
      </trkpt>
      <trkpt lat="44.84321" lon="4.03559">
        <ele>992.325912</ele>
        <time>2026-08-23T16:32:49.165Z</time>
      </trkpt>
      <trkpt lat="44.84334" lon="4.03549">
        <ele>992.15144</ele>
        <time>2026-08-23T16:32:51.172Z</time>
      </trkpt>
      <trkpt lat="44.84345" lon="4.03536">
        <ele>991.976541</ele>
        <time>2026-08-23T16:32:53.171Z</time>
      </trkpt>
      <trkpt lat="44.84354" lon="4.03519">
        <ele>991.803183</ele>
        <time>2026-08-23T16:32:55.177Z</time>
      </trkpt>
      <trkpt lat="44.84362" lon="4.03506">
        <ele>991.651103</ele>
        <time>2026-08-23T16:32:57.181Z</time>
      </trkpt>
      <trkpt lat="44.84372" lon="4.03493">
        <ele>991.662732</ele>
        <time>2026-08-23T16:32:59.178Z</time>
      </trkpt>
      <trkpt lat="44.84383" lon="4.03483">
        <ele>991.925457</ele>
        <time>2026-08-23T16:33:01.177Z</time>
      </trkpt>
      <trkpt lat="44.84393" lon="4.03473">
        <ele>992.182514</ele>
        <time>2026-08-23T16:33:03.173Z</time>
      </trkpt>
      <trkpt lat="44.84406" lon="4.03466">
        <ele>992.457792</ele>
        <time>2026-08-23T16:33:05.130Z</time>
      </trkpt>
      <trkpt lat="44.84419" lon="4.03462">
        <ele>992.729783</ele>
        <time>2026-08-23T16:33:07.173Z</time>
      </trkpt>
      <trkpt lat="44.84431" lon="4.03457">
        <ele>992.986729</ele>
        <time>2026-08-23T16:33:09.170Z</time>
      </trkpt>
      <trkpt lat="44.84442" lon="4.0345">
        <ele>993.240306</ele>
        <time>2026-08-23T16:33:11.176Z</time>
      </trkpt>
      <trkpt lat="44.84455" lon="4.03444">
        <ele>993.509644</ele>
        <time>2026-08-23T16:33:13.173Z</time>
      </trkpt>
      <trkpt lat="44.84465" lon="4.03436">
        <ele>993.746738</ele>
        <time>2026-08-23T16:33:15.171Z</time>
      </trkpt>
      <trkpt lat="44.84475" lon="4.03429">
        <ele>993.986988</ele>
        <time>2026-08-23T16:33:17.135Z</time>
      </trkpt>
      <trkpt lat="44.84483" lon="4.03418">
        <ele>994.206372</ele>
        <time>2026-08-23T16:33:19.168Z</time>
      </trkpt>
      <trkpt lat="44.84487" lon="4.03405">
        <ele>994.422856</ele>
        <time>2026-08-23T16:33:21.172Z</time>
      </trkpt>
      <trkpt lat="44.84489" lon="4.0339">
        <ele>994.634709</ele>
        <time>2026-08-23T16:33:23.170Z</time>
      </trkpt>
      <trkpt lat="44.84488" lon="4.03376">
        <ele>994.842323</ele>
        <time>2026-08-23T16:33:25.171Z</time>
      </trkpt>
      <trkpt lat="44.84487" lon="4.03361">
        <ele>995.055605</ele>
        <time>2026-08-23T16:33:27.170Z</time>
      </trkpt>
      <trkpt lat="44.84482" lon="4.03349">
        <ele>995.238043</ele>
        <time>2026-08-23T16:33:29.175Z</time>
      </trkpt>
      <trkpt lat="44.84473" lon="4.03336">
        <ele>995.272835</ele>
        <time>2026-08-23T16:33:32.173Z</time>
      </trkpt>
      <trkpt lat="44.84464" lon="4.03324">
        <ele>995.307209</ele>
        <time>2026-08-23T16:33:35.176Z</time>
      </trkpt>
      <trkpt lat="44.84454" lon="4.03314">
        <ele>995.340627</ele>
        <time>2026-08-23T16:33:38.177Z</time>
      </trkpt>
      <trkpt lat="44.84444" lon="4.03303">
        <ele>995.375146</ele>
        <time>2026-08-23T16:33:41.169Z</time>
      </trkpt>
      <trkpt lat="44.84435" lon="4.03294">
        <ele>995.405343</ele>
        <time>2026-08-23T16:33:44.180Z</time>
      </trkpt>
      <trkpt lat="44.84426" lon="4.03283">
        <ele>995.437145</ele>
        <time>2026-08-23T16:33:47.171Z</time>
      </trkpt>
      <trkpt lat="44.84416" lon="4.03273">
        <ele>995.469771</ele>
        <time>2026-08-23T16:33:50.176Z</time>
      </trkpt>
      <trkpt lat="44.84407" lon="4.03264">
        <ele>995.500506</ele>
        <time>2026-08-23T16:33:53.173Z</time>
      </trkpt>
      <trkpt lat="44.84398" lon="4.03252">
        <ele>995.534475</ele>
        <time>2026-08-23T16:33:56.174Z</time>
      </trkpt>
      <trkpt lat="44.84387" lon="4.03242">
        <ele>995.568321</ele>
        <time>2026-08-23T16:33:59.169Z</time>
      </trkpt>
      <trkpt lat="44.84376" lon="4.03232">
        <ele>995.604174</ele>
        <time>2026-08-23T16:34:02.173Z</time>
      </trkpt>
      <trkpt lat="44.84365" lon="4.03224">
        <ele>995.638007</ele>
        <time>2026-08-23T16:34:05.173Z</time>
      </trkpt>
      <trkpt lat="44.84355" lon="4.0322">
        <ele>995.667085</ele>
        <time>2026-08-23T16:34:08.181Z</time>
      </trkpt>
      <trkpt lat="44.84344" lon="4.03211">
        <ele>995.701382</ele>
        <time>2026-08-23T16:34:11.176Z</time>
      </trkpt>
      <trkpt lat="44.84334" lon="4.03204">
        <ele>995.723711</ele>
        <time>2026-08-23T16:34:14.172Z</time>
      </trkpt>
      <trkpt lat="44.84324" lon="4.03197">
        <ele>995.723711</ele>
        <time>2026-08-23T16:34:17.178Z</time>
      </trkpt>
      <trkpt lat="44.84312" lon="4.03193">
        <ele>995.723711</ele>
        <time>2026-08-23T16:34:20.175Z</time>
      </trkpt>
      <trkpt lat="44.84299" lon="4.03191">
        <ele>995.723711</ele>
        <time>2026-08-23T16:34:23.176Z</time>
      </trkpt>
      <trkpt lat="44.84287" lon="4.03194">
        <ele>995.723711</ele>
        <time>2026-08-23T16:34:26.189Z</time>
      </trkpt>
      <trkpt lat="44.84276" lon="4.03192">
        <ele>995.723711</ele>
        <time>2026-08-23T16:34:29.168Z</time>
      </trkpt>
      <trkpt lat="44.84266" lon="4.0319">
        <ele>995.723711</ele>
        <time>2026-08-23T16:34:31.175Z</time>
      </trkpt>
      <trkpt lat="44.84257" lon="4.03192">
        <ele>995.723711</ele>
        <time>2026-08-23T16:34:33.175Z</time>
      </trkpt>
      <trkpt lat="44.84245" lon="4.03195">
        <ele>995.723711</ele>
        <time>2026-08-23T16:34:36.176Z</time>
      </trkpt>
      <trkpt lat="44.84234" lon="4.03196">
        <ele>995.723711</ele>
        <time>2026-08-23T16:34:39.172Z</time>
      </trkpt>
      <trkpt lat="44.84223" lon="4.03197">
        <ele>995.723711</ele>
        <time>2026-08-23T16:34:42.171Z</time>
      </trkpt>
      <trkpt lat="44.84212" lon="4.03197">
        <ele>995.723711</ele>
        <time>2026-08-23T16:34:46.179Z</time>
      </trkpt>
      <trkpt lat="44.84204" lon="4.03186">
        <ele>995.723711</ele>
        <time>2026-08-23T16:34:49.172Z</time>
      </trkpt>
      <trkpt lat="44.84202" lon="4.03171">
        <ele>995.723711</ele>
        <time>2026-08-23T16:34:53.174Z</time>
      </trkpt>
      <trkpt lat="44.84203" lon="4.03156">
        <ele>995.723711</ele>
        <time>2026-08-23T16:34:58.145Z</time>
      </trkpt>
      <trkpt lat="44.842" lon="4.03143">
        <ele>995.723711</ele>
        <time>2026-08-23T16:35:04.179Z</time>
      </trkpt>
      <trkpt lat="44.84196" lon="4.03137">
        <ele>995.723711</ele>
        <time>2026-08-23T16:36:27.208Z</time>
      </trkpt>
    </trkseg>
  </trk>
</gpx>